<?xml version="1.0" encoding="UTF-8" standalone="no" ?>
<gpx xmlns="http://www.topografix.com/GPX/1/1" xmlns:xsi="http://www.w3.org/2001/XMLSchema-instance" xsi:schemaLocation="http://www.topografix.com/GPX/1/1 http://www.topografix.com/GPX/1/1/gpx.xsd" version="1.1" creator="VisuGPX - https://www.visugpx.com">
  <metadata>
    <name>Equestival cavaliers samedi 23 juil</name>
    <desc><![CDATA[au départ de Usson en Forez]]></desc>
  </metadata>
  <trk>
    <name><![CDATA[Equestival cavalierssamedi 23 juil]]></name>
    <extensions>
      <line xmlns="http://www.topografix.com/GPX/gpx_style/0/2">
        <color>0000FF</color>
        <width>4</width>
      </line>
    </extensions>
    <trkseg>
      <trkpt lat="45.388" lon="3.9541">
        <ele>918</ele>
        <time>2022-06-29T08:18:26Z</time>
      </trkpt>
      <trkpt lat="45.38799" lon="3.9541">
        <ele>918</ele>
        <time>2022-06-29T08:18:27Z</time>
      </trkpt>
      <trkpt lat="45.38795" lon="3.95407">
        <ele>918</ele>
        <time>2022-06-29T08:18:32Z</time>
      </trkpt>
      <trkpt lat="45.38789" lon="3.95407">
        <ele>918</ele>
        <time>2022-06-29T08:18:36Z</time>
      </trkpt>
      <trkpt lat="45.38785" lon="3.95404">
        <ele>918</ele>
        <time>2022-06-29T08:18:41Z</time>
      </trkpt>
      <trkpt lat="45.38785" lon="3.95402">
        <ele>914</ele>
        <time>2022-06-29T08:19:32Z</time>
      </trkpt>
      <trkpt lat="45.38784" lon="3.95402">
        <ele>914</ele>
        <time>2022-06-29T08:19:37Z</time>
      </trkpt>
      <trkpt lat="45.38783" lon="3.95402">
        <ele>914</ele>
        <time>2022-06-29T08:19:42Z</time>
      </trkpt>
      <trkpt lat="45.38783" lon="3.95403">
        <ele>914</ele>
        <time>2022-06-29T08:19:46Z</time>
      </trkpt>
      <trkpt lat="45.38775" lon="3.95404">
        <ele>918</ele>
        <time>2022-06-29T08:19:51Z</time>
      </trkpt>
      <trkpt lat="45.38768" lon="3.95404">
        <ele>918</ele>
        <time>2022-06-29T08:19:55Z</time>
      </trkpt>
      <trkpt lat="45.38764" lon="3.95405">
        <ele>918</ele>
        <time>2022-06-29T08:19:59Z</time>
      </trkpt>
      <trkpt lat="45.38759" lon="3.95406">
        <ele>918</ele>
        <time>2022-06-29T08:20:04Z</time>
      </trkpt>
      <trkpt lat="45.38755" lon="3.95408">
        <ele>918</ele>
        <time>2022-06-29T08:20:08Z</time>
      </trkpt>
      <trkpt lat="45.38747" lon="3.95411">
        <ele>918</ele>
        <time>2022-06-29T08:20:13Z</time>
      </trkpt>
      <trkpt lat="45.38741" lon="3.95413">
        <ele>918</ele>
        <time>2022-06-29T08:20:17Z</time>
      </trkpt>
      <trkpt lat="45.38734" lon="3.95414">
        <ele>918</ele>
        <time>2022-06-29T08:20:22Z</time>
      </trkpt>
      <trkpt lat="45.38727" lon="3.95416">
        <ele>918</ele>
        <time>2022-06-29T08:20:27Z</time>
      </trkpt>
      <trkpt lat="45.3872" lon="3.95417">
        <ele>918</ele>
        <time>2022-06-29T08:20:32Z</time>
      </trkpt>
      <trkpt lat="45.38715" lon="3.95417">
        <ele>918</ele>
        <time>2022-06-29T08:20:36Z</time>
      </trkpt>
      <trkpt lat="45.38708" lon="3.95419">
        <ele>918</ele>
        <time>2022-06-29T08:20:41Z</time>
      </trkpt>
      <trkpt lat="45.38701" lon="3.9542">
        <ele>916</ele>
        <time>2022-06-29T08:20:46Z</time>
      </trkpt>
      <trkpt lat="45.38694" lon="3.9542">
        <ele>916</ele>
        <time>2022-06-29T08:20:51Z</time>
      </trkpt>
      <trkpt lat="45.38686" lon="3.95419">
        <ele>916</ele>
        <time>2022-06-29T08:20:56Z</time>
      </trkpt>
      <trkpt lat="45.38681" lon="3.9542">
        <ele>916</ele>
        <time>2022-06-29T08:21:00Z</time>
      </trkpt>
      <trkpt lat="45.38675" lon="3.95421">
        <ele>915</ele>
        <time>2022-06-29T08:21:05Z</time>
      </trkpt>
      <trkpt lat="45.38667" lon="3.95419">
        <ele>915</ele>
        <time>2022-06-29T08:21:10Z</time>
      </trkpt>
      <trkpt lat="45.3866" lon="3.95413">
        <ele>915</ele>
        <time>2022-06-29T08:21:15Z</time>
      </trkpt>
      <trkpt lat="45.38657" lon="3.95405">
        <ele>915</ele>
        <time>2022-06-29T08:21:19Z</time>
      </trkpt>
      <trkpt lat="45.38656" lon="3.95397">
        <ele>914</ele>
        <time>2022-06-29T08:21:23Z</time>
      </trkpt>
      <trkpt lat="45.38652" lon="3.95388">
        <ele>915</ele>
        <time>2022-06-29T08:21:28Z</time>
      </trkpt>
      <trkpt lat="45.38648" lon="3.9538">
        <ele>915</ele>
        <time>2022-06-29T08:21:33Z</time>
      </trkpt>
      <trkpt lat="45.38644" lon="3.95374">
        <ele>913</ele>
        <time>2022-06-29T08:21:37Z</time>
      </trkpt>
      <trkpt lat="45.38638" lon="3.95367">
        <ele>913</ele>
        <time>2022-06-29T08:21:42Z</time>
      </trkpt>
      <trkpt lat="45.38633" lon="3.9536">
        <ele>913</ele>
        <time>2022-06-29T08:21:46Z</time>
      </trkpt>
      <trkpt lat="45.38628" lon="3.95354">
        <ele>913</ele>
        <time>2022-06-29T08:21:51Z</time>
      </trkpt>
      <trkpt lat="45.38622" lon="3.95346">
        <ele>911</ele>
        <time>2022-06-29T08:21:56Z</time>
      </trkpt>
      <trkpt lat="45.38616" lon="3.95339">
        <ele>911</ele>
        <time>2022-06-29T08:22:01Z</time>
      </trkpt>
      <trkpt lat="45.38612" lon="3.95332">
        <ele>911</ele>
        <time>2022-06-29T08:22:06Z</time>
      </trkpt>
      <trkpt lat="45.38608" lon="3.95326">
        <ele>911</ele>
        <time>2022-06-29T08:22:11Z</time>
      </trkpt>
      <trkpt lat="45.38603" lon="3.95318">
        <ele>907</ele>
        <time>2022-06-29T08:22:16Z</time>
      </trkpt>
      <trkpt lat="45.386" lon="3.95311">
        <ele>907</ele>
        <time>2022-06-29T08:22:20Z</time>
      </trkpt>
      <trkpt lat="45.38596" lon="3.95303">
        <ele>911</ele>
        <time>2022-06-29T08:22:25Z</time>
      </trkpt>
      <trkpt lat="45.38593" lon="3.95296">
        <ele>911</ele>
        <time>2022-06-29T08:22:29Z</time>
      </trkpt>
      <trkpt lat="45.38589" lon="3.95287">
        <ele>908</ele>
        <time>2022-06-29T08:22:34Z</time>
      </trkpt>
      <trkpt lat="45.38587" lon="3.95279">
        <ele>908</ele>
        <time>2022-06-29T08:22:39Z</time>
      </trkpt>
      <trkpt lat="45.38586" lon="3.95272">
        <ele>908</ele>
        <time>2022-06-29T08:22:44Z</time>
      </trkpt>
      <trkpt lat="45.38583" lon="3.95267">
        <ele>908</ele>
        <time>2022-06-29T08:22:48Z</time>
      </trkpt>
      <trkpt lat="45.38581" lon="3.95261">
        <ele>907</ele>
        <time>2022-06-29T08:22:53Z</time>
      </trkpt>
      <trkpt lat="45.38578" lon="3.95251">
        <ele>907</ele>
        <time>2022-06-29T08:22:57Z</time>
      </trkpt>
      <trkpt lat="45.38576" lon="3.95239">
        <ele>907</ele>
        <time>2022-06-29T08:23:02Z</time>
      </trkpt>
      <trkpt lat="45.38573" lon="3.95229">
        <ele>906</ele>
        <time>2022-06-29T08:23:07Z</time>
      </trkpt>
      <trkpt lat="45.38572" lon="3.9522">
        <ele>906</ele>
        <time>2022-06-29T08:23:11Z</time>
      </trkpt>
      <trkpt lat="45.38571" lon="3.95212">
        <ele>906</ele>
        <time>2022-06-29T08:23:16Z</time>
      </trkpt>
      <trkpt lat="45.38569" lon="3.95204">
        <ele>905</ele>
        <time>2022-06-29T08:23:21Z</time>
      </trkpt>
      <trkpt lat="45.3857" lon="3.95194">
        <ele>904</ele>
        <time>2022-06-29T08:23:26Z</time>
      </trkpt>
      <trkpt lat="45.38568" lon="3.95185">
        <ele>905</ele>
        <time>2022-06-29T08:23:30Z</time>
      </trkpt>
      <trkpt lat="45.38567" lon="3.95173">
        <ele>903</ele>
        <time>2022-06-29T08:23:35Z</time>
      </trkpt>
      <trkpt lat="45.38566" lon="3.95166">
        <ele>903</ele>
        <time>2022-06-29T08:23:40Z</time>
      </trkpt>
      <trkpt lat="45.38566" lon="3.95155">
        <ele>903</ele>
        <time>2022-06-29T08:23:45Z</time>
      </trkpt>
      <trkpt lat="45.38567" lon="3.95143">
        <ele>903</ele>
        <time>2022-06-29T08:23:50Z</time>
      </trkpt>
      <trkpt lat="45.38567" lon="3.95133">
        <ele>903</ele>
        <time>2022-06-29T08:23:55Z</time>
      </trkpt>
      <trkpt lat="45.38565" lon="3.95119">
        <ele>900</ele>
        <time>2022-06-29T08:24:00Z</time>
      </trkpt>
      <trkpt lat="45.38564" lon="3.95106">
        <ele>900</ele>
        <time>2022-06-29T08:24:05Z</time>
      </trkpt>
      <trkpt lat="45.38563" lon="3.95098">
        <ele>900</ele>
        <time>2022-06-29T08:24:09Z</time>
      </trkpt>
      <trkpt lat="45.38563" lon="3.95096">
        <ele>896</ele>
        <time>2022-06-29T08:24:14Z</time>
      </trkpt>
      <trkpt lat="45.3856" lon="3.95089">
        <ele>896</ele>
        <time>2022-06-29T08:24:18Z</time>
      </trkpt>
      <trkpt lat="45.38559" lon="3.95081">
        <ele>896</ele>
        <time>2022-06-29T08:24:23Z</time>
      </trkpt>
      <trkpt lat="45.38557" lon="3.95072">
        <ele>896</ele>
        <time>2022-06-29T08:24:28Z</time>
      </trkpt>
      <trkpt lat="45.38554" lon="3.95065">
        <ele>891</ele>
        <time>2022-06-29T08:24:32Z</time>
      </trkpt>
      <trkpt lat="45.38548" lon="3.95058">
        <ele>891</ele>
        <time>2022-06-29T08:24:37Z</time>
      </trkpt>
      <trkpt lat="45.38543" lon="3.9505">
        <ele>891</ele>
        <time>2022-06-29T08:24:42Z</time>
      </trkpt>
      <trkpt lat="45.38539" lon="3.95043">
        <ele>894</ele>
        <time>2022-06-29T08:24:46Z</time>
      </trkpt>
      <trkpt lat="45.38534" lon="3.95035">
        <ele>891</ele>
        <time>2022-06-29T08:24:51Z</time>
      </trkpt>
      <trkpt lat="45.38528" lon="3.95027">
        <ele>891</ele>
        <time>2022-06-29T08:24:55Z</time>
      </trkpt>
      <trkpt lat="45.38524" lon="3.95019">
        <ele>891</ele>
        <time>2022-06-29T08:25:00Z</time>
      </trkpt>
      <trkpt lat="45.3852" lon="3.9501">
        <ele>891</ele>
        <time>2022-06-29T08:25:04Z</time>
      </trkpt>
      <trkpt lat="45.38517" lon="3.95002">
        <ele>891</ele>
        <time>2022-06-29T08:25:09Z</time>
      </trkpt>
      <trkpt lat="45.38512" lon="3.94994">
        <ele>891</ele>
        <time>2022-06-29T08:25:13Z</time>
      </trkpt>
      <trkpt lat="45.38505" lon="3.94988">
        <ele>891</ele>
        <time>2022-06-29T08:25:18Z</time>
      </trkpt>
      <trkpt lat="45.385" lon="3.9498">
        <ele>890</ele>
        <time>2022-06-29T08:25:23Z</time>
      </trkpt>
      <trkpt lat="45.38493" lon="3.94971">
        <ele>890</ele>
        <time>2022-06-29T08:25:28Z</time>
      </trkpt>
      <trkpt lat="45.38488" lon="3.94966">
        <ele>890</ele>
        <time>2022-06-29T08:25:33Z</time>
      </trkpt>
      <trkpt lat="45.38484" lon="3.9496">
        <ele>892</ele>
        <time>2022-06-29T08:25:38Z</time>
      </trkpt>
      <trkpt lat="45.3848" lon="3.94955">
        <ele>891</ele>
        <time>2022-06-29T08:25:42Z</time>
      </trkpt>
      <trkpt lat="45.38476" lon="3.94951">
        <ele>891</ele>
        <time>2022-06-29T08:25:46Z</time>
      </trkpt>
      <trkpt lat="45.38469" lon="3.94946">
        <ele>891</ele>
        <time>2022-06-29T08:25:51Z</time>
      </trkpt>
      <trkpt lat="45.38461" lon="3.94939">
        <ele>891</ele>
        <time>2022-06-29T08:25:56Z</time>
      </trkpt>
      <trkpt lat="45.38454" lon="3.94933">
        <ele>892</ele>
        <time>2022-06-29T08:26:01Z</time>
      </trkpt>
      <trkpt lat="45.3845" lon="3.94928">
        <ele>891</ele>
        <time>2022-06-29T08:26:05Z</time>
      </trkpt>
      <trkpt lat="45.38446" lon="3.94921">
        <ele>891</ele>
        <time>2022-06-29T08:26:10Z</time>
      </trkpt>
      <trkpt lat="45.38443" lon="3.94914">
        <ele>891</ele>
        <time>2022-06-29T08:26:15Z</time>
      </trkpt>
      <trkpt lat="45.38441" lon="3.94909">
        <ele>891</ele>
        <time>2022-06-29T08:26:19Z</time>
      </trkpt>
      <trkpt lat="45.38437" lon="3.94901">
        <ele>890</ele>
        <time>2022-06-29T08:26:24Z</time>
      </trkpt>
      <trkpt lat="45.38433" lon="3.94894">
        <ele>890</ele>
        <time>2022-06-29T08:26:29Z</time>
      </trkpt>
      <trkpt lat="45.3843" lon="3.94888">
        <ele>894</ele>
        <time>2022-06-29T08:26:34Z</time>
      </trkpt>
      <trkpt lat="45.38426" lon="3.94877">
        <ele>894</ele>
        <time>2022-06-29T08:26:39Z</time>
      </trkpt>
      <trkpt lat="45.38423" lon="3.94866">
        <ele>897</ele>
        <time>2022-06-29T08:26:44Z</time>
      </trkpt>
      <trkpt lat="45.3842" lon="3.94856">
        <ele>897</ele>
        <time>2022-06-29T08:26:48Z</time>
      </trkpt>
      <trkpt lat="45.38419" lon="3.94845">
        <ele>900</ele>
        <time>2022-06-29T08:26:53Z</time>
      </trkpt>
      <trkpt lat="45.38418" lon="3.94834">
        <ele>900</ele>
        <time>2022-06-29T08:26:57Z</time>
      </trkpt>
      <trkpt lat="45.38418" lon="3.94826">
        <ele>900</ele>
        <time>2022-06-29T08:27:01Z</time>
      </trkpt>
      <trkpt lat="45.38419" lon="3.94819">
        <ele>902</ele>
        <time>2022-06-29T08:27:05Z</time>
      </trkpt>
      <trkpt lat="45.38418" lon="3.94809">
        <ele>902</ele>
        <time>2022-06-29T08:27:10Z</time>
      </trkpt>
      <trkpt lat="45.38417" lon="3.94802">
        <ele>902</ele>
        <time>2022-06-29T08:27:14Z</time>
      </trkpt>
      <trkpt lat="45.38416" lon="3.9479">
        <ele>902</ele>
        <time>2022-06-29T08:27:19Z</time>
      </trkpt>
      <trkpt lat="45.38414" lon="3.94782">
        <ele>902</ele>
        <time>2022-06-29T08:27:24Z</time>
      </trkpt>
      <trkpt lat="45.38413" lon="3.94771">
        <ele>902</ele>
        <time>2022-06-29T08:27:29Z</time>
      </trkpt>
      <trkpt lat="45.38411" lon="3.94762">
        <ele>898</ele>
        <time>2022-06-29T08:27:34Z</time>
      </trkpt>
      <trkpt lat="45.3841" lon="3.94751">
        <ele>898</ele>
        <time>2022-06-29T08:27:39Z</time>
      </trkpt>
      <trkpt lat="45.38408" lon="3.94744">
        <ele>898</ele>
        <time>2022-06-29T08:27:43Z</time>
      </trkpt>
      <trkpt lat="45.38407" lon="3.94737">
        <ele>898</ele>
        <time>2022-06-29T08:27:47Z</time>
      </trkpt>
      <trkpt lat="45.38406" lon="3.9473">
        <ele>894</ele>
        <time>2022-06-29T08:27:52Z</time>
      </trkpt>
      <trkpt lat="45.38404" lon="3.94724">
        <ele>894</ele>
        <time>2022-06-29T08:27:56Z</time>
      </trkpt>
      <trkpt lat="45.38402" lon="3.94718">
        <ele>904</ele>
        <time>2022-06-29T08:28:01Z</time>
      </trkpt>
      <trkpt lat="45.384" lon="3.9471">
        <ele>904</ele>
        <time>2022-06-29T08:28:05Z</time>
      </trkpt>
      <trkpt lat="45.38398" lon="3.94706">
        <ele>901</ele>
        <time>2022-06-29T08:28:10Z</time>
      </trkpt>
      <trkpt lat="45.38394" lon="3.94696">
        <ele>901</ele>
        <time>2022-06-29T08:28:15Z</time>
      </trkpt>
      <trkpt lat="45.38394" lon="3.94694">
        <ele>901</ele>
        <time>2022-06-29T08:28:20Z</time>
      </trkpt>
      <trkpt lat="45.38393" lon="3.94691">
        <ele>901</ele>
        <time>2022-06-29T08:28:24Z</time>
      </trkpt>
      <trkpt lat="45.38391" lon="3.94679">
        <ele>898</ele>
        <time>2022-06-29T08:28:29Z</time>
      </trkpt>
      <trkpt lat="45.38387" lon="3.94669">
        <ele>898</ele>
        <time>2022-06-29T08:28:33Z</time>
      </trkpt>
      <trkpt lat="45.38382" lon="3.94658">
        <ele>898</ele>
        <time>2022-06-29T08:28:38Z</time>
      </trkpt>
      <trkpt lat="45.3838" lon="3.94648">
        <ele>897</ele>
        <time>2022-06-29T08:28:42Z</time>
      </trkpt>
      <trkpt lat="45.38377" lon="3.94638">
        <ele>897</ele>
        <time>2022-06-29T08:28:47Z</time>
      </trkpt>
      <trkpt lat="45.38376" lon="3.94627">
        <ele>897</ele>
        <time>2022-06-29T08:28:51Z</time>
      </trkpt>
      <trkpt lat="45.38373" lon="3.94614">
        <ele>901</ele>
        <time>2022-06-29T08:28:56Z</time>
      </trkpt>
      <trkpt lat="45.38371" lon="3.94608">
        <ele>901</ele>
        <time>2022-06-29T08:29:01Z</time>
      </trkpt>
      <trkpt lat="45.3837" lon="3.946">
        <ele>901</ele>
        <time>2022-06-29T08:29:05Z</time>
      </trkpt>
      <trkpt lat="45.38368" lon="3.9459">
        <ele>899</ele>
        <time>2022-06-29T08:29:10Z</time>
      </trkpt>
      <trkpt lat="45.38365" lon="3.94579">
        <ele>899</ele>
        <time>2022-06-29T08:29:15Z</time>
      </trkpt>
      <trkpt lat="45.38362" lon="3.94569">
        <ele>895</ele>
        <time>2022-06-29T08:29:20Z</time>
      </trkpt>
      <trkpt lat="45.3836" lon="3.94559">
        <ele>895</ele>
        <time>2022-06-29T08:29:25Z</time>
      </trkpt>
      <trkpt lat="45.38356" lon="3.94549">
        <ele>895</ele>
        <time>2022-06-29T08:29:30Z</time>
      </trkpt>
      <trkpt lat="45.38352" lon="3.9454">
        <ele>892</ele>
        <time>2022-06-29T08:29:35Z</time>
      </trkpt>
      <trkpt lat="45.38349" lon="3.94531">
        <ele>892</ele>
        <time>2022-06-29T08:29:40Z</time>
      </trkpt>
      <trkpt lat="45.38345" lon="3.94522">
        <ele>896</ele>
        <time>2022-06-29T08:29:45Z</time>
      </trkpt>
      <trkpt lat="45.38342" lon="3.94515">
        <ele>896</ele>
        <time>2022-06-29T08:29:49Z</time>
      </trkpt>
      <trkpt lat="45.3834" lon="3.94508">
        <ele>893</ele>
        <time>2022-06-29T08:29:53Z</time>
      </trkpt>
      <trkpt lat="45.38337" lon="3.94501">
        <ele>893</ele>
        <time>2022-06-29T08:29:57Z</time>
      </trkpt>
      <trkpt lat="45.38335" lon="3.9449">
        <ele>893</ele>
        <time>2022-06-29T08:30:02Z</time>
      </trkpt>
      <trkpt lat="45.38332" lon="3.94482">
        <ele>892</ele>
        <time>2022-06-29T08:30:06Z</time>
      </trkpt>
      <trkpt lat="45.3833" lon="3.94475">
        <ele>892</ele>
        <time>2022-06-29T08:30:11Z</time>
      </trkpt>
      <trkpt lat="45.38325" lon="3.94474">
        <ele>892</ele>
        <time>2022-06-29T08:30:15Z</time>
      </trkpt>
      <trkpt lat="45.3832" lon="3.94476">
        <ele>892</ele>
        <time>2022-06-29T08:30:19Z</time>
      </trkpt>
      <trkpt lat="45.38312" lon="3.94478">
        <ele>898</ele>
        <time>2022-06-29T08:30:24Z</time>
      </trkpt>
      <trkpt lat="45.38305" lon="3.94482">
        <ele>898</ele>
        <time>2022-06-29T08:30:29Z</time>
      </trkpt>
      <trkpt lat="45.38299" lon="3.94485">
        <ele>898</ele>
        <time>2022-06-29T08:30:33Z</time>
      </trkpt>
      <trkpt lat="45.38291" lon="3.94488">
        <ele>904</ele>
        <time>2022-06-29T08:30:38Z</time>
      </trkpt>
      <trkpt lat="45.38285" lon="3.94489">
        <ele>904</ele>
        <time>2022-06-29T08:30:42Z</time>
      </trkpt>
      <trkpt lat="45.38277" lon="3.9449">
        <ele>904</ele>
        <time>2022-06-29T08:30:47Z</time>
      </trkpt>
      <trkpt lat="45.38271" lon="3.9449">
        <ele>904</ele>
        <time>2022-06-29T08:30:51Z</time>
      </trkpt>
      <trkpt lat="45.38264" lon="3.94489">
        <ele>904</ele>
        <time>2022-06-29T08:30:56Z</time>
      </trkpt>
      <trkpt lat="45.38259" lon="3.94489">
        <ele>907</ele>
        <time>2022-06-29T08:31:00Z</time>
      </trkpt>
      <trkpt lat="45.38251" lon="3.94486">
        <ele>907</ele>
        <time>2022-06-29T08:31:05Z</time>
      </trkpt>
      <trkpt lat="45.38245" lon="3.94482">
        <ele>905</ele>
        <time>2022-06-29T08:31:10Z</time>
      </trkpt>
      <trkpt lat="45.38242" lon="3.94472">
        <ele>905</ele>
        <time>2022-06-29T08:31:15Z</time>
      </trkpt>
      <trkpt lat="45.38241" lon="3.94461">
        <ele>905</ele>
        <time>2022-06-29T08:31:20Z</time>
      </trkpt>
      <trkpt lat="45.3824" lon="3.94453">
        <ele>902</ele>
        <time>2022-06-29T08:31:24Z</time>
      </trkpt>
      <trkpt lat="45.38237" lon="3.9444">
        <ele>902</ele>
        <time>2022-06-29T08:31:29Z</time>
      </trkpt>
      <trkpt lat="45.38233" lon="3.94433">
        <ele>902</ele>
        <time>2022-06-29T08:31:33Z</time>
      </trkpt>
      <trkpt lat="45.38229" lon="3.94424">
        <ele>899</ele>
        <time>2022-06-29T08:31:38Z</time>
      </trkpt>
      <trkpt lat="45.38226" lon="3.94414">
        <ele>899</ele>
        <time>2022-06-29T08:31:43Z</time>
      </trkpt>
      <trkpt lat="45.38228" lon="3.94404">
        <ele>899</ele>
        <time>2022-06-29T08:31:48Z</time>
      </trkpt>
      <trkpt lat="45.3823" lon="3.94394">
        <ele>898</ele>
        <time>2022-06-29T08:31:53Z</time>
      </trkpt>
      <trkpt lat="45.38231" lon="3.94385">
        <ele>898</ele>
        <time>2022-06-29T08:31:58Z</time>
      </trkpt>
      <trkpt lat="45.38232" lon="3.94376">
        <ele>898</ele>
        <time>2022-06-29T08:32:03Z</time>
      </trkpt>
      <trkpt lat="45.38234" lon="3.94366">
        <ele>896</ele>
        <time>2022-06-29T08:32:08Z</time>
      </trkpt>
      <trkpt lat="45.38236" lon="3.94356">
        <ele>896</ele>
        <time>2022-06-29T08:32:13Z</time>
      </trkpt>
      <trkpt lat="45.38239" lon="3.94346">
        <ele>895</ele>
        <time>2022-06-29T08:32:18Z</time>
      </trkpt>
      <trkpt lat="45.38244" lon="3.94338">
        <ele>895</ele>
        <time>2022-06-29T08:32:23Z</time>
      </trkpt>
      <trkpt lat="45.38248" lon="3.94327">
        <ele>895</ele>
        <time>2022-06-29T08:32:28Z</time>
      </trkpt>
      <trkpt lat="45.38252" lon="3.94319">
        <ele>893</ele>
        <time>2022-06-29T08:32:33Z</time>
      </trkpt>
      <trkpt lat="45.38255" lon="3.94311">
        <ele>893</ele>
        <time>2022-06-29T08:32:38Z</time>
      </trkpt>
      <trkpt lat="45.38259" lon="3.94304">
        <ele>893</ele>
        <time>2022-06-29T08:32:43Z</time>
      </trkpt>
      <trkpt lat="45.38262" lon="3.94295">
        <ele>893</ele>
        <time>2022-06-29T08:32:48Z</time>
      </trkpt>
      <trkpt lat="45.38265" lon="3.94286">
        <ele>889</ele>
        <time>2022-06-29T08:32:52Z</time>
      </trkpt>
      <trkpt lat="45.38267" lon="3.94276">
        <ele>889</ele>
        <time>2022-06-29T08:32:57Z</time>
      </trkpt>
      <trkpt lat="45.38268" lon="3.94268">
        <ele>889</ele>
        <time>2022-06-29T08:33:01Z</time>
      </trkpt>
      <trkpt lat="45.3827" lon="3.9426">
        <ele>886</ele>
        <time>2022-06-29T08:33:05Z</time>
      </trkpt>
      <trkpt lat="45.38272" lon="3.9425">
        <ele>886</ele>
        <time>2022-06-29T08:33:10Z</time>
      </trkpt>
      <trkpt lat="45.38274" lon="3.94242">
        <ele>886</ele>
        <time>2022-06-29T08:33:14Z</time>
      </trkpt>
      <trkpt lat="45.38275" lon="3.94232">
        <ele>885</ele>
        <time>2022-06-29T08:33:19Z</time>
      </trkpt>
      <trkpt lat="45.38275" lon="3.9422">
        <ele>885</ele>
        <time>2022-06-29T08:33:24Z</time>
      </trkpt>
      <trkpt lat="45.38275" lon="3.94212">
        <ele>885</ele>
        <time>2022-06-29T08:33:28Z</time>
      </trkpt>
      <trkpt lat="45.38274" lon="3.94202">
        <ele>884</ele>
        <time>2022-06-29T08:33:33Z</time>
      </trkpt>
      <trkpt lat="45.38274" lon="3.94194">
        <ele>884</ele>
        <time>2022-06-29T08:33:37Z</time>
      </trkpt>
      <trkpt lat="45.38272" lon="3.94183">
        <ele>884</ele>
        <time>2022-06-29T08:33:42Z</time>
      </trkpt>
      <trkpt lat="45.38271" lon="3.94172">
        <ele>881</ele>
        <time>2022-06-29T08:33:47Z</time>
      </trkpt>
      <trkpt lat="45.3827" lon="3.9416">
        <ele>881</ele>
        <time>2022-06-29T08:33:52Z</time>
      </trkpt>
      <trkpt lat="45.38271" lon="3.94152">
        <ele>879</ele>
        <time>2022-06-29T08:33:56Z</time>
      </trkpt>
      <trkpt lat="45.38271" lon="3.94141">
        <ele>879</ele>
        <time>2022-06-29T08:34:01Z</time>
      </trkpt>
      <trkpt lat="45.38271" lon="3.94132">
        <ele>879</ele>
        <time>2022-06-29T08:34:05Z</time>
      </trkpt>
      <trkpt lat="45.38273" lon="3.9412">
        <ele>879</ele>
        <time>2022-06-29T08:34:10Z</time>
      </trkpt>
      <trkpt lat="45.38275" lon="3.94111">
        <ele>879</ele>
        <time>2022-06-29T08:34:14Z</time>
      </trkpt>
      <trkpt lat="45.38279" lon="3.94103">
        <ele>879</ele>
        <time>2022-06-29T08:34:19Z</time>
      </trkpt>
      <trkpt lat="45.38285" lon="3.941">
        <ele>879</ele>
        <time>2022-06-29T08:34:23Z</time>
      </trkpt>
      <trkpt lat="45.38294" lon="3.94099">
        <ele>880</ele>
        <time>2022-06-29T08:34:28Z</time>
      </trkpt>
      <trkpt lat="45.38302" lon="3.94099">
        <ele>880</ele>
        <time>2022-06-29T08:34:33Z</time>
      </trkpt>
      <trkpt lat="45.38309" lon="3.94099">
        <ele>880</ele>
        <time>2022-06-29T08:34:38Z</time>
      </trkpt>
      <trkpt lat="45.38315" lon="3.94099">
        <ele>880</ele>
        <time>2022-06-29T08:34:43Z</time>
      </trkpt>
      <trkpt lat="45.38321" lon="3.941">
        <ele>883</ele>
        <time>2022-06-29T08:34:48Z</time>
      </trkpt>
      <trkpt lat="45.38329" lon="3.94098">
        <ele>883</ele>
        <time>2022-06-29T08:34:53Z</time>
      </trkpt>
      <trkpt lat="45.38335" lon="3.94094">
        <ele>883</ele>
        <time>2022-06-29T08:34:57Z</time>
      </trkpt>
      <trkpt lat="45.3834" lon="3.9409">
        <ele>883</ele>
        <time>2022-06-29T08:35:01Z</time>
      </trkpt>
      <trkpt lat="45.38346" lon="3.94084">
        <ele>883</ele>
        <time>2022-06-29T08:35:05Z</time>
      </trkpt>
      <trkpt lat="45.38353" lon="3.94078">
        <ele>887</ele>
        <time>2022-06-29T08:35:10Z</time>
      </trkpt>
      <trkpt lat="45.38359" lon="3.94076">
        <ele>887</ele>
        <time>2022-06-29T08:35:14Z</time>
      </trkpt>
      <trkpt lat="45.38367" lon="3.94077">
        <ele>887</ele>
        <time>2022-06-29T08:35:19Z</time>
      </trkpt>
      <trkpt lat="45.38375" lon="3.94079">
        <ele>887</ele>
        <time>2022-06-29T08:35:24Z</time>
      </trkpt>
      <trkpt lat="45.38383" lon="3.94082">
        <ele>891</ele>
        <time>2022-06-29T08:35:29Z</time>
      </trkpt>
      <trkpt lat="45.38389" lon="3.94084">
        <ele>891</ele>
        <time>2022-06-29T08:35:33Z</time>
      </trkpt>
      <trkpt lat="45.38397" lon="3.94084">
        <ele>891</ele>
        <time>2022-06-29T08:35:38Z</time>
      </trkpt>
      <trkpt lat="45.38405" lon="3.94084">
        <ele>893</ele>
        <time>2022-06-29T08:35:43Z</time>
      </trkpt>
      <trkpt lat="45.38412" lon="3.94079">
        <ele>893</ele>
        <time>2022-06-29T08:35:48Z</time>
      </trkpt>
      <trkpt lat="45.38419" lon="3.94074">
        <ele>893</ele>
        <time>2022-06-29T08:35:53Z</time>
      </trkpt>
      <trkpt lat="45.38424" lon="3.94069">
        <ele>893</ele>
        <time>2022-06-29T08:35:57Z</time>
      </trkpt>
      <trkpt lat="45.3843" lon="3.94062">
        <ele>893</ele>
        <time>2022-06-29T08:36:02Z</time>
      </trkpt>
      <trkpt lat="45.38435" lon="3.94057">
        <ele>895</ele>
        <time>2022-06-29T08:36:06Z</time>
      </trkpt>
      <trkpt lat="45.3844" lon="3.94052">
        <ele>895</ele>
        <time>2022-06-29T08:36:10Z</time>
      </trkpt>
      <trkpt lat="45.38446" lon="3.94044">
        <ele>895</ele>
        <time>2022-06-29T08:36:15Z</time>
      </trkpt>
      <trkpt lat="45.38451" lon="3.94038">
        <ele>895</ele>
        <time>2022-06-29T08:36:19Z</time>
      </trkpt>
      <trkpt lat="45.38459" lon="3.94032">
        <ele>897</ele>
        <time>2022-06-29T08:36:24Z</time>
      </trkpt>
      <trkpt lat="45.38466" lon="3.94027">
        <ele>897</ele>
        <time>2022-06-29T08:36:29Z</time>
      </trkpt>
      <trkpt lat="45.38472" lon="3.94023">
        <ele>897</ele>
        <time>2022-06-29T08:36:33Z</time>
      </trkpt>
      <trkpt lat="45.38477" lon="3.94019">
        <ele>897</ele>
        <time>2022-06-29T08:36:37Z</time>
      </trkpt>
      <trkpt lat="45.38483" lon="3.94013">
        <ele>898</ele>
        <time>2022-06-29T08:36:42Z</time>
      </trkpt>
      <trkpt lat="45.38489" lon="3.94009">
        <ele>900</ele>
        <time>2022-06-29T08:36:46Z</time>
      </trkpt>
      <trkpt lat="45.38496" lon="3.94003">
        <ele>900</ele>
        <time>2022-06-29T08:36:51Z</time>
      </trkpt>
      <trkpt lat="45.38499" lon="3.93991">
        <ele>900</ele>
        <time>2022-06-29T08:36:56Z</time>
      </trkpt>
      <trkpt lat="45.38501" lon="3.9398">
        <ele>900</ele>
        <time>2022-06-29T08:37:01Z</time>
      </trkpt>
      <trkpt lat="45.385" lon="3.93971">
        <ele>900</ele>
        <time>2022-06-29T08:37:05Z</time>
      </trkpt>
      <trkpt lat="45.385" lon="3.93962">
        <ele>900</ele>
        <time>2022-06-29T08:37:10Z</time>
      </trkpt>
      <trkpt lat="45.385" lon="3.9395">
        <ele>899</ele>
        <time>2022-06-29T08:37:15Z</time>
      </trkpt>
      <trkpt lat="45.38501" lon="3.9394">
        <ele>899</ele>
        <time>2022-06-29T08:37:20Z</time>
      </trkpt>
      <trkpt lat="45.385" lon="3.93929">
        <ele>897</ele>
        <time>2022-06-29T08:37:25Z</time>
      </trkpt>
      <trkpt lat="45.385" lon="3.93919">
        <ele>897</ele>
        <time>2022-06-29T08:37:30Z</time>
      </trkpt>
      <trkpt lat="45.385" lon="3.93908">
        <ele>897</ele>
        <time>2022-06-29T08:37:35Z</time>
      </trkpt>
      <trkpt lat="45.38497" lon="3.93898">
        <ele>895</ele>
        <time>2022-06-29T08:37:40Z</time>
      </trkpt>
      <trkpt lat="45.38493" lon="3.93892">
        <ele>895</ele>
        <time>2022-06-29T08:37:44Z</time>
      </trkpt>
      <trkpt lat="45.38489" lon="3.93886">
        <ele>895</ele>
        <time>2022-06-29T08:37:48Z</time>
      </trkpt>
      <trkpt lat="45.38482" lon="3.93882">
        <ele>893</ele>
        <time>2022-06-29T08:37:53Z</time>
      </trkpt>
      <trkpt lat="45.38474" lon="3.9388">
        <ele>893</ele>
        <time>2022-06-29T08:37:58Z</time>
      </trkpt>
      <trkpt lat="45.38466" lon="3.93879">
        <ele>893</ele>
        <time>2022-06-29T08:38:03Z</time>
      </trkpt>
      <trkpt lat="45.3846" lon="3.93877">
        <ele>893</ele>
        <time>2022-06-29T08:38:07Z</time>
      </trkpt>
      <trkpt lat="45.38454" lon="3.93876">
        <ele>892</ele>
        <time>2022-06-29T08:38:11Z</time>
      </trkpt>
      <trkpt lat="45.38446" lon="3.93873">
        <ele>892</ele>
        <time>2022-06-29T08:38:16Z</time>
      </trkpt>
      <trkpt lat="45.38439" lon="3.93868">
        <ele>892</ele>
        <time>2022-06-29T08:38:21Z</time>
      </trkpt>
      <trkpt lat="45.38434" lon="3.93863">
        <ele>892</ele>
        <time>2022-06-29T08:38:25Z</time>
      </trkpt>
      <trkpt lat="45.38428" lon="3.93859">
        <ele>889</ele>
        <time>2022-06-29T08:38:29Z</time>
      </trkpt>
      <trkpt lat="45.38421" lon="3.93852">
        <ele>889</ele>
        <time>2022-06-29T08:38:34Z</time>
      </trkpt>
      <trkpt lat="45.38414" lon="3.93846">
        <ele>889</ele>
        <time>2022-06-29T08:38:39Z</time>
      </trkpt>
      <trkpt lat="45.38407" lon="3.9384">
        <ele>889</ele>
        <time>2022-06-29T08:38:44Z</time>
      </trkpt>
      <trkpt lat="45.38401" lon="3.93833">
        <ele>886</ele>
        <time>2022-06-29T08:38:49Z</time>
      </trkpt>
      <trkpt lat="45.38395" lon="3.93825">
        <ele>886</ele>
        <time>2022-06-29T08:38:54Z</time>
      </trkpt>
      <trkpt lat="45.3839" lon="3.93817">
        <ele>887</ele>
        <time>2022-06-29T08:38:59Z</time>
      </trkpt>
      <trkpt lat="45.38385" lon="3.93811">
        <ele>887</ele>
        <time>2022-06-29T08:39:03Z</time>
      </trkpt>
      <trkpt lat="45.38379" lon="3.93803">
        <ele>887</ele>
        <time>2022-06-29T08:39:08Z</time>
      </trkpt>
      <trkpt lat="45.38372" lon="3.93795">
        <ele>885</ele>
        <time>2022-06-29T08:39:13Z</time>
      </trkpt>
      <trkpt lat="45.38368" lon="3.9379">
        <ele>885</ele>
        <time>2022-06-29T08:39:17Z</time>
      </trkpt>
      <trkpt lat="45.3836" lon="3.93784">
        <ele>885</ele>
        <time>2022-06-29T08:39:22Z</time>
      </trkpt>
      <trkpt lat="45.38353" lon="3.93777">
        <ele>885</ele>
        <time>2022-06-29T08:39:27Z</time>
      </trkpt>
      <trkpt lat="45.38347" lon="3.93772">
        <ele>885</ele>
        <time>2022-06-29T08:39:31Z</time>
      </trkpt>
      <trkpt lat="45.38342" lon="3.93766">
        <ele>883</ele>
        <time>2022-06-29T08:39:35Z</time>
      </trkpt>
      <trkpt lat="45.38338" lon="3.93763">
        <ele>883</ele>
        <time>2022-06-29T08:39:40Z</time>
      </trkpt>
      <trkpt lat="45.38334" lon="3.93759">
        <ele>883</ele>
        <time>2022-06-29T08:39:45Z</time>
      </trkpt>
      <trkpt lat="45.38329" lon="3.93755">
        <ele>883</ele>
        <time>2022-06-29T08:39:49Z</time>
      </trkpt>
      <trkpt lat="45.38322" lon="3.93749">
        <ele>883</ele>
        <time>2022-06-29T08:39:54Z</time>
      </trkpt>
      <trkpt lat="45.38317" lon="3.93745">
        <ele>881</ele>
        <time>2022-06-29T08:39:58Z</time>
      </trkpt>
      <trkpt lat="45.38309" lon="3.93739">
        <ele>881</ele>
        <time>2022-06-29T08:40:03Z</time>
      </trkpt>
      <trkpt lat="45.38303" lon="3.93736">
        <ele>881</ele>
        <time>2022-06-29T08:40:07Z</time>
      </trkpt>
      <trkpt lat="45.38298" lon="3.93731">
        <ele>881</ele>
        <time>2022-06-29T08:40:11Z</time>
      </trkpt>
      <trkpt lat="45.38291" lon="3.93725">
        <ele>881</ele>
        <time>2022-06-29T08:40:16Z</time>
      </trkpt>
      <trkpt lat="45.38284" lon="3.9372">
        <ele>881</ele>
        <time>2022-06-29T08:40:21Z</time>
      </trkpt>
      <trkpt lat="45.38277" lon="3.93713">
        <ele>881</ele>
        <time>2022-06-29T08:40:26Z</time>
      </trkpt>
      <trkpt lat="45.38271" lon="3.93707">
        <ele>881</ele>
        <time>2022-06-29T08:40:31Z</time>
      </trkpt>
      <trkpt lat="45.38266" lon="3.93701">
        <ele>881</ele>
        <time>2022-06-29T08:40:35Z</time>
      </trkpt>
      <trkpt lat="45.38261" lon="3.93695">
        <ele>880</ele>
        <time>2022-06-29T08:40:39Z</time>
      </trkpt>
      <trkpt lat="45.38256" lon="3.93686">
        <ele>880</ele>
        <time>2022-06-29T08:40:44Z</time>
      </trkpt>
      <trkpt lat="45.38251" lon="3.93678">
        <ele>879</ele>
        <time>2022-06-29T08:40:49Z</time>
      </trkpt>
      <trkpt lat="45.38247" lon="3.93671">
        <ele>879</ele>
        <time>2022-06-29T08:40:53Z</time>
      </trkpt>
      <trkpt lat="45.38243" lon="3.93661">
        <ele>879</ele>
        <time>2022-06-29T08:40:58Z</time>
      </trkpt>
      <trkpt lat="45.3824" lon="3.9365">
        <ele>878</ele>
        <time>2022-06-29T08:41:03Z</time>
      </trkpt>
      <trkpt lat="45.3824" lon="3.93638">
        <ele>878</ele>
        <time>2022-06-29T08:41:08Z</time>
      </trkpt>
      <trkpt lat="45.38244" lon="3.93628">
        <ele>878</ele>
        <time>2022-06-29T08:41:13Z</time>
      </trkpt>
      <trkpt lat="45.38246" lon="3.9362">
        <ele>878</ele>
        <time>2022-06-29T08:41:17Z</time>
      </trkpt>
      <trkpt lat="45.38248" lon="3.93608">
        <ele>878</ele>
        <time>2022-06-29T08:41:22Z</time>
      </trkpt>
      <trkpt lat="45.38249" lon="3.93599">
        <ele>878</ele>
        <time>2022-06-29T08:41:26Z</time>
      </trkpt>
      <trkpt lat="45.38252" lon="3.9359">
        <ele>878</ele>
        <time>2022-06-29T08:41:30Z</time>
      </trkpt>
      <trkpt lat="45.38257" lon="3.93582">
        <ele>878</ele>
        <time>2022-06-29T08:41:35Z</time>
      </trkpt>
      <trkpt lat="45.3826" lon="3.93572">
        <ele>878</ele>
        <time>2022-06-29T08:41:40Z</time>
      </trkpt>
      <trkpt lat="45.38262" lon="3.93564">
        <ele>878</ele>
        <time>2022-06-29T08:41:44Z</time>
      </trkpt>
      <trkpt lat="45.38265" lon="3.93553">
        <ele>877</ele>
        <time>2022-06-29T08:41:49Z</time>
      </trkpt>
      <trkpt lat="45.38269" lon="3.93543">
        <ele>877</ele>
        <time>2022-06-29T08:41:54Z</time>
      </trkpt>
      <trkpt lat="45.38273" lon="3.93534">
        <ele>878</ele>
        <time>2022-06-29T08:41:59Z</time>
      </trkpt>
      <trkpt lat="45.38276" lon="3.93525">
        <ele>878</ele>
        <time>2022-06-29T08:42:03Z</time>
      </trkpt>
      <trkpt lat="45.38278" lon="3.93515">
        <ele>878</ele>
        <time>2022-06-29T08:42:08Z</time>
      </trkpt>
      <trkpt lat="45.38283" lon="3.93496">
        <ele>878</ele>
        <time>2022-06-29T08:42:13Z</time>
      </trkpt>
      <trkpt lat="45.38286" lon="3.93486">
        <ele>880</ele>
        <time>2022-06-29T08:42:17Z</time>
      </trkpt>
      <trkpt lat="45.38289" lon="3.93477">
        <ele>880</ele>
        <time>2022-06-29T08:42:21Z</time>
      </trkpt>
      <trkpt lat="45.38292" lon="3.93466">
        <ele>880</ele>
        <time>2022-06-29T08:42:26Z</time>
      </trkpt>
      <trkpt lat="45.38296" lon="3.93454">
        <ele>882</ele>
        <time>2022-06-29T08:42:31Z</time>
      </trkpt>
      <trkpt lat="45.38299" lon="3.93444">
        <ele>882</ele>
        <time>2022-06-29T08:42:36Z</time>
      </trkpt>
      <trkpt lat="45.38303" lon="3.93434">
        <ele>882</ele>
        <time>2022-06-29T08:42:41Z</time>
      </trkpt>
      <trkpt lat="45.38304" lon="3.93427">
        <ele>884</ele>
        <time>2022-06-29T08:42:45Z</time>
      </trkpt>
      <trkpt lat="45.38303" lon="3.93424">
        <ele>884</ele>
        <time>2022-06-29T08:42:50Z</time>
      </trkpt>
      <trkpt lat="45.38303" lon="3.93424">
        <ele>884</ele>
        <time>2022-06-29T08:43:30Z</time>
      </trkpt>
      <trkpt lat="45.38303" lon="3.93423">
        <ele>884</ele>
        <time>2022-06-29T08:43:34Z</time>
      </trkpt>
      <trkpt lat="45.38306" lon="3.93415">
        <ele>884</ele>
        <time>2022-06-29T08:43:39Z</time>
      </trkpt>
      <trkpt lat="45.38306" lon="3.93404">
        <ele>884</ele>
        <time>2022-06-29T08:43:44Z</time>
      </trkpt>
      <trkpt lat="45.38302" lon="3.93394">
        <ele>886</ele>
        <time>2022-06-29T08:43:49Z</time>
      </trkpt>
      <trkpt lat="45.38298" lon="3.93387">
        <ele>886</ele>
        <time>2022-06-29T08:43:53Z</time>
      </trkpt>
      <trkpt lat="45.38293" lon="3.9338">
        <ele>886</ele>
        <time>2022-06-29T08:43:58Z</time>
      </trkpt>
      <trkpt lat="45.38288" lon="3.93371">
        <ele>887</ele>
        <time>2022-06-29T08:44:03Z</time>
      </trkpt>
      <trkpt lat="45.38285" lon="3.93364">
        <ele>887</ele>
        <time>2022-06-29T08:44:07Z</time>
      </trkpt>
      <trkpt lat="45.38284" lon="3.93353">
        <ele>887</ele>
        <time>2022-06-29T08:44:12Z</time>
      </trkpt>
      <trkpt lat="45.38284" lon="3.93342">
        <ele>889</ele>
        <time>2022-06-29T08:44:17Z</time>
      </trkpt>
      <trkpt lat="45.38284" lon="3.93332">
        <ele>889</ele>
        <time>2022-06-29T08:44:21Z</time>
      </trkpt>
      <trkpt lat="45.38284" lon="3.93322">
        <ele>889</ele>
        <time>2022-06-29T08:44:26Z</time>
      </trkpt>
      <trkpt lat="45.38286" lon="3.93306">
        <ele>891</ele>
        <time>2022-06-29T08:44:31Z</time>
      </trkpt>
      <trkpt lat="45.38292" lon="3.93304">
        <ele>896</ele>
        <time>2022-06-29T08:44:35Z</time>
      </trkpt>
      <trkpt lat="45.383" lon="3.93302">
        <ele>896</ele>
        <time>2022-06-29T08:44:40Z</time>
      </trkpt>
      <trkpt lat="45.38307" lon="3.93299">
        <ele>896</ele>
        <time>2022-06-29T08:44:45Z</time>
      </trkpt>
      <trkpt lat="45.38312" lon="3.93297">
        <ele>896</ele>
        <time>2022-06-29T08:44:49Z</time>
      </trkpt>
      <trkpt lat="45.38319" lon="3.93294">
        <ele>896</ele>
        <time>2022-06-29T08:44:53Z</time>
      </trkpt>
      <trkpt lat="45.38325" lon="3.93292">
        <ele>898</ele>
        <time>2022-06-29T08:44:58Z</time>
      </trkpt>
      <trkpt lat="45.38334" lon="3.93287">
        <ele>900</ele>
        <time>2022-06-29T08:45:03Z</time>
      </trkpt>
      <trkpt lat="45.3834" lon="3.93281">
        <ele>900</ele>
        <time>2022-06-29T08:45:08Z</time>
      </trkpt>
      <trkpt lat="45.38346" lon="3.93274">
        <ele>900</ele>
        <time>2022-06-29T08:45:13Z</time>
      </trkpt>
      <trkpt lat="45.38352" lon="3.93266">
        <ele>900</ele>
        <time>2022-06-29T08:45:18Z</time>
      </trkpt>
      <trkpt lat="45.38356" lon="3.93259">
        <ele>902</ele>
        <time>2022-06-29T08:45:22Z</time>
      </trkpt>
      <trkpt lat="45.38362" lon="3.9325">
        <ele>902</ele>
        <time>2022-06-29T08:45:27Z</time>
      </trkpt>
      <trkpt lat="45.38368" lon="3.93242">
        <ele>902</ele>
        <time>2022-06-29T08:45:32Z</time>
      </trkpt>
      <trkpt lat="45.38373" lon="3.93233">
        <ele>901</ele>
        <time>2022-06-29T08:45:37Z</time>
      </trkpt>
      <trkpt lat="45.38378" lon="3.93226">
        <ele>903</ele>
        <time>2022-06-29T08:45:41Z</time>
      </trkpt>
      <trkpt lat="45.38383" lon="3.93219">
        <ele>903</ele>
        <time>2022-06-29T08:45:46Z</time>
      </trkpt>
      <trkpt lat="45.38388" lon="3.93211">
        <ele>903</ele>
        <time>2022-06-29T08:45:51Z</time>
      </trkpt>
      <trkpt lat="45.38395" lon="3.93202">
        <ele>903</ele>
        <time>2022-06-29T08:45:56Z</time>
      </trkpt>
      <trkpt lat="45.384" lon="3.93194">
        <ele>903</ele>
        <time>2022-06-29T08:46:01Z</time>
      </trkpt>
      <trkpt lat="45.38405" lon="3.93186">
        <ele>903</ele>
        <time>2022-06-29T08:46:05Z</time>
      </trkpt>
      <trkpt lat="45.38409" lon="3.93177">
        <ele>903</ele>
        <time>2022-06-29T08:46:10Z</time>
      </trkpt>
      <trkpt lat="45.38413" lon="3.93171">
        <ele>903</ele>
        <time>2022-06-29T08:46:14Z</time>
      </trkpt>
      <trkpt lat="45.38418" lon="3.93163">
        <ele>903</ele>
        <time>2022-06-29T08:46:19Z</time>
      </trkpt>
      <trkpt lat="45.38422" lon="3.93154">
        <ele>903</ele>
        <time>2022-06-29T08:46:24Z</time>
      </trkpt>
      <trkpt lat="45.38427" lon="3.93145">
        <ele>903</ele>
        <time>2022-06-29T08:46:28Z</time>
      </trkpt>
      <trkpt lat="45.38431" lon="3.93138">
        <ele>903</ele>
        <time>2022-06-29T08:46:32Z</time>
      </trkpt>
      <trkpt lat="45.38437" lon="3.93132">
        <ele>903</ele>
        <time>2022-06-29T08:46:37Z</time>
      </trkpt>
      <trkpt lat="45.38441" lon="3.93125">
        <ele>903</ele>
        <time>2022-06-29T08:46:41Z</time>
      </trkpt>
      <trkpt lat="45.38446" lon="3.93116">
        <ele>903</ele>
        <time>2022-06-29T08:46:46Z</time>
      </trkpt>
      <trkpt lat="45.38451" lon="3.93107">
        <ele>903</ele>
        <time>2022-06-29T08:46:51Z</time>
      </trkpt>
      <trkpt lat="45.38456" lon="3.931">
        <ele>903</ele>
        <time>2022-06-29T08:46:55Z</time>
      </trkpt>
      <trkpt lat="45.38461" lon="3.93093">
        <ele>904</ele>
        <time>2022-06-29T08:47:00Z</time>
      </trkpt>
      <trkpt lat="45.38465" lon="3.93087">
        <ele>904</ele>
        <time>2022-06-29T08:47:04Z</time>
      </trkpt>
      <trkpt lat="45.38466" lon="3.9308">
        <ele>904</ele>
        <time>2022-06-29T08:47:09Z</time>
      </trkpt>
      <trkpt lat="45.3847" lon="3.9307">
        <ele>904</ele>
        <time>2022-06-29T08:47:14Z</time>
      </trkpt>
      <trkpt lat="45.38471" lon="3.93063">
        <ele>907</ele>
        <time>2022-06-29T08:47:18Z</time>
      </trkpt>
      <trkpt lat="45.38474" lon="3.93056">
        <ele>907</ele>
        <time>2022-06-29T08:47:23Z</time>
      </trkpt>
      <trkpt lat="45.38474" lon="3.93047">
        <ele>907</ele>
        <time>2022-06-29T08:47:28Z</time>
      </trkpt>
      <trkpt lat="45.38475" lon="3.93035">
        <ele>911</ele>
        <time>2022-06-29T08:47:33Z</time>
      </trkpt>
      <trkpt lat="45.38474" lon="3.93027">
        <ele>911</ele>
        <time>2022-06-29T08:47:38Z</time>
      </trkpt>
      <trkpt lat="45.38472" lon="3.93015">
        <ele>911</ele>
        <time>2022-06-29T08:47:43Z</time>
      </trkpt>
      <trkpt lat="45.38468" lon="3.93006">
        <ele>913</ele>
        <time>2022-06-29T08:47:47Z</time>
      </trkpt>
      <trkpt lat="45.38465" lon="3.92996">
        <ele>913</ele>
        <time>2022-06-29T08:47:52Z</time>
      </trkpt>
      <trkpt lat="45.38465" lon="3.92985">
        <ele>914</ele>
        <time>2022-06-29T08:47:57Z</time>
      </trkpt>
      <trkpt lat="45.38463" lon="3.92978">
        <ele>914</ele>
        <time>2022-06-29T08:48:01Z</time>
      </trkpt>
      <trkpt lat="45.38461" lon="3.92969">
        <ele>914</ele>
        <time>2022-06-29T08:48:05Z</time>
      </trkpt>
      <trkpt lat="45.38461" lon="3.92958">
        <ele>914</ele>
        <time>2022-06-29T08:48:10Z</time>
      </trkpt>
      <trkpt lat="45.38461" lon="3.9295">
        <ele>914</ele>
        <time>2022-06-29T08:48:14Z</time>
      </trkpt>
      <trkpt lat="45.38459" lon="3.92938">
        <ele>914</ele>
        <time>2022-06-29T08:48:19Z</time>
      </trkpt>
      <trkpt lat="45.3846" lon="3.92931">
        <ele>914</ele>
        <time>2022-06-29T08:48:23Z</time>
      </trkpt>
      <trkpt lat="45.3846" lon="3.92922">
        <ele>915</ele>
        <time>2022-06-29T08:48:28Z</time>
      </trkpt>
      <trkpt lat="45.38459" lon="3.92912">
        <ele>915</ele>
        <time>2022-06-29T08:48:33Z</time>
      </trkpt>
      <trkpt lat="45.38458" lon="3.92901">
        <ele>913</ele>
        <time>2022-06-29T08:48:38Z</time>
      </trkpt>
      <trkpt lat="45.38458" lon="3.92891">
        <ele>916</ele>
        <time>2022-06-29T08:48:43Z</time>
      </trkpt>
      <trkpt lat="45.38457" lon="3.92877">
        <ele>913</ele>
        <time>2022-06-29T08:48:48Z</time>
      </trkpt>
      <trkpt lat="45.38458" lon="3.92866">
        <ele>915</ele>
        <time>2022-06-29T08:48:53Z</time>
      </trkpt>
      <trkpt lat="45.38458" lon="3.9286">
        <ele>915</ele>
        <time>2022-06-29T08:48:57Z</time>
      </trkpt>
      <trkpt lat="45.38457" lon="3.92849">
        <ele>915</ele>
        <time>2022-06-29T08:49:02Z</time>
      </trkpt>
      <trkpt lat="45.38457" lon="3.9284">
        <ele>915</ele>
        <time>2022-06-29T08:49:07Z</time>
      </trkpt>
      <trkpt lat="45.38457" lon="3.9283">
        <ele>915</ele>
        <time>2022-06-29T08:49:11Z</time>
      </trkpt>
      <trkpt lat="45.38457" lon="3.92818">
        <ele>916</ele>
        <time>2022-06-29T08:49:16Z</time>
      </trkpt>
      <trkpt lat="45.38457" lon="3.92806">
        <ele>916</ele>
        <time>2022-06-29T08:49:21Z</time>
      </trkpt>
      <trkpt lat="45.38458" lon="3.92797">
        <ele>916</ele>
        <time>2022-06-29T08:49:26Z</time>
      </trkpt>
      <trkpt lat="45.3846" lon="3.92788">
        <ele>919</ele>
        <time>2022-06-29T08:49:30Z</time>
      </trkpt>
      <trkpt lat="45.3846" lon="3.92779">
        <ele>919</ele>
        <time>2022-06-29T08:49:34Z</time>
      </trkpt>
      <trkpt lat="45.38463" lon="3.92769">
        <ele>919</ele>
        <time>2022-06-29T08:49:39Z</time>
      </trkpt>
      <trkpt lat="45.38464" lon="3.92758">
        <ele>919</ele>
        <time>2022-06-29T08:49:44Z</time>
      </trkpt>
      <trkpt lat="45.38466" lon="3.9274">
        <ele>919</ele>
        <time>2022-06-29T08:49:49Z</time>
      </trkpt>
      <trkpt lat="45.38468" lon="3.92727">
        <ele>919</ele>
        <time>2022-06-29T08:49:54Z</time>
      </trkpt>
      <trkpt lat="45.38471" lon="3.9272">
        <ele>919</ele>
        <time>2022-06-29T08:49:58Z</time>
      </trkpt>
      <trkpt lat="45.38474" lon="3.9271">
        <ele>919</ele>
        <time>2022-06-29T08:50:03Z</time>
      </trkpt>
      <trkpt lat="45.38477" lon="3.92702">
        <ele>919</ele>
        <time>2022-06-29T08:50:07Z</time>
      </trkpt>
      <trkpt lat="45.38479" lon="3.92695">
        <ele>919</ele>
        <time>2022-06-29T08:50:11Z</time>
      </trkpt>
      <trkpt lat="45.38483" lon="3.92684">
        <ele>919</ele>
        <time>2022-06-29T08:50:16Z</time>
      </trkpt>
      <trkpt lat="45.38485" lon="3.92674">
        <ele>919</ele>
        <time>2022-06-29T08:50:20Z</time>
      </trkpt>
      <trkpt lat="45.38485" lon="3.92663">
        <ele>919</ele>
        <time>2022-06-29T08:50:25Z</time>
      </trkpt>
      <trkpt lat="45.38486" lon="3.92654">
        <ele>922</ele>
        <time>2022-06-29T08:50:29Z</time>
      </trkpt>
      <trkpt lat="45.38488" lon="3.92641">
        <ele>922</ele>
        <time>2022-06-29T08:50:34Z</time>
      </trkpt>
      <trkpt lat="45.3849" lon="3.92633">
        <ele>922</ele>
        <time>2022-06-29T08:50:38Z</time>
      </trkpt>
      <trkpt lat="45.38493" lon="3.92625">
        <ele>922</ele>
        <time>2022-06-29T08:50:42Z</time>
      </trkpt>
      <trkpt lat="45.38497" lon="3.92615">
        <ele>922</ele>
        <time>2022-06-29T08:50:47Z</time>
      </trkpt>
      <trkpt lat="45.38501" lon="3.92605">
        <ele>922</ele>
        <time>2022-06-29T08:50:52Z</time>
      </trkpt>
      <trkpt lat="45.38505" lon="3.92595">
        <ele>923</ele>
        <time>2022-06-29T08:50:57Z</time>
      </trkpt>
      <trkpt lat="45.3851" lon="3.92585">
        <ele>923</ele>
        <time>2022-06-29T08:51:02Z</time>
      </trkpt>
      <trkpt lat="45.38514" lon="3.92576">
        <ele>923</ele>
        <time>2022-06-29T08:51:07Z</time>
      </trkpt>
      <trkpt lat="45.38516" lon="3.92568">
        <ele>923</ele>
        <time>2022-06-29T08:51:11Z</time>
      </trkpt>
      <trkpt lat="45.3852" lon="3.92555">
        <ele>923</ele>
        <time>2022-06-29T08:51:16Z</time>
      </trkpt>
      <trkpt lat="45.38523" lon="3.92546">
        <ele>923</ele>
        <time>2022-06-29T08:51:21Z</time>
      </trkpt>
      <trkpt lat="45.38526" lon="3.92536">
        <ele>926</ele>
        <time>2022-06-29T08:51:26Z</time>
      </trkpt>
      <trkpt lat="45.38528" lon="3.92528">
        <ele>926</ele>
        <time>2022-06-29T08:51:30Z</time>
      </trkpt>
      <trkpt lat="45.38529" lon="3.92518">
        <ele>926</ele>
        <time>2022-06-29T08:51:35Z</time>
      </trkpt>
      <trkpt lat="45.38531" lon="3.9251">
        <ele>928</ele>
        <time>2022-06-29T08:51:39Z</time>
      </trkpt>
      <trkpt lat="45.38533" lon="3.925">
        <ele>928</ele>
        <time>2022-06-29T08:51:44Z</time>
      </trkpt>
      <trkpt lat="45.38534" lon="3.92492">
        <ele>928</ele>
        <time>2022-06-29T08:51:48Z</time>
      </trkpt>
      <trkpt lat="45.38537" lon="3.92481">
        <ele>928</ele>
        <time>2022-06-29T08:51:53Z</time>
      </trkpt>
      <trkpt lat="45.38538" lon="3.92468">
        <ele>928</ele>
        <time>2022-06-29T08:51:58Z</time>
      </trkpt>
      <trkpt lat="45.38539" lon="3.92456">
        <ele>928</ele>
        <time>2022-06-29T08:52:03Z</time>
      </trkpt>
      <trkpt lat="45.38541" lon="3.92444">
        <ele>928</ele>
        <time>2022-06-29T08:52:08Z</time>
      </trkpt>
      <trkpt lat="45.38542" lon="3.92433">
        <ele>928</ele>
        <time>2022-06-29T08:52:13Z</time>
      </trkpt>
      <trkpt lat="45.38542" lon="3.92421">
        <ele>928</ele>
        <time>2022-06-29T08:52:18Z</time>
      </trkpt>
      <trkpt lat="45.38543" lon="3.92411">
        <ele>928</ele>
        <time>2022-06-29T08:52:23Z</time>
      </trkpt>
      <trkpt lat="45.38545" lon="3.92403">
        <ele>928</ele>
        <time>2022-06-29T08:52:27Z</time>
      </trkpt>
      <trkpt lat="45.38547" lon="3.92391">
        <ele>928</ele>
        <time>2022-06-29T08:52:32Z</time>
      </trkpt>
      <trkpt lat="45.38549" lon="3.92381">
        <ele>928</ele>
        <time>2022-06-29T08:52:37Z</time>
      </trkpt>
      <trkpt lat="45.3855" lon="3.92373">
        <ele>928</ele>
        <time>2022-06-29T08:52:41Z</time>
      </trkpt>
      <trkpt lat="45.38551" lon="3.92362">
        <ele>928</ele>
        <time>2022-06-29T08:52:46Z</time>
      </trkpt>
      <trkpt lat="45.38552" lon="3.92351">
        <ele>928</ele>
        <time>2022-06-29T08:52:51Z</time>
      </trkpt>
      <trkpt lat="45.38553" lon="3.92342">
        <ele>929</ele>
        <time>2022-06-29T08:52:55Z</time>
      </trkpt>
      <trkpt lat="45.38553" lon="3.9233">
        <ele>929</ele>
        <time>2022-06-29T08:53:00Z</time>
      </trkpt>
      <trkpt lat="45.38556" lon="3.92321">
        <ele>929</ele>
        <time>2022-06-29T08:53:04Z</time>
      </trkpt>
      <trkpt lat="45.3856" lon="3.92312">
        <ele>931</ele>
        <time>2022-06-29T08:53:09Z</time>
      </trkpt>
      <trkpt lat="45.38563" lon="3.92302">
        <ele>931</ele>
        <time>2022-06-29T08:53:14Z</time>
      </trkpt>
      <trkpt lat="45.38566" lon="3.9229">
        <ele>930</ele>
        <time>2022-06-29T08:53:19Z</time>
      </trkpt>
      <trkpt lat="45.38568" lon="3.92282">
        <ele>930</ele>
        <time>2022-06-29T08:53:23Z</time>
      </trkpt>
      <trkpt lat="45.38572" lon="3.92273">
        <ele>931</ele>
        <time>2022-06-29T08:53:28Z</time>
      </trkpt>
      <trkpt lat="45.38575" lon="3.92264">
        <ele>931</ele>
        <time>2022-06-29T08:53:32Z</time>
      </trkpt>
      <trkpt lat="45.38577" lon="3.92254">
        <ele>930</ele>
        <time>2022-06-29T08:53:37Z</time>
      </trkpt>
      <trkpt lat="45.3858" lon="3.92248">
        <ele>930</ele>
        <time>2022-06-29T08:53:41Z</time>
      </trkpt>
      <trkpt lat="45.38582" lon="3.92237">
        <ele>930</ele>
        <time>2022-06-29T08:53:46Z</time>
      </trkpt>
      <trkpt lat="45.38586" lon="3.92228">
        <ele>929</ele>
        <time>2022-06-29T08:53:51Z</time>
      </trkpt>
      <trkpt lat="45.38589" lon="3.92217">
        <ele>929</ele>
        <time>2022-06-29T08:53:56Z</time>
      </trkpt>
      <trkpt lat="45.38593" lon="3.92208">
        <ele>929</ele>
        <time>2022-06-29T08:54:01Z</time>
      </trkpt>
      <trkpt lat="45.38594" lon="3.92199">
        <ele>929</ele>
        <time>2022-06-29T08:54:05Z</time>
      </trkpt>
      <trkpt lat="45.38596" lon="3.9219">
        <ele>929</ele>
        <time>2022-06-29T08:54:10Z</time>
      </trkpt>
      <trkpt lat="45.38598" lon="3.9218">
        <ele>930</ele>
        <time>2022-06-29T08:54:15Z</time>
      </trkpt>
      <trkpt lat="45.38599" lon="3.92169">
        <ele>930</ele>
        <time>2022-06-29T08:54:20Z</time>
      </trkpt>
      <trkpt lat="45.386" lon="3.92158">
        <ele>930</ele>
        <time>2022-06-29T08:54:25Z</time>
      </trkpt>
      <trkpt lat="45.38602" lon="3.9215">
        <ele>930</ele>
        <time>2022-06-29T08:54:29Z</time>
      </trkpt>
      <trkpt lat="45.38603" lon="3.9214">
        <ele>930</ele>
        <time>2022-06-29T08:54:34Z</time>
      </trkpt>
      <trkpt lat="45.38606" lon="3.9213">
        <ele>930</ele>
        <time>2022-06-29T08:54:39Z</time>
      </trkpt>
      <trkpt lat="45.38609" lon="3.9212">
        <ele>930</ele>
        <time>2022-06-29T08:54:44Z</time>
      </trkpt>
      <trkpt lat="45.3861" lon="3.92111">
        <ele>930</ele>
        <time>2022-06-29T08:54:48Z</time>
      </trkpt>
      <trkpt lat="45.38612" lon="3.92101">
        <ele>930</ele>
        <time>2022-06-29T08:54:53Z</time>
      </trkpt>
      <trkpt lat="45.38612" lon="3.92091">
        <ele>931</ele>
        <time>2022-06-29T08:54:58Z</time>
      </trkpt>
      <trkpt lat="45.38614" lon="3.9208">
        <ele>931</ele>
        <time>2022-06-29T08:55:03Z</time>
      </trkpt>
      <trkpt lat="45.38614" lon="3.92071">
        <ele>931</ele>
        <time>2022-06-29T08:55:07Z</time>
      </trkpt>
      <trkpt lat="45.38615" lon="3.92062">
        <ele>933</ele>
        <time>2022-06-29T08:55:11Z</time>
      </trkpt>
      <trkpt lat="45.38616" lon="3.9205">
        <ele>933</ele>
        <time>2022-06-29T08:55:16Z</time>
      </trkpt>
      <trkpt lat="45.38616" lon="3.92042">
        <ele>933</ele>
        <time>2022-06-29T08:55:20Z</time>
      </trkpt>
      <trkpt lat="45.38618" lon="3.92032">
        <ele>934</ele>
        <time>2022-06-29T08:55:25Z</time>
      </trkpt>
      <trkpt lat="45.38619" lon="3.92022">
        <ele>934</ele>
        <time>2022-06-29T08:55:30Z</time>
      </trkpt>
      <trkpt lat="45.3862" lon="3.92013">
        <ele>937</ele>
        <time>2022-06-29T08:55:35Z</time>
      </trkpt>
      <trkpt lat="45.3862" lon="3.92002">
        <ele>937</ele>
        <time>2022-06-29T08:55:40Z</time>
      </trkpt>
      <trkpt lat="45.38621" lon="3.9199">
        <ele>937</ele>
        <time>2022-06-29T08:55:45Z</time>
      </trkpt>
      <trkpt lat="45.38622" lon="3.9198">
        <ele>937</ele>
        <time>2022-06-29T08:55:50Z</time>
      </trkpt>
      <trkpt lat="45.38621" lon="3.91967">
        <ele>937</ele>
        <time>2022-06-29T08:55:55Z</time>
      </trkpt>
      <trkpt lat="45.38621" lon="3.91959">
        <ele>937</ele>
        <time>2022-06-29T08:55:59Z</time>
      </trkpt>
      <trkpt lat="45.38622" lon="3.91948">
        <ele>938</ele>
        <time>2022-06-29T08:56:04Z</time>
      </trkpt>
      <trkpt lat="45.38622" lon="3.91935">
        <ele>938</ele>
        <time>2022-06-29T08:56:09Z</time>
      </trkpt>
      <trkpt lat="45.38622" lon="3.91926">
        <ele>937</ele>
        <time>2022-06-29T08:56:14Z</time>
      </trkpt>
      <trkpt lat="45.38622" lon="3.91921">
        <ele>937</ele>
        <time>2022-06-29T08:56:18Z</time>
      </trkpt>
      <trkpt lat="45.38623" lon="3.91911">
        <ele>937</ele>
        <time>2022-06-29T08:56:23Z</time>
      </trkpt>
      <trkpt lat="45.38623" lon="3.91903">
        <ele>937</ele>
        <time>2022-06-29T08:56:28Z</time>
      </trkpt>
      <trkpt lat="45.38622" lon="3.91893">
        <ele>937</ele>
        <time>2022-06-29T08:56:33Z</time>
      </trkpt>
      <trkpt lat="45.38623" lon="3.91885">
        <ele>937</ele>
        <time>2022-06-29T08:56:37Z</time>
      </trkpt>
      <trkpt lat="45.38623" lon="3.91876">
        <ele>937</ele>
        <time>2022-06-29T08:56:42Z</time>
      </trkpt>
      <trkpt lat="45.38623" lon="3.91868">
        <ele>937</ele>
        <time>2022-06-29T08:56:46Z</time>
      </trkpt>
      <trkpt lat="45.38625" lon="3.91858">
        <ele>937</ele>
        <time>2022-06-29T08:56:51Z</time>
      </trkpt>
      <trkpt lat="45.38626" lon="3.91849">
        <ele>937</ele>
        <time>2022-06-29T08:56:55Z</time>
      </trkpt>
      <trkpt lat="45.38626" lon="3.91842">
        <ele>937</ele>
        <time>2022-06-29T08:56:59Z</time>
      </trkpt>
      <trkpt lat="45.38626" lon="3.9183">
        <ele>937</ele>
        <time>2022-06-29T08:57:04Z</time>
      </trkpt>
      <trkpt lat="45.38626" lon="3.9182">
        <ele>937</ele>
        <time>2022-06-29T08:57:09Z</time>
      </trkpt>
      <trkpt lat="45.38626" lon="3.91812">
        <ele>937</ele>
        <time>2022-06-29T08:57:13Z</time>
      </trkpt>
      <trkpt lat="45.38625" lon="3.91803">
        <ele>937</ele>
        <time>2022-06-29T08:57:18Z</time>
      </trkpt>
      <trkpt lat="45.38625" lon="3.91796">
        <ele>937</ele>
        <time>2022-06-29T08:57:22Z</time>
      </trkpt>
      <trkpt lat="45.38625" lon="3.91787">
        <ele>937</ele>
        <time>2022-06-29T08:57:26Z</time>
      </trkpt>
      <trkpt lat="45.38626" lon="3.91777">
        <ele>937</ele>
        <time>2022-06-29T08:57:31Z</time>
      </trkpt>
      <trkpt lat="45.38626" lon="3.91767">
        <ele>937</ele>
        <time>2022-06-29T08:57:36Z</time>
      </trkpt>
      <trkpt lat="45.38626" lon="3.91759">
        <ele>936</ele>
        <time>2022-06-29T08:57:40Z</time>
      </trkpt>
      <trkpt lat="45.38625" lon="3.91748">
        <ele>936</ele>
        <time>2022-06-29T08:57:45Z</time>
      </trkpt>
      <trkpt lat="45.38625" lon="3.9174">
        <ele>936</ele>
        <time>2022-06-29T08:57:49Z</time>
      </trkpt>
      <trkpt lat="45.38624" lon="3.91731">
        <ele>935</ele>
        <time>2022-06-29T08:57:54Z</time>
      </trkpt>
      <trkpt lat="45.38622" lon="3.91721">
        <ele>935</ele>
        <time>2022-06-29T08:57:59Z</time>
      </trkpt>
      <trkpt lat="45.3862" lon="3.91715">
        <ele>935</ele>
        <time>2022-06-29T08:58:03Z</time>
      </trkpt>
      <trkpt lat="45.38619" lon="3.91709">
        <ele>935</ele>
        <time>2022-06-29T08:58:07Z</time>
      </trkpt>
      <trkpt lat="45.38618" lon="3.917">
        <ele>934</ele>
        <time>2022-06-29T08:58:12Z</time>
      </trkpt>
      <trkpt lat="45.38615" lon="3.91689">
        <ele>934</ele>
        <time>2022-06-29T08:58:17Z</time>
      </trkpt>
      <trkpt lat="45.38614" lon="3.91679">
        <ele>934</ele>
        <time>2022-06-29T08:58:22Z</time>
      </trkpt>
      <trkpt lat="45.38612" lon="3.91671">
        <ele>934</ele>
        <time>2022-06-29T08:58:26Z</time>
      </trkpt>
      <trkpt lat="45.38609" lon="3.91662">
        <ele>934</ele>
        <time>2022-06-29T08:58:31Z</time>
      </trkpt>
      <trkpt lat="45.38608" lon="3.91652">
        <ele>933</ele>
        <time>2022-06-29T08:58:36Z</time>
      </trkpt>
      <trkpt lat="45.38605" lon="3.91641">
        <ele>933</ele>
        <time>2022-06-29T08:58:41Z</time>
      </trkpt>
      <trkpt lat="45.38604" lon="3.91631">
        <ele>933</ele>
        <time>2022-06-29T08:58:46Z</time>
      </trkpt>
      <trkpt lat="45.38603" lon="3.91622">
        <ele>931</ele>
        <time>2022-06-29T08:58:50Z</time>
      </trkpt>
      <trkpt lat="45.38601" lon="3.9161">
        <ele>931</ele>
        <time>2022-06-29T08:58:55Z</time>
      </trkpt>
      <trkpt lat="45.38597" lon="3.91601">
        <ele>931</ele>
        <time>2022-06-29T08:58:59Z</time>
      </trkpt>
      <trkpt lat="45.38594" lon="3.9159">
        <ele>928</ele>
        <time>2022-06-29T08:59:04Z</time>
      </trkpt>
      <trkpt lat="45.38589" lon="3.91582">
        <ele>928</ele>
        <time>2022-06-29T08:59:09Z</time>
      </trkpt>
      <trkpt lat="45.38585" lon="3.91574">
        <ele>928</ele>
        <time>2022-06-29T08:59:14Z</time>
      </trkpt>
      <trkpt lat="45.38583" lon="3.91566">
        <ele>925</ele>
        <time>2022-06-29T08:59:19Z</time>
      </trkpt>
      <trkpt lat="45.38579" lon="3.91558">
        <ele>925</ele>
        <time>2022-06-29T08:59:24Z</time>
      </trkpt>
      <trkpt lat="45.38577" lon="3.9155">
        <ele>925</ele>
        <time>2022-06-29T08:59:28Z</time>
      </trkpt>
      <trkpt lat="45.38572" lon="3.91542">
        <ele>925</ele>
        <time>2022-06-29T08:59:33Z</time>
      </trkpt>
      <trkpt lat="45.38569" lon="3.91534">
        <ele>923</ele>
        <time>2022-06-29T08:59:37Z</time>
      </trkpt>
      <trkpt lat="45.38565" lon="3.91526">
        <ele>923</ele>
        <time>2022-06-29T08:59:41Z</time>
      </trkpt>
      <trkpt lat="45.38562" lon="3.91516">
        <ele>923</ele>
        <time>2022-06-29T08:59:46Z</time>
      </trkpt>
      <trkpt lat="45.3856" lon="3.91508">
        <ele>921</ele>
        <time>2022-06-29T08:59:51Z</time>
      </trkpt>
      <trkpt lat="45.38559" lon="3.91502">
        <ele>921</ele>
        <time>2022-06-29T08:59:56Z</time>
      </trkpt>
      <trkpt lat="45.38555" lon="3.91492">
        <ele>921</ele>
        <time>2022-06-29T09:00:01Z</time>
      </trkpt>
      <trkpt lat="45.38553" lon="3.91486">
        <ele>920</ele>
        <time>2022-06-29T09:00:05Z</time>
      </trkpt>
      <trkpt lat="45.3855" lon="3.91474">
        <ele>920</ele>
        <time>2022-06-29T09:00:10Z</time>
      </trkpt>
      <trkpt lat="45.38545" lon="3.91463">
        <ele>920</ele>
        <time>2022-06-29T09:00:15Z</time>
      </trkpt>
      <trkpt lat="45.38542" lon="3.91456">
        <ele>919</ele>
        <time>2022-06-29T09:00:20Z</time>
      </trkpt>
      <trkpt lat="45.3854" lon="3.91449">
        <ele>917</ele>
        <time>2022-06-29T09:00:25Z</time>
      </trkpt>
      <trkpt lat="45.38536" lon="3.91442">
        <ele>917</ele>
        <time>2022-06-29T09:00:30Z</time>
      </trkpt>
      <trkpt lat="45.38534" lon="3.91433">
        <ele>917</ele>
        <time>2022-06-29T09:00:34Z</time>
      </trkpt>
      <trkpt lat="45.38531" lon="3.91424">
        <ele>917</ele>
        <time>2022-06-29T09:00:39Z</time>
      </trkpt>
      <trkpt lat="45.38528" lon="3.91415">
        <ele>917</ele>
        <time>2022-06-29T09:00:44Z</time>
      </trkpt>
      <trkpt lat="45.38525" lon="3.91405">
        <ele>917</ele>
        <time>2022-06-29T09:00:49Z</time>
      </trkpt>
      <trkpt lat="45.38522" lon="3.91395">
        <ele>915</ele>
        <time>2022-06-29T09:00:54Z</time>
      </trkpt>
      <trkpt lat="45.38517" lon="3.91387">
        <ele>915</ele>
        <time>2022-06-29T09:00:59Z</time>
      </trkpt>
      <trkpt lat="45.38514" lon="3.91379">
        <ele>915</ele>
        <time>2022-06-29T09:01:03Z</time>
      </trkpt>
      <trkpt lat="45.38511" lon="3.91371">
        <ele>912</ele>
        <time>2022-06-29T09:01:08Z</time>
      </trkpt>
      <trkpt lat="45.38508" lon="3.91363">
        <ele>912</ele>
        <time>2022-06-29T09:01:13Z</time>
      </trkpt>
      <trkpt lat="45.38505" lon="3.91354">
        <ele>912</ele>
        <time>2022-06-29T09:01:18Z</time>
      </trkpt>
      <trkpt lat="45.38505" lon="3.91347">
        <ele>910</ele>
        <time>2022-06-29T09:01:23Z</time>
      </trkpt>
      <trkpt lat="45.38503" lon="3.91339">
        <ele>910</ele>
        <time>2022-06-29T09:01:28Z</time>
      </trkpt>
      <trkpt lat="45.38501" lon="3.91335">
        <ele>910</ele>
        <time>2022-06-29T09:01:32Z</time>
      </trkpt>
      <trkpt lat="45.38498" lon="3.91326">
        <ele>910</ele>
        <time>2022-06-29T09:01:37Z</time>
      </trkpt>
      <trkpt lat="45.38496" lon="3.91319">
        <ele>909</ele>
        <time>2022-06-29T09:01:41Z</time>
      </trkpt>
      <trkpt lat="45.38493" lon="3.91308">
        <ele>909</ele>
        <time>2022-06-29T09:01:46Z</time>
      </trkpt>
      <trkpt lat="45.3849" lon="3.91299">
        <ele>909</ele>
        <time>2022-06-29T09:01:51Z</time>
      </trkpt>
      <trkpt lat="45.38486" lon="3.9129">
        <ele>907</ele>
        <time>2022-06-29T09:01:56Z</time>
      </trkpt>
      <trkpt lat="45.38484" lon="3.91282">
        <ele>908</ele>
        <time>2022-06-29T09:02:01Z</time>
      </trkpt>
      <trkpt lat="45.38479" lon="3.91271">
        <ele>908</ele>
        <time>2022-06-29T09:02:06Z</time>
      </trkpt>
      <trkpt lat="45.38478" lon="3.91263">
        <ele>908</ele>
        <time>2022-06-29T09:02:11Z</time>
      </trkpt>
      <trkpt lat="45.38477" lon="3.91253">
        <ele>908</ele>
        <time>2022-06-29T09:02:16Z</time>
      </trkpt>
      <trkpt lat="45.38474" lon="3.91243">
        <ele>908</ele>
        <time>2022-06-29T09:02:21Z</time>
      </trkpt>
      <trkpt lat="45.38471" lon="3.91234">
        <ele>907</ele>
        <time>2022-06-29T09:02:26Z</time>
      </trkpt>
      <trkpt lat="45.38469" lon="3.91227">
        <ele>907</ele>
        <time>2022-06-29T09:02:30Z</time>
      </trkpt>
      <trkpt lat="45.38468" lon="3.91217">
        <ele>907</ele>
        <time>2022-06-29T09:02:35Z</time>
      </trkpt>
      <trkpt lat="45.38464" lon="3.91204">
        <ele>906</ele>
        <time>2022-06-29T09:02:40Z</time>
      </trkpt>
      <trkpt lat="45.38461" lon="3.91195">
        <ele>906</ele>
        <time>2022-06-29T09:02:45Z</time>
      </trkpt>
      <trkpt lat="45.38458" lon="3.91186">
        <ele>907</ele>
        <time>2022-06-29T09:02:50Z</time>
      </trkpt>
      <trkpt lat="45.38456" lon="3.91175">
        <ele>904</ele>
        <time>2022-06-29T09:02:55Z</time>
      </trkpt>
      <trkpt lat="45.38454" lon="3.91163">
        <ele>904</ele>
        <time>2022-06-29T09:03:00Z</time>
      </trkpt>
      <trkpt lat="45.38453" lon="3.91154">
        <ele>904</ele>
        <time>2022-06-29T09:03:04Z</time>
      </trkpt>
      <trkpt lat="45.38451" lon="3.91145">
        <ele>901</ele>
        <time>2022-06-29T09:03:09Z</time>
      </trkpt>
      <trkpt lat="45.3845" lon="3.91136">
        <ele>901</ele>
        <time>2022-06-29T09:03:14Z</time>
      </trkpt>
      <trkpt lat="45.38449" lon="3.91129">
        <ele>901</ele>
        <time>2022-06-29T09:03:18Z</time>
      </trkpt>
      <trkpt lat="45.38447" lon="3.91119">
        <ele>900</ele>
        <time>2022-06-29T09:03:23Z</time>
      </trkpt>
      <trkpt lat="45.38446" lon="3.91111">
        <ele>900</ele>
        <time>2022-06-29T09:03:27Z</time>
      </trkpt>
      <trkpt lat="45.38444" lon="3.91103">
        <ele>900</ele>
        <time>2022-06-29T09:03:31Z</time>
      </trkpt>
      <trkpt lat="45.38443" lon="3.91093">
        <ele>899</ele>
        <time>2022-06-29T09:03:36Z</time>
      </trkpt>
      <trkpt lat="45.3844" lon="3.91084">
        <ele>899</ele>
        <time>2022-06-29T09:03:41Z</time>
      </trkpt>
      <trkpt lat="45.38439" lon="3.91074">
        <ele>899</ele>
        <time>2022-06-29T09:03:46Z</time>
      </trkpt>
      <trkpt lat="45.38437" lon="3.91064">
        <ele>898</ele>
        <time>2022-06-29T09:03:51Z</time>
      </trkpt>
      <trkpt lat="45.38437" lon="3.91053">
        <ele>898</ele>
        <time>2022-06-29T09:03:56Z</time>
      </trkpt>
      <trkpt lat="45.38436" lon="3.91043">
        <ele>898</ele>
        <time>2022-06-29T09:04:01Z</time>
      </trkpt>
      <trkpt lat="45.38435" lon="3.91034">
        <ele>895</ele>
        <time>2022-06-29T09:04:05Z</time>
      </trkpt>
      <trkpt lat="45.38435" lon="3.91026">
        <ele>895</ele>
        <time>2022-06-29T09:04:09Z</time>
      </trkpt>
      <trkpt lat="45.38435" lon="3.91018">
        <ele>895</ele>
        <time>2022-06-29T09:04:13Z</time>
      </trkpt>
      <trkpt lat="45.38435" lon="3.91007">
        <ele>894</ele>
        <time>2022-06-29T09:04:18Z</time>
      </trkpt>
      <trkpt lat="45.38435" lon="3.90996">
        <ele>894</ele>
        <time>2022-06-29T09:04:23Z</time>
      </trkpt>
      <trkpt lat="45.38435" lon="3.90985">
        <ele>894</ele>
        <time>2022-06-29T09:04:28Z</time>
      </trkpt>
      <trkpt lat="45.38435" lon="3.90974">
        <ele>894</ele>
        <time>2022-06-29T09:04:33Z</time>
      </trkpt>
      <trkpt lat="45.38436" lon="3.90964">
        <ele>894</ele>
        <time>2022-06-29T09:04:38Z</time>
      </trkpt>
      <trkpt lat="45.38437" lon="3.90955">
        <ele>892</ele>
        <time>2022-06-29T09:04:43Z</time>
      </trkpt>
      <trkpt lat="45.38437" lon="3.90946">
        <ele>892</ele>
        <time>2022-06-29T09:04:47Z</time>
      </trkpt>
      <trkpt lat="45.38438" lon="3.90938">
        <ele>892</ele>
        <time>2022-06-29T09:04:52Z</time>
      </trkpt>
      <trkpt lat="45.38438" lon="3.90928">
        <ele>888</ele>
        <time>2022-06-29T09:04:57Z</time>
      </trkpt>
      <trkpt lat="45.38437" lon="3.90921">
        <ele>888</ele>
        <time>2022-06-29T09:05:01Z</time>
      </trkpt>
      <trkpt lat="45.38436" lon="3.90912">
        <ele>888</ele>
        <time>2022-06-29T09:05:06Z</time>
      </trkpt>
      <trkpt lat="45.38434" lon="3.90904">
        <ele>888</ele>
        <time>2022-06-29T09:05:11Z</time>
      </trkpt>
      <trkpt lat="45.38432" lon="3.90896">
        <ele>884</ele>
        <time>2022-06-29T09:05:16Z</time>
      </trkpt>
      <trkpt lat="45.3843" lon="3.90887">
        <ele>884</ele>
        <time>2022-06-29T09:05:21Z</time>
      </trkpt>
      <trkpt lat="45.38428" lon="3.90879">
        <ele>884</ele>
        <time>2022-06-29T09:05:26Z</time>
      </trkpt>
      <trkpt lat="45.38425" lon="3.90872">
        <ele>881</ele>
        <time>2022-06-29T09:05:30Z</time>
      </trkpt>
      <trkpt lat="45.38423" lon="3.90866">
        <ele>881</ele>
        <time>2022-06-29T09:05:34Z</time>
      </trkpt>
      <trkpt lat="45.38419" lon="3.90859">
        <ele>881</ele>
        <time>2022-06-29T09:05:39Z</time>
      </trkpt>
      <trkpt lat="45.38416" lon="3.90853">
        <ele>881</ele>
        <time>2022-06-29T09:05:43Z</time>
      </trkpt>
      <trkpt lat="45.38412" lon="3.90845">
        <ele>879</ele>
        <time>2022-06-29T09:05:48Z</time>
      </trkpt>
      <trkpt lat="45.38409" lon="3.90838">
        <ele>879</ele>
        <time>2022-06-29T09:05:53Z</time>
      </trkpt>
      <trkpt lat="45.38405" lon="3.90829">
        <ele>879</ele>
        <time>2022-06-29T09:05:58Z</time>
      </trkpt>
      <trkpt lat="45.38401" lon="3.90823">
        <ele>878</ele>
        <time>2022-06-29T09:06:02Z</time>
      </trkpt>
      <trkpt lat="45.38397" lon="3.90816">
        <ele>875</ele>
        <time>2022-06-29T09:06:06Z</time>
      </trkpt>
      <trkpt lat="45.38394" lon="3.90811">
        <ele>875</ele>
        <time>2022-06-29T09:06:11Z</time>
      </trkpt>
      <trkpt lat="45.38391" lon="3.90803">
        <ele>875</ele>
        <time>2022-06-29T09:06:15Z</time>
      </trkpt>
      <trkpt lat="45.38388" lon="3.90792">
        <ele>875</ele>
        <time>2022-06-29T09:06:20Z</time>
      </trkpt>
      <trkpt lat="45.38387" lon="3.90781">
        <ele>873</ele>
        <time>2022-06-29T09:06:25Z</time>
      </trkpt>
      <trkpt lat="45.38385" lon="3.90769">
        <ele>873</ele>
        <time>2022-06-29T09:06:30Z</time>
      </trkpt>
      <trkpt lat="45.38385" lon="3.9076">
        <ele>872</ele>
        <time>2022-06-29T09:06:35Z</time>
      </trkpt>
      <trkpt lat="45.38387" lon="3.90749">
        <ele>872</ele>
        <time>2022-06-29T09:06:40Z</time>
      </trkpt>
      <trkpt lat="45.38387" lon="3.90743">
        <ele>872</ele>
        <time>2022-06-29T09:06:45Z</time>
      </trkpt>
      <trkpt lat="45.38387" lon="3.90741">
        <ele>872</ele>
        <time>2022-06-29T09:06:50Z</time>
      </trkpt>
      <trkpt lat="45.38388" lon="3.90738">
        <ele>872</ele>
        <time>2022-06-29T09:06:54Z</time>
      </trkpt>
      <trkpt lat="45.38391" lon="3.90734">
        <ele>872</ele>
        <time>2022-06-29T09:06:58Z</time>
      </trkpt>
      <trkpt lat="45.38392" lon="3.90725">
        <ele>872</ele>
        <time>2022-06-29T09:07:03Z</time>
      </trkpt>
      <trkpt lat="45.3839" lon="3.90713">
        <ele>872</ele>
        <time>2022-06-29T09:07:08Z</time>
      </trkpt>
      <trkpt lat="45.38386" lon="3.90707">
        <ele>870</ele>
        <time>2022-06-29T09:07:12Z</time>
      </trkpt>
      <trkpt lat="45.38378" lon="3.90702">
        <ele>870</ele>
        <time>2022-06-29T09:07:17Z</time>
      </trkpt>
      <trkpt lat="45.3837" lon="3.90695">
        <ele>870</ele>
        <time>2022-06-29T09:07:22Z</time>
      </trkpt>
      <trkpt lat="45.38364" lon="3.90691">
        <ele>870</ele>
        <time>2022-06-29T09:07:26Z</time>
      </trkpt>
      <trkpt lat="45.38356" lon="3.90686">
        <ele>870</ele>
        <time>2022-06-29T09:07:31Z</time>
      </trkpt>
      <trkpt lat="45.38349" lon="3.9068">
        <ele>869</ele>
        <time>2022-06-29T09:07:36Z</time>
      </trkpt>
      <trkpt lat="45.38342" lon="3.90673">
        <ele>869</ele>
        <time>2022-06-29T09:07:41Z</time>
      </trkpt>
      <trkpt lat="45.38336" lon="3.90668">
        <ele>869</ele>
        <time>2022-06-29T09:07:45Z</time>
      </trkpt>
      <trkpt lat="45.38329" lon="3.90661">
        <ele>869</ele>
        <time>2022-06-29T09:07:50Z</time>
      </trkpt>
      <trkpt lat="45.38323" lon="3.90653">
        <ele>869</ele>
        <time>2022-06-29T09:07:55Z</time>
      </trkpt>
      <trkpt lat="45.38318" lon="3.90647">
        <ele>869</ele>
        <time>2022-06-29T09:07:59Z</time>
      </trkpt>
      <trkpt lat="45.38312" lon="3.90639">
        <ele>869</ele>
        <time>2022-06-29T09:08:04Z</time>
      </trkpt>
      <trkpt lat="45.38307" lon="3.90632">
        <ele>869</ele>
        <time>2022-06-29T09:08:08Z</time>
      </trkpt>
      <trkpt lat="45.383" lon="3.90623">
        <ele>868</ele>
        <time>2022-06-29T09:08:13Z</time>
      </trkpt>
      <trkpt lat="45.38297" lon="3.90614">
        <ele>868</ele>
        <time>2022-06-29T09:08:17Z</time>
      </trkpt>
      <trkpt lat="45.38297" lon="3.90603">
        <ele>868</ele>
        <time>2022-06-29T09:08:22Z</time>
      </trkpt>
      <trkpt lat="45.38297" lon="3.90591">
        <ele>866</ele>
        <time>2022-06-29T09:08:27Z</time>
      </trkpt>
      <trkpt lat="45.38294" lon="3.90584">
        <ele>866</ele>
        <time>2022-06-29T09:08:31Z</time>
      </trkpt>
      <trkpt lat="45.38291" lon="3.90575">
        <ele>866</ele>
        <time>2022-06-29T09:08:36Z</time>
      </trkpt>
      <trkpt lat="45.38287" lon="3.90566">
        <ele>864</ele>
        <time>2022-06-29T09:08:41Z</time>
      </trkpt>
      <trkpt lat="45.38284" lon="3.90558">
        <ele>864</ele>
        <time>2022-06-29T09:08:45Z</time>
      </trkpt>
      <trkpt lat="45.38278" lon="3.90552">
        <ele>864</ele>
        <time>2022-06-29T09:08:50Z</time>
      </trkpt>
      <trkpt lat="45.38271" lon="3.90552">
        <ele>864</ele>
        <time>2022-06-29T09:08:55Z</time>
      </trkpt>
      <trkpt lat="45.38265" lon="3.90559">
        <ele>864</ele>
        <time>2022-06-29T09:09:00Z</time>
      </trkpt>
      <trkpt lat="45.38259" lon="3.90562">
        <ele>864</ele>
        <time>2022-06-29T09:09:05Z</time>
      </trkpt>
      <trkpt lat="45.38256" lon="3.90557">
        <ele>864</ele>
        <time>2022-06-29T09:09:09Z</time>
      </trkpt>
      <trkpt lat="45.38255" lon="3.90547">
        <ele>864</ele>
        <time>2022-06-29T09:09:14Z</time>
      </trkpt>
      <trkpt lat="45.38256" lon="3.9054">
        <ele>863</ele>
        <time>2022-06-29T09:09:41Z</time>
      </trkpt>
      <trkpt lat="45.38256" lon="3.9054">
        <ele>863</ele>
        <time>2022-06-29T09:09:46Z</time>
      </trkpt>
      <trkpt lat="45.38253" lon="3.90535">
        <ele>863</ele>
        <time>2022-06-29T09:09:51Z</time>
      </trkpt>
      <trkpt lat="45.38248" lon="3.90527">
        <ele>863</ele>
        <time>2022-06-29T09:09:56Z</time>
      </trkpt>
      <trkpt lat="45.38244" lon="3.90518">
        <ele>863</ele>
        <time>2022-06-29T09:10:01Z</time>
      </trkpt>
      <trkpt lat="45.38242" lon="3.90509">
        <ele>862</ele>
        <time>2022-06-29T09:10:05Z</time>
      </trkpt>
      <trkpt lat="45.38241" lon="3.90498">
        <ele>862</ele>
        <time>2022-06-29T09:10:10Z</time>
      </trkpt>
      <trkpt lat="45.38241" lon="3.9049">
        <ele>862</ele>
        <time>2022-06-29T09:10:14Z</time>
      </trkpt>
      <trkpt lat="45.3824" lon="3.90478">
        <ele>863</ele>
        <time>2022-06-29T09:10:19Z</time>
      </trkpt>
      <trkpt lat="45.3824" lon="3.90468">
        <ele>863</ele>
        <time>2022-06-29T09:10:24Z</time>
      </trkpt>
      <trkpt lat="45.3824" lon="3.90457">
        <ele>863</ele>
        <time>2022-06-29T09:10:29Z</time>
      </trkpt>
      <trkpt lat="45.3824" lon="3.9045">
        <ele>863</ele>
        <time>2022-06-29T09:10:33Z</time>
      </trkpt>
      <trkpt lat="45.38239" lon="3.90439">
        <ele>863</ele>
        <time>2022-06-29T09:10:38Z</time>
      </trkpt>
      <trkpt lat="45.38238" lon="3.90428">
        <ele>864</ele>
        <time>2022-06-29T09:10:43Z</time>
      </trkpt>
      <trkpt lat="45.38237" lon="3.90418">
        <ele>864</ele>
        <time>2022-06-29T09:10:48Z</time>
      </trkpt>
      <trkpt lat="45.38238" lon="3.90409">
        <ele>864</ele>
        <time>2022-06-29T09:10:53Z</time>
      </trkpt>
      <trkpt lat="45.38242" lon="3.90401">
        <ele>863</ele>
        <time>2022-06-29T09:10:57Z</time>
      </trkpt>
      <trkpt lat="45.38247" lon="3.90397">
        <ele>863</ele>
        <time>2022-06-29T09:11:01Z</time>
      </trkpt>
      <trkpt lat="45.38254" lon="3.9039">
        <ele>863</ele>
        <time>2022-06-29T09:11:06Z</time>
      </trkpt>
      <trkpt lat="45.38262" lon="3.90383">
        <ele>863</ele>
        <time>2022-06-29T09:11:11Z</time>
      </trkpt>
      <trkpt lat="45.38268" lon="3.90377">
        <ele>863</ele>
        <time>2022-06-29T09:11:16Z</time>
      </trkpt>
      <trkpt lat="45.38273" lon="3.90372">
        <ele>862</ele>
        <time>2022-06-29T09:11:20Z</time>
      </trkpt>
      <trkpt lat="45.3828" lon="3.90366">
        <ele>862</ele>
        <time>2022-06-29T09:11:25Z</time>
      </trkpt>
      <trkpt lat="45.38284" lon="3.90361">
        <ele>862</ele>
        <time>2022-06-29T09:11:29Z</time>
      </trkpt>
      <trkpt lat="45.3829" lon="3.90355">
        <ele>862</ele>
        <time>2022-06-29T09:11:34Z</time>
      </trkpt>
      <trkpt lat="45.38296" lon="3.9035">
        <ele>862</ele>
        <time>2022-06-29T09:11:38Z</time>
      </trkpt>
      <trkpt lat="45.38302" lon="3.90342">
        <ele>862</ele>
        <time>2022-06-29T09:11:43Z</time>
      </trkpt>
      <trkpt lat="45.38307" lon="3.90337">
        <ele>862</ele>
        <time>2022-06-29T09:11:48Z</time>
      </trkpt>
      <trkpt lat="45.38313" lon="3.9033">
        <ele>862</ele>
        <time>2022-06-29T09:11:53Z</time>
      </trkpt>
      <trkpt lat="45.3832" lon="3.90323">
        <ele>864</ele>
        <time>2022-06-29T09:11:58Z</time>
      </trkpt>
      <trkpt lat="45.38324" lon="3.90318">
        <ele>862</ele>
        <time>2022-06-29T09:12:02Z</time>
      </trkpt>
      <trkpt lat="45.3833" lon="3.90311">
        <ele>862</ele>
        <time>2022-06-29T09:12:07Z</time>
      </trkpt>
      <trkpt lat="45.38337" lon="3.90306">
        <ele>862</ele>
        <time>2022-06-29T09:12:12Z</time>
      </trkpt>
      <trkpt lat="45.38342" lon="3.903">
        <ele>862</ele>
        <time>2022-06-29T09:12:16Z</time>
      </trkpt>
      <trkpt lat="45.38349" lon="3.90292">
        <ele>865</ele>
        <time>2022-06-29T09:12:21Z</time>
      </trkpt>
      <trkpt lat="45.38354" lon="3.90286">
        <ele>864</ele>
        <time>2022-06-29T09:12:26Z</time>
      </trkpt>
      <trkpt lat="45.38359" lon="3.90281">
        <ele>864</ele>
        <time>2022-06-29T09:12:30Z</time>
      </trkpt>
      <trkpt lat="45.38366" lon="3.90274">
        <ele>864</ele>
        <time>2022-06-29T09:12:35Z</time>
      </trkpt>
      <trkpt lat="45.38372" lon="3.90267">
        <ele>864</ele>
        <time>2022-06-29T09:12:40Z</time>
      </trkpt>
      <trkpt lat="45.38378" lon="3.90261">
        <ele>866</ele>
        <time>2022-06-29T09:12:45Z</time>
      </trkpt>
      <trkpt lat="45.38383" lon="3.90256">
        <ele>866</ele>
        <time>2022-06-29T09:12:49Z</time>
      </trkpt>
      <trkpt lat="45.3839" lon="3.90249">
        <ele>866</ele>
        <time>2022-06-29T09:12:54Z</time>
      </trkpt>
      <trkpt lat="45.38396" lon="3.90242">
        <ele>866</ele>
        <time>2022-06-29T09:12:59Z</time>
      </trkpt>
      <trkpt lat="45.38403" lon="3.90235">
        <ele>865</ele>
        <time>2022-06-29T09:13:04Z</time>
      </trkpt>
      <trkpt lat="45.38409" lon="3.90228">
        <ele>866</ele>
        <time>2022-06-29T09:13:09Z</time>
      </trkpt>
      <trkpt lat="45.38415" lon="3.9022">
        <ele>866</ele>
        <time>2022-06-29T09:13:14Z</time>
      </trkpt>
      <trkpt lat="45.3842" lon="3.90214">
        <ele>866</ele>
        <time>2022-06-29T09:13:19Z</time>
      </trkpt>
      <trkpt lat="45.38427" lon="3.90207">
        <ele>866</ele>
        <time>2022-06-29T09:13:24Z</time>
      </trkpt>
      <trkpt lat="45.38431" lon="3.90202">
        <ele>868</ele>
        <time>2022-06-29T09:13:28Z</time>
      </trkpt>
      <trkpt lat="45.38437" lon="3.90194">
        <ele>868</ele>
        <time>2022-06-29T09:13:33Z</time>
      </trkpt>
      <trkpt lat="45.38443" lon="3.90189">
        <ele>868</ele>
        <time>2022-06-29T09:13:37Z</time>
      </trkpt>
      <trkpt lat="45.38448" lon="3.90183">
        <ele>868</ele>
        <time>2022-06-29T09:13:41Z</time>
      </trkpt>
      <trkpt lat="45.38454" lon="3.90175">
        <ele>867</ele>
        <time>2022-06-29T09:13:46Z</time>
      </trkpt>
      <trkpt lat="45.38459" lon="3.90168">
        <ele>867</ele>
        <time>2022-06-29T09:13:51Z</time>
      </trkpt>
      <trkpt lat="45.38463" lon="3.90163">
        <ele>867</ele>
        <time>2022-06-29T09:13:55Z</time>
      </trkpt>
      <trkpt lat="45.38468" lon="3.90157">
        <ele>867</ele>
        <time>2022-06-29T09:14:00Z</time>
      </trkpt>
      <trkpt lat="45.38472" lon="3.9015">
        <ele>868</ele>
        <time>2022-06-29T09:14:05Z</time>
      </trkpt>
      <trkpt lat="45.38476" lon="3.90148">
        <ele>868</ele>
        <time>2022-06-29T09:14:09Z</time>
      </trkpt>
      <trkpt lat="45.38483" lon="3.90145">
        <ele>868</ele>
        <time>2022-06-29T09:14:14Z</time>
      </trkpt>
      <trkpt lat="45.38491" lon="3.9014">
        <ele>865</ele>
        <time>2022-06-29T09:14:19Z</time>
      </trkpt>
      <trkpt lat="45.38496" lon="3.90138">
        <ele>865</ele>
        <time>2022-06-29T09:14:23Z</time>
      </trkpt>
      <trkpt lat="45.38505" lon="3.90135">
        <ele>865</ele>
        <time>2022-06-29T09:14:28Z</time>
      </trkpt>
      <trkpt lat="45.38515" lon="3.90134">
        <ele>863</ele>
        <time>2022-06-29T09:14:33Z</time>
      </trkpt>
      <trkpt lat="45.38525" lon="3.90131">
        <ele>863</ele>
        <time>2022-06-29T09:14:38Z</time>
      </trkpt>
      <trkpt lat="45.38534" lon="3.90129">
        <ele>863</ele>
        <time>2022-06-29T09:14:43Z</time>
      </trkpt>
      <trkpt lat="45.3854" lon="3.90127">
        <ele>863</ele>
        <time>2022-06-29T09:14:47Z</time>
      </trkpt>
      <trkpt lat="45.38548" lon="3.90124">
        <ele>859</ele>
        <time>2022-06-29T09:14:52Z</time>
      </trkpt>
      <trkpt lat="45.38555" lon="3.90122">
        <ele>859</ele>
        <time>2022-06-29T09:14:57Z</time>
      </trkpt>
      <trkpt lat="45.38559" lon="3.9012">
        <ele>859</ele>
        <time>2022-06-29T09:15:01Z</time>
      </trkpt>
      <trkpt lat="45.38564" lon="3.90118">
        <ele>859</ele>
        <time>2022-06-29T09:15:06Z</time>
      </trkpt>
      <trkpt lat="45.38571" lon="3.90116">
        <ele>859</ele>
        <time>2022-06-29T09:15:11Z</time>
      </trkpt>
      <trkpt lat="45.38576" lon="3.90113">
        <ele>859</ele>
        <time>2022-06-29T09:15:15Z</time>
      </trkpt>
      <trkpt lat="45.38582" lon="3.90109">
        <ele>859</ele>
        <time>2022-06-29T09:15:20Z</time>
      </trkpt>
      <trkpt lat="45.3859" lon="3.901">
        <ele>859</ele>
        <time>2022-06-29T09:15:25Z</time>
      </trkpt>
      <trkpt lat="45.38595" lon="3.90095">
        <ele>857</ele>
        <time>2022-06-29T09:15:30Z</time>
      </trkpt>
      <trkpt lat="45.38603" lon="3.90088">
        <ele>855</ele>
        <time>2022-06-29T09:15:35Z</time>
      </trkpt>
      <trkpt lat="45.3861" lon="3.90084">
        <ele>855</ele>
        <time>2022-06-29T09:15:40Z</time>
      </trkpt>
      <trkpt lat="45.38616" lon="3.90081">
        <ele>855</ele>
        <time>2022-06-29T09:15:44Z</time>
      </trkpt>
      <trkpt lat="45.38623" lon="3.90077">
        <ele>855</ele>
        <time>2022-06-29T09:15:49Z</time>
      </trkpt>
      <trkpt lat="45.38631" lon="3.90075">
        <ele>848</ele>
        <time>2022-06-29T09:15:54Z</time>
      </trkpt>
      <trkpt lat="45.3864" lon="3.90073">
        <ele>848</ele>
        <time>2022-06-29T09:15:59Z</time>
      </trkpt>
      <trkpt lat="45.38647" lon="3.90071">
        <ele>848</ele>
        <time>2022-06-29T09:16:03Z</time>
      </trkpt>
      <trkpt lat="45.38655" lon="3.9007">
        <ele>846</ele>
        <time>2022-06-29T09:16:07Z</time>
      </trkpt>
      <trkpt lat="45.38662" lon="3.90069">
        <ele>846</ele>
        <time>2022-06-29T09:16:11Z</time>
      </trkpt>
      <trkpt lat="45.3867" lon="3.90068">
        <ele>846</ele>
        <time>2022-06-29T09:16:16Z</time>
      </trkpt>
      <trkpt lat="45.38674" lon="3.90069">
        <ele>846</ele>
        <time>2022-06-29T09:16:20Z</time>
      </trkpt>
      <trkpt lat="45.38681" lon="3.9007">
        <ele>845</ele>
        <time>2022-06-29T09:16:25Z</time>
      </trkpt>
      <trkpt lat="45.38691" lon="3.90074">
        <ele>845</ele>
        <time>2022-06-29T09:16:30Z</time>
      </trkpt>
      <trkpt lat="45.38699" lon="3.90078">
        <ele>845</ele>
        <time>2022-06-29T09:16:35Z</time>
      </trkpt>
      <trkpt lat="45.38705" lon="3.9008">
        <ele>845</ele>
        <time>2022-06-29T09:16:39Z</time>
      </trkpt>
      <trkpt lat="45.38712" lon="3.9008">
        <ele>844</ele>
        <time>2022-06-29T09:16:43Z</time>
      </trkpt>
      <trkpt lat="45.3872" lon="3.90074">
        <ele>844</ele>
        <time>2022-06-29T09:16:48Z</time>
      </trkpt>
      <trkpt lat="45.38726" lon="3.90067">
        <ele>846</ele>
        <time>2022-06-29T09:16:53Z</time>
      </trkpt>
      <trkpt lat="45.38729" lon="3.90059">
        <ele>846</ele>
        <time>2022-06-29T09:16:57Z</time>
      </trkpt>
      <trkpt lat="45.38732" lon="3.90047">
        <ele>846</ele>
        <time>2022-06-29T09:17:02Z</time>
      </trkpt>
      <trkpt lat="45.38732" lon="3.90037">
        <ele>847</ele>
        <time>2022-06-29T09:17:06Z</time>
      </trkpt>
      <trkpt lat="45.38733" lon="3.9003">
        <ele>847</ele>
        <time>2022-06-29T09:17:10Z</time>
      </trkpt>
      <trkpt lat="45.38733" lon="3.9002">
        <ele>847</ele>
        <time>2022-06-29T09:17:15Z</time>
      </trkpt>
      <trkpt lat="45.38735" lon="3.9001">
        <ele>846</ele>
        <time>2022-06-29T09:17:19Z</time>
      </trkpt>
      <trkpt lat="45.38737" lon="3.89999">
        <ele>848</ele>
        <time>2022-06-29T09:17:24Z</time>
      </trkpt>
      <trkpt lat="45.38739" lon="3.8999">
        <ele>848</ele>
        <time>2022-06-29T09:17:28Z</time>
      </trkpt>
      <trkpt lat="45.38743" lon="3.89981">
        <ele>848</ele>
        <time>2022-06-29T09:17:33Z</time>
      </trkpt>
      <trkpt lat="45.38747" lon="3.89972">
        <ele>848</ele>
        <time>2022-06-29T09:17:38Z</time>
      </trkpt>
      <trkpt lat="45.38751" lon="3.89962">
        <ele>848</ele>
        <time>2022-06-29T09:17:43Z</time>
      </trkpt>
      <trkpt lat="45.38755" lon="3.89953">
        <ele>850</ele>
        <time>2022-06-29T09:17:48Z</time>
      </trkpt>
      <trkpt lat="45.3876" lon="3.89945">
        <ele>850</ele>
        <time>2022-06-29T09:17:53Z</time>
      </trkpt>
      <trkpt lat="45.38766" lon="3.89937">
        <ele>851</ele>
        <time>2022-06-29T09:17:58Z</time>
      </trkpt>
      <trkpt lat="45.3877" lon="3.8993">
        <ele>854</ele>
        <time>2022-06-29T09:18:03Z</time>
      </trkpt>
      <trkpt lat="45.38774" lon="3.89925">
        <ele>854</ele>
        <time>2022-06-29T09:18:07Z</time>
      </trkpt>
      <trkpt lat="45.38781" lon="3.89919">
        <ele>854</ele>
        <time>2022-06-29T09:18:12Z</time>
      </trkpt>
      <trkpt lat="45.38787" lon="3.89916">
        <ele>854</ele>
        <time>2022-06-29T09:18:16Z</time>
      </trkpt>
      <trkpt lat="45.38793" lon="3.89913">
        <ele>855</ele>
        <time>2022-06-29T09:18:20Z</time>
      </trkpt>
      <trkpt lat="45.38798" lon="3.89909">
        <ele>855</ele>
        <time>2022-06-29T09:18:24Z</time>
      </trkpt>
      <trkpt lat="45.38803" lon="3.89907">
        <ele>855</ele>
        <time>2022-06-29T09:18:28Z</time>
      </trkpt>
      <trkpt lat="45.38811" lon="3.89904">
        <ele>855</ele>
        <time>2022-06-29T09:18:33Z</time>
      </trkpt>
      <trkpt lat="45.38818" lon="3.899">
        <ele>860</ele>
        <time>2022-06-29T09:18:38Z</time>
      </trkpt>
      <trkpt lat="45.38823" lon="3.89899">
        <ele>863</ele>
        <time>2022-06-29T09:18:42Z</time>
      </trkpt>
      <trkpt lat="45.38831" lon="3.89898">
        <ele>863</ele>
        <time>2022-06-29T09:18:47Z</time>
      </trkpt>
      <trkpt lat="45.38836" lon="3.89897">
        <ele>863</ele>
        <time>2022-06-29T09:18:51Z</time>
      </trkpt>
      <trkpt lat="45.38842" lon="3.89894">
        <ele>863</ele>
        <time>2022-06-29T09:18:56Z</time>
      </trkpt>
      <trkpt lat="45.38844" lon="3.89893">
        <ele>863</ele>
        <time>2022-06-29T09:19:01Z</time>
      </trkpt>
      <trkpt lat="45.38847" lon="3.89892">
        <ele>863</ele>
        <time>2022-06-29T09:19:05Z</time>
      </trkpt>
      <trkpt lat="45.38854" lon="3.8989">
        <ele>865</ele>
        <time>2022-06-29T09:19:10Z</time>
      </trkpt>
      <trkpt lat="45.38861" lon="3.89886">
        <ele>865</ele>
        <time>2022-06-29T09:19:15Z</time>
      </trkpt>
      <trkpt lat="45.38866" lon="3.89883">
        <ele>865</ele>
        <time>2022-06-29T09:19:19Z</time>
      </trkpt>
      <trkpt lat="45.38872" lon="3.89878">
        <ele>865</ele>
        <time>2022-06-29T09:19:24Z</time>
      </trkpt>
      <trkpt lat="45.38877" lon="3.89871">
        <ele>872</ele>
        <time>2022-06-29T09:19:28Z</time>
      </trkpt>
      <trkpt lat="45.38883" lon="3.89862">
        <ele>872</ele>
        <time>2022-06-29T09:19:33Z</time>
      </trkpt>
      <trkpt lat="45.38889" lon="3.89852">
        <ele>872</ele>
        <time>2022-06-29T09:19:38Z</time>
      </trkpt>
      <trkpt lat="45.38893" lon="3.8984">
        <ele>873</ele>
        <time>2022-06-29T09:19:43Z</time>
      </trkpt>
      <trkpt lat="45.38896" lon="3.89834">
        <ele>873</ele>
        <time>2022-06-29T09:19:47Z</time>
      </trkpt>
      <trkpt lat="45.38898" lon="3.89823">
        <ele>873</ele>
        <time>2022-06-29T09:19:52Z</time>
      </trkpt>
      <trkpt lat="45.38901" lon="3.89813">
        <ele>874</ele>
        <time>2022-06-29T09:19:57Z</time>
      </trkpt>
      <trkpt lat="45.38903" lon="3.89805">
        <ele>874</ele>
        <time>2022-06-29T09:20:02Z</time>
      </trkpt>
      <trkpt lat="45.38906" lon="3.89801">
        <ele>872</ele>
        <time>2022-06-29T09:20:06Z</time>
      </trkpt>
      <trkpt lat="45.38916" lon="3.89803">
        <ele>872</ele>
        <time>2022-06-29T09:20:11Z</time>
      </trkpt>
      <trkpt lat="45.38925" lon="3.89808">
        <ele>872</ele>
        <time>2022-06-29T09:20:16Z</time>
      </trkpt>
      <trkpt lat="45.3893" lon="3.89811">
        <ele>872</ele>
        <time>2022-06-29T09:20:20Z</time>
      </trkpt>
      <trkpt lat="45.38938" lon="3.89815">
        <ele>870</ele>
        <time>2022-06-29T09:20:25Z</time>
      </trkpt>
      <trkpt lat="45.38946" lon="3.89817">
        <ele>870</ele>
        <time>2022-06-29T09:20:30Z</time>
      </trkpt>
      <trkpt lat="45.38951" lon="3.89821">
        <ele>872</ele>
        <time>2022-06-29T09:20:35Z</time>
      </trkpt>
      <trkpt lat="45.38959" lon="3.89824">
        <ele>869</ele>
        <time>2022-06-29T09:20:39Z</time>
      </trkpt>
      <trkpt lat="45.38968" lon="3.89828">
        <ele>869</ele>
        <time>2022-06-29T09:20:44Z</time>
      </trkpt>
      <trkpt lat="45.38974" lon="3.8983">
        <ele>869</ele>
        <time>2022-06-29T09:20:48Z</time>
      </trkpt>
      <trkpt lat="45.38982" lon="3.89837">
        <ele>869</ele>
        <time>2022-06-29T09:20:53Z</time>
      </trkpt>
      <trkpt lat="45.38987" lon="3.89842">
        <ele>869</ele>
        <time>2022-06-29T09:20:57Z</time>
      </trkpt>
      <trkpt lat="45.38991" lon="3.89849">
        <ele>869</ele>
        <time>2022-06-29T09:21:02Z</time>
      </trkpt>
      <trkpt lat="45.38996" lon="3.89853">
        <ele>869</ele>
        <time>2022-06-29T09:21:06Z</time>
      </trkpt>
      <trkpt lat="45.39002" lon="3.89857">
        <ele>869</ele>
        <time>2022-06-29T09:21:11Z</time>
      </trkpt>
      <trkpt lat="45.3901" lon="3.8986">
        <ele>869</ele>
        <time>2022-06-29T09:21:16Z</time>
      </trkpt>
      <trkpt lat="45.39015" lon="3.89862">
        <ele>872</ele>
        <time>2022-06-29T09:21:21Z</time>
      </trkpt>
      <trkpt lat="45.3902" lon="3.89863">
        <ele>872</ele>
        <time>2022-06-29T09:21:25Z</time>
      </trkpt>
      <trkpt lat="45.39025" lon="3.89865">
        <ele>872</ele>
        <time>2022-06-29T09:21:30Z</time>
      </trkpt>
      <trkpt lat="45.39031" lon="3.89867">
        <ele>872</ele>
        <time>2022-06-29T09:21:35Z</time>
      </trkpt>
      <trkpt lat="45.39038" lon="3.89868">
        <ele>872</ele>
        <time>2022-06-29T09:21:40Z</time>
      </trkpt>
      <trkpt lat="45.39046" lon="3.89869">
        <ele>874</ele>
        <time>2022-06-29T09:21:45Z</time>
      </trkpt>
      <trkpt lat="45.39053" lon="3.89868">
        <ele>874</ele>
        <time>2022-06-29T09:21:49Z</time>
      </trkpt>
      <trkpt lat="45.39059" lon="3.8987">
        <ele>874</ele>
        <time>2022-06-29T09:21:54Z</time>
      </trkpt>
      <trkpt lat="45.39064" lon="3.8987">
        <ele>874</ele>
        <time>2022-06-29T09:21:58Z</time>
      </trkpt>
      <trkpt lat="45.39071" lon="3.89872">
        <ele>876</ele>
        <time>2022-06-29T09:22:03Z</time>
      </trkpt>
      <trkpt lat="45.39078" lon="3.89872">
        <ele>876</ele>
        <time>2022-06-29T09:22:08Z</time>
      </trkpt>
      <trkpt lat="45.39084" lon="3.89872">
        <ele>876</ele>
        <time>2022-06-29T09:22:12Z</time>
      </trkpt>
      <trkpt lat="45.39088" lon="3.89872">
        <ele>876</ele>
        <time>2022-06-29T09:22:17Z</time>
      </trkpt>
      <trkpt lat="45.39095" lon="3.89871">
        <ele>876</ele>
        <time>2022-06-29T09:22:22Z</time>
      </trkpt>
      <trkpt lat="45.39102" lon="3.89871">
        <ele>875</ele>
        <time>2022-06-29T09:22:27Z</time>
      </trkpt>
      <trkpt lat="45.3911" lon="3.89871">
        <ele>875</ele>
        <time>2022-06-29T09:22:32Z</time>
      </trkpt>
      <trkpt lat="45.39117" lon="3.89871">
        <ele>875</ele>
        <time>2022-06-29T09:22:36Z</time>
      </trkpt>
      <trkpt lat="45.39122" lon="3.89871">
        <ele>875</ele>
        <time>2022-06-29T09:22:40Z</time>
      </trkpt>
      <trkpt lat="45.39129" lon="3.89872">
        <ele>875</ele>
        <time>2022-06-29T09:22:45Z</time>
      </trkpt>
      <trkpt lat="45.39136" lon="3.89872">
        <ele>875</ele>
        <time>2022-06-29T09:22:49Z</time>
      </trkpt>
      <trkpt lat="45.3915" lon="3.89869">
        <ele>875</ele>
        <time>2022-06-29T09:22:54Z</time>
      </trkpt>
      <trkpt lat="45.39168" lon="3.89867">
        <ele>874</ele>
        <time>2022-06-29T09:22:58Z</time>
      </trkpt>
      <trkpt lat="45.39191" lon="3.89866">
        <ele>874</ele>
        <time>2022-06-29T09:23:03Z</time>
      </trkpt>
      <trkpt lat="45.39213" lon="3.89863">
        <ele>876</ele>
        <time>2022-06-29T09:23:08Z</time>
      </trkpt>
      <trkpt lat="45.39236" lon="3.89861">
        <ele>879</ele>
        <time>2022-06-29T09:23:13Z</time>
      </trkpt>
      <trkpt lat="45.3926" lon="3.89857">
        <ele>879</ele>
        <time>2022-06-29T09:23:18Z</time>
      </trkpt>
      <trkpt lat="45.3928" lon="3.89853">
        <ele>882</ele>
        <time>2022-06-29T09:23:23Z</time>
      </trkpt>
      <trkpt lat="45.39295" lon="3.89849">
        <ele>882</ele>
        <time>2022-06-29T09:23:28Z</time>
      </trkpt>
      <trkpt lat="45.39303" lon="3.89851">
        <ele>882</ele>
        <time>2022-06-29T09:23:32Z</time>
      </trkpt>
      <trkpt lat="45.39308" lon="3.89853">
        <ele>882</ele>
        <time>2022-06-29T09:23:36Z</time>
      </trkpt>
      <trkpt lat="45.39315" lon="3.89852">
        <ele>882</ele>
        <time>2022-06-29T09:23:41Z</time>
      </trkpt>
      <trkpt lat="45.39321" lon="3.89844">
        <ele>882</ele>
        <time>2022-06-29T09:23:46Z</time>
      </trkpt>
      <trkpt lat="45.39325" lon="3.89839">
        <ele>882</ele>
        <time>2022-06-29T09:23:50Z</time>
      </trkpt>
      <trkpt lat="45.39328" lon="3.89838">
        <ele>882</ele>
        <time>2022-06-29T09:23:54Z</time>
      </trkpt>
      <trkpt lat="45.3933" lon="3.89837">
        <ele>882</ele>
        <time>2022-06-29T09:23:59Z</time>
      </trkpt>
      <trkpt lat="45.39346" lon="3.89828">
        <ele>882</ele>
        <time>2022-06-29T09:24:13Z</time>
      </trkpt>
      <trkpt lat="45.39353" lon="3.89824">
        <ele>882</ele>
        <time>2022-06-29T09:24:22Z</time>
      </trkpt>
      <trkpt lat="45.39361" lon="3.89819">
        <ele>882</ele>
        <time>2022-06-29T09:24:27Z</time>
      </trkpt>
      <trkpt lat="45.39375" lon="3.89814">
        <ele>880</ele>
        <time>2022-06-29T09:24:32Z</time>
      </trkpt>
      <trkpt lat="45.39384" lon="3.89809">
        <ele>880</ele>
        <time>2022-06-29T09:24:37Z</time>
      </trkpt>
      <trkpt lat="45.39385" lon="3.89809">
        <ele>880</ele>
        <time>2022-06-29T09:24:41Z</time>
      </trkpt>
      <trkpt lat="45.39393" lon="3.89806">
        <ele>880</ele>
        <time>2022-06-29T09:24:51Z</time>
      </trkpt>
      <trkpt lat="45.39401" lon="3.89803">
        <ele>880</ele>
        <time>2022-06-29T09:25:01Z</time>
      </trkpt>
      <trkpt lat="45.39412" lon="3.89799">
        <ele>879</ele>
        <time>2022-06-29T09:25:06Z</time>
      </trkpt>
      <trkpt lat="45.3942" lon="3.89795">
        <ele>879</ele>
        <time>2022-06-29T09:25:10Z</time>
      </trkpt>
      <trkpt lat="45.39428" lon="3.89792">
        <ele>879</ele>
        <time>2022-06-29T09:25:15Z</time>
      </trkpt>
      <trkpt lat="45.3943" lon="3.89792">
        <ele>879</ele>
        <time>2022-06-29T09:25:20Z</time>
      </trkpt>
      <trkpt lat="45.39437" lon="3.89789">
        <ele>878</ele>
        <time>2022-06-29T09:25:25Z</time>
      </trkpt>
      <trkpt lat="45.39458" lon="3.89782">
        <ele>878</ele>
        <time>2022-06-29T09:25:30Z</time>
      </trkpt>
      <trkpt lat="45.39468" lon="3.89781">
        <ele>880</ele>
        <time>2022-06-29T09:25:34Z</time>
      </trkpt>
      <trkpt lat="45.39479" lon="3.89779">
        <ele>880</ele>
        <time>2022-06-29T09:25:39Z</time>
      </trkpt>
      <trkpt lat="45.39487" lon="3.89777">
        <ele>880</ele>
        <time>2022-06-29T09:25:44Z</time>
      </trkpt>
      <trkpt lat="45.39495" lon="3.89775">
        <ele>880</ele>
        <time>2022-06-29T09:25:49Z</time>
      </trkpt>
      <trkpt lat="45.39502" lon="3.89772">
        <ele>880</ele>
        <time>2022-06-29T09:25:54Z</time>
      </trkpt>
      <trkpt lat="45.39505" lon="3.89771">
        <ele>880</ele>
        <time>2022-06-29T09:25:58Z</time>
      </trkpt>
      <trkpt lat="45.39509" lon="3.8977">
        <ele>880</ele>
        <time>2022-06-29T09:26:03Z</time>
      </trkpt>
      <trkpt lat="45.39518" lon="3.89765">
        <ele>877</ele>
        <time>2022-06-29T09:26:08Z</time>
      </trkpt>
      <trkpt lat="45.39525" lon="3.89757">
        <ele>874</ele>
        <time>2022-06-29T09:26:13Z</time>
      </trkpt>
      <trkpt lat="45.39527" lon="3.89756">
        <ele>874</ele>
        <time>2022-06-29T09:26:17Z</time>
      </trkpt>
      <trkpt lat="45.39531" lon="3.89752">
        <ele>874</ele>
        <time>2022-06-29T09:26:22Z</time>
      </trkpt>
      <trkpt lat="45.39536" lon="3.89745">
        <ele>874</ele>
        <time>2022-06-29T09:26:27Z</time>
      </trkpt>
      <trkpt lat="45.39543" lon="3.8974">
        <ele>872</ele>
        <time>2022-06-29T09:26:37Z</time>
      </trkpt>
      <trkpt lat="45.39549" lon="3.89737">
        <ele>872</ele>
        <time>2022-06-29T09:26:41Z</time>
      </trkpt>
      <trkpt lat="45.39562" lon="3.89728">
        <ele>870</ele>
        <time>2022-06-29T09:26:46Z</time>
      </trkpt>
      <trkpt lat="45.39566" lon="3.89725">
        <ele>870</ele>
        <time>2022-06-29T09:26:51Z</time>
      </trkpt>
      <trkpt lat="45.3957" lon="3.89722">
        <ele>871</ele>
        <time>2022-06-29T09:26:56Z</time>
      </trkpt>
      <trkpt lat="45.39577" lon="3.89718">
        <ele>871</ele>
        <time>2022-06-29T09:27:00Z</time>
      </trkpt>
      <trkpt lat="45.39579" lon="3.89717">
        <ele>871</ele>
        <time>2022-06-29T09:27:05Z</time>
      </trkpt>
      <trkpt lat="45.39585" lon="3.89713">
        <ele>871</ele>
        <time>2022-06-29T09:27:10Z</time>
      </trkpt>
      <trkpt lat="45.39593" lon="3.8971">
        <ele>871</ele>
        <time>2022-06-29T09:27:15Z</time>
      </trkpt>
      <trkpt lat="45.39601" lon="3.89707">
        <ele>872</ele>
        <time>2022-06-29T09:27:19Z</time>
      </trkpt>
      <trkpt lat="45.39614" lon="3.89701">
        <ele>872</ele>
        <time>2022-06-29T09:27:24Z</time>
      </trkpt>
      <trkpt lat="45.39618" lon="3.897">
        <ele>872</ele>
        <time>2022-06-29T09:27:28Z</time>
      </trkpt>
      <trkpt lat="45.39633" lon="3.89693">
        <ele>870</ele>
        <time>2022-06-29T09:27:33Z</time>
      </trkpt>
      <trkpt lat="45.3964" lon="3.8969">
        <ele>870</ele>
        <time>2022-06-29T09:27:38Z</time>
      </trkpt>
      <trkpt lat="45.3965" lon="3.89685">
        <ele>870</ele>
        <time>2022-06-29T09:27:43Z</time>
      </trkpt>
      <trkpt lat="45.39657" lon="3.89681">
        <ele>864</ele>
        <time>2022-06-29T09:27:48Z</time>
      </trkpt>
      <trkpt lat="45.39662" lon="3.89674">
        <ele>862</ele>
        <time>2022-06-29T09:27:52Z</time>
      </trkpt>
      <trkpt lat="45.39667" lon="3.89666">
        <ele>862</ele>
        <time>2022-06-29T09:28:02Z</time>
      </trkpt>
      <trkpt lat="45.39674" lon="3.89661">
        <ele>862</ele>
        <time>2022-06-29T09:28:07Z</time>
      </trkpt>
      <trkpt lat="45.39678" lon="3.8966">
        <ele>862</ele>
        <time>2022-06-29T09:28:11Z</time>
      </trkpt>
      <trkpt lat="45.39687" lon="3.89658">
        <ele>859</ele>
        <time>2022-06-29T09:28:15Z</time>
      </trkpt>
      <trkpt lat="45.39694" lon="3.89658">
        <ele>859</ele>
        <time>2022-06-29T09:28:20Z</time>
      </trkpt>
      <trkpt lat="45.39704" lon="3.89659">
        <ele>859</ele>
        <time>2022-06-29T09:28:25Z</time>
      </trkpt>
      <trkpt lat="45.39712" lon="3.89659">
        <ele>857</ele>
        <time>2022-06-29T09:28:29Z</time>
      </trkpt>
      <trkpt lat="45.39718" lon="3.89658">
        <ele>857</ele>
        <time>2022-06-29T09:28:34Z</time>
      </trkpt>
      <trkpt lat="45.39727" lon="3.8966">
        <ele>857</ele>
        <time>2022-06-29T09:28:39Z</time>
      </trkpt>
      <trkpt lat="45.39732" lon="3.89661">
        <ele>857</ele>
        <time>2022-06-29T09:28:43Z</time>
      </trkpt>
      <trkpt lat="45.3974" lon="3.89661">
        <ele>857</ele>
        <time>2022-06-29T09:28:48Z</time>
      </trkpt>
      <trkpt lat="45.39746" lon="3.89661">
        <ele>857</ele>
        <time>2022-06-29T09:28:52Z</time>
      </trkpt>
      <trkpt lat="45.39754" lon="3.89662">
        <ele>857</ele>
        <time>2022-06-29T09:28:56Z</time>
      </trkpt>
      <trkpt lat="45.39764" lon="3.89661">
        <ele>857</ele>
        <time>2022-06-29T09:29:01Z</time>
      </trkpt>
      <trkpt lat="45.39771" lon="3.89659">
        <ele>857</ele>
        <time>2022-06-29T09:29:06Z</time>
      </trkpt>
      <trkpt lat="45.39777" lon="3.89657">
        <ele>857</ele>
        <time>2022-06-29T09:29:10Z</time>
      </trkpt>
      <trkpt lat="45.39785" lon="3.89656">
        <ele>857</ele>
        <time>2022-06-29T09:29:15Z</time>
      </trkpt>
      <trkpt lat="45.3979" lon="3.89655">
        <ele>857</ele>
        <time>2022-06-29T09:29:19Z</time>
      </trkpt>
      <trkpt lat="45.39798" lon="3.89652">
        <ele>859</ele>
        <time>2022-06-29T09:29:24Z</time>
      </trkpt>
      <trkpt lat="45.39799" lon="3.89652">
        <ele>859</ele>
        <time>2022-06-29T09:29:29Z</time>
      </trkpt>
      <trkpt lat="45.39801" lon="3.89651">
        <ele>859</ele>
        <time>2022-06-29T09:29:34Z</time>
      </trkpt>
      <trkpt lat="45.39808" lon="3.89647">
        <ele>859</ele>
        <time>2022-06-29T09:29:38Z</time>
      </trkpt>
      <trkpt lat="45.39816" lon="3.89641">
        <ele>859</ele>
        <time>2022-06-29T09:29:43Z</time>
      </trkpt>
      <trkpt lat="45.39823" lon="3.89638">
        <ele>860</ele>
        <time>2022-06-29T09:29:47Z</time>
      </trkpt>
      <trkpt lat="45.39835" lon="3.89632">
        <ele>860</ele>
        <time>2022-06-29T09:29:52Z</time>
      </trkpt>
      <trkpt lat="45.39844" lon="3.89629">
        <ele>860</ele>
        <time>2022-06-29T09:29:57Z</time>
      </trkpt>
      <trkpt lat="45.39852" lon="3.89626">
        <ele>858</ele>
        <time>2022-06-29T09:30:02Z</time>
      </trkpt>
      <trkpt lat="45.39862" lon="3.89623">
        <ele>854</ele>
        <time>2022-06-29T09:30:07Z</time>
      </trkpt>
      <trkpt lat="45.39872" lon="3.8962">
        <ele>854</ele>
        <time>2022-06-29T09:30:12Z</time>
      </trkpt>
      <trkpt lat="45.39878" lon="3.89619">
        <ele>851</ele>
        <time>2022-06-29T09:30:17Z</time>
      </trkpt>
      <trkpt lat="45.39883" lon="3.8962">
        <ele>851</ele>
        <time>2022-06-29T09:30:21Z</time>
      </trkpt>
      <trkpt lat="45.39892" lon="3.8962">
        <ele>851</ele>
        <time>2022-06-29T09:30:26Z</time>
      </trkpt>
      <trkpt lat="45.39898" lon="3.8962">
        <ele>851</ele>
        <time>2022-06-29T09:30:31Z</time>
      </trkpt>
      <trkpt lat="45.39905" lon="3.89617">
        <ele>852</ele>
        <time>2022-06-29T09:30:36Z</time>
      </trkpt>
      <trkpt lat="45.39911" lon="3.89616">
        <ele>852</ele>
        <time>2022-06-29T09:30:40Z</time>
      </trkpt>
      <trkpt lat="45.39917" lon="3.89616">
        <ele>852</ele>
        <time>2022-06-29T09:30:45Z</time>
      </trkpt>
      <trkpt lat="45.39924" lon="3.89614">
        <ele>852</ele>
        <time>2022-06-29T09:30:49Z</time>
      </trkpt>
      <trkpt lat="45.39931" lon="3.89613">
        <ele>853</ele>
        <time>2022-06-29T09:30:53Z</time>
      </trkpt>
      <trkpt lat="45.39938" lon="3.89612">
        <ele>853</ele>
        <time>2022-06-29T09:30:58Z</time>
      </trkpt>
      <trkpt lat="45.39944" lon="3.89612">
        <ele>853</ele>
        <time>2022-06-29T09:31:03Z</time>
      </trkpt>
      <trkpt lat="45.39953" lon="3.8961">
        <ele>853</ele>
        <time>2022-06-29T09:31:08Z</time>
      </trkpt>
      <trkpt lat="45.39961" lon="3.89609">
        <ele>853</ele>
        <time>2022-06-29T09:31:12Z</time>
      </trkpt>
      <trkpt lat="45.39967" lon="3.89607">
        <ele>853</ele>
        <time>2022-06-29T09:31:16Z</time>
      </trkpt>
      <trkpt lat="45.39974" lon="3.89608">
        <ele>853</ele>
        <time>2022-06-29T09:31:21Z</time>
      </trkpt>
      <trkpt lat="45.39981" lon="3.89609">
        <ele>853</ele>
        <time>2022-06-29T09:31:26Z</time>
      </trkpt>
      <trkpt lat="45.39988" lon="3.89613">
        <ele>850</ele>
        <time>2022-06-29T09:31:31Z</time>
      </trkpt>
      <trkpt lat="45.39995" lon="3.89614">
        <ele>850</ele>
        <time>2022-06-29T09:31:36Z</time>
      </trkpt>
      <trkpt lat="45.4" lon="3.89617">
        <ele>850</ele>
        <time>2022-06-29T09:31:40Z</time>
      </trkpt>
      <trkpt lat="45.40007" lon="3.89623">
        <ele>850</ele>
        <time>2022-06-29T09:31:45Z</time>
      </trkpt>
      <trkpt lat="45.40014" lon="3.89629">
        <ele>849</ele>
        <time>2022-06-29T09:31:50Z</time>
      </trkpt>
      <trkpt lat="45.40018" lon="3.8963">
        <ele>849</ele>
        <time>2022-06-29T09:31:55Z</time>
      </trkpt>
      <trkpt lat="45.40023" lon="3.89629">
        <ele>849</ele>
        <time>2022-06-29T09:32:00Z</time>
      </trkpt>
      <trkpt lat="45.40028" lon="3.8963">
        <ele>849</ele>
        <time>2022-06-29T09:32:04Z</time>
      </trkpt>
      <trkpt lat="45.40035" lon="3.89632">
        <ele>849</ele>
        <time>2022-06-29T09:32:09Z</time>
      </trkpt>
      <trkpt lat="45.40042" lon="3.89634">
        <ele>845</ele>
        <time>2022-06-29T09:32:13Z</time>
      </trkpt>
      <trkpt lat="45.40047" lon="3.89635">
        <ele>845</ele>
        <time>2022-06-29T09:32:17Z</time>
      </trkpt>
      <trkpt lat="45.40051" lon="3.89636">
        <ele>845</ele>
        <time>2022-06-29T09:32:22Z</time>
      </trkpt>
      <trkpt lat="45.40059" lon="3.89639">
        <ele>845</ele>
        <time>2022-06-29T09:32:27Z</time>
      </trkpt>
      <trkpt lat="45.40066" lon="3.89645">
        <ele>845</ele>
        <time>2022-06-29T09:32:32Z</time>
      </trkpt>
      <trkpt lat="45.40075" lon="3.89651">
        <ele>842</ele>
        <time>2022-06-29T09:32:37Z</time>
      </trkpt>
      <trkpt lat="45.40085" lon="3.89654">
        <ele>843</ele>
        <time>2022-06-29T09:32:42Z</time>
      </trkpt>
      <trkpt lat="45.40091" lon="3.89659">
        <ele>843</ele>
        <time>2022-06-29T09:32:47Z</time>
      </trkpt>
      <trkpt lat="45.40097" lon="3.89662">
        <ele>843</ele>
        <time>2022-06-29T09:32:51Z</time>
      </trkpt>
      <trkpt lat="45.40106" lon="3.89668">
        <ele>842</ele>
        <time>2022-06-29T09:32:56Z</time>
      </trkpt>
      <trkpt lat="45.40111" lon="3.8967">
        <ele>842</ele>
        <time>2022-06-29T09:33:00Z</time>
      </trkpt>
      <trkpt lat="45.40117" lon="3.89673">
        <ele>842</ele>
        <time>2022-06-29T09:33:05Z</time>
      </trkpt>
      <trkpt lat="45.40122" lon="3.89676">
        <ele>842</ele>
        <time>2022-06-29T09:33:10Z</time>
      </trkpt>
      <trkpt lat="45.4013" lon="3.89682">
        <ele>844</ele>
        <time>2022-06-29T09:33:15Z</time>
      </trkpt>
      <trkpt lat="45.40136" lon="3.89688">
        <ele>844</ele>
        <time>2022-06-29T09:33:20Z</time>
      </trkpt>
      <trkpt lat="45.40142" lon="3.8969">
        <ele>844</ele>
        <time>2022-06-29T09:33:24Z</time>
      </trkpt>
      <trkpt lat="45.4015" lon="3.89693">
        <ele>844</ele>
        <time>2022-06-29T09:33:29Z</time>
      </trkpt>
      <trkpt lat="45.40157" lon="3.89697">
        <ele>840</ele>
        <time>2022-06-29T09:33:34Z</time>
      </trkpt>
      <trkpt lat="45.40167" lon="3.89701">
        <ele>840</ele>
        <time>2022-06-29T09:33:39Z</time>
      </trkpt>
      <trkpt lat="45.40172" lon="3.89705">
        <ele>840</ele>
        <time>2022-06-29T09:33:44Z</time>
      </trkpt>
      <trkpt lat="45.40177" lon="3.89706">
        <ele>840</ele>
        <time>2022-06-29T09:33:49Z</time>
      </trkpt>
      <trkpt lat="45.40182" lon="3.89709">
        <ele>836</ele>
        <time>2022-06-29T09:33:54Z</time>
      </trkpt>
      <trkpt lat="45.4019" lon="3.89711">
        <ele>836</ele>
        <time>2022-06-29T09:33:59Z</time>
      </trkpt>
      <trkpt lat="45.40201" lon="3.89712">
        <ele>836</ele>
        <time>2022-06-29T09:34:04Z</time>
      </trkpt>
      <trkpt lat="45.40211" lon="3.89714">
        <ele>832</ele>
        <time>2022-06-29T09:34:09Z</time>
      </trkpt>
      <trkpt lat="45.40219" lon="3.89715">
        <ele>832</ele>
        <time>2022-06-29T09:34:13Z</time>
      </trkpt>
      <trkpt lat="45.40227" lon="3.89717">
        <ele>832</ele>
        <time>2022-06-29T09:34:18Z</time>
      </trkpt>
      <trkpt lat="45.40236" lon="3.89718">
        <ele>831</ele>
        <time>2022-06-29T09:34:23Z</time>
      </trkpt>
      <trkpt lat="45.40245" lon="3.89715">
        <ele>831</ele>
        <time>2022-06-29T09:34:28Z</time>
      </trkpt>
      <trkpt lat="45.40252" lon="3.89712">
        <ele>831</ele>
        <time>2022-06-29T09:34:32Z</time>
      </trkpt>
      <trkpt lat="45.40259" lon="3.89709">
        <ele>831</ele>
        <time>2022-06-29T09:34:37Z</time>
      </trkpt>
      <trkpt lat="45.40268" lon="3.89701">
        <ele>828</ele>
        <time>2022-06-29T09:34:42Z</time>
      </trkpt>
      <trkpt lat="45.40278" lon="3.89698">
        <ele>828</ele>
        <time>2022-06-29T09:34:47Z</time>
      </trkpt>
      <trkpt lat="45.40283" lon="3.89696">
        <ele>828</ele>
        <time>2022-06-29T09:34:51Z</time>
      </trkpt>
      <trkpt lat="45.40292" lon="3.89695">
        <ele>828</ele>
        <time>2022-06-29T09:34:56Z</time>
      </trkpt>
      <trkpt lat="45.40299" lon="3.89696">
        <ele>824</ele>
        <time>2022-06-29T09:35:01Z</time>
      </trkpt>
      <trkpt lat="45.40306" lon="3.89698">
        <ele>824</ele>
        <time>2022-06-29T09:35:06Z</time>
      </trkpt>
      <trkpt lat="45.40314" lon="3.89698">
        <ele>824</ele>
        <time>2022-06-29T09:35:11Z</time>
      </trkpt>
      <trkpt lat="45.40322" lon="3.89696">
        <ele>819</ele>
        <time>2022-06-29T09:35:16Z</time>
      </trkpt>
      <trkpt lat="45.40328" lon="3.89696">
        <ele>819</ele>
        <time>2022-06-29T09:35:20Z</time>
      </trkpt>
      <trkpt lat="45.40334" lon="3.89698">
        <ele>819</ele>
        <time>2022-06-29T09:35:25Z</time>
      </trkpt>
      <trkpt lat="45.40338" lon="3.89698">
        <ele>819</ele>
        <time>2022-06-29T09:35:30Z</time>
      </trkpt>
      <trkpt lat="45.40344" lon="3.89696">
        <ele>819</ele>
        <time>2022-06-29T09:35:35Z</time>
      </trkpt>
      <trkpt lat="45.40348" lon="3.89696">
        <ele>814</ele>
        <time>2022-06-29T09:35:40Z</time>
      </trkpt>
      <trkpt lat="45.40354" lon="3.89698">
        <ele>814</ele>
        <time>2022-06-29T09:35:45Z</time>
      </trkpt>
      <trkpt lat="45.40362" lon="3.89697">
        <ele>814</ele>
        <time>2022-06-29T09:35:50Z</time>
      </trkpt>
      <trkpt lat="45.40368" lon="3.89687">
        <ele>814</ele>
        <time>2022-06-29T09:35:54Z</time>
      </trkpt>
      <trkpt lat="45.4037" lon="3.89677">
        <ele>808</ele>
        <time>2022-06-29T09:35:59Z</time>
      </trkpt>
      <trkpt lat="45.40373" lon="3.89673">
        <ele>808</ele>
        <time>2022-06-29T09:36:04Z</time>
      </trkpt>
      <trkpt lat="45.40376" lon="3.89673">
        <ele>806</ele>
        <time>2022-06-29T09:36:09Z</time>
      </trkpt>
      <trkpt lat="45.40379" lon="3.89674">
        <ele>806</ele>
        <time>2022-06-29T09:36:14Z</time>
      </trkpt>
      <trkpt lat="45.4038" lon="3.89674">
        <ele>806</ele>
        <time>2022-06-29T09:36:19Z</time>
      </trkpt>
      <trkpt lat="45.40381" lon="3.89675">
        <ele>806</ele>
        <time>2022-06-29T09:36:23Z</time>
      </trkpt>
      <trkpt lat="45.40386" lon="3.8967">
        <ele>806</ele>
        <time>2022-06-29T09:36:28Z</time>
      </trkpt>
      <trkpt lat="45.40391" lon="3.89661">
        <ele>806</ele>
        <time>2022-06-29T09:36:33Z</time>
      </trkpt>
      <trkpt lat="45.40393" lon="3.89657">
        <ele>806</ele>
        <time>2022-06-29T09:36:37Z</time>
      </trkpt>
      <trkpt lat="45.40396" lon="3.89651">
        <ele>805</ele>
        <time>2022-06-29T09:36:41Z</time>
      </trkpt>
      <trkpt lat="45.40401" lon="3.89644">
        <ele>805</ele>
        <time>2022-06-29T09:36:46Z</time>
      </trkpt>
      <trkpt lat="45.404" lon="3.89639">
        <ele>805</ele>
        <time>2022-06-29T09:36:50Z</time>
      </trkpt>
      <trkpt lat="45.40397" lon="3.89631">
        <ele>805</ele>
        <time>2022-06-29T09:36:55Z</time>
      </trkpt>
      <trkpt lat="45.40394" lon="3.89623">
        <ele>805</ele>
        <time>2022-06-29T09:38:21Z</time>
      </trkpt>
      <trkpt lat="45.40394" lon="3.89623">
        <ele>805</ele>
        <time>2022-06-29T09:38:25Z</time>
      </trkpt>
      <trkpt lat="45.40394" lon="3.89623">
        <ele>805</ele>
        <time>2022-06-29T09:38:29Z</time>
      </trkpt>
      <trkpt lat="45.40394" lon="3.89622">
        <ele>805</ele>
        <time>2022-06-29T09:38:33Z</time>
      </trkpt>
      <trkpt lat="45.40394" lon="3.89612">
        <ele>805</ele>
        <time>2022-06-29T09:38:38Z</time>
      </trkpt>
      <trkpt lat="45.40395" lon="3.89607">
        <ele>805</ele>
        <time>2022-06-29T09:38:42Z</time>
      </trkpt>
      <trkpt lat="45.40399" lon="3.896">
        <ele>805</ele>
        <time>2022-06-29T09:38:47Z</time>
      </trkpt>
      <trkpt lat="45.40404" lon="3.8959">
        <ele>805</ele>
        <time>2022-06-29T09:38:52Z</time>
      </trkpt>
      <trkpt lat="45.40407" lon="3.8958">
        <ele>805</ele>
        <time>2022-06-29T09:38:57Z</time>
      </trkpt>
      <trkpt lat="45.40413" lon="3.89571">
        <ele>805</ele>
        <time>2022-06-29T09:39:02Z</time>
      </trkpt>
      <trkpt lat="45.40418" lon="3.89562">
        <ele>805</ele>
        <time>2022-06-29T09:39:07Z</time>
      </trkpt>
      <trkpt lat="45.40423" lon="3.89555">
        <ele>805</ele>
        <time>2022-06-29T09:39:11Z</time>
      </trkpt>
      <trkpt lat="45.40427" lon="3.89545">
        <ele>805</ele>
        <time>2022-06-29T09:39:16Z</time>
      </trkpt>
      <trkpt lat="45.4043" lon="3.89534">
        <ele>806</ele>
        <time>2022-06-29T09:39:21Z</time>
      </trkpt>
      <trkpt lat="45.40433" lon="3.89522">
        <ele>806</ele>
        <time>2022-06-29T09:39:26Z</time>
      </trkpt>
      <trkpt lat="45.40437" lon="3.89512">
        <ele>807</ele>
        <time>2022-06-29T09:39:31Z</time>
      </trkpt>
      <trkpt lat="45.40443" lon="3.89503">
        <ele>807</ele>
        <time>2022-06-29T09:39:36Z</time>
      </trkpt>
      <trkpt lat="45.40448" lon="3.89495">
        <ele>807</ele>
        <time>2022-06-29T09:39:41Z</time>
      </trkpt>
      <trkpt lat="45.40454" lon="3.89489">
        <ele>807</ele>
        <time>2022-06-29T09:39:45Z</time>
      </trkpt>
      <trkpt lat="45.4046" lon="3.8948">
        <ele>809</ele>
        <time>2022-06-29T09:39:50Z</time>
      </trkpt>
      <trkpt lat="45.40464" lon="3.89473">
        <ele>809</ele>
        <time>2022-06-29T09:39:54Z</time>
      </trkpt>
      <trkpt lat="45.40468" lon="3.89466">
        <ele>809</ele>
        <time>2022-06-29T09:39:58Z</time>
      </trkpt>
      <trkpt lat="45.40473" lon="3.89456">
        <ele>812</ele>
        <time>2022-06-29T09:40:03Z</time>
      </trkpt>
      <trkpt lat="45.40479" lon="3.89447">
        <ele>812</ele>
        <time>2022-06-29T09:40:08Z</time>
      </trkpt>
      <trkpt lat="45.40484" lon="3.89437">
        <ele>812</ele>
        <time>2022-06-29T09:40:13Z</time>
      </trkpt>
      <trkpt lat="45.4049" lon="3.89426">
        <ele>813</ele>
        <time>2022-06-29T09:40:18Z</time>
      </trkpt>
      <trkpt lat="45.40494" lon="3.89414">
        <ele>813</ele>
        <time>2022-06-29T09:40:23Z</time>
      </trkpt>
      <trkpt lat="45.40499" lon="3.89404">
        <ele>813</ele>
        <time>2022-06-29T09:40:28Z</time>
      </trkpt>
      <trkpt lat="45.40502" lon="3.89393">
        <ele>816</ele>
        <time>2022-06-29T09:40:33Z</time>
      </trkpt>
      <trkpt lat="45.40504" lon="3.89382">
        <ele>816</ele>
        <time>2022-06-29T09:40:38Z</time>
      </trkpt>
      <trkpt lat="45.40503" lon="3.89372">
        <ele>820</ele>
        <time>2022-06-29T09:40:42Z</time>
      </trkpt>
      <trkpt lat="45.40497" lon="3.89361">
        <ele>820</ele>
        <time>2022-06-29T09:40:47Z</time>
      </trkpt>
      <trkpt lat="45.40492" lon="3.89352">
        <ele>820</ele>
        <time>2022-06-29T09:40:52Z</time>
      </trkpt>
      <trkpt lat="45.40491" lon="3.89339">
        <ele>821</ele>
        <time>2022-06-29T09:40:57Z</time>
      </trkpt>
      <trkpt lat="45.40494" lon="3.89326">
        <ele>821</ele>
        <time>2022-06-29T09:41:02Z</time>
      </trkpt>
      <trkpt lat="45.40498" lon="3.89316">
        <ele>824</ele>
        <time>2022-06-29T09:41:07Z</time>
      </trkpt>
      <trkpt lat="45.40502" lon="3.89308">
        <ele>824</ele>
        <time>2022-06-29T09:41:11Z</time>
      </trkpt>
      <trkpt lat="45.40507" lon="3.89299">
        <ele>824</ele>
        <time>2022-06-29T09:41:16Z</time>
      </trkpt>
      <trkpt lat="45.40511" lon="3.89292">
        <ele>824</ele>
        <time>2022-06-29T09:41:20Z</time>
      </trkpt>
      <trkpt lat="45.40515" lon="3.89286">
        <ele>829</ele>
        <time>2022-06-29T09:41:24Z</time>
      </trkpt>
      <trkpt lat="45.40521" lon="3.89276">
        <ele>829</ele>
        <time>2022-06-29T09:41:29Z</time>
      </trkpt>
      <trkpt lat="45.40524" lon="3.8927">
        <ele>829</ele>
        <time>2022-06-29T09:41:34Z</time>
      </trkpt>
      <trkpt lat="45.40525" lon="3.89269">
        <ele>829</ele>
        <time>2022-06-29T09:41:39Z</time>
      </trkpt>
      <trkpt lat="45.4053" lon="3.8926">
        <ele>831</ele>
        <time>2022-06-29T09:41:44Z</time>
      </trkpt>
      <trkpt lat="45.40535" lon="3.89249">
        <ele>831</ele>
        <time>2022-06-29T09:41:49Z</time>
      </trkpt>
      <trkpt lat="45.40539" lon="3.8924">
        <ele>831</ele>
        <time>2022-06-29T09:41:54Z</time>
      </trkpt>
      <trkpt lat="45.40542" lon="3.89232">
        <ele>833</ele>
        <time>2022-06-29T09:41:58Z</time>
      </trkpt>
      <trkpt lat="45.40546" lon="3.8922">
        <ele>833</ele>
        <time>2022-06-29T09:42:03Z</time>
      </trkpt>
      <trkpt lat="45.4055" lon="3.89211">
        <ele>833</ele>
        <time>2022-06-29T09:42:08Z</time>
      </trkpt>
      <trkpt lat="45.40555" lon="3.89203">
        <ele>834</ele>
        <time>2022-06-29T09:42:12Z</time>
      </trkpt>
      <trkpt lat="45.4056" lon="3.89194">
        <ele>834</ele>
        <time>2022-06-29T09:42:17Z</time>
      </trkpt>
      <trkpt lat="45.40563" lon="3.89184">
        <ele>834</ele>
        <time>2022-06-29T09:42:22Z</time>
      </trkpt>
      <trkpt lat="45.40567" lon="3.89175">
        <ele>836</ele>
        <time>2022-06-29T09:42:26Z</time>
      </trkpt>
      <trkpt lat="45.40572" lon="3.89168">
        <ele>837</ele>
        <time>2022-06-29T09:42:30Z</time>
      </trkpt>
      <trkpt lat="45.40578" lon="3.89158">
        <ele>837</ele>
        <time>2022-06-29T09:42:35Z</time>
      </trkpt>
      <trkpt lat="45.40583" lon="3.89148">
        <ele>838</ele>
        <time>2022-06-29T09:42:40Z</time>
      </trkpt>
      <trkpt lat="45.40588" lon="3.89138">
        <ele>838</ele>
        <time>2022-06-29T09:42:45Z</time>
      </trkpt>
      <trkpt lat="45.40592" lon="3.8913">
        <ele>838</ele>
        <time>2022-06-29T09:42:49Z</time>
      </trkpt>
      <trkpt lat="45.40596" lon="3.89123">
        <ele>843</ele>
        <time>2022-06-29T09:42:53Z</time>
      </trkpt>
      <trkpt lat="45.406" lon="3.89114">
        <ele>846</ele>
        <time>2022-06-29T09:42:58Z</time>
      </trkpt>
      <trkpt lat="45.40604" lon="3.89106">
        <ele>846</ele>
        <time>2022-06-29T09:43:02Z</time>
      </trkpt>
      <trkpt lat="45.4061" lon="3.89097">
        <ele>849</ele>
        <time>2022-06-29T09:43:07Z</time>
      </trkpt>
      <trkpt lat="45.40615" lon="3.89087">
        <ele>849</ele>
        <time>2022-06-29T09:43:12Z</time>
      </trkpt>
      <trkpt lat="45.40619" lon="3.89078">
        <ele>849</ele>
        <time>2022-06-29T09:43:17Z</time>
      </trkpt>
      <trkpt lat="45.40623" lon="3.89069">
        <ele>850</ele>
        <time>2022-06-29T09:43:21Z</time>
      </trkpt>
      <trkpt lat="45.40629" lon="3.8906">
        <ele>852</ele>
        <time>2022-06-29T09:43:26Z</time>
      </trkpt>
      <trkpt lat="45.40635" lon="3.89052">
        <ele>852</ele>
        <time>2022-06-29T09:43:31Z</time>
      </trkpt>
      <trkpt lat="45.40641" lon="3.89044">
        <ele>852</ele>
        <time>2022-06-29T09:43:36Z</time>
      </trkpt>
      <trkpt lat="45.40646" lon="3.89033">
        <ele>853</ele>
        <time>2022-06-29T09:43:41Z</time>
      </trkpt>
      <trkpt lat="45.40651" lon="3.89028">
        <ele>853</ele>
        <time>2022-06-29T09:43:45Z</time>
      </trkpt>
      <trkpt lat="45.40657" lon="3.89018">
        <ele>856</ele>
        <time>2022-06-29T09:43:50Z</time>
      </trkpt>
      <trkpt lat="45.40662" lon="3.8901">
        <ele>860</ele>
        <time>2022-06-29T09:43:55Z</time>
      </trkpt>
      <trkpt lat="45.40666" lon="3.89002">
        <ele>860</ele>
        <time>2022-06-29T09:43:59Z</time>
      </trkpt>
      <trkpt lat="45.40671" lon="3.88988">
        <ele>860</ele>
        <time>2022-06-29T09:44:04Z</time>
      </trkpt>
      <trkpt lat="45.40674" lon="3.88978">
        <ele>861</ele>
        <time>2022-06-29T09:44:09Z</time>
      </trkpt>
      <trkpt lat="45.40677" lon="3.88966">
        <ele>861</ele>
        <time>2022-06-29T09:44:14Z</time>
      </trkpt>
      <trkpt lat="45.40678" lon="3.88956">
        <ele>860</ele>
        <time>2022-06-29T09:44:18Z</time>
      </trkpt>
      <trkpt lat="45.4068" lon="3.88944">
        <ele>860</ele>
        <time>2022-06-29T09:44:23Z</time>
      </trkpt>
      <trkpt lat="45.4068" lon="3.88934">
        <ele>860</ele>
        <time>2022-06-29T09:44:27Z</time>
      </trkpt>
      <trkpt lat="45.4068" lon="3.88921">
        <ele>860</ele>
        <time>2022-06-29T09:44:32Z</time>
      </trkpt>
      <trkpt lat="45.40682" lon="3.88909">
        <ele>860</ele>
        <time>2022-06-29T09:44:37Z</time>
      </trkpt>
      <trkpt lat="45.40683" lon="3.88897">
        <ele>860</ele>
        <time>2022-06-29T09:44:42Z</time>
      </trkpt>
      <trkpt lat="45.40684" lon="3.88889">
        <ele>860</ele>
        <time>2022-06-29T09:44:46Z</time>
      </trkpt>
      <trkpt lat="45.40688" lon="3.88879">
        <ele>860</ele>
        <time>2022-06-29T09:44:51Z</time>
      </trkpt>
      <trkpt lat="45.40689" lon="3.88869">
        <ele>863</ele>
        <time>2022-06-29T09:44:55Z</time>
      </trkpt>
      <trkpt lat="45.40693" lon="3.88859">
        <ele>863</ele>
        <time>2022-06-29T09:45:00Z</time>
      </trkpt>
      <trkpt lat="45.40697" lon="3.88849">
        <ele>863</ele>
        <time>2022-06-29T09:45:04Z</time>
      </trkpt>
      <trkpt lat="45.40701" lon="3.88838">
        <ele>868</ele>
        <time>2022-06-29T09:45:09Z</time>
      </trkpt>
      <trkpt lat="45.40704" lon="3.88828">
        <ele>868</ele>
        <time>2022-06-29T09:45:14Z</time>
      </trkpt>
      <trkpt lat="45.40707" lon="3.88822">
        <ele>868</ele>
        <time>2022-06-29T09:45:19Z</time>
      </trkpt>
      <trkpt lat="45.40709" lon="3.88812">
        <ele>869</ele>
        <time>2022-06-29T09:45:24Z</time>
      </trkpt>
      <trkpt lat="45.4071" lon="3.88796">
        <ele>869</ele>
        <time>2022-06-29T09:45:29Z</time>
      </trkpt>
      <trkpt lat="45.40712" lon="3.88788">
        <ele>877</ele>
        <time>2022-06-29T09:45:33Z</time>
      </trkpt>
      <trkpt lat="45.40716" lon="3.8878">
        <ele>877</ele>
        <time>2022-06-29T09:45:38Z</time>
      </trkpt>
      <trkpt lat="45.40722" lon="3.88771">
        <ele>877</ele>
        <time>2022-06-29T09:45:43Z</time>
      </trkpt>
      <trkpt lat="45.40728" lon="3.88764">
        <ele>882</ele>
        <time>2022-06-29T09:45:48Z</time>
      </trkpt>
      <trkpt lat="45.40732" lon="3.88752">
        <ele>882</ele>
        <time>2022-06-29T09:45:53Z</time>
      </trkpt>
      <trkpt lat="45.40736" lon="3.88741">
        <ele>882</ele>
        <time>2022-06-29T09:45:57Z</time>
      </trkpt>
      <trkpt lat="45.40738" lon="3.88732">
        <ele>882</ele>
        <time>2022-06-29T09:46:02Z</time>
      </trkpt>
      <trkpt lat="45.4074" lon="3.88723">
        <ele>882</ele>
        <time>2022-06-29T09:46:06Z</time>
      </trkpt>
      <trkpt lat="45.40741" lon="3.88714">
        <ele>882</ele>
        <time>2022-06-29T09:46:11Z</time>
      </trkpt>
      <trkpt lat="45.40742" lon="3.88706">
        <ele>886</ele>
        <time>2022-06-29T09:46:16Z</time>
      </trkpt>
      <trkpt lat="45.40744" lon="3.88695">
        <ele>886</ele>
        <time>2022-06-29T09:46:21Z</time>
      </trkpt>
      <trkpt lat="45.40747" lon="3.88687">
        <ele>886</ele>
        <time>2022-06-29T09:46:26Z</time>
      </trkpt>
      <trkpt lat="45.40751" lon="3.88677">
        <ele>888</ele>
        <time>2022-06-29T09:46:31Z</time>
      </trkpt>
      <trkpt lat="45.40754" lon="3.88667">
        <ele>888</ele>
        <time>2022-06-29T09:46:36Z</time>
      </trkpt>
      <trkpt lat="45.40756" lon="3.8866">
        <ele>888</ele>
        <time>2022-06-29T09:46:41Z</time>
      </trkpt>
      <trkpt lat="45.40757" lon="3.88648">
        <ele>889</ele>
        <time>2022-06-29T09:46:46Z</time>
      </trkpt>
      <trkpt lat="45.40759" lon="3.88636">
        <ele>889</ele>
        <time>2022-06-29T09:46:51Z</time>
      </trkpt>
      <trkpt lat="45.40762" lon="3.88627">
        <ele>889</ele>
        <time>2022-06-29T09:46:56Z</time>
      </trkpt>
      <trkpt lat="45.40765" lon="3.8862">
        <ele>891</ele>
        <time>2022-06-29T09:47:00Z</time>
      </trkpt>
      <trkpt lat="45.40764" lon="3.88609">
        <ele>891</ele>
        <time>2022-06-29T09:47:04Z</time>
      </trkpt>
      <trkpt lat="45.40764" lon="3.88598">
        <ele>891</ele>
        <time>2022-06-29T09:47:09Z</time>
      </trkpt>
      <trkpt lat="45.40764" lon="3.88589">
        <ele>891</ele>
        <time>2022-06-29T09:47:13Z</time>
      </trkpt>
      <trkpt lat="45.40766" lon="3.88581">
        <ele>891</ele>
        <time>2022-06-29T09:47:18Z</time>
      </trkpt>
      <trkpt lat="45.40767" lon="3.88569">
        <ele>891</ele>
        <time>2022-06-29T09:47:23Z</time>
      </trkpt>
      <trkpt lat="45.40769" lon="3.88561">
        <ele>891</ele>
        <time>2022-06-29T09:47:28Z</time>
      </trkpt>
      <trkpt lat="45.40772" lon="3.88553">
        <ele>891</ele>
        <time>2022-06-29T09:47:33Z</time>
      </trkpt>
      <trkpt lat="45.40776" lon="3.88542">
        <ele>891</ele>
        <time>2022-06-29T09:47:38Z</time>
      </trkpt>
      <trkpt lat="45.40777" lon="3.8853">
        <ele>891</ele>
        <time>2022-06-29T09:47:42Z</time>
      </trkpt>
      <trkpt lat="45.40779" lon="3.88519">
        <ele>891</ele>
        <time>2022-06-29T09:47:47Z</time>
      </trkpt>
      <trkpt lat="45.40781" lon="3.88511">
        <ele>894</ele>
        <time>2022-06-29T09:47:52Z</time>
      </trkpt>
      <trkpt lat="45.40781" lon="3.885">
        <ele>894</ele>
        <time>2022-06-29T09:47:57Z</time>
      </trkpt>
      <trkpt lat="45.40782" lon="3.88489">
        <ele>894</ele>
        <time>2022-06-29T09:48:02Z</time>
      </trkpt>
      <trkpt lat="45.40782" lon="3.88481">
        <ele>896</ele>
        <time>2022-06-29T09:48:06Z</time>
      </trkpt>
      <trkpt lat="45.40783" lon="3.88469">
        <ele>896</ele>
        <time>2022-06-29T09:48:11Z</time>
      </trkpt>
      <trkpt lat="45.40784" lon="3.88461">
        <ele>896</ele>
        <time>2022-06-29T09:48:16Z</time>
      </trkpt>
      <trkpt lat="45.40786" lon="3.88455">
        <ele>898</ele>
        <time>2022-06-29T09:48:20Z</time>
      </trkpt>
      <trkpt lat="45.40791" lon="3.8844">
        <ele>898</ele>
        <time>2022-06-29T09:48:25Z</time>
      </trkpt>
      <trkpt lat="45.40804" lon="3.88424">
        <ele>898</ele>
        <time>2022-06-29T09:48:30Z</time>
      </trkpt>
      <trkpt lat="45.40815" lon="3.88409">
        <ele>898</ele>
        <time>2022-06-29T09:48:35Z</time>
      </trkpt>
      <trkpt lat="45.4082" lon="3.88395">
        <ele>898</ele>
        <time>2022-06-29T09:48:40Z</time>
      </trkpt>
      <trkpt lat="45.40819" lon="3.88388">
        <ele>899</ele>
        <time>2022-06-29T09:48:44Z</time>
      </trkpt>
      <trkpt lat="45.40816" lon="3.88379">
        <ele>899</ele>
        <time>2022-06-29T09:48:49Z</time>
      </trkpt>
      <trkpt lat="45.40812" lon="3.8837">
        <ele>899</ele>
        <time>2022-06-29T09:48:54Z</time>
      </trkpt>
      <trkpt lat="45.40812" lon="3.8836">
        <ele>899</ele>
        <time>2022-06-29T09:48:59Z</time>
      </trkpt>
      <trkpt lat="45.40816" lon="3.88348">
        <ele>899</ele>
        <time>2022-06-29T09:49:04Z</time>
      </trkpt>
      <trkpt lat="45.40821" lon="3.8834">
        <ele>899</ele>
        <time>2022-06-29T09:49:09Z</time>
      </trkpt>
      <trkpt lat="45.40826" lon="3.88333">
        <ele>899</ele>
        <time>2022-06-29T09:49:13Z</time>
      </trkpt>
      <trkpt lat="45.40832" lon="3.88326">
        <ele>899</ele>
        <time>2022-06-29T09:49:18Z</time>
      </trkpt>
      <trkpt lat="45.40838" lon="3.88319">
        <ele>899</ele>
        <time>2022-06-29T09:49:23Z</time>
      </trkpt>
      <trkpt lat="45.40844" lon="3.88313">
        <ele>899</ele>
        <time>2022-06-29T09:49:27Z</time>
      </trkpt>
      <trkpt lat="45.4085" lon="3.88306">
        <ele>899</ele>
        <time>2022-06-29T09:49:32Z</time>
      </trkpt>
      <trkpt lat="45.40855" lon="3.88301">
        <ele>899</ele>
        <time>2022-06-29T09:49:36Z</time>
      </trkpt>
      <trkpt lat="45.40861" lon="3.88294">
        <ele>899</ele>
        <time>2022-06-29T09:49:41Z</time>
      </trkpt>
      <trkpt lat="45.40866" lon="3.88288">
        <ele>899</ele>
        <time>2022-06-29T09:49:46Z</time>
      </trkpt>
      <trkpt lat="45.40873" lon="3.88281">
        <ele>899</ele>
        <time>2022-06-29T09:49:51Z</time>
      </trkpt>
      <trkpt lat="45.4088" lon="3.88274">
        <ele>900</ele>
        <time>2022-06-29T09:49:56Z</time>
      </trkpt>
      <trkpt lat="45.40886" lon="3.88269">
        <ele>900</ele>
        <time>2022-06-29T09:50:00Z</time>
      </trkpt>
      <trkpt lat="45.40892" lon="3.88261">
        <ele>900</ele>
        <time>2022-06-29T09:50:05Z</time>
      </trkpt>
      <trkpt lat="45.40897" lon="3.88252">
        <ele>900</ele>
        <time>2022-06-29T09:50:10Z</time>
      </trkpt>
      <trkpt lat="45.40902" lon="3.88246">
        <ele>900</ele>
        <time>2022-06-29T09:50:14Z</time>
      </trkpt>
      <trkpt lat="45.40908" lon="3.88239">
        <ele>899</ele>
        <time>2022-06-29T09:50:19Z</time>
      </trkpt>
      <trkpt lat="45.40914" lon="3.88232">
        <ele>898</ele>
        <time>2022-06-29T09:50:24Z</time>
      </trkpt>
      <trkpt lat="45.40919" lon="3.88225">
        <ele>898</ele>
        <time>2022-06-29T09:50:28Z</time>
      </trkpt>
      <trkpt lat="45.40923" lon="3.8822">
        <ele>898</ele>
        <time>2022-06-29T09:50:32Z</time>
      </trkpt>
      <trkpt lat="45.40929" lon="3.88212">
        <ele>898</ele>
        <time>2022-06-29T09:50:37Z</time>
      </trkpt>
      <trkpt lat="45.40935" lon="3.88206">
        <ele>899</ele>
        <time>2022-06-29T09:50:42Z</time>
      </trkpt>
      <trkpt lat="45.40941" lon="3.88198">
        <ele>899</ele>
        <time>2022-06-29T09:50:47Z</time>
      </trkpt>
      <trkpt lat="45.40948" lon="3.88191">
        <ele>899</ele>
        <time>2022-06-29T09:50:52Z</time>
      </trkpt>
      <trkpt lat="45.40955" lon="3.88184">
        <ele>899</ele>
        <time>2022-06-29T09:50:57Z</time>
      </trkpt>
      <trkpt lat="45.40961" lon="3.88178">
        <ele>902</ele>
        <time>2022-06-29T09:51:01Z</time>
      </trkpt>
      <trkpt lat="45.40967" lon="3.88171">
        <ele>902</ele>
        <time>2022-06-29T09:51:06Z</time>
      </trkpt>
      <trkpt lat="45.40973" lon="3.88165">
        <ele>902</ele>
        <time>2022-06-29T09:51:11Z</time>
      </trkpt>
      <trkpt lat="45.40979" lon="3.88158">
        <ele>902</ele>
        <time>2022-06-29T09:51:16Z</time>
      </trkpt>
      <trkpt lat="45.40986" lon="3.8815">
        <ele>901</ele>
        <time>2022-06-29T09:51:21Z</time>
      </trkpt>
      <trkpt lat="45.40991" lon="3.88145">
        <ele>903</ele>
        <time>2022-06-29T09:51:25Z</time>
      </trkpt>
      <trkpt lat="45.40997" lon="3.88139">
        <ele>903</ele>
        <time>2022-06-29T09:51:29Z</time>
      </trkpt>
      <trkpt lat="45.41003" lon="3.88132">
        <ele>903</ele>
        <time>2022-06-29T09:51:34Z</time>
      </trkpt>
      <trkpt lat="45.41011" lon="3.88125">
        <ele>903</ele>
        <time>2022-06-29T09:51:39Z</time>
      </trkpt>
      <trkpt lat="45.41018" lon="3.88118">
        <ele>905</ele>
        <time>2022-06-29T09:51:44Z</time>
      </trkpt>
      <trkpt lat="45.41023" lon="3.88111">
        <ele>905</ele>
        <time>2022-06-29T09:51:48Z</time>
      </trkpt>
      <trkpt lat="45.41029" lon="3.88106">
        <ele>905</ele>
        <time>2022-06-29T09:51:53Z</time>
      </trkpt>
      <trkpt lat="45.41034" lon="3.881">
        <ele>905</ele>
        <time>2022-06-29T09:51:57Z</time>
      </trkpt>
      <trkpt lat="45.41041" lon="3.88093">
        <ele>905</ele>
        <time>2022-06-29T09:52:02Z</time>
      </trkpt>
      <trkpt lat="45.41049" lon="3.88087">
        <ele>906</ele>
        <time>2022-06-29T09:52:07Z</time>
      </trkpt>
      <trkpt lat="45.41056" lon="3.88087">
        <ele>906</ele>
        <time>2022-06-29T09:52:11Z</time>
      </trkpt>
      <trkpt lat="45.41061" lon="3.88091">
        <ele>906</ele>
        <time>2022-06-29T09:52:15Z</time>
      </trkpt>
      <trkpt lat="45.41068" lon="3.88094">
        <ele>906</ele>
        <time>2022-06-29T09:52:20Z</time>
      </trkpt>
      <trkpt lat="45.41073" lon="3.88097">
        <ele>908</ele>
        <time>2022-06-29T09:52:24Z</time>
      </trkpt>
      <trkpt lat="45.41078" lon="3.88101">
        <ele>908</ele>
        <time>2022-06-29T09:52:28Z</time>
      </trkpt>
      <trkpt lat="45.41085" lon="3.88104">
        <ele>908</ele>
        <time>2022-06-29T09:52:33Z</time>
      </trkpt>
      <trkpt lat="45.41093" lon="3.88105">
        <ele>908</ele>
        <time>2022-06-29T09:52:38Z</time>
      </trkpt>
      <trkpt lat="45.411" lon="3.88109">
        <ele>910</ele>
        <time>2022-06-29T09:52:43Z</time>
      </trkpt>
      <trkpt lat="45.41106" lon="3.88112">
        <ele>910</ele>
        <time>2022-06-29T09:52:48Z</time>
      </trkpt>
      <trkpt lat="45.41114" lon="3.88116">
        <ele>910</ele>
        <time>2022-06-29T09:52:53Z</time>
      </trkpt>
      <trkpt lat="45.41121" lon="3.88119">
        <ele>910</ele>
        <time>2022-06-29T09:52:58Z</time>
      </trkpt>
      <trkpt lat="45.41126" lon="3.88123">
        <ele>911</ele>
        <time>2022-06-29T09:53:02Z</time>
      </trkpt>
      <trkpt lat="45.41132" lon="3.88127">
        <ele>911</ele>
        <time>2022-06-29T09:53:07Z</time>
      </trkpt>
      <trkpt lat="45.41137" lon="3.88131">
        <ele>911</ele>
        <time>2022-06-29T09:53:11Z</time>
      </trkpt>
      <trkpt lat="45.41144" lon="3.88135">
        <ele>911</ele>
        <time>2022-06-29T09:53:16Z</time>
      </trkpt>
      <trkpt lat="45.41149" lon="3.88139">
        <ele>911</ele>
        <time>2022-06-29T09:53:20Z</time>
      </trkpt>
      <trkpt lat="45.41157" lon="3.88145">
        <ele>912</ele>
        <time>2022-06-29T09:53:25Z</time>
      </trkpt>
      <trkpt lat="45.41164" lon="3.88149">
        <ele>912</ele>
        <time>2022-06-29T09:53:30Z</time>
      </trkpt>
      <trkpt lat="45.41169" lon="3.88154">
        <ele>913</ele>
        <time>2022-06-29T09:53:34Z</time>
      </trkpt>
      <trkpt lat="45.41176" lon="3.88158">
        <ele>913</ele>
        <time>2022-06-29T09:53:39Z</time>
      </trkpt>
      <trkpt lat="45.41181" lon="3.88162">
        <ele>913</ele>
        <time>2022-06-29T09:53:43Z</time>
      </trkpt>
      <trkpt lat="45.41188" lon="3.88168">
        <ele>913</ele>
        <time>2022-06-29T09:53:48Z</time>
      </trkpt>
      <trkpt lat="45.41195" lon="3.88174">
        <ele>913</ele>
        <time>2022-06-29T09:53:53Z</time>
      </trkpt>
      <trkpt lat="45.41203" lon="3.88178">
        <ele>913</ele>
        <time>2022-06-29T09:53:58Z</time>
      </trkpt>
      <trkpt lat="45.4121" lon="3.88182">
        <ele>914</ele>
        <time>2022-06-29T09:54:03Z</time>
      </trkpt>
      <trkpt lat="45.41217" lon="3.88185">
        <ele>914</ele>
        <time>2022-06-29T09:54:08Z</time>
      </trkpt>
      <trkpt lat="45.41223" lon="3.88186">
        <ele>914</ele>
        <time>2022-06-29T09:54:12Z</time>
      </trkpt>
      <trkpt lat="45.41231" lon="3.88189">
        <ele>914</ele>
        <time>2022-06-29T09:54:17Z</time>
      </trkpt>
      <trkpt lat="45.41237" lon="3.8819">
        <ele>914</ele>
        <time>2022-06-29T09:54:21Z</time>
      </trkpt>
      <trkpt lat="45.41243" lon="3.88192">
        <ele>914</ele>
        <time>2022-06-29T09:54:25Z</time>
      </trkpt>
      <trkpt lat="45.41251" lon="3.88192">
        <ele>914</ele>
        <time>2022-06-29T09:54:30Z</time>
      </trkpt>
      <trkpt lat="45.41257" lon="3.88194">
        <ele>914</ele>
        <time>2022-06-29T09:54:35Z</time>
      </trkpt>
      <trkpt lat="45.41268" lon="3.88195">
        <ele>914</ele>
        <time>2022-06-29T09:54:40Z</time>
      </trkpt>
      <trkpt lat="45.41275" lon="3.88196">
        <ele>914</ele>
        <time>2022-06-29T09:54:45Z</time>
      </trkpt>
      <trkpt lat="45.41281" lon="3.88197">
        <ele>914</ele>
        <time>2022-06-29T09:54:49Z</time>
      </trkpt>
      <trkpt lat="45.41288" lon="3.88197">
        <ele>914</ele>
        <time>2022-06-29T09:54:54Z</time>
      </trkpt>
      <trkpt lat="45.41292" lon="3.88197">
        <ele>913</ele>
        <time>2022-06-29T09:54:59Z</time>
      </trkpt>
      <trkpt lat="45.41292" lon="3.88197">
        <ele>913</ele>
        <time>2022-06-29T09:55:17Z</time>
      </trkpt>
      <trkpt lat="45.41291" lon="3.88197">
        <ele>914</ele>
        <time>2022-06-29T09:55:22Z</time>
      </trkpt>
      <trkpt lat="45.41291" lon="3.88196">
        <ele>914</ele>
        <time>2022-06-29T09:55:27Z</time>
      </trkpt>
      <trkpt lat="45.41295" lon="3.88197">
        <ele>913</ele>
        <time>2022-06-29T09:55:32Z</time>
      </trkpt>
      <trkpt lat="45.41304" lon="3.88198">
        <ele>913</ele>
        <time>2022-06-29T09:55:37Z</time>
      </trkpt>
      <trkpt lat="45.41311" lon="3.88198">
        <ele>913</ele>
        <time>2022-06-29T09:55:42Z</time>
      </trkpt>
      <trkpt lat="45.41318" lon="3.88197">
        <ele>913</ele>
        <time>2022-06-29T09:55:47Z</time>
      </trkpt>
      <trkpt lat="45.41324" lon="3.88196">
        <ele>912</ele>
        <time>2022-06-29T09:55:51Z</time>
      </trkpt>
      <trkpt lat="45.41331" lon="3.88194">
        <ele>912</ele>
        <time>2022-06-29T09:55:56Z</time>
      </trkpt>
      <trkpt lat="45.4134" lon="3.88192">
        <ele>912</ele>
        <time>2022-06-29T09:56:01Z</time>
      </trkpt>
      <trkpt lat="45.41346" lon="3.8819">
        <ele>912</ele>
        <time>2022-06-29T09:56:05Z</time>
      </trkpt>
      <trkpt lat="45.41354" lon="3.88188">
        <ele>912</ele>
        <time>2022-06-29T09:56:10Z</time>
      </trkpt>
      <trkpt lat="45.41361" lon="3.88185">
        <ele>912</ele>
        <time>2022-06-29T09:56:14Z</time>
      </trkpt>
      <trkpt lat="45.41366" lon="3.88182">
        <ele>912</ele>
        <time>2022-06-29T09:56:18Z</time>
      </trkpt>
      <trkpt lat="45.41373" lon="3.8818">
        <ele>913</ele>
        <time>2022-06-29T09:56:23Z</time>
      </trkpt>
      <trkpt lat="45.4138" lon="3.88177">
        <ele>912</ele>
        <time>2022-06-29T09:56:28Z</time>
      </trkpt>
      <trkpt lat="45.41389" lon="3.88174">
        <ele>912</ele>
        <time>2022-06-29T09:56:33Z</time>
      </trkpt>
      <trkpt lat="45.41395" lon="3.88171">
        <ele>912</ele>
        <time>2022-06-29T09:56:37Z</time>
      </trkpt>
      <trkpt lat="45.41403" lon="3.88167">
        <ele>909</ele>
        <time>2022-06-29T09:56:42Z</time>
      </trkpt>
      <trkpt lat="45.4141" lon="3.88164">
        <ele>909</ele>
        <time>2022-06-29T09:56:47Z</time>
      </trkpt>
      <trkpt lat="45.41417" lon="3.88163">
        <ele>909</ele>
        <time>2022-06-29T09:56:51Z</time>
      </trkpt>
      <trkpt lat="45.41426" lon="3.88161">
        <ele>909</ele>
        <time>2022-06-29T09:56:56Z</time>
      </trkpt>
      <trkpt lat="45.41433" lon="3.88159">
        <ele>908</ele>
        <time>2022-06-29T09:57:01Z</time>
      </trkpt>
      <trkpt lat="45.41441" lon="3.88159">
        <ele>908</ele>
        <time>2022-06-29T09:57:06Z</time>
      </trkpt>
      <trkpt lat="45.41447" lon="3.88158">
        <ele>908</ele>
        <time>2022-06-29T09:57:11Z</time>
      </trkpt>
      <trkpt lat="45.41455" lon="3.88156">
        <ele>908</ele>
        <time>2022-06-29T09:57:16Z</time>
      </trkpt>
      <trkpt lat="45.41461" lon="3.88154">
        <ele>906</ele>
        <time>2022-06-29T09:57:21Z</time>
      </trkpt>
      <trkpt lat="45.41467" lon="3.88151">
        <ele>910</ele>
        <time>2022-06-29T09:57:26Z</time>
      </trkpt>
      <trkpt lat="45.41474" lon="3.88148">
        <ele>910</ele>
        <time>2022-06-29T09:57:31Z</time>
      </trkpt>
      <trkpt lat="45.4148" lon="3.88141">
        <ele>910</ele>
        <time>2022-06-29T09:57:36Z</time>
      </trkpt>
      <trkpt lat="45.41487" lon="3.88137">
        <ele>907</ele>
        <time>2022-06-29T09:57:41Z</time>
      </trkpt>
      <trkpt lat="45.41496" lon="3.88132">
        <ele>907</ele>
        <time>2022-06-29T09:57:46Z</time>
      </trkpt>
      <trkpt lat="45.41503" lon="3.88131">
        <ele>907</ele>
        <time>2022-06-29T09:57:50Z</time>
      </trkpt>
      <trkpt lat="45.41512" lon="3.88129">
        <ele>907</ele>
        <time>2022-06-29T09:57:55Z</time>
      </trkpt>
      <trkpt lat="45.4152" lon="3.88128">
        <ele>903</ele>
        <time>2022-06-29T09:58:00Z</time>
      </trkpt>
      <trkpt lat="45.41528" lon="3.88126">
        <ele>903</ele>
        <time>2022-06-29T09:58:04Z</time>
      </trkpt>
      <trkpt lat="45.41536" lon="3.88126">
        <ele>903</ele>
        <time>2022-06-29T09:58:09Z</time>
      </trkpt>
      <trkpt lat="45.41545" lon="3.88126">
        <ele>902</ele>
        <time>2022-06-29T09:58:14Z</time>
      </trkpt>
      <trkpt lat="45.41552" lon="3.88127">
        <ele>902</ele>
        <time>2022-06-29T09:58:19Z</time>
      </trkpt>
      <trkpt lat="45.41559" lon="3.88129">
        <ele>902</ele>
        <time>2022-06-29T09:58:24Z</time>
      </trkpt>
      <trkpt lat="45.41568" lon="3.88128">
        <ele>902</ele>
        <time>2022-06-29T09:58:29Z</time>
      </trkpt>
      <trkpt lat="45.41573" lon="3.88129">
        <ele>903</ele>
        <time>2022-06-29T09:58:33Z</time>
      </trkpt>
      <trkpt lat="45.41582" lon="3.88132">
        <ele>903</ele>
        <time>2022-06-29T09:58:38Z</time>
      </trkpt>
      <trkpt lat="45.4159" lon="3.88131">
        <ele>903</ele>
        <time>2022-06-29T09:58:43Z</time>
      </trkpt>
      <trkpt lat="45.41598" lon="3.88131">
        <ele>904</ele>
        <time>2022-06-29T09:58:48Z</time>
      </trkpt>
      <trkpt lat="45.41605" lon="3.88131">
        <ele>904</ele>
        <time>2022-06-29T09:58:52Z</time>
      </trkpt>
      <trkpt lat="45.41614" lon="3.8813">
        <ele>904</ele>
        <time>2022-06-29T09:58:57Z</time>
      </trkpt>
      <trkpt lat="45.4162" lon="3.88129">
        <ele>904</ele>
        <time>2022-06-29T09:59:02Z</time>
      </trkpt>
      <trkpt lat="45.41628" lon="3.8813">
        <ele>902</ele>
        <time>2022-06-29T09:59:07Z</time>
      </trkpt>
      <trkpt lat="45.41636" lon="3.88129">
        <ele>902</ele>
        <time>2022-06-29T09:59:12Z</time>
      </trkpt>
      <trkpt lat="45.41641" lon="3.88129">
        <ele>902</ele>
        <time>2022-06-29T09:59:16Z</time>
      </trkpt>
      <trkpt lat="45.41648" lon="3.88128">
        <ele>902</ele>
        <time>2022-06-29T09:59:21Z</time>
      </trkpt>
      <trkpt lat="45.41653" lon="3.88129">
        <ele>902</ele>
        <time>2022-06-29T09:59:25Z</time>
      </trkpt>
      <trkpt lat="45.41662" lon="3.8813">
        <ele>902</ele>
        <time>2022-06-29T09:59:30Z</time>
      </trkpt>
      <trkpt lat="45.41669" lon="3.8813">
        <ele>902</ele>
        <time>2022-06-29T09:59:34Z</time>
      </trkpt>
      <trkpt lat="45.41676" lon="3.88132">
        <ele>902</ele>
        <time>2022-06-29T09:59:38Z</time>
      </trkpt>
      <trkpt lat="45.41684" lon="3.88133">
        <ele>904</ele>
        <time>2022-06-29T09:59:43Z</time>
      </trkpt>
      <trkpt lat="45.41692" lon="3.88135">
        <ele>904</ele>
        <time>2022-06-29T09:59:48Z</time>
      </trkpt>
      <trkpt lat="45.41699" lon="3.88136">
        <ele>904</ele>
        <time>2022-06-29T09:59:53Z</time>
      </trkpt>
      <trkpt lat="45.41706" lon="3.88137">
        <ele>904</ele>
        <time>2022-06-29T09:59:58Z</time>
      </trkpt>
      <trkpt lat="45.41714" lon="3.88137">
        <ele>904</ele>
        <time>2022-06-29T10:00:03Z</time>
      </trkpt>
      <trkpt lat="45.41724" lon="3.88137">
        <ele>904</ele>
        <time>2022-06-29T10:00:08Z</time>
      </trkpt>
      <trkpt lat="45.41732" lon="3.88137">
        <ele>904</ele>
        <time>2022-06-29T10:00:13Z</time>
      </trkpt>
      <trkpt lat="45.41741" lon="3.88136">
        <ele>901</ele>
        <time>2022-06-29T10:00:18Z</time>
      </trkpt>
      <trkpt lat="45.41749" lon="3.88134">
        <ele>901</ele>
        <time>2022-06-29T10:00:23Z</time>
      </trkpt>
      <trkpt lat="45.41755" lon="3.88131">
        <ele>901</ele>
        <time>2022-06-29T10:00:27Z</time>
      </trkpt>
      <trkpt lat="45.41764" lon="3.88128">
        <ele>901</ele>
        <time>2022-06-29T10:00:32Z</time>
      </trkpt>
      <trkpt lat="45.41771" lon="3.88125">
        <ele>903</ele>
        <time>2022-06-29T10:00:37Z</time>
      </trkpt>
      <trkpt lat="45.41777" lon="3.88122">
        <ele>903</ele>
        <time>2022-06-29T10:00:42Z</time>
      </trkpt>
      <trkpt lat="45.41785" lon="3.88117">
        <ele>903</ele>
        <time>2022-06-29T10:00:47Z</time>
      </trkpt>
      <trkpt lat="45.41792" lon="3.8811">
        <ele>901</ele>
        <time>2022-06-29T10:00:52Z</time>
      </trkpt>
      <trkpt lat="45.41795" lon="3.88109">
        <ele>901</ele>
        <time>2022-06-29T10:00:56Z</time>
      </trkpt>
      <trkpt lat="45.41801" lon="3.88104">
        <ele>901</ele>
        <time>2022-06-29T10:01:01Z</time>
      </trkpt>
      <trkpt lat="45.41807" lon="3.88101">
        <ele>901</ele>
        <time>2022-06-29T10:01:05Z</time>
      </trkpt>
      <trkpt lat="45.41815" lon="3.88096">
        <ele>903</ele>
        <time>2022-06-29T10:01:10Z</time>
      </trkpt>
      <trkpt lat="45.41823" lon="3.88091">
        <ele>902</ele>
        <time>2022-06-29T10:01:15Z</time>
      </trkpt>
      <trkpt lat="45.4183" lon="3.88089">
        <ele>902</ele>
        <time>2022-06-29T10:01:20Z</time>
      </trkpt>
      <trkpt lat="45.41836" lon="3.88086">
        <ele>902</ele>
        <time>2022-06-29T10:01:24Z</time>
      </trkpt>
      <trkpt lat="45.41845" lon="3.88082">
        <ele>902</ele>
        <time>2022-06-29T10:01:29Z</time>
      </trkpt>
      <trkpt lat="45.41853" lon="3.88077">
        <ele>905</ele>
        <time>2022-06-29T10:01:34Z</time>
      </trkpt>
      <trkpt lat="45.41862" lon="3.88074">
        <ele>905</ele>
        <time>2022-06-29T10:01:39Z</time>
      </trkpt>
      <trkpt lat="45.41871" lon="3.88077">
        <ele>905</ele>
        <time>2022-06-29T10:01:44Z</time>
      </trkpt>
      <trkpt lat="45.41878" lon="3.88082">
        <ele>910</ele>
        <time>2022-06-29T10:01:49Z</time>
      </trkpt>
      <trkpt lat="45.41884" lon="3.88085">
        <ele>910</ele>
        <time>2022-06-29T10:01:53Z</time>
      </trkpt>
      <trkpt lat="45.41889" lon="3.88087">
        <ele>910</ele>
        <time>2022-06-29T10:01:57Z</time>
      </trkpt>
      <trkpt lat="45.41896" lon="3.88088">
        <ele>910</ele>
        <time>2022-06-29T10:02:02Z</time>
      </trkpt>
      <trkpt lat="45.41903" lon="3.88088">
        <ele>912</ele>
        <time>2022-06-29T10:02:07Z</time>
      </trkpt>
      <trkpt lat="45.41912" lon="3.88087">
        <ele>912</ele>
        <time>2022-06-29T10:02:12Z</time>
      </trkpt>
      <trkpt lat="45.41918" lon="3.88086">
        <ele>912</ele>
        <time>2022-06-29T10:02:17Z</time>
      </trkpt>
      <trkpt lat="45.41925" lon="3.88084">
        <ele>912</ele>
        <time>2022-06-29T10:02:22Z</time>
      </trkpt>
      <trkpt lat="45.41932" lon="3.88082">
        <ele>912</ele>
        <time>2022-06-29T10:02:26Z</time>
      </trkpt>
      <trkpt lat="45.41938" lon="3.88081">
        <ele>912</ele>
        <time>2022-06-29T10:02:31Z</time>
      </trkpt>
      <trkpt lat="45.41944" lon="3.88079">
        <ele>912</ele>
        <time>2022-06-29T10:02:35Z</time>
      </trkpt>
      <trkpt lat="45.41951" lon="3.88079">
        <ele>912</ele>
        <time>2022-06-29T10:02:40Z</time>
      </trkpt>
      <trkpt lat="45.41957" lon="3.88078">
        <ele>912</ele>
        <time>2022-06-29T10:02:44Z</time>
      </trkpt>
      <trkpt lat="45.41963" lon="3.88077">
        <ele>909</ele>
        <time>2022-06-29T10:02:48Z</time>
      </trkpt>
      <trkpt lat="45.4197" lon="3.88075">
        <ele>909</ele>
        <time>2022-06-29T10:02:53Z</time>
      </trkpt>
      <trkpt lat="45.41977" lon="3.88074">
        <ele>909</ele>
        <time>2022-06-29T10:02:57Z</time>
      </trkpt>
      <trkpt lat="45.41984" lon="3.88071">
        <ele>909</ele>
        <time>2022-06-29T10:03:02Z</time>
      </trkpt>
      <trkpt lat="45.4199" lon="3.8807">
        <ele>909</ele>
        <time>2022-06-29T10:03:06Z</time>
      </trkpt>
      <trkpt lat="45.41998" lon="3.88068">
        <ele>910</ele>
        <time>2022-06-29T10:03:11Z</time>
      </trkpt>
      <trkpt lat="45.42006" lon="3.88062">
        <ele>910</ele>
        <time>2022-06-29T10:03:16Z</time>
      </trkpt>
      <trkpt lat="45.42011" lon="3.88056">
        <ele>910</ele>
        <time>2022-06-29T10:03:21Z</time>
      </trkpt>
      <trkpt lat="45.42019" lon="3.88052">
        <ele>913</ele>
        <time>2022-06-29T10:03:26Z</time>
      </trkpt>
      <trkpt lat="45.42023" lon="3.88049">
        <ele>913</ele>
        <time>2022-06-29T10:03:30Z</time>
      </trkpt>
      <trkpt lat="45.42028" lon="3.88047">
        <ele>913</ele>
        <time>2022-06-29T10:03:35Z</time>
      </trkpt>
      <trkpt lat="45.42035" lon="3.88044">
        <ele>913</ele>
        <time>2022-06-29T10:03:40Z</time>
      </trkpt>
      <trkpt lat="45.4204" lon="3.88041">
        <ele>916</ele>
        <time>2022-06-29T10:03:44Z</time>
      </trkpt>
      <trkpt lat="45.42044" lon="3.88037">
        <ele>917</ele>
        <time>2022-06-29T10:03:49Z</time>
      </trkpt>
      <trkpt lat="45.42047" lon="3.88038">
        <ele>917</ele>
        <time>2022-06-29T10:03:59Z</time>
      </trkpt>
      <trkpt lat="45.42047" lon="3.88038">
        <ele>917</ele>
        <time>2022-06-29T10:04:04Z</time>
      </trkpt>
      <trkpt lat="45.42047" lon="3.88038">
        <ele>917</ele>
        <time>2022-06-29T10:04:08Z</time>
      </trkpt>
      <trkpt lat="45.42054" lon="3.88035">
        <ele>917</ele>
        <time>2022-06-29T10:04:13Z</time>
      </trkpt>
      <trkpt lat="45.4206" lon="3.88032">
        <ele>917</ele>
        <time>2022-06-29T10:04:18Z</time>
      </trkpt>
      <trkpt lat="45.42066" lon="3.88029">
        <ele>917</ele>
        <time>2022-06-29T10:04:22Z</time>
      </trkpt>
      <trkpt lat="45.42075" lon="3.88027">
        <ele>918</ele>
        <time>2022-06-29T10:04:27Z</time>
      </trkpt>
      <trkpt lat="45.42082" lon="3.88028">
        <ele>918</ele>
        <time>2022-06-29T10:04:32Z</time>
      </trkpt>
      <trkpt lat="45.42088" lon="3.88029">
        <ele>918</ele>
        <time>2022-06-29T10:04:37Z</time>
      </trkpt>
      <trkpt lat="45.42095" lon="3.88027">
        <ele>918</ele>
        <time>2022-06-29T10:04:41Z</time>
      </trkpt>
      <trkpt lat="45.42102" lon="3.88027">
        <ele>919</ele>
        <time>2022-06-29T10:04:46Z</time>
      </trkpt>
      <trkpt lat="45.42109" lon="3.88027">
        <ele>919</ele>
        <time>2022-06-29T10:04:51Z</time>
      </trkpt>
      <trkpt lat="45.4212" lon="3.88025">
        <ele>919</ele>
        <time>2022-06-29T10:04:56Z</time>
      </trkpt>
      <trkpt lat="45.42127" lon="3.88028">
        <ele>917</ele>
        <time>2022-06-29T10:05:01Z</time>
      </trkpt>
      <trkpt lat="45.42135" lon="3.8803">
        <ele>917</ele>
        <time>2022-06-29T10:05:06Z</time>
      </trkpt>
      <trkpt lat="45.42141" lon="3.88034">
        <ele>917</ele>
        <time>2022-06-29T10:05:11Z</time>
      </trkpt>
      <trkpt lat="45.42147" lon="3.88035">
        <ele>917</ele>
        <time>2022-06-29T10:05:16Z</time>
      </trkpt>
      <trkpt lat="45.42154" lon="3.88036">
        <ele>917</ele>
        <time>2022-06-29T10:05:21Z</time>
      </trkpt>
      <trkpt lat="45.42159" lon="3.88037">
        <ele>917</ele>
        <time>2022-06-29T10:05:25Z</time>
      </trkpt>
      <trkpt lat="45.42163" lon="3.88038">
        <ele>917</ele>
        <time>2022-06-29T10:05:29Z</time>
      </trkpt>
      <trkpt lat="45.42169" lon="3.88041">
        <ele>917</ele>
        <time>2022-06-29T10:05:34Z</time>
      </trkpt>
      <trkpt lat="45.42174" lon="3.88044">
        <ele>917</ele>
        <time>2022-06-29T10:05:39Z</time>
      </trkpt>
      <trkpt lat="45.42178" lon="3.88048">
        <ele>917</ele>
        <time>2022-06-29T10:05:44Z</time>
      </trkpt>
      <trkpt lat="45.42183" lon="3.88051">
        <ele>919</ele>
        <time>2022-06-29T10:05:48Z</time>
      </trkpt>
      <trkpt lat="45.42192" lon="3.88054">
        <ele>919</ele>
        <time>2022-06-29T10:05:53Z</time>
      </trkpt>
      <trkpt lat="45.42199" lon="3.88055">
        <ele>919</ele>
        <time>2022-06-29T10:05:58Z</time>
      </trkpt>
      <trkpt lat="45.42208" lon="3.88056">
        <ele>919</ele>
        <time>2022-06-29T10:06:03Z</time>
      </trkpt>
      <trkpt lat="45.42214" lon="3.88057">
        <ele>918</ele>
        <time>2022-06-29T10:06:07Z</time>
      </trkpt>
      <trkpt lat="45.42223" lon="3.88061">
        <ele>918</ele>
        <time>2022-06-29T10:06:12Z</time>
      </trkpt>
      <trkpt lat="45.4223" lon="3.88065">
        <ele>918</ele>
        <time>2022-06-29T10:06:17Z</time>
      </trkpt>
      <trkpt lat="45.42235" lon="3.8807">
        <ele>919</ele>
        <time>2022-06-29T10:06:22Z</time>
      </trkpt>
      <trkpt lat="45.42242" lon="3.88074">
        <ele>917</ele>
        <time>2022-06-29T10:06:27Z</time>
      </trkpt>
      <trkpt lat="45.42251" lon="3.88081">
        <ele>917</ele>
        <time>2022-06-29T10:06:32Z</time>
      </trkpt>
      <trkpt lat="45.42256" lon="3.88086">
        <ele>917</ele>
        <time>2022-06-29T10:06:36Z</time>
      </trkpt>
      <trkpt lat="45.42259" lon="3.8809">
        <ele>917</ele>
        <time>2022-06-29T10:06:40Z</time>
      </trkpt>
      <trkpt lat="45.42264" lon="3.88097">
        <ele>918</ele>
        <time>2022-06-29T10:06:45Z</time>
      </trkpt>
      <trkpt lat="45.4227" lon="3.88103">
        <ele>917</ele>
        <time>2022-06-29T10:06:50Z</time>
      </trkpt>
      <trkpt lat="45.42276" lon="3.88112">
        <ele>917</ele>
        <time>2022-06-29T10:06:55Z</time>
      </trkpt>
      <trkpt lat="45.42281" lon="3.88118">
        <ele>917</ele>
        <time>2022-06-29T10:07:00Z</time>
      </trkpt>
      <trkpt lat="45.42288" lon="3.88122">
        <ele>917</ele>
        <time>2022-06-29T10:07:05Z</time>
      </trkpt>
      <trkpt lat="45.42294" lon="3.88128">
        <ele>917</ele>
        <time>2022-06-29T10:07:10Z</time>
      </trkpt>
      <trkpt lat="45.42299" lon="3.88131">
        <ele>917</ele>
        <time>2022-06-29T10:07:15Z</time>
      </trkpt>
      <trkpt lat="45.42304" lon="3.88137">
        <ele>917</ele>
        <time>2022-06-29T10:07:20Z</time>
      </trkpt>
      <trkpt lat="45.42305" lon="3.88139">
        <ele>917</ele>
        <time>2022-06-29T10:07:25Z</time>
      </trkpt>
      <trkpt lat="45.42306" lon="3.8814">
        <ele>917</ele>
        <time>2022-06-29T10:07:30Z</time>
      </trkpt>
      <trkpt lat="45.42312" lon="3.88148">
        <ele>917</ele>
        <time>2022-06-29T10:07:35Z</time>
      </trkpt>
      <trkpt lat="45.42321" lon="3.88157">
        <ele>914</ele>
        <time>2022-06-29T10:07:40Z</time>
      </trkpt>
      <trkpt lat="45.42327" lon="3.88162">
        <ele>914</ele>
        <time>2022-06-29T10:07:45Z</time>
      </trkpt>
      <trkpt lat="45.42337" lon="3.88168">
        <ele>914</ele>
        <time>2022-06-29T10:07:50Z</time>
      </trkpt>
      <trkpt lat="45.42346" lon="3.88172">
        <ele>914</ele>
        <time>2022-06-29T10:07:55Z</time>
      </trkpt>
      <trkpt lat="45.42351" lon="3.88174">
        <ele>917</ele>
        <time>2022-06-29T10:08:00Z</time>
      </trkpt>
      <trkpt lat="45.42356" lon="3.88178">
        <ele>917</ele>
        <time>2022-06-29T10:08:05Z</time>
      </trkpt>
      <trkpt lat="45.42364" lon="3.8818">
        <ele>917</ele>
        <time>2022-06-29T10:08:10Z</time>
      </trkpt>
      <trkpt lat="45.42371" lon="3.88179">
        <ele>917</ele>
        <time>2022-06-29T10:08:15Z</time>
      </trkpt>
      <trkpt lat="45.42379" lon="3.88181">
        <ele>913</ele>
        <time>2022-06-29T10:08:19Z</time>
      </trkpt>
      <trkpt lat="45.42388" lon="3.88184">
        <ele>913</ele>
        <time>2022-06-29T10:08:24Z</time>
      </trkpt>
      <trkpt lat="45.42397" lon="3.88187">
        <ele>913</ele>
        <time>2022-06-29T10:08:29Z</time>
      </trkpt>
      <trkpt lat="45.42405" lon="3.88188">
        <ele>911</ele>
        <time>2022-06-29T10:08:34Z</time>
      </trkpt>
      <trkpt lat="45.42411" lon="3.88191">
        <ele>911</ele>
        <time>2022-06-29T10:08:39Z</time>
      </trkpt>
      <trkpt lat="45.42415" lon="3.88191">
        <ele>911</ele>
        <time>2022-06-29T10:08:43Z</time>
      </trkpt>
      <trkpt lat="45.42423" lon="3.88193">
        <ele>911</ele>
        <time>2022-06-29T10:08:48Z</time>
      </trkpt>
      <trkpt lat="45.4243" lon="3.88193">
        <ele>911</ele>
        <time>2022-06-29T10:08:53Z</time>
      </trkpt>
      <trkpt lat="45.42436" lon="3.88193">
        <ele>909</ele>
        <time>2022-06-29T10:08:58Z</time>
      </trkpt>
      <trkpt lat="45.42441" lon="3.88195">
        <ele>909</ele>
        <time>2022-06-29T10:09:02Z</time>
      </trkpt>
      <trkpt lat="45.4245" lon="3.88199">
        <ele>909</ele>
        <time>2022-06-29T10:09:07Z</time>
      </trkpt>
      <trkpt lat="45.42459" lon="3.88201">
        <ele>906</ele>
        <time>2022-06-29T10:09:12Z</time>
      </trkpt>
      <trkpt lat="45.42466" lon="3.88202">
        <ele>906</ele>
        <time>2022-06-29T10:09:16Z</time>
      </trkpt>
      <trkpt lat="45.42472" lon="3.88207">
        <ele>906</ele>
        <time>2022-06-29T10:09:21Z</time>
      </trkpt>
      <trkpt lat="45.42479" lon="3.88209">
        <ele>903</ele>
        <time>2022-06-29T10:09:25Z</time>
      </trkpt>
      <trkpt lat="45.42487" lon="3.88213">
        <ele>898</ele>
        <time>2022-06-29T10:09:30Z</time>
      </trkpt>
      <trkpt lat="45.42495" lon="3.88218">
        <ele>898</ele>
        <time>2022-06-29T10:09:34Z</time>
      </trkpt>
      <trkpt lat="45.42501" lon="3.88221">
        <ele>898</ele>
        <time>2022-06-29T10:09:38Z</time>
      </trkpt>
      <trkpt lat="45.42508" lon="3.88224">
        <ele>898</ele>
        <time>2022-06-29T10:09:43Z</time>
      </trkpt>
      <trkpt lat="45.42514" lon="3.88229">
        <ele>896</ele>
        <time>2022-06-29T10:09:48Z</time>
      </trkpt>
      <trkpt lat="45.4252" lon="3.88232">
        <ele>896</ele>
        <time>2022-06-29T10:09:52Z</time>
      </trkpt>
      <trkpt lat="45.42529" lon="3.88236">
        <ele>898</ele>
        <time>2022-06-29T10:09:57Z</time>
      </trkpt>
      <trkpt lat="45.42537" lon="3.88238">
        <ele>898</ele>
        <time>2022-06-29T10:10:01Z</time>
      </trkpt>
      <trkpt lat="45.42544" lon="3.8824">
        <ele>898</ele>
        <time>2022-06-29T10:10:06Z</time>
      </trkpt>
      <trkpt lat="45.42552" lon="3.88243">
        <ele>898</ele>
        <time>2022-06-29T10:10:11Z</time>
      </trkpt>
      <trkpt lat="45.42559" lon="3.88249">
        <ele>898</ele>
        <time>2022-06-29T10:10:16Z</time>
      </trkpt>
      <trkpt lat="45.42567" lon="3.88251">
        <ele>898</ele>
        <time>2022-06-29T10:10:21Z</time>
      </trkpt>
      <trkpt lat="45.42574" lon="3.88254">
        <ele>896</ele>
        <time>2022-06-29T10:10:25Z</time>
      </trkpt>
      <trkpt lat="45.42582" lon="3.88257">
        <ele>896</ele>
        <time>2022-06-29T10:10:30Z</time>
      </trkpt>
      <trkpt lat="45.42593" lon="3.88259">
        <ele>896</ele>
        <time>2022-06-29T10:10:35Z</time>
      </trkpt>
      <trkpt lat="45.426" lon="3.88263">
        <ele>892</ele>
        <time>2022-06-29T10:10:40Z</time>
      </trkpt>
      <trkpt lat="45.42608" lon="3.88265">
        <ele>894</ele>
        <time>2022-06-29T10:10:45Z</time>
      </trkpt>
      <trkpt lat="45.42617" lon="3.88268">
        <ele>894</ele>
        <time>2022-06-29T10:10:50Z</time>
      </trkpt>
      <trkpt lat="45.42624" lon="3.88271">
        <ele>894</ele>
        <time>2022-06-29T10:10:55Z</time>
      </trkpt>
      <trkpt lat="45.42631" lon="3.88272">
        <ele>891</ele>
        <time>2022-06-29T10:11:00Z</time>
      </trkpt>
      <trkpt lat="45.42639" lon="3.88273">
        <ele>891</ele>
        <time>2022-06-29T10:11:05Z</time>
      </trkpt>
      <trkpt lat="45.42646" lon="3.88272">
        <ele>891</ele>
        <time>2022-06-29T10:11:09Z</time>
      </trkpt>
      <trkpt lat="45.42654" lon="3.88271">
        <ele>887</ele>
        <time>2022-06-29T10:11:14Z</time>
      </trkpt>
      <trkpt lat="45.4266" lon="3.88268">
        <ele>887</ele>
        <time>2022-06-29T10:11:18Z</time>
      </trkpt>
      <trkpt lat="45.42666" lon="3.88266">
        <ele>887</ele>
        <time>2022-06-29T10:11:22Z</time>
      </trkpt>
      <trkpt lat="45.42673" lon="3.88264">
        <ele>886</ele>
        <time>2022-06-29T10:11:27Z</time>
      </trkpt>
      <trkpt lat="45.4268" lon="3.88262">
        <ele>886</ele>
        <time>2022-06-29T10:11:32Z</time>
      </trkpt>
      <trkpt lat="45.42687" lon="3.8826">
        <ele>883</ele>
        <time>2022-06-29T10:11:37Z</time>
      </trkpt>
      <trkpt lat="45.42692" lon="3.88258">
        <ele>883</ele>
        <time>2022-06-29T10:11:41Z</time>
      </trkpt>
      <trkpt lat="45.42701" lon="3.88254">
        <ele>883</ele>
        <time>2022-06-29T10:11:46Z</time>
      </trkpt>
      <trkpt lat="45.42709" lon="3.8825">
        <ele>879</ele>
        <time>2022-06-29T10:11:51Z</time>
      </trkpt>
      <trkpt lat="45.42716" lon="3.88247">
        <ele>879</ele>
        <time>2022-06-29T10:11:55Z</time>
      </trkpt>
      <trkpt lat="45.4272" lon="3.88244">
        <ele>879</ele>
        <time>2022-06-29T10:11:59Z</time>
      </trkpt>
      <trkpt lat="45.42727" lon="3.8824">
        <ele>879</ele>
        <time>2022-06-29T10:12:04Z</time>
      </trkpt>
      <trkpt lat="45.42733" lon="3.88235">
        <ele>883</ele>
        <time>2022-06-29T10:12:09Z</time>
      </trkpt>
      <trkpt lat="45.42737" lon="3.88229">
        <ele>880</ele>
        <time>2022-06-29T10:12:13Z</time>
      </trkpt>
      <trkpt lat="45.42744" lon="3.88223">
        <ele>880</ele>
        <time>2022-06-29T10:12:18Z</time>
      </trkpt>
      <trkpt lat="45.42748" lon="3.88215">
        <ele>880</ele>
        <time>2022-06-29T10:12:23Z</time>
      </trkpt>
      <trkpt lat="45.42754" lon="3.88208">
        <ele>882</ele>
        <time>2022-06-29T10:12:28Z</time>
      </trkpt>
      <trkpt lat="45.42757" lon="3.882">
        <ele>882</ele>
        <time>2022-06-29T10:12:33Z</time>
      </trkpt>
      <trkpt lat="45.4276" lon="3.88191">
        <ele>882</ele>
        <time>2022-06-29T10:12:38Z</time>
      </trkpt>
      <trkpt lat="45.42764" lon="3.88183">
        <ele>882</ele>
        <time>2022-06-29T10:12:43Z</time>
      </trkpt>
      <trkpt lat="45.42767" lon="3.88175">
        <ele>879</ele>
        <time>2022-06-29T10:12:48Z</time>
      </trkpt>
      <trkpt lat="45.42769" lon="3.88168">
        <ele>879</ele>
        <time>2022-06-29T10:12:52Z</time>
      </trkpt>
      <trkpt lat="45.42773" lon="3.8816">
        <ele>879</ele>
        <time>2022-06-29T10:12:57Z</time>
      </trkpt>
      <trkpt lat="45.42776" lon="3.88154">
        <ele>879</ele>
        <time>2022-06-29T10:13:01Z</time>
      </trkpt>
      <trkpt lat="45.42778" lon="3.88147">
        <ele>877</ele>
        <time>2022-06-29T10:13:05Z</time>
      </trkpt>
      <trkpt lat="45.42784" lon="3.88137">
        <ele>877</ele>
        <time>2022-06-29T10:13:10Z</time>
      </trkpt>
      <trkpt lat="45.42787" lon="3.8813">
        <ele>877</ele>
        <time>2022-06-29T10:13:14Z</time>
      </trkpt>
      <trkpt lat="45.42793" lon="3.88123">
        <ele>868</ele>
        <time>2022-06-29T10:13:19Z</time>
      </trkpt>
      <trkpt lat="45.42803" lon="3.88116">
        <ele>868</ele>
        <time>2022-06-29T10:13:24Z</time>
      </trkpt>
      <trkpt lat="45.4281" lon="3.88112">
        <ele>868</ele>
        <time>2022-06-29T10:13:29Z</time>
      </trkpt>
      <trkpt lat="45.42814" lon="3.8811">
        <ele>868</ele>
        <time>2022-06-29T10:13:33Z</time>
      </trkpt>
      <trkpt lat="45.4282" lon="3.88107">
        <ele>864</ele>
        <time>2022-06-29T10:13:38Z</time>
      </trkpt>
      <trkpt lat="45.42826" lon="3.88104">
        <ele>864</ele>
        <time>2022-06-29T10:13:42Z</time>
      </trkpt>
      <trkpt lat="45.42832" lon="3.88101">
        <ele>864</ele>
        <time>2022-06-29T10:13:47Z</time>
      </trkpt>
      <trkpt lat="45.42838" lon="3.88098">
        <ele>864</ele>
        <time>2022-06-29T10:13:51Z</time>
      </trkpt>
      <trkpt lat="45.42846" lon="3.88095">
        <ele>863</ele>
        <time>2022-06-29T10:13:56Z</time>
      </trkpt>
      <trkpt lat="45.42856" lon="3.88093">
        <ele>864</ele>
        <time>2022-06-29T10:14:01Z</time>
      </trkpt>
      <trkpt lat="45.42865" lon="3.88089">
        <ele>864</ele>
        <time>2022-06-29T10:14:06Z</time>
      </trkpt>
      <trkpt lat="45.42873" lon="3.88087">
        <ele>864</ele>
        <time>2022-06-29T10:14:11Z</time>
      </trkpt>
      <trkpt lat="45.42881" lon="3.88084">
        <ele>866</ele>
        <time>2022-06-29T10:14:16Z</time>
      </trkpt>
      <trkpt lat="45.42889" lon="3.88081">
        <ele>866</ele>
        <time>2022-06-29T10:14:21Z</time>
      </trkpt>
      <trkpt lat="45.42896" lon="3.88077">
        <ele>866</ele>
        <time>2022-06-29T10:14:26Z</time>
      </trkpt>
      <trkpt lat="45.42902" lon="3.88073">
        <ele>866</ele>
        <time>2022-06-29T10:14:31Z</time>
      </trkpt>
      <trkpt lat="45.42908" lon="3.8807">
        <ele>865</ele>
        <time>2022-06-29T10:14:35Z</time>
      </trkpt>
      <trkpt lat="45.42917" lon="3.88066">
        <ele>868</ele>
        <time>2022-06-29T10:14:40Z</time>
      </trkpt>
      <trkpt lat="45.42924" lon="3.88061">
        <ele>868</ele>
        <time>2022-06-29T10:14:45Z</time>
      </trkpt>
      <trkpt lat="45.42927" lon="3.88054">
        <ele>868</ele>
        <time>2022-06-29T10:14:49Z</time>
      </trkpt>
      <trkpt lat="45.42925" lon="3.88044">
        <ele>868</ele>
        <time>2022-06-29T10:14:54Z</time>
      </trkpt>
      <trkpt lat="45.42924" lon="3.88038">
        <ele>869</ele>
        <time>2022-06-29T10:14:58Z</time>
      </trkpt>
      <trkpt lat="45.42923" lon="3.88026">
        <ele>869</ele>
        <time>2022-06-29T10:15:03Z</time>
      </trkpt>
      <trkpt lat="45.42921" lon="3.88015">
        <ele>869</ele>
        <time>2022-06-29T10:15:08Z</time>
      </trkpt>
      <trkpt lat="45.42921" lon="3.88006">
        <ele>869</ele>
        <time>2022-06-29T10:15:13Z</time>
      </trkpt>
      <trkpt lat="45.42921" lon="3.87996">
        <ele>869</ele>
        <time>2022-06-29T10:15:17Z</time>
      </trkpt>
      <trkpt lat="45.42921" lon="3.87984">
        <ele>869</ele>
        <time>2022-06-29T10:15:22Z</time>
      </trkpt>
      <trkpt lat="45.4292" lon="3.87975">
        <ele>869</ele>
        <time>2022-06-29T10:15:26Z</time>
      </trkpt>
      <trkpt lat="45.42918" lon="3.87964">
        <ele>869</ele>
        <time>2022-06-29T10:15:31Z</time>
      </trkpt>
      <trkpt lat="45.42917" lon="3.87954">
        <ele>868</ele>
        <time>2022-06-29T10:15:36Z</time>
      </trkpt>
      <trkpt lat="45.42915" lon="3.87942">
        <ele>868</ele>
        <time>2022-06-29T10:15:41Z</time>
      </trkpt>
      <trkpt lat="45.42913" lon="3.8793">
        <ele>869</ele>
        <time>2022-06-29T10:15:46Z</time>
      </trkpt>
      <trkpt lat="45.42912" lon="3.87916">
        <ele>869</ele>
        <time>2022-06-29T10:15:50Z</time>
      </trkpt>
      <trkpt lat="45.4291" lon="3.87901">
        <ele>873</ele>
        <time>2022-06-29T10:15:55Z</time>
      </trkpt>
      <trkpt lat="45.42908" lon="3.87889">
        <ele>873</ele>
        <time>2022-06-29T10:16:00Z</time>
      </trkpt>
      <trkpt lat="45.42905" lon="3.87878">
        <ele>873</ele>
        <time>2022-06-29T10:16:05Z</time>
      </trkpt>
      <trkpt lat="45.42902" lon="3.87869">
        <ele>875</ele>
        <time>2022-06-29T10:16:10Z</time>
      </trkpt>
      <trkpt lat="45.42901" lon="3.87859">
        <ele>875</ele>
        <time>2022-06-29T10:16:15Z</time>
      </trkpt>
      <trkpt lat="45.42901" lon="3.87847">
        <ele>878</ele>
        <time>2022-06-29T10:16:20Z</time>
      </trkpt>
      <trkpt lat="45.429" lon="3.87837">
        <ele>878</ele>
        <time>2022-06-29T10:16:25Z</time>
      </trkpt>
      <trkpt lat="45.42898" lon="3.87831">
        <ele>878</ele>
        <time>2022-06-29T10:16:29Z</time>
      </trkpt>
      <trkpt lat="45.42896" lon="3.87831">
        <ele>878</ele>
        <time>2022-06-29T10:16:34Z</time>
      </trkpt>
      <trkpt lat="45.42894" lon="3.87824">
        <ele>878</ele>
        <time>2022-06-29T10:16:38Z</time>
      </trkpt>
      <trkpt lat="45.42893" lon="3.87813">
        <ele>884</ele>
        <time>2022-06-29T10:16:43Z</time>
      </trkpt>
      <trkpt lat="45.4289" lon="3.87803">
        <ele>884</ele>
        <time>2022-06-29T10:16:48Z</time>
      </trkpt>
      <trkpt lat="45.42886" lon="3.87794">
        <ele>884</ele>
        <time>2022-06-29T10:16:52Z</time>
      </trkpt>
      <trkpt lat="45.42884" lon="3.87783">
        <ele>889</ele>
        <time>2022-06-29T10:16:56Z</time>
      </trkpt>
      <trkpt lat="45.42883" lon="3.87771">
        <ele>889</ele>
        <time>2022-06-29T10:17:01Z</time>
      </trkpt>
      <trkpt lat="45.42883" lon="3.87762">
        <ele>891</ele>
        <time>2022-06-29T10:17:05Z</time>
      </trkpt>
      <trkpt lat="45.42887" lon="3.87753">
        <ele>891</ele>
        <time>2022-06-29T10:17:10Z</time>
      </trkpt>
      <trkpt lat="45.4289" lon="3.87745">
        <ele>891</ele>
        <time>2022-06-29T10:17:14Z</time>
      </trkpt>
      <trkpt lat="45.42893" lon="3.87734">
        <ele>891</ele>
        <time>2022-06-29T10:17:19Z</time>
      </trkpt>
      <trkpt lat="45.42894" lon="3.87725">
        <ele>891</ele>
        <time>2022-06-29T10:17:23Z</time>
      </trkpt>
      <trkpt lat="45.42896" lon="3.87713">
        <ele>891</ele>
        <time>2022-06-29T10:17:28Z</time>
      </trkpt>
      <trkpt lat="45.42901" lon="3.87691">
        <ele>890</ele>
        <time>2022-06-29T10:17:32Z</time>
      </trkpt>
      <trkpt lat="45.42905" lon="3.87665">
        <ele>901</ele>
        <time>2022-06-29T10:17:37Z</time>
      </trkpt>
      <trkpt lat="45.4291" lon="3.8765">
        <ele>903</ele>
        <time>2022-06-29T10:17:42Z</time>
      </trkpt>
      <trkpt lat="45.42911" lon="3.87641">
        <ele>903</ele>
        <time>2022-06-29T10:17:46Z</time>
      </trkpt>
      <trkpt lat="45.42913" lon="3.87631">
        <ele>903</ele>
        <time>2022-06-29T10:17:51Z</time>
      </trkpt>
      <trkpt lat="45.42915" lon="3.87623">
        <ele>903</ele>
        <time>2022-06-29T10:17:55Z</time>
      </trkpt>
      <trkpt lat="45.42917" lon="3.87612">
        <ele>903</ele>
        <time>2022-06-29T10:18:00Z</time>
      </trkpt>
      <trkpt lat="45.42918" lon="3.87601">
        <ele>903</ele>
        <time>2022-06-29T10:18:05Z</time>
      </trkpt>
      <trkpt lat="45.4292" lon="3.87591">
        <ele>904</ele>
        <time>2022-06-29T10:18:09Z</time>
      </trkpt>
      <trkpt lat="45.42922" lon="3.87583">
        <ele>904</ele>
        <time>2022-06-29T10:18:13Z</time>
      </trkpt>
      <trkpt lat="45.42923" lon="3.87573">
        <ele>904</ele>
        <time>2022-06-29T10:18:18Z</time>
      </trkpt>
      <trkpt lat="45.42926" lon="3.87564">
        <ele>906</ele>
        <time>2022-06-29T10:18:23Z</time>
      </trkpt>
      <trkpt lat="45.42929" lon="3.87555">
        <ele>906</ele>
        <time>2022-06-29T10:18:28Z</time>
      </trkpt>
      <trkpt lat="45.4293" lon="3.87547">
        <ele>906</ele>
        <time>2022-06-29T10:18:32Z</time>
      </trkpt>
      <trkpt lat="45.42934" lon="3.87539">
        <ele>904</ele>
        <time>2022-06-29T10:18:37Z</time>
      </trkpt>
      <trkpt lat="45.42938" lon="3.8753">
        <ele>904</ele>
        <time>2022-06-29T10:18:42Z</time>
      </trkpt>
      <trkpt lat="45.4294" lon="3.87521">
        <ele>904</ele>
        <time>2022-06-29T10:18:47Z</time>
      </trkpt>
      <trkpt lat="45.4294" lon="3.87511">
        <ele>905</ele>
        <time>2022-06-29T10:18:51Z</time>
      </trkpt>
      <trkpt lat="45.42939" lon="3.87499">
        <ele>905</ele>
        <time>2022-06-29T10:18:56Z</time>
      </trkpt>
      <trkpt lat="45.42938" lon="3.8749">
        <ele>905</ele>
        <time>2022-06-29T10:19:01Z</time>
      </trkpt>
      <trkpt lat="45.42936" lon="3.87482">
        <ele>906</ele>
        <time>2022-06-29T10:19:06Z</time>
      </trkpt>
      <trkpt lat="45.42934" lon="3.87473">
        <ele>906</ele>
        <time>2022-06-29T10:19:11Z</time>
      </trkpt>
      <trkpt lat="45.42931" lon="3.87462">
        <ele>906</ele>
        <time>2022-06-29T10:19:16Z</time>
      </trkpt>
      <trkpt lat="45.42931" lon="3.87454">
        <ele>909</ele>
        <time>2022-06-29T10:19:21Z</time>
      </trkpt>
      <trkpt lat="45.4293" lon="3.87446">
        <ele>910</ele>
        <time>2022-06-29T10:19:26Z</time>
      </trkpt>
      <trkpt lat="45.42929" lon="3.87437">
        <ele>910</ele>
        <time>2022-06-29T10:19:30Z</time>
      </trkpt>
      <trkpt lat="45.42928" lon="3.87425">
        <ele>912</ele>
        <time>2022-06-29T10:19:35Z</time>
      </trkpt>
      <trkpt lat="45.42924" lon="3.87415">
        <ele>912</ele>
        <time>2022-06-29T10:19:40Z</time>
      </trkpt>
      <trkpt lat="45.42921" lon="3.87409">
        <ele>912</ele>
        <time>2022-06-29T10:19:45Z</time>
      </trkpt>
      <trkpt lat="45.42917" lon="3.87404">
        <ele>912</ele>
        <time>2022-06-29T10:19:49Z</time>
      </trkpt>
      <trkpt lat="45.42913" lon="3.87393">
        <ele>912</ele>
        <time>2022-06-29T10:19:54Z</time>
      </trkpt>
      <trkpt lat="45.42907" lon="3.87381">
        <ele>912</ele>
        <time>2022-06-29T10:19:59Z</time>
      </trkpt>
      <trkpt lat="45.42903" lon="3.87372">
        <ele>912</ele>
        <time>2022-06-29T10:20:04Z</time>
      </trkpt>
      <trkpt lat="45.429" lon="3.87364">
        <ele>910</ele>
        <time>2022-06-29T10:20:09Z</time>
      </trkpt>
      <trkpt lat="45.42897" lon="3.87357">
        <ele>910</ele>
        <time>2022-06-29T10:20:13Z</time>
      </trkpt>
      <trkpt lat="45.42891" lon="3.87349">
        <ele>910</ele>
        <time>2022-06-29T10:20:18Z</time>
      </trkpt>
      <trkpt lat="45.42886" lon="3.87339">
        <ele>912</ele>
        <time>2022-06-29T10:20:23Z</time>
      </trkpt>
      <trkpt lat="45.42882" lon="3.87328">
        <ele>912</ele>
        <time>2022-06-29T10:20:28Z</time>
      </trkpt>
      <trkpt lat="45.42878" lon="3.87318">
        <ele>913</ele>
        <time>2022-06-29T10:20:33Z</time>
      </trkpt>
      <trkpt lat="45.42872" lon="3.87309">
        <ele>913</ele>
        <time>2022-06-29T10:20:38Z</time>
      </trkpt>
      <trkpt lat="45.42868" lon="3.87302">
        <ele>913</ele>
        <time>2022-06-29T10:20:42Z</time>
      </trkpt>
      <trkpt lat="45.4286" lon="3.87297">
        <ele>913</ele>
        <time>2022-06-29T10:20:47Z</time>
      </trkpt>
      <trkpt lat="45.42853" lon="3.87293">
        <ele>913</ele>
        <time>2022-06-29T10:20:52Z</time>
      </trkpt>
      <trkpt lat="45.42847" lon="3.87288">
        <ele>917</ele>
        <time>2022-06-29T10:20:56Z</time>
      </trkpt>
      <trkpt lat="45.42841" lon="3.87285">
        <ele>917</ele>
        <time>2022-06-29T10:21:01Z</time>
      </trkpt>
      <trkpt lat="45.42832" lon="3.87279">
        <ele>917</ele>
        <time>2022-06-29T10:21:06Z</time>
      </trkpt>
      <trkpt lat="45.42824" lon="3.87274">
        <ele>917</ele>
        <time>2022-06-29T10:21:11Z</time>
      </trkpt>
      <trkpt lat="45.42817" lon="3.8727">
        <ele>925</ele>
        <time>2022-06-29T10:21:16Z</time>
      </trkpt>
      <trkpt lat="45.4281" lon="3.87267">
        <ele>925</ele>
        <time>2022-06-29T10:21:21Z</time>
      </trkpt>
      <trkpt lat="45.42802" lon="3.87262">
        <ele>924</ele>
        <time>2022-06-29T10:21:26Z</time>
      </trkpt>
      <trkpt lat="45.42795" lon="3.87258">
        <ele>924</ele>
        <time>2022-06-29T10:21:31Z</time>
      </trkpt>
      <trkpt lat="45.42791" lon="3.87255">
        <ele>929</ele>
        <time>2022-06-29T10:21:35Z</time>
      </trkpt>
      <trkpt lat="45.42784" lon="3.8725">
        <ele>929</ele>
        <time>2022-06-29T10:21:40Z</time>
      </trkpt>
      <trkpt lat="45.42776" lon="3.87247">
        <ele>929</ele>
        <time>2022-06-29T10:21:45Z</time>
      </trkpt>
      <trkpt lat="45.4277" lon="3.87244">
        <ele>929</ele>
        <time>2022-06-29T10:21:50Z</time>
      </trkpt>
      <trkpt lat="45.42765" lon="3.8724">
        <ele>929</ele>
        <time>2022-06-29T10:21:54Z</time>
      </trkpt>
      <trkpt lat="45.42759" lon="3.87235">
        <ele>930</ele>
        <time>2022-06-29T10:21:59Z</time>
      </trkpt>
      <trkpt lat="45.42757" lon="3.87234">
        <ele>930</ele>
        <time>2022-06-29T10:22:03Z</time>
      </trkpt>
      <trkpt lat="45.42751" lon="3.87229">
        <ele>930</ele>
        <time>2022-06-29T10:22:08Z</time>
      </trkpt>
      <trkpt lat="45.42745" lon="3.87227">
        <ele>930</ele>
        <time>2022-06-29T10:22:13Z</time>
      </trkpt>
      <trkpt lat="45.42739" lon="3.87222">
        <ele>930</ele>
        <time>2022-06-29T10:22:18Z</time>
      </trkpt>
      <trkpt lat="45.42731" lon="3.87216">
        <ele>935</ele>
        <time>2022-06-29T10:22:23Z</time>
      </trkpt>
      <trkpt lat="45.42724" lon="3.87211">
        <ele>935</ele>
        <time>2022-06-29T10:22:28Z</time>
      </trkpt>
      <trkpt lat="45.42717" lon="3.87207">
        <ele>931</ele>
        <time>2022-06-29T10:22:33Z</time>
      </trkpt>
      <trkpt lat="45.42712" lon="3.87204">
        <ele>931</ele>
        <time>2022-06-29T10:22:37Z</time>
      </trkpt>
      <trkpt lat="45.42705" lon="3.872">
        <ele>934</ele>
        <time>2022-06-29T10:22:41Z</time>
      </trkpt>
      <trkpt lat="45.42699" lon="3.87196">
        <ele>934</ele>
        <time>2022-06-29T10:22:46Z</time>
      </trkpt>
      <trkpt lat="45.42691" lon="3.87193">
        <ele>934</ele>
        <time>2022-06-29T10:22:51Z</time>
      </trkpt>
      <trkpt lat="45.42685" lon="3.8719">
        <ele>934</ele>
        <time>2022-06-29T10:22:56Z</time>
      </trkpt>
      <trkpt lat="45.42682" lon="3.87189">
        <ele>934</ele>
        <time>2022-06-29T10:23:00Z</time>
      </trkpt>
      <trkpt lat="45.42675" lon="3.87185">
        <ele>939</ele>
        <time>2022-06-29T10:23:05Z</time>
      </trkpt>
      <trkpt lat="45.42667" lon="3.87181">
        <ele>939</ele>
        <time>2022-06-29T10:23:10Z</time>
      </trkpt>
      <trkpt lat="45.42658" lon="3.87178">
        <ele>936</ele>
        <time>2022-06-29T10:23:15Z</time>
      </trkpt>
      <trkpt lat="45.42653" lon="3.87176">
        <ele>939</ele>
        <time>2022-06-29T10:23:19Z</time>
      </trkpt>
      <trkpt lat="45.42647" lon="3.87173">
        <ele>939</ele>
        <time>2022-06-29T10:23:24Z</time>
      </trkpt>
      <trkpt lat="45.42641" lon="3.8717">
        <ele>939</ele>
        <time>2022-06-29T10:23:29Z</time>
      </trkpt>
      <trkpt lat="45.42635" lon="3.87165">
        <ele>939</ele>
        <time>2022-06-29T10:23:34Z</time>
      </trkpt>
      <trkpt lat="45.42627" lon="3.87161">
        <ele>939</ele>
        <time>2022-06-29T10:23:39Z</time>
      </trkpt>
      <trkpt lat="45.4262" lon="3.87156">
        <ele>942</ele>
        <time>2022-06-29T10:23:44Z</time>
      </trkpt>
      <trkpt lat="45.42613" lon="3.87152">
        <ele>941</ele>
        <time>2022-06-29T10:23:49Z</time>
      </trkpt>
      <trkpt lat="45.42606" lon="3.87149">
        <ele>941</ele>
        <time>2022-06-29T10:23:54Z</time>
      </trkpt>
      <trkpt lat="45.42598" lon="3.87145">
        <ele>941</ele>
        <time>2022-06-29T10:23:59Z</time>
      </trkpt>
      <trkpt lat="45.42591" lon="3.87142">
        <ele>941</ele>
        <time>2022-06-29T10:24:03Z</time>
      </trkpt>
      <trkpt lat="45.42585" lon="3.8714">
        <ele>941</ele>
        <time>2022-06-29T10:24:07Z</time>
      </trkpt>
      <trkpt lat="45.42577" lon="3.87136">
        <ele>941</ele>
        <time>2022-06-29T10:24:12Z</time>
      </trkpt>
      <trkpt lat="45.4257" lon="3.87133">
        <ele>941</ele>
        <time>2022-06-29T10:24:16Z</time>
      </trkpt>
      <trkpt lat="45.42561" lon="3.87129">
        <ele>943</ele>
        <time>2022-06-29T10:24:21Z</time>
      </trkpt>
      <trkpt lat="45.42555" lon="3.87127">
        <ele>943</ele>
        <time>2022-06-29T10:24:25Z</time>
      </trkpt>
      <trkpt lat="45.42548" lon="3.87125">
        <ele>945</ele>
        <time>2022-06-29T10:24:29Z</time>
      </trkpt>
      <trkpt lat="45.4254" lon="3.87123">
        <ele>947</ele>
        <time>2022-06-29T10:24:34Z</time>
      </trkpt>
      <trkpt lat="45.42533" lon="3.87121">
        <ele>947</ele>
        <time>2022-06-29T10:24:38Z</time>
      </trkpt>
      <trkpt lat="45.42524" lon="3.8712">
        <ele>947</ele>
        <time>2022-06-29T10:24:43Z</time>
      </trkpt>
      <trkpt lat="45.42516" lon="3.87119">
        <ele>947</ele>
        <time>2022-06-29T10:24:48Z</time>
      </trkpt>
      <trkpt lat="45.42508" lon="3.87118">
        <ele>948</ele>
        <time>2022-06-29T10:24:53Z</time>
      </trkpt>
      <trkpt lat="45.42501" lon="3.87117">
        <ele>948</ele>
        <time>2022-06-29T10:24:57Z</time>
      </trkpt>
      <trkpt lat="45.42492" lon="3.87117">
        <ele>948</ele>
        <time>2022-06-29T10:25:02Z</time>
      </trkpt>
      <trkpt lat="45.42484" lon="3.87115">
        <ele>952</ele>
        <time>2022-06-29T10:25:07Z</time>
      </trkpt>
      <trkpt lat="45.42477" lon="3.87113">
        <ele>952</ele>
        <time>2022-06-29T10:25:11Z</time>
      </trkpt>
      <trkpt lat="45.42469" lon="3.87112">
        <ele>952</ele>
        <time>2022-06-29T10:25:16Z</time>
      </trkpt>
      <trkpt lat="45.42461" lon="3.8711">
        <ele>952</ele>
        <time>2022-06-29T10:25:21Z</time>
      </trkpt>
      <trkpt lat="45.42451" lon="3.87108">
        <ele>955</ele>
        <time>2022-06-29T10:25:26Z</time>
      </trkpt>
      <trkpt lat="45.42443" lon="3.87105">
        <ele>955</ele>
        <time>2022-06-29T10:25:31Z</time>
      </trkpt>
      <trkpt lat="45.42436" lon="3.87104">
        <ele>955</ele>
        <time>2022-06-29T10:25:35Z</time>
      </trkpt>
      <trkpt lat="45.42428" lon="3.87099">
        <ele>956</ele>
        <time>2022-06-29T10:25:40Z</time>
      </trkpt>
      <trkpt lat="45.42421" lon="3.87092">
        <ele>957</ele>
        <time>2022-06-29T10:25:45Z</time>
      </trkpt>
      <trkpt lat="45.42414" lon="3.87085">
        <ele>957</ele>
        <time>2022-06-29T10:25:50Z</time>
      </trkpt>
      <trkpt lat="45.42409" lon="3.87082">
        <ele>957</ele>
        <time>2022-06-29T10:25:54Z</time>
      </trkpt>
      <trkpt lat="45.42402" lon="3.87077">
        <ele>958</ele>
        <time>2022-06-29T10:25:59Z</time>
      </trkpt>
      <trkpt lat="45.42398" lon="3.8707">
        <ele>958</ele>
        <time>2022-06-29T10:26:04Z</time>
      </trkpt>
      <trkpt lat="45.42396" lon="3.8706">
        <ele>960</ele>
        <time>2022-06-29T10:26:09Z</time>
      </trkpt>
      <trkpt lat="45.42397" lon="3.87052">
        <ele>960</ele>
        <time>2022-06-29T10:26:13Z</time>
      </trkpt>
      <trkpt lat="45.424" lon="3.87043">
        <ele>960</ele>
        <time>2022-06-29T10:26:18Z</time>
      </trkpt>
      <trkpt lat="45.42404" lon="3.87034">
        <ele>964</ele>
        <time>2022-06-29T10:26:23Z</time>
      </trkpt>
      <trkpt lat="45.42407" lon="3.87027">
        <ele>964</ele>
        <time>2022-06-29T10:26:27Z</time>
      </trkpt>
      <trkpt lat="45.42411" lon="3.87017">
        <ele>964</ele>
        <time>2022-06-29T10:26:32Z</time>
      </trkpt>
      <trkpt lat="45.42414" lon="3.87009">
        <ele>968</ele>
        <time>2022-06-29T10:26:36Z</time>
      </trkpt>
      <trkpt lat="45.42418" lon="3.86999">
        <ele>968</ele>
        <time>2022-06-29T10:26:41Z</time>
      </trkpt>
      <trkpt lat="45.42422" lon="3.86988">
        <ele>968</ele>
        <time>2022-06-29T10:26:46Z</time>
      </trkpt>
      <trkpt lat="45.42426" lon="3.86978">
        <ele>970</ele>
        <time>2022-06-29T10:26:51Z</time>
      </trkpt>
      <trkpt lat="45.4243" lon="3.8697">
        <ele>970</ele>
        <time>2022-06-29T10:26:55Z</time>
      </trkpt>
      <trkpt lat="45.42434" lon="3.86959">
        <ele>973</ele>
        <time>2022-06-29T10:27:00Z</time>
      </trkpt>
      <trkpt lat="45.42437" lon="3.86951">
        <ele>974</ele>
        <time>2022-06-29T10:27:04Z</time>
      </trkpt>
      <trkpt lat="45.4244" lon="3.8694">
        <ele>974</ele>
        <time>2022-06-29T10:27:09Z</time>
      </trkpt>
      <trkpt lat="45.42443" lon="3.86931">
        <ele>974</ele>
        <time>2022-06-29T10:27:13Z</time>
      </trkpt>
      <trkpt lat="45.42445" lon="3.86922">
        <ele>974</ele>
        <time>2022-06-29T10:27:17Z</time>
      </trkpt>
      <trkpt lat="45.42447" lon="3.86911">
        <ele>974</ele>
        <time>2022-06-29T10:27:22Z</time>
      </trkpt>
      <trkpt lat="45.4245" lon="3.86901">
        <ele>973</ele>
        <time>2022-06-29T10:27:27Z</time>
      </trkpt>
      <trkpt lat="45.42455" lon="3.86895">
        <ele>973</ele>
        <time>2022-06-29T10:27:31Z</time>
      </trkpt>
      <trkpt lat="45.42458" lon="3.86886">
        <ele>975</ele>
        <time>2022-06-29T10:27:36Z</time>
      </trkpt>
      <trkpt lat="45.42462" lon="3.86875">
        <ele>974</ele>
        <time>2022-06-29T10:27:41Z</time>
      </trkpt>
      <trkpt lat="45.42465" lon="3.86864">
        <ele>974</ele>
        <time>2022-06-29T10:27:46Z</time>
      </trkpt>
      <trkpt lat="45.42466" lon="3.86854">
        <ele>974</ele>
        <time>2022-06-29T10:27:51Z</time>
      </trkpt>
      <trkpt lat="45.42468" lon="3.86841">
        <ele>974</ele>
        <time>2022-06-29T10:27:56Z</time>
      </trkpt>
      <trkpt lat="45.42469" lon="3.86832">
        <ele>974</ele>
        <time>2022-06-29T10:28:00Z</time>
      </trkpt>
      <trkpt lat="45.42471" lon="3.86821">
        <ele>974</ele>
        <time>2022-06-29T10:28:04Z</time>
      </trkpt>
      <trkpt lat="45.42472" lon="3.8681">
        <ele>974</ele>
        <time>2022-06-29T10:28:09Z</time>
      </trkpt>
      <trkpt lat="45.42472" lon="3.86799">
        <ele>974</ele>
        <time>2022-06-29T10:28:14Z</time>
      </trkpt>
      <trkpt lat="45.42471" lon="3.86788">
        <ele>974</ele>
        <time>2022-06-29T10:28:19Z</time>
      </trkpt>
      <trkpt lat="45.4247" lon="3.86778">
        <ele>974</ele>
        <time>2022-06-29T10:28:24Z</time>
      </trkpt>
      <trkpt lat="45.42472" lon="3.86767">
        <ele>974</ele>
        <time>2022-06-29T10:28:29Z</time>
      </trkpt>
      <trkpt lat="45.42474" lon="3.86758">
        <ele>974</ele>
        <time>2022-06-29T10:28:34Z</time>
      </trkpt>
      <trkpt lat="45.42477" lon="3.86745">
        <ele>974</ele>
        <time>2022-06-29T10:28:39Z</time>
      </trkpt>
      <trkpt lat="45.4248" lon="3.86735">
        <ele>975</ele>
        <time>2022-06-29T10:28:44Z</time>
      </trkpt>
      <trkpt lat="45.42485" lon="3.86725">
        <ele>975</ele>
        <time>2022-06-29T10:28:49Z</time>
      </trkpt>
      <trkpt lat="45.42488" lon="3.86716">
        <ele>980</ele>
        <time>2022-06-29T10:28:53Z</time>
      </trkpt>
      <trkpt lat="45.42492" lon="3.86706">
        <ele>980</ele>
        <time>2022-06-29T10:28:58Z</time>
      </trkpt>
      <trkpt lat="45.425" lon="3.86693">
        <ele>980</ele>
        <time>2022-06-29T10:29:02Z</time>
      </trkpt>
      <trkpt lat="45.42511" lon="3.86677">
        <ele>979</ele>
        <time>2022-06-29T10:29:07Z</time>
      </trkpt>
      <trkpt lat="45.42517" lon="3.86667">
        <ele>983</ele>
        <time>2022-06-29T10:29:12Z</time>
      </trkpt>
      <trkpt lat="45.42522" lon="3.86657">
        <ele>983</ele>
        <time>2022-06-29T10:29:16Z</time>
      </trkpt>
      <trkpt lat="45.42525" lon="3.86649">
        <ele>982</ele>
        <time>2022-06-29T10:29:20Z</time>
      </trkpt>
      <trkpt lat="45.42528" lon="3.86639">
        <ele>982</ele>
        <time>2022-06-29T10:29:25Z</time>
      </trkpt>
      <trkpt lat="45.42528" lon="3.8663">
        <ele>982</ele>
        <time>2022-06-29T10:29:30Z</time>
      </trkpt>
      <trkpt lat="45.42529" lon="3.86621">
        <ele>983</ele>
        <time>2022-06-29T10:29:34Z</time>
      </trkpt>
      <trkpt lat="45.42533" lon="3.86615">
        <ele>983</ele>
        <time>2022-06-29T10:29:39Z</time>
      </trkpt>
      <trkpt lat="45.42538" lon="3.86609">
        <ele>983</ele>
        <time>2022-06-29T10:29:44Z</time>
      </trkpt>
      <trkpt lat="45.42543" lon="3.86603">
        <ele>985</ele>
        <time>2022-06-29T10:29:49Z</time>
      </trkpt>
      <trkpt lat="45.4255" lon="3.86599">
        <ele>985</ele>
        <time>2022-06-29T10:29:54Z</time>
      </trkpt>
      <trkpt lat="45.42556" lon="3.86598">
        <ele>985</ele>
        <time>2022-06-29T10:29:58Z</time>
      </trkpt>
      <trkpt lat="45.42563" lon="3.86597">
        <ele>989</ele>
        <time>2022-06-29T10:30:03Z</time>
      </trkpt>
      <trkpt lat="45.42568" lon="3.86594">
        <ele>989</ele>
        <time>2022-06-29T10:30:07Z</time>
      </trkpt>
      <trkpt lat="45.42574" lon="3.8659">
        <ele>986</ele>
        <time>2022-06-29T10:30:12Z</time>
      </trkpt>
      <trkpt lat="45.4258" lon="3.86588">
        <ele>986</ele>
        <time>2022-06-29T10:30:17Z</time>
      </trkpt>
      <trkpt lat="45.42585" lon="3.86587">
        <ele>986</ele>
        <time>2022-06-29T10:30:22Z</time>
      </trkpt>
      <trkpt lat="45.42586" lon="3.86587">
        <ele>986</ele>
        <time>2022-06-29T10:30:27Z</time>
      </trkpt>
      <trkpt lat="45.42592" lon="3.86594">
        <ele>986</ele>
        <time>2022-06-29T10:30:32Z</time>
      </trkpt>
      <trkpt lat="45.42603" lon="3.86604">
        <ele>981</ele>
        <time>2022-06-29T10:30:37Z</time>
      </trkpt>
      <trkpt lat="45.42611" lon="3.86614">
        <ele>981</ele>
        <time>2022-06-29T10:30:42Z</time>
      </trkpt>
      <trkpt lat="45.42615" lon="3.86623">
        <ele>981</ele>
        <time>2022-06-29T10:30:47Z</time>
      </trkpt>
      <trkpt lat="45.42619" lon="3.8663">
        <ele>982</ele>
        <time>2022-06-29T10:30:51Z</time>
      </trkpt>
      <trkpt lat="45.42623" lon="3.86638">
        <ele>982</ele>
        <time>2022-06-29T10:30:56Z</time>
      </trkpt>
      <trkpt lat="45.42626" lon="3.86644">
        <ele>981</ele>
        <time>2022-06-29T10:31:01Z</time>
      </trkpt>
      <trkpt lat="45.42631" lon="3.86646">
        <ele>981</ele>
        <time>2022-06-29T10:31:05Z</time>
      </trkpt>
      <trkpt lat="45.42636" lon="3.86649">
        <ele>981</ele>
        <time>2022-06-29T10:31:09Z</time>
      </trkpt>
      <trkpt lat="45.42642" lon="3.8665">
        <ele>981</ele>
        <time>2022-06-29T10:31:14Z</time>
      </trkpt>
      <trkpt lat="45.42648" lon="3.86648">
        <ele>981</ele>
        <time>2022-06-29T10:31:19Z</time>
      </trkpt>
      <trkpt lat="45.42653" lon="3.86647">
        <ele>981</ele>
        <time>2022-06-29T10:31:23Z</time>
      </trkpt>
      <trkpt lat="45.4266" lon="3.86647">
        <ele>981</ele>
        <time>2022-06-29T10:31:27Z</time>
      </trkpt>
      <trkpt lat="45.42669" lon="3.86649">
        <ele>981</ele>
        <time>2022-06-29T10:31:32Z</time>
      </trkpt>
      <trkpt lat="45.42678" lon="3.86647">
        <ele>981</ele>
        <time>2022-06-29T10:31:37Z</time>
      </trkpt>
      <trkpt lat="45.42689" lon="3.86644">
        <ele>981</ele>
        <time>2022-06-29T10:31:42Z</time>
      </trkpt>
      <trkpt lat="45.427" lon="3.86642">
        <ele>981</ele>
        <time>2022-06-29T10:31:47Z</time>
      </trkpt>
      <trkpt lat="45.42708" lon="3.86639">
        <ele>981</ele>
        <time>2022-06-29T10:31:51Z</time>
      </trkpt>
      <trkpt lat="45.42716" lon="3.86633">
        <ele>981</ele>
        <time>2022-06-29T10:31:56Z</time>
      </trkpt>
      <trkpt lat="45.42722" lon="3.86629">
        <ele>981</ele>
        <time>2022-06-29T10:32:01Z</time>
      </trkpt>
      <trkpt lat="45.4273" lon="3.86625">
        <ele>977</ele>
        <time>2022-06-29T10:32:06Z</time>
      </trkpt>
      <trkpt lat="45.42736" lon="3.86614">
        <ele>977</ele>
        <time>2022-06-29T10:32:11Z</time>
      </trkpt>
      <trkpt lat="45.42744" lon="3.86611">
        <ele>977</ele>
        <time>2022-06-29T10:32:16Z</time>
      </trkpt>
      <trkpt lat="45.42752" lon="3.86607">
        <ele>977</ele>
        <time>2022-06-29T10:32:21Z</time>
      </trkpt>
      <trkpt lat="45.4276" lon="3.86603">
        <ele>977</ele>
        <time>2022-06-29T10:32:26Z</time>
      </trkpt>
      <trkpt lat="45.42771" lon="3.866">
        <ele>976</ele>
        <time>2022-06-29T10:32:48Z</time>
      </trkpt>
      <trkpt lat="45.42771" lon="3.866">
        <ele>976</ele>
        <time>2022-06-29T10:32:53Z</time>
      </trkpt>
      <trkpt lat="45.42771" lon="3.866">
        <ele>976</ele>
        <time>2022-06-29T10:32:58Z</time>
      </trkpt>
      <trkpt lat="45.42773" lon="3.866">
        <ele>976</ele>
        <time>2022-06-29T10:33:02Z</time>
      </trkpt>
      <trkpt lat="45.4278" lon="3.86597">
        <ele>976</ele>
        <time>2022-06-29T10:33:07Z</time>
      </trkpt>
      <trkpt lat="45.42787" lon="3.86597">
        <ele>972</ele>
        <time>2022-06-29T10:33:12Z</time>
      </trkpt>
      <trkpt lat="45.42795" lon="3.86597">
        <ele>971</ele>
        <time>2022-06-29T10:33:17Z</time>
      </trkpt>
      <trkpt lat="45.42803" lon="3.86597">
        <ele>971</ele>
        <time>2022-06-29T10:33:22Z</time>
      </trkpt>
      <trkpt lat="45.4281" lon="3.86599">
        <ele>974</ele>
        <time>2022-06-29T10:33:26Z</time>
      </trkpt>
      <trkpt lat="45.42817" lon="3.866">
        <ele>974</ele>
        <time>2022-06-29T10:33:31Z</time>
      </trkpt>
      <trkpt lat="45.42824" lon="3.86601">
        <ele>969</ele>
        <time>2022-06-29T10:33:35Z</time>
      </trkpt>
      <trkpt lat="45.42832" lon="3.86602">
        <ele>969</ele>
        <time>2022-06-29T10:33:40Z</time>
      </trkpt>
      <trkpt lat="45.42839" lon="3.86602">
        <ele>969</ele>
        <time>2022-06-29T10:33:45Z</time>
      </trkpt>
      <trkpt lat="45.42846" lon="3.86602">
        <ele>969</ele>
        <time>2022-06-29T10:33:50Z</time>
      </trkpt>
      <trkpt lat="45.42854" lon="3.86603">
        <ele>964</ele>
        <time>2022-06-29T10:33:55Z</time>
      </trkpt>
      <trkpt lat="45.42862" lon="3.86604">
        <ele>964</ele>
        <time>2022-06-29T10:34:00Z</time>
      </trkpt>
      <trkpt lat="45.4287" lon="3.86606">
        <ele>964</ele>
        <time>2022-06-29T10:34:05Z</time>
      </trkpt>
      <trkpt lat="45.42876" lon="3.86607">
        <ele>961</ele>
        <time>2022-06-29T10:34:09Z</time>
      </trkpt>
      <trkpt lat="45.42883" lon="3.86609">
        <ele>961</ele>
        <time>2022-06-29T10:34:14Z</time>
      </trkpt>
      <trkpt lat="45.42887" lon="3.86612">
        <ele>961</ele>
        <time>2022-06-29T10:34:18Z</time>
      </trkpt>
      <trkpt lat="45.42889" lon="3.86613">
        <ele>961</ele>
        <time>2022-06-29T10:34:23Z</time>
      </trkpt>
      <trkpt lat="45.42886" lon="3.86607">
        <ele>961</ele>
        <time>2022-06-29T10:34:28Z</time>
      </trkpt>
      <trkpt lat="45.4288" lon="3.86607">
        <ele>961</ele>
        <time>2022-06-29T10:34:32Z</time>
      </trkpt>
      <trkpt lat="45.42874" lon="3.86609">
        <ele>964</ele>
        <time>2022-06-29T10:34:37Z</time>
      </trkpt>
      <trkpt lat="45.42868" lon="3.86608">
        <ele>964</ele>
        <time>2022-06-29T10:34:42Z</time>
      </trkpt>
      <trkpt lat="45.42857" lon="3.86606">
        <ele>964</ele>
        <time>2022-06-29T10:34:46Z</time>
      </trkpt>
      <trkpt lat="45.4284" lon="3.86604">
        <ele>969</ele>
        <time>2022-06-29T10:34:51Z</time>
      </trkpt>
      <trkpt lat="45.42828" lon="3.86604">
        <ele>969</ele>
        <time>2022-06-29T10:34:56Z</time>
      </trkpt>
      <trkpt lat="45.42816" lon="3.86604">
        <ele>974</ele>
        <time>2022-06-29T10:35:00Z</time>
      </trkpt>
      <trkpt lat="45.42798" lon="3.86601">
        <ele>974</ele>
        <time>2022-06-29T10:35:05Z</time>
      </trkpt>
      <trkpt lat="45.42782" lon="3.86602">
        <ele>976</ele>
        <time>2022-06-29T10:35:10Z</time>
      </trkpt>
      <trkpt lat="45.42767" lon="3.86605">
        <ele>976</ele>
        <time>2022-06-29T10:35:14Z</time>
      </trkpt>
      <trkpt lat="45.42741" lon="3.86618">
        <ele>977</ele>
        <time>2022-06-29T10:35:19Z</time>
      </trkpt>
      <trkpt lat="45.42725" lon="3.86632">
        <ele>981</ele>
        <time>2022-06-29T10:35:23Z</time>
      </trkpt>
      <trkpt lat="45.42708" lon="3.86645">
        <ele>981</ele>
        <time>2022-06-29T10:35:28Z</time>
      </trkpt>
      <trkpt lat="45.42686" lon="3.86649">
        <ele>981</ele>
        <time>2022-06-29T10:35:33Z</time>
      </trkpt>
      <trkpt lat="45.42668" lon="3.86649">
        <ele>981</ele>
        <time>2022-06-29T10:35:38Z</time>
      </trkpt>
      <trkpt lat="45.42651" lon="3.86646">
        <ele>981</ele>
        <time>2022-06-29T10:35:43Z</time>
      </trkpt>
      <trkpt lat="45.4264" lon="3.86641">
        <ele>981</ele>
        <time>2022-06-29T10:35:47Z</time>
      </trkpt>
      <trkpt lat="45.42625" lon="3.86631">
        <ele>981</ele>
        <time>2022-06-29T10:35:52Z</time>
      </trkpt>
      <trkpt lat="45.42602" lon="3.86628">
        <ele>982</ele>
        <time>2022-06-29T10:35:57Z</time>
      </trkpt>
      <trkpt lat="45.42573" lon="3.86623">
        <ele>983</ele>
        <time>2022-06-29T10:36:02Z</time>
      </trkpt>
      <trkpt lat="45.42547" lon="3.86615">
        <ele>985</ele>
        <time>2022-06-29T10:36:06Z</time>
      </trkpt>
      <trkpt lat="45.42535" lon="3.86612">
        <ele>983</ele>
        <time>2022-06-29T10:36:11Z</time>
      </trkpt>
      <trkpt lat="45.42527" lon="3.866">
        <ele>983</ele>
        <time>2022-06-29T10:36:16Z</time>
      </trkpt>
      <trkpt lat="45.42522" lon="3.86587">
        <ele>986</ele>
        <time>2022-06-29T10:36:29Z</time>
      </trkpt>
      <trkpt lat="45.42521" lon="3.86587">
        <ele>986</ele>
        <time>2022-06-29T10:36:34Z</time>
      </trkpt>
      <trkpt lat="45.42523" lon="3.8658">
        <ele>986</ele>
        <time>2022-06-29T10:36:39Z</time>
      </trkpt>
      <trkpt lat="45.42518" lon="3.86573">
        <ele>986</ele>
        <time>2022-06-29T10:36:44Z</time>
      </trkpt>
      <trkpt lat="45.42515" lon="3.86571">
        <ele>986</ele>
        <time>2022-06-29T10:36:49Z</time>
      </trkpt>
      <trkpt lat="45.42517" lon="3.8657">
        <ele>986</ele>
        <time>2022-06-29T10:36:53Z</time>
      </trkpt>
      <trkpt lat="45.42522" lon="3.8657">
        <ele>986</ele>
        <time>2022-06-29T10:36:58Z</time>
      </trkpt>
      <trkpt lat="45.4253" lon="3.86562">
        <ele>990</ele>
        <time>2022-06-29T10:37:03Z</time>
      </trkpt>
      <trkpt lat="45.42535" lon="3.86556">
        <ele>990</ele>
        <time>2022-06-29T10:37:08Z</time>
      </trkpt>
      <trkpt lat="45.4254" lon="3.86549">
        <ele>990</ele>
        <time>2022-06-29T10:37:13Z</time>
      </trkpt>
      <trkpt lat="45.42544" lon="3.86543">
        <ele>992</ele>
        <time>2022-06-29T10:37:18Z</time>
      </trkpt>
      <trkpt lat="45.42549" lon="3.86538">
        <ele>997</ele>
        <time>2022-06-29T10:37:22Z</time>
      </trkpt>
      <trkpt lat="45.42554" lon="3.86529">
        <ele>997</ele>
        <time>2022-06-29T10:37:27Z</time>
      </trkpt>
      <trkpt lat="45.42561" lon="3.86522">
        <ele>997</ele>
        <time>2022-06-29T10:37:32Z</time>
      </trkpt>
      <trkpt lat="45.42566" lon="3.86514">
        <ele>997</ele>
        <time>2022-06-29T10:37:37Z</time>
      </trkpt>
      <trkpt lat="45.42571" lon="3.86509">
        <ele>999</ele>
        <time>2022-06-29T10:37:41Z</time>
      </trkpt>
      <trkpt lat="45.42576" lon="3.86501">
        <ele>999</ele>
        <time>2022-06-29T10:37:46Z</time>
      </trkpt>
      <trkpt lat="45.42582" lon="3.86493">
        <ele>999</ele>
        <time>2022-06-29T10:37:51Z</time>
      </trkpt>
      <trkpt lat="45.42587" lon="3.86484">
        <ele>1002</ele>
        <time>2022-06-29T10:37:56Z</time>
      </trkpt>
      <trkpt lat="45.42593" lon="3.86477">
        <ele>1002</ele>
        <time>2022-06-29T10:38:01Z</time>
      </trkpt>
      <trkpt lat="45.42599" lon="3.8647">
        <ele>997</ele>
        <time>2022-06-29T10:38:06Z</time>
      </trkpt>
      <trkpt lat="45.42604" lon="3.8646">
        <ele>997</ele>
        <time>2022-06-29T10:38:11Z</time>
      </trkpt>
      <trkpt lat="45.42607" lon="3.86451">
        <ele>1000</ele>
        <time>2022-06-29T10:38:16Z</time>
      </trkpt>
      <trkpt lat="45.42611" lon="3.8644">
        <ele>1000</ele>
        <time>2022-06-29T10:38:21Z</time>
      </trkpt>
      <trkpt lat="45.42614" lon="3.86433">
        <ele>1000</ele>
        <time>2022-06-29T10:38:25Z</time>
      </trkpt>
      <trkpt lat="45.42618" lon="3.86424">
        <ele>1005</ele>
        <time>2022-06-29T10:38:30Z</time>
      </trkpt>
      <trkpt lat="45.42621" lon="3.86412">
        <ele>1005</ele>
        <time>2022-06-29T10:38:35Z</time>
      </trkpt>
      <trkpt lat="45.42625" lon="3.86402">
        <ele>1010</ele>
        <time>2022-06-29T10:38:40Z</time>
      </trkpt>
      <trkpt lat="45.42629" lon="3.86394">
        <ele>1004</ele>
        <time>2022-06-29T10:38:45Z</time>
      </trkpt>
      <trkpt lat="45.42634" lon="3.86386">
        <ele>1004</ele>
        <time>2022-06-29T10:38:50Z</time>
      </trkpt>
      <trkpt lat="45.42638" lon="3.8638">
        <ele>1004</ele>
        <time>2022-06-29T10:38:54Z</time>
      </trkpt>
      <trkpt lat="45.42644" lon="3.86372">
        <ele>1010</ele>
        <time>2022-06-29T10:38:59Z</time>
      </trkpt>
      <trkpt lat="45.42649" lon="3.86364">
        <ele>1010</ele>
        <time>2022-06-29T10:39:03Z</time>
      </trkpt>
      <trkpt lat="45.42653" lon="3.86355">
        <ele>1010</ele>
        <time>2022-06-29T10:39:08Z</time>
      </trkpt>
      <trkpt lat="45.42657" lon="3.86349">
        <ele>1006</ele>
        <time>2022-06-29T10:39:12Z</time>
      </trkpt>
      <trkpt lat="45.42662" lon="3.86339">
        <ele>1009</ele>
        <time>2022-06-29T10:39:17Z</time>
      </trkpt>
      <trkpt lat="45.42665" lon="3.86333">
        <ele>1009</ele>
        <time>2022-06-29T10:39:22Z</time>
      </trkpt>
      <trkpt lat="45.42668" lon="3.86327">
        <ele>1009</ele>
        <time>2022-06-29T10:39:27Z</time>
      </trkpt>
      <trkpt lat="45.42669" lon="3.86315">
        <ele>1010</ele>
        <time>2022-06-29T10:39:32Z</time>
      </trkpt>
      <trkpt lat="45.42672" lon="3.86306">
        <ele>1010</ele>
        <time>2022-06-29T10:39:36Z</time>
      </trkpt>
      <trkpt lat="45.42675" lon="3.86294">
        <ele>1010</ele>
        <time>2022-06-29T10:39:41Z</time>
      </trkpt>
      <trkpt lat="45.4268" lon="3.86281">
        <ele>1011</ele>
        <time>2022-06-29T10:39:46Z</time>
      </trkpt>
      <trkpt lat="45.42684" lon="3.86271">
        <ele>1007</ele>
        <time>2022-06-29T10:39:51Z</time>
      </trkpt>
      <trkpt lat="45.42686" lon="3.86262">
        <ele>1011</ele>
        <time>2022-06-29T10:39:56Z</time>
      </trkpt>
      <trkpt lat="45.42689" lon="3.86253">
        <ele>1011</ele>
        <time>2022-06-29T10:40:00Z</time>
      </trkpt>
      <trkpt lat="45.42693" lon="3.86246">
        <ele>1011</ele>
        <time>2022-06-29T10:40:05Z</time>
      </trkpt>
      <trkpt lat="45.42696" lon="3.86242">
        <ele>1011</ele>
        <time>2022-06-29T10:40:10Z</time>
      </trkpt>
      <trkpt lat="45.42698" lon="3.86237">
        <ele>1011</ele>
        <time>2022-06-29T10:40:14Z</time>
      </trkpt>
      <trkpt lat="45.42701" lon="3.86229">
        <ele>1017</ele>
        <time>2022-06-29T10:40:19Z</time>
      </trkpt>
      <trkpt lat="45.42706" lon="3.86223">
        <ele>1017</ele>
        <time>2022-06-29T10:40:24Z</time>
      </trkpt>
      <trkpt lat="45.42712" lon="3.86218">
        <ele>1014</ele>
        <time>2022-06-29T10:40:29Z</time>
      </trkpt>
      <trkpt lat="45.42718" lon="3.86213">
        <ele>1014</ele>
        <time>2022-06-29T10:40:34Z</time>
      </trkpt>
      <trkpt lat="45.42724" lon="3.86207">
        <ele>1022</ele>
        <time>2022-06-29T10:40:39Z</time>
      </trkpt>
      <trkpt lat="45.42728" lon="3.86204">
        <ele>1022</ele>
        <time>2022-06-29T10:40:43Z</time>
      </trkpt>
      <trkpt lat="45.42736" lon="3.86201">
        <ele>1022</ele>
        <time>2022-06-29T10:40:48Z</time>
      </trkpt>
      <trkpt lat="45.42744" lon="3.86194">
        <ele>1018</ele>
        <time>2022-06-29T10:40:53Z</time>
      </trkpt>
      <trkpt lat="45.4275" lon="3.86188">
        <ele>1018</ele>
        <time>2022-06-29T10:40:57Z</time>
      </trkpt>
      <trkpt lat="45.42756" lon="3.86176">
        <ele>1024</ele>
        <time>2022-06-29T10:41:02Z</time>
      </trkpt>
      <trkpt lat="45.42762" lon="3.86169">
        <ele>1024</ele>
        <time>2022-06-29T10:41:07Z</time>
      </trkpt>
      <trkpt lat="45.42768" lon="3.86163">
        <ele>1018</ele>
        <time>2022-06-29T10:41:12Z</time>
      </trkpt>
      <trkpt lat="45.42775" lon="3.86155">
        <ele>1018</ele>
        <time>2022-06-29T10:41:17Z</time>
      </trkpt>
      <trkpt lat="45.42781" lon="3.86147">
        <ele>1021</ele>
        <time>2022-06-29T10:41:21Z</time>
      </trkpt>
      <trkpt lat="45.42787" lon="3.86137">
        <ele>1021</ele>
        <time>2022-06-29T10:41:26Z</time>
      </trkpt>
      <trkpt lat="45.42792" lon="3.86129">
        <ele>1021</ele>
        <time>2022-06-29T10:41:30Z</time>
      </trkpt>
      <trkpt lat="45.42796" lon="3.86122">
        <ele>1020</ele>
        <time>2022-06-29T10:41:34Z</time>
      </trkpt>
      <trkpt lat="45.42798" lon="3.86112">
        <ele>1020</ele>
        <time>2022-06-29T10:41:39Z</time>
      </trkpt>
      <trkpt lat="45.428" lon="3.86103">
        <ele>1020</ele>
        <time>2022-06-29T10:41:44Z</time>
      </trkpt>
      <trkpt lat="45.428" lon="3.86093">
        <ele>1021</ele>
        <time>2022-06-29T10:41:49Z</time>
      </trkpt>
      <trkpt lat="45.42798" lon="3.86084">
        <ele>1021</ele>
        <time>2022-06-29T10:41:53Z</time>
      </trkpt>
      <trkpt lat="45.42795" lon="3.86074">
        <ele>1021</ele>
        <time>2022-06-29T10:41:58Z</time>
      </trkpt>
      <trkpt lat="45.42795" lon="3.86069">
        <ele>1022</ele>
        <time>2022-06-29T10:42:02Z</time>
      </trkpt>
      <trkpt lat="45.42793" lon="3.86061">
        <ele>1022</ele>
        <time>2022-06-29T10:42:07Z</time>
      </trkpt>
      <trkpt lat="45.42788" lon="3.86053">
        <ele>1027</ele>
        <time>2022-06-29T10:42:12Z</time>
      </trkpt>
      <trkpt lat="45.42781" lon="3.86046">
        <ele>1027</ele>
        <time>2022-06-29T10:42:17Z</time>
      </trkpt>
      <trkpt lat="45.42776" lon="3.86037">
        <ele>1027</ele>
        <time>2022-06-29T10:42:22Z</time>
      </trkpt>
      <trkpt lat="45.42769" lon="3.86029">
        <ele>1027</ele>
        <time>2022-06-29T10:42:27Z</time>
      </trkpt>
      <trkpt lat="45.42765" lon="3.86021">
        <ele>1027</ele>
        <time>2022-06-29T10:42:31Z</time>
      </trkpt>
      <trkpt lat="45.4276" lon="3.86014">
        <ele>1032</ele>
        <time>2022-06-29T10:42:36Z</time>
      </trkpt>
      <trkpt lat="45.42758" lon="3.86007">
        <ele>1032</ele>
        <time>2022-06-29T10:42:40Z</time>
      </trkpt>
      <trkpt lat="45.42752" lon="3.86">
        <ele>1032</ele>
        <time>2022-06-29T10:42:45Z</time>
      </trkpt>
      <trkpt lat="45.42748" lon="3.85995">
        <ele>1032</ele>
        <time>2022-06-29T10:42:50Z</time>
      </trkpt>
      <trkpt lat="45.42744" lon="3.85988">
        <ele>1032</ele>
        <time>2022-06-29T10:42:54Z</time>
      </trkpt>
      <trkpt lat="45.4274" lon="3.8598">
        <ele>1033</ele>
        <time>2022-06-29T10:42:59Z</time>
      </trkpt>
      <trkpt lat="45.42737" lon="3.85973">
        <ele>1033</ele>
        <time>2022-06-29T10:43:03Z</time>
      </trkpt>
      <trkpt lat="45.42735" lon="3.85961">
        <ele>1037</ele>
        <time>2022-06-29T10:43:08Z</time>
      </trkpt>
      <trkpt lat="45.42735" lon="3.8595">
        <ele>1041</ele>
        <time>2022-06-29T10:43:12Z</time>
      </trkpt>
      <trkpt lat="45.42736" lon="3.85942">
        <ele>1041</ele>
        <time>2022-06-29T10:43:17Z</time>
      </trkpt>
      <trkpt lat="45.42739" lon="3.85933">
        <ele>1034</ele>
        <time>2022-06-29T10:43:21Z</time>
      </trkpt>
      <trkpt lat="45.42743" lon="3.85924">
        <ele>1039</ele>
        <time>2022-06-29T10:43:26Z</time>
      </trkpt>
      <trkpt lat="45.42748" lon="3.85915">
        <ele>1039</ele>
        <time>2022-06-29T10:43:30Z</time>
      </trkpt>
      <trkpt lat="45.42755" lon="3.85903">
        <ele>1043</ele>
        <time>2022-06-29T10:43:35Z</time>
      </trkpt>
      <trkpt lat="45.42759" lon="3.85887">
        <ele>1043</ele>
        <time>2022-06-29T10:43:40Z</time>
      </trkpt>
      <trkpt lat="45.4276" lon="3.85874">
        <ele>1048</ele>
        <time>2022-06-29T10:43:44Z</time>
      </trkpt>
      <trkpt lat="45.42762" lon="3.8586">
        <ele>1048</ele>
        <time>2022-06-29T10:43:49Z</time>
      </trkpt>
      <trkpt lat="45.42765" lon="3.85848">
        <ele>1043</ele>
        <time>2022-06-29T10:43:54Z</time>
      </trkpt>
      <trkpt lat="45.42768" lon="3.8584">
        <ele>1047</ele>
        <time>2022-06-29T10:43:59Z</time>
      </trkpt>
      <trkpt lat="45.42771" lon="3.85828">
        <ele>1047</ele>
        <time>2022-06-29T10:44:04Z</time>
      </trkpt>
      <trkpt lat="45.42773" lon="3.85818">
        <ele>1048</ele>
        <time>2022-06-29T10:44:09Z</time>
      </trkpt>
      <trkpt lat="45.42776" lon="3.8581">
        <ele>1048</ele>
        <time>2022-06-29T10:44:14Z</time>
      </trkpt>
      <trkpt lat="45.42779" lon="3.85801">
        <ele>1048</ele>
        <time>2022-06-29T10:44:19Z</time>
      </trkpt>
      <trkpt lat="45.4278" lon="3.85792">
        <ele>1048</ele>
        <time>2022-06-29T10:44:24Z</time>
      </trkpt>
      <trkpt lat="45.42781" lon="3.85783">
        <ele>1051</ele>
        <time>2022-06-29T10:44:28Z</time>
      </trkpt>
      <trkpt lat="45.42782" lon="3.85776">
        <ele>1051</ele>
        <time>2022-06-29T10:44:33Z</time>
      </trkpt>
      <trkpt lat="45.42782" lon="3.85775">
        <ele>1051</ele>
        <time>2022-06-29T10:44:37Z</time>
      </trkpt>
      <trkpt lat="45.42783" lon="3.85769">
        <ele>1051</ele>
        <time>2022-06-29T10:44:42Z</time>
      </trkpt>
      <trkpt lat="45.42783" lon="3.85756">
        <ele>1055</ele>
        <time>2022-06-29T10:45:13Z</time>
      </trkpt>
      <trkpt lat="45.42782" lon="3.85756">
        <ele>1055</ele>
        <time>2022-06-29T10:45:17Z</time>
      </trkpt>
      <trkpt lat="45.42782" lon="3.85755">
        <ele>1055</ele>
        <time>2022-06-29T10:45:22Z</time>
      </trkpt>
      <trkpt lat="45.42782" lon="3.85753">
        <ele>1055</ele>
        <time>2022-06-29T10:45:26Z</time>
      </trkpt>
      <trkpt lat="45.42783" lon="3.85751">
        <ele>1055</ele>
        <time>2022-06-29T10:45:30Z</time>
      </trkpt>
      <trkpt lat="45.42782" lon="3.85745">
        <ele>1055</ele>
        <time>2022-06-29T10:46:35Z</time>
      </trkpt>
      <trkpt lat="45.42782" lon="3.85745">
        <ele>1055</ele>
        <time>2022-06-29T10:46:40Z</time>
      </trkpt>
      <trkpt lat="45.42781" lon="3.85744">
        <ele>1055</ele>
        <time>2022-06-29T10:46:45Z</time>
      </trkpt>
      <trkpt lat="45.42782" lon="3.85741">
        <ele>1055</ele>
        <time>2022-06-29T10:46:50Z</time>
      </trkpt>
      <trkpt lat="45.42786" lon="3.85734">
        <ele>1061</ele>
        <time>2022-06-29T10:46:54Z</time>
      </trkpt>
      <trkpt lat="45.4279" lon="3.85724">
        <ele>1061</ele>
        <time>2022-06-29T10:46:59Z</time>
      </trkpt>
      <trkpt lat="45.42796" lon="3.85713">
        <ele>1050</ele>
        <time>2022-06-29T10:47:04Z</time>
      </trkpt>
      <trkpt lat="45.42799" lon="3.85706">
        <ele>1058</ele>
        <time>2022-06-29T10:47:08Z</time>
      </trkpt>
      <trkpt lat="45.42801" lon="3.85695">
        <ele>1058</ele>
        <time>2022-06-29T10:47:13Z</time>
      </trkpt>
      <trkpt lat="45.42805" lon="3.85688">
        <ele>1058</ele>
        <time>2022-06-29T10:47:17Z</time>
      </trkpt>
      <trkpt lat="45.4281" lon="3.85681">
        <ele>1058</ele>
        <time>2022-06-29T10:47:22Z</time>
      </trkpt>
      <trkpt lat="45.42817" lon="3.8567">
        <ele>1063</ele>
        <time>2022-06-29T10:47:27Z</time>
      </trkpt>
      <trkpt lat="45.42821" lon="3.85663">
        <ele>1055</ele>
        <time>2022-06-29T10:47:32Z</time>
      </trkpt>
      <trkpt lat="45.42826" lon="3.8566">
        <ele>1055</ele>
        <time>2022-06-29T10:47:37Z</time>
      </trkpt>
      <trkpt lat="45.42832" lon="3.85654">
        <ele>1055</ele>
        <time>2022-06-29T10:47:41Z</time>
      </trkpt>
      <trkpt lat="45.42837" lon="3.85646">
        <ele>1059</ele>
        <time>2022-06-29T10:47:46Z</time>
      </trkpt>
      <trkpt lat="45.42841" lon="3.85641">
        <ele>1059</ele>
        <time>2022-06-29T10:47:51Z</time>
      </trkpt>
      <trkpt lat="45.42846" lon="3.85634">
        <ele>1059</ele>
        <time>2022-06-29T10:47:56Z</time>
      </trkpt>
      <trkpt lat="45.42852" lon="3.85626">
        <ele>1052</ele>
        <time>2022-06-29T10:48:01Z</time>
      </trkpt>
      <trkpt lat="45.42859" lon="3.8562">
        <ele>1057</ele>
        <time>2022-06-29T10:48:06Z</time>
      </trkpt>
      <trkpt lat="45.42863" lon="3.85614">
        <ele>1057</ele>
        <time>2022-06-29T10:48:11Z</time>
      </trkpt>
      <trkpt lat="45.42869" lon="3.85605">
        <ele>1057</ele>
        <time>2022-06-29T10:48:16Z</time>
      </trkpt>
      <trkpt lat="45.42873" lon="3.85603">
        <ele>1057</ele>
        <time>2022-06-29T10:48:20Z</time>
      </trkpt>
      <trkpt lat="45.42879" lon="3.856">
        <ele>1050</ele>
        <time>2022-06-29T10:48:25Z</time>
      </trkpt>
      <trkpt lat="45.42884" lon="3.85598">
        <ele>1050</ele>
        <time>2022-06-29T10:48:30Z</time>
      </trkpt>
      <trkpt lat="45.42888" lon="3.85595">
        <ele>1058</ele>
        <time>2022-06-29T10:48:34Z</time>
      </trkpt>
      <trkpt lat="45.42893" lon="3.8559">
        <ele>1058</ele>
        <time>2022-06-29T10:48:39Z</time>
      </trkpt>
      <trkpt lat="45.42899" lon="3.85585">
        <ele>1058</ele>
        <time>2022-06-29T10:48:44Z</time>
      </trkpt>
      <trkpt lat="45.42906" lon="3.85582">
        <ele>1052</ele>
        <time>2022-06-29T10:48:48Z</time>
      </trkpt>
      <trkpt lat="45.42914" lon="3.85575">
        <ele>1052</ele>
        <time>2022-06-29T10:48:53Z</time>
      </trkpt>
      <trkpt lat="45.42921" lon="3.85569">
        <ele>1060</ele>
        <time>2022-06-29T10:48:58Z</time>
      </trkpt>
      <trkpt lat="45.42924" lon="3.85559">
        <ele>1060</ele>
        <time>2022-06-29T10:49:03Z</time>
      </trkpt>
      <trkpt lat="45.42926" lon="3.85549">
        <ele>1060</ele>
        <time>2022-06-29T10:49:08Z</time>
      </trkpt>
      <trkpt lat="45.42926" lon="3.85541">
        <ele>1067</ele>
        <time>2022-06-29T10:49:13Z</time>
      </trkpt>
      <trkpt lat="45.42927" lon="3.85535">
        <ele>1067</ele>
        <time>2022-06-29T10:49:17Z</time>
      </trkpt>
      <trkpt lat="45.42929" lon="3.85524">
        <ele>1067</ele>
        <time>2022-06-29T10:49:22Z</time>
      </trkpt>
      <trkpt lat="45.42935" lon="3.85511">
        <ele>1067</ele>
        <time>2022-06-29T10:49:27Z</time>
      </trkpt>
      <trkpt lat="45.42942" lon="3.85502">
        <ele>1067</ele>
        <time>2022-06-29T10:49:32Z</time>
      </trkpt>
      <trkpt lat="45.42946" lon="3.85496">
        <ele>1067</ele>
        <time>2022-06-29T10:49:37Z</time>
      </trkpt>
      <trkpt lat="45.42952" lon="3.85488">
        <ele>1067</ele>
        <time>2022-06-29T10:49:42Z</time>
      </trkpt>
      <trkpt lat="45.42957" lon="3.85481">
        <ele>1071</ele>
        <time>2022-06-29T10:49:47Z</time>
      </trkpt>
      <trkpt lat="45.42962" lon="3.85475">
        <ele>1067</ele>
        <time>2022-06-29T10:49:52Z</time>
      </trkpt>
      <trkpt lat="45.42968" lon="3.85469">
        <ele>1067</ele>
        <time>2022-06-29T10:49:57Z</time>
      </trkpt>
      <trkpt lat="45.4297" lon="3.85466">
        <ele>1067</ele>
        <time>2022-06-29T10:50:02Z</time>
      </trkpt>
      <trkpt lat="45.42973" lon="3.85466">
        <ele>1067</ele>
        <time>2022-06-29T10:50:07Z</time>
      </trkpt>
      <trkpt lat="45.42974" lon="3.85465">
        <ele>1067</ele>
        <time>2022-06-29T10:50:11Z</time>
      </trkpt>
      <trkpt lat="45.42975" lon="3.85464">
        <ele>1067</ele>
        <time>2022-06-29T10:50:16Z</time>
      </trkpt>
      <trkpt lat="45.42975" lon="3.85464">
        <ele>1067</ele>
        <time>2022-06-29T10:50:21Z</time>
      </trkpt>
      <trkpt lat="45.42982" lon="3.85457">
        <ele>1073</ele>
        <time>2022-06-29T10:50:26Z</time>
      </trkpt>
      <trkpt lat="45.42984" lon="3.85455">
        <ele>1073</ele>
        <time>2022-06-29T10:50:31Z</time>
      </trkpt>
      <trkpt lat="45.42991" lon="3.85452">
        <ele>1071</ele>
        <time>2022-06-29T10:50:35Z</time>
      </trkpt>
      <trkpt lat="45.43001" lon="3.85448">
        <ele>1071</ele>
        <time>2022-06-29T10:50:40Z</time>
      </trkpt>
      <trkpt lat="45.43009" lon="3.85443">
        <ele>1071</ele>
        <time>2022-06-29T10:50:45Z</time>
      </trkpt>
      <trkpt lat="45.43018" lon="3.85436">
        <ele>1069</ele>
        <time>2022-06-29T10:50:49Z</time>
      </trkpt>
      <trkpt lat="45.43027" lon="3.8543">
        <ele>1073</ele>
        <time>2022-06-29T10:50:53Z</time>
      </trkpt>
      <trkpt lat="45.43036" lon="3.85423">
        <ele>1073</ele>
        <time>2022-06-29T10:50:58Z</time>
      </trkpt>
      <trkpt lat="45.4305" lon="3.85416">
        <ele>1069</ele>
        <time>2022-06-29T10:51:03Z</time>
      </trkpt>
      <trkpt lat="45.43057" lon="3.85407">
        <ele>1069</ele>
        <time>2022-06-29T10:51:08Z</time>
      </trkpt>
      <trkpt lat="45.43064" lon="3.85398">
        <ele>1070</ele>
        <time>2022-06-29T10:51:13Z</time>
      </trkpt>
      <trkpt lat="45.43069" lon="3.85387">
        <ele>1070</ele>
        <time>2022-06-29T10:51:18Z</time>
      </trkpt>
      <trkpt lat="45.43072" lon="3.85379">
        <ele>1065</ele>
        <time>2022-06-29T10:51:23Z</time>
      </trkpt>
      <trkpt lat="45.43074" lon="3.85373">
        <ele>1062</ele>
        <time>2022-06-29T10:51:27Z</time>
      </trkpt>
      <trkpt lat="45.43078" lon="3.85366">
        <ele>1062</ele>
        <time>2022-06-29T10:51:31Z</time>
      </trkpt>
      <trkpt lat="45.43082" lon="3.85354">
        <ele>1062</ele>
        <time>2022-06-29T10:51:36Z</time>
      </trkpt>
      <trkpt lat="45.43084" lon="3.85344">
        <ele>1065</ele>
        <time>2022-06-29T10:51:40Z</time>
      </trkpt>
      <trkpt lat="45.43086" lon="3.85334">
        <ele>1065</ele>
        <time>2022-06-29T10:51:44Z</time>
      </trkpt>
      <trkpt lat="45.43088" lon="3.85322">
        <ele>1065</ele>
        <time>2022-06-29T10:51:49Z</time>
      </trkpt>
      <trkpt lat="45.43091" lon="3.85312">
        <ele>1065</ele>
        <time>2022-06-29T10:51:54Z</time>
      </trkpt>
      <trkpt lat="45.43093" lon="3.85307">
        <ele>1065</ele>
        <time>2022-06-29T10:51:58Z</time>
      </trkpt>
      <trkpt lat="45.43094" lon="3.85307">
        <ele>1065</ele>
        <time>2022-06-29T10:52:03Z</time>
      </trkpt>
      <trkpt lat="45.43095" lon="3.85305">
        <ele>1065</ele>
        <time>2022-06-29T10:52:07Z</time>
      </trkpt>
      <trkpt lat="45.43099" lon="3.85298">
        <ele>1067</ele>
        <time>2022-06-29T10:52:12Z</time>
      </trkpt>
      <trkpt lat="45.43103" lon="3.85289">
        <ele>1070</ele>
        <time>2022-06-29T10:52:17Z</time>
      </trkpt>
      <trkpt lat="45.43107" lon="3.85281">
        <ele>1070</ele>
        <time>2022-06-29T10:52:21Z</time>
      </trkpt>
      <trkpt lat="45.43111" lon="3.85275">
        <ele>1070</ele>
        <time>2022-06-29T10:52:26Z</time>
      </trkpt>
      <trkpt lat="45.43115" lon="3.85269">
        <ele>1070</ele>
        <time>2022-06-29T10:52:31Z</time>
      </trkpt>
      <trkpt lat="45.43123" lon="3.85259">
        <ele>1073</ele>
        <time>2022-06-29T10:52:36Z</time>
      </trkpt>
      <trkpt lat="45.4313" lon="3.85255">
        <ele>1077</ele>
        <time>2022-06-29T10:52:40Z</time>
      </trkpt>
      <trkpt lat="45.43137" lon="3.85254">
        <ele>1077</ele>
        <time>2022-06-29T10:52:45Z</time>
      </trkpt>
      <trkpt lat="45.43143" lon="3.85252">
        <ele>1077</ele>
        <time>2022-06-29T10:52:49Z</time>
      </trkpt>
      <trkpt lat="45.43152" lon="3.8525">
        <ele>1077</ele>
        <time>2022-06-29T10:52:54Z</time>
      </trkpt>
      <trkpt lat="45.43159" lon="3.85251">
        <ele>1080</ele>
        <time>2022-06-29T10:52:59Z</time>
      </trkpt>
      <trkpt lat="45.43166" lon="3.85251">
        <ele>1080</ele>
        <time>2022-06-29T10:53:03Z</time>
      </trkpt>
      <trkpt lat="45.43175" lon="3.85251">
        <ele>1080</ele>
        <time>2022-06-29T10:53:08Z</time>
      </trkpt>
      <trkpt lat="45.43183" lon="3.85251">
        <ele>1082</ele>
        <time>2022-06-29T10:53:13Z</time>
      </trkpt>
      <trkpt lat="45.43191" lon="3.85251">
        <ele>1082</ele>
        <time>2022-06-29T10:53:18Z</time>
      </trkpt>
      <trkpt lat="45.43201" lon="3.85247">
        <ele>1082</ele>
        <time>2022-06-29T10:53:23Z</time>
      </trkpt>
      <trkpt lat="45.43209" lon="3.85243">
        <ele>1081</ele>
        <time>2022-06-29T10:53:27Z</time>
      </trkpt>
      <trkpt lat="45.43218" lon="3.85238">
        <ele>1081</ele>
        <time>2022-06-29T10:53:32Z</time>
      </trkpt>
      <trkpt lat="45.43224" lon="3.85233">
        <ele>1084</ele>
        <time>2022-06-29T10:53:37Z</time>
      </trkpt>
      <trkpt lat="45.43228" lon="3.85227">
        <ele>1084</ele>
        <time>2022-06-29T10:53:41Z</time>
      </trkpt>
      <trkpt lat="45.43233" lon="3.85222">
        <ele>1084</ele>
        <time>2022-06-29T10:53:46Z</time>
      </trkpt>
      <trkpt lat="45.43239" lon="3.85214">
        <ele>1079</ele>
        <time>2022-06-29T10:53:51Z</time>
      </trkpt>
      <trkpt lat="45.43245" lon="3.85207">
        <ele>1079</ele>
        <time>2022-06-29T10:53:56Z</time>
      </trkpt>
      <trkpt lat="45.43251" lon="3.852">
        <ele>1079</ele>
        <time>2022-06-29T10:54:01Z</time>
      </trkpt>
      <trkpt lat="45.43256" lon="3.85192">
        <ele>1079</ele>
        <time>2022-06-29T10:54:06Z</time>
      </trkpt>
      <trkpt lat="45.43261" lon="3.85186">
        <ele>1079</ele>
        <time>2022-06-29T10:54:11Z</time>
      </trkpt>
      <trkpt lat="45.43265" lon="3.85179">
        <ele>1076</ele>
        <time>2022-06-29T10:54:16Z</time>
      </trkpt>
      <trkpt lat="45.43271" lon="3.8517">
        <ele>1076</ele>
        <time>2022-06-29T10:54:21Z</time>
      </trkpt>
      <trkpt lat="45.43275" lon="3.85164">
        <ele>1076</ele>
        <time>2022-06-29T10:54:26Z</time>
      </trkpt>
      <trkpt lat="45.43279" lon="3.85162">
        <ele>1076</ele>
        <time>2022-06-29T10:54:30Z</time>
      </trkpt>
      <trkpt lat="45.4328" lon="3.85162">
        <ele>1076</ele>
        <time>2022-06-29T10:54:35Z</time>
      </trkpt>
      <trkpt lat="45.43285" lon="3.85159">
        <ele>1076</ele>
        <time>2022-06-29T10:54:40Z</time>
      </trkpt>
      <trkpt lat="45.43291" lon="3.85157">
        <ele>1076</ele>
        <time>2022-06-29T10:54:44Z</time>
      </trkpt>
      <trkpt lat="45.43297" lon="3.85152">
        <ele>1082</ele>
        <time>2022-06-29T10:54:49Z</time>
      </trkpt>
      <trkpt lat="45.43301" lon="3.85149">
        <ele>1082</ele>
        <time>2022-06-29T10:54:53Z</time>
      </trkpt>
      <trkpt lat="45.43309" lon="3.85142">
        <ele>1082</ele>
        <time>2022-06-29T10:54:58Z</time>
      </trkpt>
      <trkpt lat="45.43318" lon="3.85132">
        <ele>1082</ele>
        <time>2022-06-29T10:55:03Z</time>
      </trkpt>
      <trkpt lat="45.43323" lon="3.85126">
        <ele>1082</ele>
        <time>2022-06-29T10:55:07Z</time>
      </trkpt>
      <trkpt lat="45.43327" lon="3.85123">
        <ele>1094</ele>
        <time>2022-06-29T10:55:12Z</time>
      </trkpt>
      <trkpt lat="45.43338" lon="3.85118">
        <ele>1094</ele>
        <time>2022-06-29T10:55:17Z</time>
      </trkpt>
      <trkpt lat="45.43345" lon="3.85113">
        <ele>1094</ele>
        <time>2022-06-29T10:55:21Z</time>
      </trkpt>
      <trkpt lat="45.43358" lon="3.8511">
        <ele>1089</ele>
        <time>2022-06-29T10:55:26Z</time>
      </trkpt>
      <trkpt lat="45.43366" lon="3.85109">
        <ele>1089</ele>
        <time>2022-06-29T10:55:30Z</time>
      </trkpt>
      <trkpt lat="45.43369" lon="3.85107">
        <ele>1089</ele>
        <time>2022-06-29T10:55:35Z</time>
      </trkpt>
      <trkpt lat="45.43375" lon="3.85105">
        <ele>1084</ele>
        <time>2022-06-29T10:55:40Z</time>
      </trkpt>
      <trkpt lat="45.43379" lon="3.85103">
        <ele>1084</ele>
        <time>2022-06-29T10:55:44Z</time>
      </trkpt>
      <trkpt lat="45.43388" lon="3.85104">
        <ele>1084</ele>
        <time>2022-06-29T10:55:49Z</time>
      </trkpt>
      <trkpt lat="45.43393" lon="3.85104">
        <ele>1084</ele>
        <time>2022-06-29T10:55:53Z</time>
      </trkpt>
      <trkpt lat="45.434" lon="3.85108">
        <ele>1084</ele>
        <time>2022-06-29T10:55:58Z</time>
      </trkpt>
      <trkpt lat="45.43412" lon="3.85104">
        <ele>1080</ele>
        <time>2022-06-29T10:56:03Z</time>
      </trkpt>
      <trkpt lat="45.43418" lon="3.851">
        <ele>1080</ele>
        <time>2022-06-29T10:56:08Z</time>
      </trkpt>
      <trkpt lat="45.43425" lon="3.85098">
        <ele>1080</ele>
        <time>2022-06-29T10:56:13Z</time>
      </trkpt>
      <trkpt lat="45.43431" lon="3.85096">
        <ele>1084</ele>
        <time>2022-06-29T10:56:18Z</time>
      </trkpt>
      <trkpt lat="45.43443" lon="3.85098">
        <ele>1075</ele>
        <time>2022-06-29T10:56:23Z</time>
      </trkpt>
      <trkpt lat="45.4346" lon="3.85099">
        <ele>1072</ele>
        <time>2022-06-29T10:56:28Z</time>
      </trkpt>
      <trkpt lat="45.43472" lon="3.85094">
        <ele>1084</ele>
        <time>2022-06-29T10:56:33Z</time>
      </trkpt>
      <trkpt lat="45.43476" lon="3.8509">
        <ele>1084</ele>
        <time>2022-06-29T10:56:37Z</time>
      </trkpt>
      <trkpt lat="45.4348" lon="3.85086">
        <ele>1084</ele>
        <time>2022-06-29T10:56:42Z</time>
      </trkpt>
      <trkpt lat="45.43484" lon="3.85083">
        <ele>1084</ele>
        <time>2022-06-29T10:56:46Z</time>
      </trkpt>
      <trkpt lat="45.43487" lon="3.85083">
        <ele>1091</ele>
        <time>2022-06-29T10:56:51Z</time>
      </trkpt>
      <trkpt lat="45.4349" lon="3.85082">
        <ele>1091</ele>
        <time>2022-06-29T10:56:56Z</time>
      </trkpt>
      <trkpt lat="45.43497" lon="3.85074">
        <ele>1091</ele>
        <time>2022-06-29T10:57:01Z</time>
      </trkpt>
      <trkpt lat="45.43503" lon="3.85068">
        <ele>1105</ele>
        <time>2022-06-29T10:57:05Z</time>
      </trkpt>
      <trkpt lat="45.43513" lon="3.8506">
        <ele>1105</ele>
        <time>2022-06-29T10:57:10Z</time>
      </trkpt>
      <trkpt lat="45.43516" lon="3.85052">
        <ele>1102</ele>
        <time>2022-06-29T10:57:14Z</time>
      </trkpt>
      <trkpt lat="45.4352" lon="3.85045">
        <ele>1102</ele>
        <time>2022-06-29T10:57:19Z</time>
      </trkpt>
      <trkpt lat="45.43526" lon="3.85038">
        <ele>1111</ele>
        <time>2022-06-29T10:57:24Z</time>
      </trkpt>
      <trkpt lat="45.43533" lon="3.85036">
        <ele>1111</ele>
        <time>2022-06-29T10:57:29Z</time>
      </trkpt>
      <trkpt lat="45.43539" lon="3.8503">
        <ele>1111</ele>
        <time>2022-06-29T10:57:34Z</time>
      </trkpt>
      <trkpt lat="45.43545" lon="3.85023">
        <ele>1105</ele>
        <time>2022-06-29T10:57:39Z</time>
      </trkpt>
      <trkpt lat="45.43548" lon="3.85018">
        <ele>1105</ele>
        <time>2022-06-29T10:57:44Z</time>
      </trkpt>
      <trkpt lat="45.43553" lon="3.85014">
        <ele>1111</ele>
        <time>2022-06-29T10:57:48Z</time>
      </trkpt>
      <trkpt lat="45.4356" lon="3.85009">
        <ele>1111</ele>
        <time>2022-06-29T10:57:53Z</time>
      </trkpt>
      <trkpt lat="45.43568" lon="3.85006">
        <ele>1111</ele>
        <time>2022-06-29T10:57:58Z</time>
      </trkpt>
      <trkpt lat="45.43575" lon="3.85003">
        <ele>1105</ele>
        <time>2022-06-29T10:58:03Z</time>
      </trkpt>
      <trkpt lat="45.4358" lon="3.84998">
        <ele>1105</ele>
        <time>2022-06-29T10:58:07Z</time>
      </trkpt>
      <trkpt lat="45.43587" lon="3.84991">
        <ele>1105</ele>
        <time>2022-06-29T10:58:12Z</time>
      </trkpt>
      <trkpt lat="45.43596" lon="3.84983">
        <ele>1110</ele>
        <time>2022-06-29T10:58:17Z</time>
      </trkpt>
      <trkpt lat="45.43603" lon="3.84978">
        <ele>1106</ele>
        <time>2022-06-29T10:58:21Z</time>
      </trkpt>
      <trkpt lat="45.4361" lon="3.84972">
        <ele>1106</ele>
        <time>2022-06-29T10:58:26Z</time>
      </trkpt>
      <trkpt lat="45.43612" lon="3.84971">
        <ele>1106</ele>
        <time>2022-06-29T10:58:30Z</time>
      </trkpt>
      <trkpt lat="45.43616" lon="3.84963">
        <ele>1106</ele>
        <time>2022-06-29T10:58:35Z</time>
      </trkpt>
      <trkpt lat="45.43621" lon="3.84955">
        <ele>1112</ele>
        <time>2022-06-29T10:58:39Z</time>
      </trkpt>
      <trkpt lat="45.43625" lon="3.84948">
        <ele>1112</ele>
        <time>2022-06-29T10:58:44Z</time>
      </trkpt>
      <trkpt lat="45.43627" lon="3.84945">
        <ele>1110</ele>
        <time>2022-06-29T10:58:48Z</time>
      </trkpt>
      <trkpt lat="45.4363" lon="3.84938">
        <ele>1110</ele>
        <time>2022-06-29T10:58:53Z</time>
      </trkpt>
      <trkpt lat="45.43634" lon="3.84931">
        <ele>1110</ele>
        <time>2022-06-29T10:58:57Z</time>
      </trkpt>
      <trkpt lat="45.43639" lon="3.84922">
        <ele>1112</ele>
        <time>2022-06-29T10:59:02Z</time>
      </trkpt>
      <trkpt lat="45.43643" lon="3.84915">
        <ele>1112</ele>
        <time>2022-06-29T10:59:06Z</time>
      </trkpt>
      <trkpt lat="45.43646" lon="3.84907">
        <ele>1112</ele>
        <time>2022-06-29T10:59:11Z</time>
      </trkpt>
      <trkpt lat="45.43649" lon="3.849">
        <ele>1112</ele>
        <time>2022-06-29T10:59:15Z</time>
      </trkpt>
      <trkpt lat="45.43654" lon="3.84891">
        <ele>1108</ele>
        <time>2022-06-29T10:59:20Z</time>
      </trkpt>
      <trkpt lat="45.43657" lon="3.84883">
        <ele>1108</ele>
        <time>2022-06-29T10:59:24Z</time>
      </trkpt>
      <trkpt lat="45.43662" lon="3.84872">
        <ele>1107</ele>
        <time>2022-06-29T10:59:29Z</time>
      </trkpt>
      <trkpt lat="45.43667" lon="3.84864">
        <ele>1107</ele>
        <time>2022-06-29T10:59:34Z</time>
      </trkpt>
      <trkpt lat="45.4367" lon="3.84858">
        <ele>1107</ele>
        <time>2022-06-29T10:59:38Z</time>
      </trkpt>
      <trkpt lat="45.43672" lon="3.8485">
        <ele>1107</ele>
        <time>2022-06-29T10:59:43Z</time>
      </trkpt>
      <trkpt lat="45.43675" lon="3.84844">
        <ele>1108</ele>
        <time>2022-06-29T10:59:47Z</time>
      </trkpt>
      <trkpt lat="45.43676" lon="3.84837">
        <ele>1108</ele>
        <time>2022-06-29T10:59:51Z</time>
      </trkpt>
      <trkpt lat="45.43679" lon="3.84826">
        <ele>1108</ele>
        <time>2022-06-29T10:59:56Z</time>
      </trkpt>
      <trkpt lat="45.4368" lon="3.84819">
        <ele>1112</ele>
        <time>2022-06-29T11:00:00Z</time>
      </trkpt>
      <trkpt lat="45.43685" lon="3.84805">
        <ele>1111</ele>
        <time>2022-06-29T11:00:05Z</time>
      </trkpt>
      <trkpt lat="45.43688" lon="3.84794">
        <ele>1111</ele>
        <time>2022-06-29T11:00:10Z</time>
      </trkpt>
      <trkpt lat="45.43692" lon="3.84784">
        <ele>1114</ele>
        <time>2022-06-29T11:00:15Z</time>
      </trkpt>
      <trkpt lat="45.43697" lon="3.84776">
        <ele>1114</ele>
        <time>2022-06-29T11:00:20Z</time>
      </trkpt>
      <trkpt lat="45.437" lon="3.84767">
        <ele>1114</ele>
        <time>2022-06-29T11:00:25Z</time>
      </trkpt>
      <trkpt lat="45.43704" lon="3.84758">
        <ele>1120</ele>
        <time>2022-06-29T11:00:29Z</time>
      </trkpt>
      <trkpt lat="45.43706" lon="3.84747">
        <ele>1120</ele>
        <time>2022-06-29T11:00:34Z</time>
      </trkpt>
      <trkpt lat="45.43709" lon="3.84738">
        <ele>1117</ele>
        <time>2022-06-29T11:00:39Z</time>
      </trkpt>
      <trkpt lat="45.43713" lon="3.84727">
        <ele>1120</ele>
        <time>2022-06-29T11:00:44Z</time>
      </trkpt>
      <trkpt lat="45.43717" lon="3.84717">
        <ele>1120</ele>
        <time>2022-06-29T11:00:49Z</time>
      </trkpt>
      <trkpt lat="45.43722" lon="3.84707">
        <ele>1123</ele>
        <time>2022-06-29T11:00:54Z</time>
      </trkpt>
      <trkpt lat="45.43723" lon="3.84702">
        <ele>1123</ele>
        <time>2022-06-29T11:00:58Z</time>
      </trkpt>
      <trkpt lat="45.43725" lon="3.84694">
        <ele>1123</ele>
        <time>2022-06-29T11:01:03Z</time>
      </trkpt>
      <trkpt lat="45.43727" lon="3.84688">
        <ele>1123</ele>
        <time>2022-06-29T11:01:07Z</time>
      </trkpt>
      <trkpt lat="45.43732" lon="3.84677">
        <ele>1125</ele>
        <time>2022-06-29T11:01:12Z</time>
      </trkpt>
      <trkpt lat="45.43736" lon="3.84665">
        <ele>1122</ele>
        <time>2022-06-29T11:01:17Z</time>
      </trkpt>
      <trkpt lat="45.43739" lon="3.84656">
        <ele>1122</ele>
        <time>2022-06-29T11:01:22Z</time>
      </trkpt>
      <trkpt lat="45.43741" lon="3.84646">
        <ele>1124</ele>
        <time>2022-06-29T11:01:27Z</time>
      </trkpt>
      <trkpt lat="45.43742" lon="3.84638">
        <ele>1124</ele>
        <time>2022-06-29T11:01:31Z</time>
      </trkpt>
      <trkpt lat="45.43742" lon="3.84625">
        <ele>1124</ele>
        <time>2022-06-29T11:01:36Z</time>
      </trkpt>
      <trkpt lat="45.43742" lon="3.84613">
        <ele>1127</ele>
        <time>2022-06-29T11:01:41Z</time>
      </trkpt>
      <trkpt lat="45.43743" lon="3.84603">
        <ele>1127</ele>
        <time>2022-06-29T11:01:45Z</time>
      </trkpt>
      <trkpt lat="45.43744" lon="3.84595">
        <ele>1128</ele>
        <time>2022-06-29T11:01:50Z</time>
      </trkpt>
      <trkpt lat="45.43745" lon="3.84586">
        <ele>1128</ele>
        <time>2022-06-29T11:01:54Z</time>
      </trkpt>
      <trkpt lat="45.43745" lon="3.84577">
        <ele>1128</ele>
        <time>2022-06-29T11:01:59Z</time>
      </trkpt>
      <trkpt lat="45.43747" lon="3.84567">
        <ele>1129</ele>
        <time>2022-06-29T11:02:04Z</time>
      </trkpt>
      <trkpt lat="45.43748" lon="3.84558">
        <ele>1129</ele>
        <time>2022-06-29T11:02:09Z</time>
      </trkpt>
      <trkpt lat="45.43748" lon="3.84547">
        <ele>1129</ele>
        <time>2022-06-29T11:02:14Z</time>
      </trkpt>
      <trkpt lat="45.43749" lon="3.84539">
        <ele>1129</ele>
        <time>2022-06-29T11:02:18Z</time>
      </trkpt>
      <trkpt lat="45.43749" lon="3.84527">
        <ele>1129</ele>
        <time>2022-06-29T11:02:23Z</time>
      </trkpt>
      <trkpt lat="45.4375" lon="3.84517">
        <ele>1129</ele>
        <time>2022-06-29T11:02:28Z</time>
      </trkpt>
      <trkpt lat="45.43752" lon="3.84507">
        <ele>1129</ele>
        <time>2022-06-29T11:02:32Z</time>
      </trkpt>
      <trkpt lat="45.43755" lon="3.84491">
        <ele>1129</ele>
        <time>2022-06-29T11:02:37Z</time>
      </trkpt>
      <trkpt lat="45.43756" lon="3.84477">
        <ele>1130</ele>
        <time>2022-06-29T11:02:42Z</time>
      </trkpt>
      <trkpt lat="45.43758" lon="3.84468">
        <ele>1130</ele>
        <time>2022-06-29T11:02:46Z</time>
      </trkpt>
      <trkpt lat="45.43762" lon="3.84461">
        <ele>1130</ele>
        <time>2022-06-29T11:02:51Z</time>
      </trkpt>
      <trkpt lat="45.43767" lon="3.84453">
        <ele>1131</ele>
        <time>2022-06-29T11:02:55Z</time>
      </trkpt>
      <trkpt lat="45.4377" lon="3.84449">
        <ele>1131</ele>
        <time>2022-06-29T11:02:59Z</time>
      </trkpt>
      <trkpt lat="45.43775" lon="3.84443">
        <ele>1131</ele>
        <time>2022-06-29T11:03:04Z</time>
      </trkpt>
      <trkpt lat="45.43781" lon="3.8444">
        <ele>1131</ele>
        <time>2022-06-29T11:03:09Z</time>
      </trkpt>
      <trkpt lat="45.43785" lon="3.84436">
        <ele>1131</ele>
        <time>2022-06-29T11:03:14Z</time>
      </trkpt>
      <trkpt lat="45.4379" lon="3.84433">
        <ele>1131</ele>
        <time>2022-06-29T11:03:19Z</time>
      </trkpt>
      <trkpt lat="45.43796" lon="3.84428">
        <ele>1133</ele>
        <time>2022-06-29T11:03:23Z</time>
      </trkpt>
      <trkpt lat="45.43804" lon="3.84424">
        <ele>1133</ele>
        <time>2022-06-29T11:03:27Z</time>
      </trkpt>
      <trkpt lat="45.43811" lon="3.8442">
        <ele>1133</ele>
        <time>2022-06-29T11:03:32Z</time>
      </trkpt>
      <trkpt lat="45.43817" lon="3.84416">
        <ele>1133</ele>
        <time>2022-06-29T11:03:36Z</time>
      </trkpt>
      <trkpt lat="45.43823" lon="3.84412">
        <ele>1132</ele>
        <time>2022-06-29T11:03:41Z</time>
      </trkpt>
      <trkpt lat="45.43829" lon="3.84406">
        <ele>1132</ele>
        <time>2022-06-29T11:03:46Z</time>
      </trkpt>
      <trkpt lat="45.43835" lon="3.84402">
        <ele>1133</ele>
        <time>2022-06-29T11:03:50Z</time>
      </trkpt>
      <trkpt lat="45.43842" lon="3.84398">
        <ele>1133</ele>
        <time>2022-06-29T11:03:55Z</time>
      </trkpt>
      <trkpt lat="45.4385" lon="3.84395">
        <ele>1132</ele>
        <time>2022-06-29T11:04:00Z</time>
      </trkpt>
      <trkpt lat="45.43856" lon="3.84392">
        <ele>1132</ele>
        <time>2022-06-29T11:04:05Z</time>
      </trkpt>
      <trkpt lat="45.43861" lon="3.84389">
        <ele>1132</ele>
        <time>2022-06-29T11:04:09Z</time>
      </trkpt>
      <trkpt lat="45.43868" lon="3.84386">
        <ele>1132</ele>
        <time>2022-06-29T11:04:14Z</time>
      </trkpt>
      <trkpt lat="45.43876" lon="3.8438">
        <ele>1130</ele>
        <time>2022-06-29T11:04:18Z</time>
      </trkpt>
      <trkpt lat="45.43882" lon="3.84377">
        <ele>1130</ele>
        <time>2022-06-29T11:04:23Z</time>
      </trkpt>
      <trkpt lat="45.43888" lon="3.8438">
        <ele>1130</ele>
        <time>2022-06-29T11:04:27Z</time>
      </trkpt>
      <trkpt lat="45.43894" lon="3.84385">
        <ele>1130</ele>
        <time>2022-06-29T11:04:32Z</time>
      </trkpt>
      <trkpt lat="45.439" lon="3.84389">
        <ele>1130</ele>
        <time>2022-06-29T11:04:37Z</time>
      </trkpt>
      <trkpt lat="45.43907" lon="3.84396">
        <ele>1131</ele>
        <time>2022-06-29T11:04:41Z</time>
      </trkpt>
      <trkpt lat="45.4391" lon="3.844">
        <ele>1131</ele>
        <time>2022-06-29T11:04:45Z</time>
      </trkpt>
      <trkpt lat="45.43915" lon="3.84402">
        <ele>1131</ele>
        <time>2022-06-29T11:07:27Z</time>
      </trkpt>
      <trkpt lat="45.43915" lon="3.84402">
        <ele>1131</ele>
        <time>2022-06-29T11:07:31Z</time>
      </trkpt>
      <trkpt lat="45.43915" lon="3.844">
        <ele>1131</ele>
        <time>2022-06-29T11:07:35Z</time>
      </trkpt>
      <trkpt lat="45.43914" lon="3.84397">
        <ele>1131</ele>
        <time>2022-06-29T11:07:40Z</time>
      </trkpt>
      <trkpt lat="45.43914" lon="3.84396">
        <ele>1131</ele>
        <time>2022-06-29T11:07:45Z</time>
      </trkpt>
      <trkpt lat="45.43911" lon="3.84388">
        <ele>1131</ele>
        <time>2022-06-29T11:08:12Z</time>
      </trkpt>
      <trkpt lat="45.43912" lon="3.84386">
        <ele>1131</ele>
        <time>2022-06-29T11:08:17Z</time>
      </trkpt>
      <trkpt lat="45.43913" lon="3.84385">
        <ele>1131</ele>
        <time>2022-06-29T11:08:22Z</time>
      </trkpt>
      <trkpt lat="45.43914" lon="3.84382">
        <ele>1131</ele>
        <time>2022-06-29T11:08:27Z</time>
      </trkpt>
      <trkpt lat="45.43915" lon="3.8438">
        <ele>1131</ele>
        <time>2022-06-29T11:08:31Z</time>
      </trkpt>
      <trkpt lat="45.43917" lon="3.84372">
        <ele>1131</ele>
        <time>2022-06-29T11:08:50Z</time>
      </trkpt>
      <trkpt lat="45.43919" lon="3.84368">
        <ele>1131</ele>
        <time>2022-06-29T11:08:55Z</time>
      </trkpt>
      <trkpt lat="45.4392" lon="3.84367">
        <ele>1131</ele>
        <time>2022-06-29T11:09:00Z</time>
      </trkpt>
      <trkpt lat="45.43921" lon="3.84365">
        <ele>1131</ele>
        <time>2022-06-29T11:09:04Z</time>
      </trkpt>
      <trkpt lat="45.4392" lon="3.84361">
        <ele>1131</ele>
        <time>2022-06-29T11:09:08Z</time>
      </trkpt>
      <trkpt lat="45.43919" lon="3.84369">
        <ele>1131</ele>
        <time>2022-06-29T11:12:33Z</time>
      </trkpt>
      <trkpt lat="45.43917" lon="3.8437">
        <ele>1131</ele>
        <time>2022-06-29T11:12:37Z</time>
      </trkpt>
      <trkpt lat="45.43917" lon="3.84371">
        <ele>1131</ele>
        <time>2022-06-29T11:12:42Z</time>
      </trkpt>
      <trkpt lat="45.43917" lon="3.84371">
        <ele>1131</ele>
        <time>2022-06-29T11:12:46Z</time>
      </trkpt>
      <trkpt lat="45.43915" lon="3.84373">
        <ele>1131</ele>
        <time>2022-06-29T11:12:51Z</time>
      </trkpt>
      <trkpt lat="45.43925" lon="3.84372">
        <ele>1131</ele>
        <time>2022-06-29T11:41:18Z</time>
      </trkpt>
      <trkpt lat="45.43925" lon="3.84371">
        <ele>1131</ele>
        <time>2022-06-29T11:41:22Z</time>
      </trkpt>
      <trkpt lat="45.43925" lon="3.84371">
        <ele>1131</ele>
        <time>2022-06-29T11:41:26Z</time>
      </trkpt>
      <trkpt lat="45.43925" lon="3.84371">
        <ele>1131</ele>
        <time>2022-06-29T11:41:31Z</time>
      </trkpt>
      <trkpt lat="45.43925" lon="3.84372">
        <ele>1131</ele>
        <time>2022-06-29T11:41:35Z</time>
      </trkpt>
      <trkpt lat="45.43917" lon="3.84367">
        <ele>1131</ele>
        <time>2022-06-29T11:45:08Z</time>
      </trkpt>
      <trkpt lat="45.43918" lon="3.84365">
        <ele>1131</ele>
        <time>2022-06-29T11:45:13Z</time>
      </trkpt>
      <trkpt lat="45.43924" lon="3.84359">
        <ele>1131</ele>
        <time>2022-06-29T11:45:17Z</time>
      </trkpt>
      <trkpt lat="45.43929" lon="3.84352">
        <ele>1131</ele>
        <time>2022-06-29T11:45:22Z</time>
      </trkpt>
      <trkpt lat="45.43931" lon="3.84352">
        <ele>1130</ele>
        <time>2022-06-29T11:45:27Z</time>
      </trkpt>
      <trkpt lat="45.43938" lon="3.84339">
        <ele>1130</ele>
        <time>2022-06-29T11:48:14Z</time>
      </trkpt>
      <trkpt lat="45.43938" lon="3.84339">
        <ele>1130</ele>
        <time>2022-06-29T11:48:19Z</time>
      </trkpt>
      <trkpt lat="45.43938" lon="3.84337">
        <ele>1130</ele>
        <time>2022-06-29T11:48:24Z</time>
      </trkpt>
      <trkpt lat="45.43939" lon="3.84336">
        <ele>1130</ele>
        <time>2022-06-29T11:48:28Z</time>
      </trkpt>
      <trkpt lat="45.43941" lon="3.8433">
        <ele>1130</ele>
        <time>2022-06-29T11:48:32Z</time>
      </trkpt>
      <trkpt lat="45.43944" lon="3.84322">
        <ele>1130</ele>
        <time>2022-06-29T11:48:37Z</time>
      </trkpt>
      <trkpt lat="45.43947" lon="3.84318">
        <ele>1130</ele>
        <time>2022-06-29T11:48:42Z</time>
      </trkpt>
      <trkpt lat="45.43949" lon="3.84317">
        <ele>1130</ele>
        <time>2022-06-29T11:48:46Z</time>
      </trkpt>
      <trkpt lat="45.43953" lon="3.84315">
        <ele>1130</ele>
        <time>2022-06-29T11:48:51Z</time>
      </trkpt>
      <trkpt lat="45.43952" lon="3.8432">
        <ele>1130</ele>
        <time>2022-06-29T11:50:16Z</time>
      </trkpt>
      <trkpt lat="45.43951" lon="3.84321">
        <ele>1130</ele>
        <time>2022-06-29T11:50:21Z</time>
      </trkpt>
      <trkpt lat="45.43951" lon="3.84323">
        <ele>1130</ele>
        <time>2022-06-29T11:50:26Z</time>
      </trkpt>
      <trkpt lat="45.4395" lon="3.84324">
        <ele>1130</ele>
        <time>2022-06-29T11:50:30Z</time>
      </trkpt>
      <trkpt lat="45.43947" lon="3.84328">
        <ele>1130</ele>
        <time>2022-06-29T11:50:35Z</time>
      </trkpt>
      <trkpt lat="45.43941" lon="3.84333">
        <ele>1130</ele>
        <time>2022-06-29T11:50:39Z</time>
      </trkpt>
      <trkpt lat="45.43937" lon="3.84338">
        <ele>1130</ele>
        <time>2022-06-29T11:50:44Z</time>
      </trkpt>
      <trkpt lat="45.43933" lon="3.84344">
        <ele>1130</ele>
        <time>2022-06-29T11:50:48Z</time>
      </trkpt>
      <trkpt lat="45.43929" lon="3.84352">
        <ele>1131</ele>
        <time>2022-06-29T11:50:53Z</time>
      </trkpt>
      <trkpt lat="45.43928" lon="3.84368">
        <ele>1131</ele>
        <time>2022-06-29T11:52:38Z</time>
      </trkpt>
      <trkpt lat="45.43929" lon="3.84367">
        <ele>1131</ele>
        <time>2022-06-29T11:52:43Z</time>
      </trkpt>
      <trkpt lat="45.43929" lon="3.84367">
        <ele>1131</ele>
        <time>2022-06-29T11:52:47Z</time>
      </trkpt>
      <trkpt lat="45.43929" lon="3.84368">
        <ele>1131</ele>
        <time>2022-06-29T11:52:51Z</time>
      </trkpt>
      <trkpt lat="45.4393" lon="3.84369">
        <ele>1131</ele>
        <time>2022-06-29T11:52:55Z</time>
      </trkpt>
      <trkpt lat="45.4393" lon="3.84369">
        <ele>1131</ele>
        <time>2022-06-29T11:57:04Z</time>
      </trkpt>
      <trkpt lat="45.43935" lon="3.84368">
        <ele>1130</ele>
        <time>2022-06-29T11:57:09Z</time>
      </trkpt>
      <trkpt lat="45.43939" lon="3.84368">
        <ele>1130</ele>
        <time>2022-06-29T11:57:14Z</time>
      </trkpt>
      <trkpt lat="45.43941" lon="3.8437">
        <ele>1130</ele>
        <time>2022-06-29T11:57:19Z</time>
      </trkpt>
      <trkpt lat="45.43941" lon="3.84372">
        <ele>1130</ele>
        <time>2022-06-29T11:57:24Z</time>
      </trkpt>
      <trkpt lat="45.43933" lon="3.8437">
        <ele>1130</ele>
        <time>2022-06-29T12:00:07Z</time>
      </trkpt>
      <trkpt lat="45.43933" lon="3.8437">
        <ele>1130</ele>
        <time>2022-06-29T12:00:12Z</time>
      </trkpt>
      <trkpt lat="45.43933" lon="3.8437">
        <ele>1130</ele>
        <time>2022-06-29T12:00:17Z</time>
      </trkpt>
      <trkpt lat="45.43933" lon="3.84369">
        <ele>1130</ele>
        <time>2022-06-29T12:00:21Z</time>
      </trkpt>
      <trkpt lat="45.43933" lon="3.84368">
        <ele>1130</ele>
        <time>2022-06-29T12:00:26Z</time>
      </trkpt>
      <trkpt lat="45.43939" lon="3.84361">
        <ele>1130</ele>
        <time>2022-06-29T12:07:07Z</time>
      </trkpt>
      <trkpt lat="45.43939" lon="3.84361">
        <ele>1130</ele>
        <time>2022-06-29T12:07:12Z</time>
      </trkpt>
      <trkpt lat="45.4394" lon="3.84361">
        <ele>1130</ele>
        <time>2022-06-29T12:07:16Z</time>
      </trkpt>
      <trkpt lat="45.4394" lon="3.84361">
        <ele>1130</ele>
        <time>2022-06-29T12:07:20Z</time>
      </trkpt>
      <trkpt lat="45.43941" lon="3.84363">
        <ele>1130</ele>
        <time>2022-06-29T12:07:25Z</time>
      </trkpt>
      <trkpt lat="45.43939" lon="3.84364">
        <ele>1130</ele>
        <time>2022-06-29T12:10:19Z</time>
      </trkpt>
      <trkpt lat="45.43938" lon="3.84364">
        <ele>1130</ele>
        <time>2022-06-29T12:10:24Z</time>
      </trkpt>
      <trkpt lat="45.43935" lon="3.84363">
        <ele>1130</ele>
        <time>2022-06-29T12:10:28Z</time>
      </trkpt>
      <trkpt lat="45.43934" lon="3.84362">
        <ele>1130</ele>
        <time>2022-06-29T12:10:32Z</time>
      </trkpt>
      <trkpt lat="45.43933" lon="3.8436">
        <ele>1130</ele>
        <time>2022-06-29T12:10:37Z</time>
      </trkpt>
      <trkpt lat="45.43931" lon="3.84355">
        <ele>1130</ele>
        <time>2022-06-29T12:10:41Z</time>
      </trkpt>
      <trkpt lat="45.43931" lon="3.84353">
        <ele>1131</ele>
        <time>2022-06-29T12:10:46Z</time>
      </trkpt>
      <trkpt lat="45.43928" lon="3.84353">
        <ele>1131</ele>
        <time>2022-06-29T12:10:50Z</time>
      </trkpt>
      <trkpt lat="45.43924" lon="3.84352">
        <ele>1131</ele>
        <time>2022-06-29T12:10:55Z</time>
      </trkpt>
      <trkpt lat="45.43921" lon="3.84354">
        <ele>1131</ele>
        <time>2022-06-29T12:11:00Z</time>
      </trkpt>
      <trkpt lat="45.43922" lon="3.84358">
        <ele>1131</ele>
        <time>2022-06-29T12:11:24Z</time>
      </trkpt>
      <trkpt lat="45.43923" lon="3.84357">
        <ele>1131</ele>
        <time>2022-06-29T12:11:28Z</time>
      </trkpt>
      <trkpt lat="45.43923" lon="3.84358">
        <ele>1131</ele>
        <time>2022-06-29T12:11:33Z</time>
      </trkpt>
      <trkpt lat="45.43928" lon="3.84359">
        <ele>1131</ele>
        <time>2022-06-29T12:11:38Z</time>
      </trkpt>
      <trkpt lat="45.43929" lon="3.84363">
        <ele>1131</ele>
        <time>2022-06-29T12:11:43Z</time>
      </trkpt>
      <trkpt lat="45.43926" lon="3.84356">
        <ele>1131</ele>
        <time>2022-06-29T12:13:15Z</time>
      </trkpt>
      <trkpt lat="45.43929" lon="3.84347">
        <ele>1131</ele>
        <time>2022-06-29T12:13:19Z</time>
      </trkpt>
      <trkpt lat="45.43931" lon="3.84342">
        <ele>1131</ele>
        <time>2022-06-29T12:13:24Z</time>
      </trkpt>
      <trkpt lat="45.43933" lon="3.84342">
        <ele>1130</ele>
        <time>2022-06-29T12:13:29Z</time>
      </trkpt>
      <trkpt lat="45.43933" lon="3.84341">
        <ele>1130</ele>
        <time>2022-06-29T12:13:34Z</time>
      </trkpt>
      <trkpt lat="45.43932" lon="3.84342">
        <ele>1130</ele>
        <time>2022-06-29T12:13:38Z</time>
      </trkpt>
      <trkpt lat="45.4393" lon="3.84346">
        <ele>1131</ele>
        <time>2022-06-29T12:13:43Z</time>
      </trkpt>
      <trkpt lat="45.43927" lon="3.8435">
        <ele>1131</ele>
        <time>2022-06-29T12:13:48Z</time>
      </trkpt>
      <trkpt lat="45.43923" lon="3.84354">
        <ele>1131</ele>
        <time>2022-06-29T12:13:53Z</time>
      </trkpt>
      <trkpt lat="45.43916" lon="3.84359">
        <ele>1131</ele>
        <time>2022-06-29T12:13:58Z</time>
      </trkpt>
      <trkpt lat="45.43912" lon="3.84363">
        <ele>1131</ele>
        <time>2022-06-29T12:14:02Z</time>
      </trkpt>
      <trkpt lat="45.43909" lon="3.84366">
        <ele>1131</ele>
        <time>2022-06-29T12:14:07Z</time>
      </trkpt>
      <trkpt lat="45.43905" lon="3.84367">
        <ele>1131</ele>
        <time>2022-06-29T12:14:12Z</time>
      </trkpt>
      <trkpt lat="45.43903" lon="3.84371">
        <ele>1131</ele>
        <time>2022-06-29T12:14:16Z</time>
      </trkpt>
      <trkpt lat="45.439" lon="3.84378">
        <ele>1130</ele>
        <time>2022-06-29T12:14:21Z</time>
      </trkpt>
      <trkpt lat="45.43899" lon="3.84383">
        <ele>1130</ele>
        <time>2022-06-29T12:14:26Z</time>
      </trkpt>
      <trkpt lat="45.43897" lon="3.84386">
        <ele>1130</ele>
        <time>2022-06-29T12:14:31Z</time>
      </trkpt>
      <trkpt lat="45.43898" lon="3.84392">
        <ele>1130</ele>
        <time>2022-06-29T12:14:36Z</time>
      </trkpt>
      <trkpt lat="45.43899" lon="3.84398">
        <ele>1130</ele>
        <time>2022-06-29T12:14:40Z</time>
      </trkpt>
      <trkpt lat="45.43901" lon="3.84403">
        <ele>1130</ele>
        <time>2022-06-29T12:14:45Z</time>
      </trkpt>
      <trkpt lat="45.43902" lon="3.84406">
        <ele>1129</ele>
        <time>2022-06-29T12:14:50Z</time>
      </trkpt>
      <trkpt lat="45.43908" lon="3.84402">
        <ele>1131</ele>
        <time>2022-06-29T12:17:33Z</time>
      </trkpt>
      <trkpt lat="45.43908" lon="3.84401">
        <ele>1131</ele>
        <time>2022-06-29T12:17:37Z</time>
      </trkpt>
      <trkpt lat="45.43909" lon="3.84399">
        <ele>1131</ele>
        <time>2022-06-29T12:17:42Z</time>
      </trkpt>
      <trkpt lat="45.43908" lon="3.84398">
        <ele>1131</ele>
        <time>2022-06-29T12:17:47Z</time>
      </trkpt>
      <trkpt lat="45.43909" lon="3.84396">
        <ele>1131</ele>
        <time>2022-06-29T12:17:52Z</time>
      </trkpt>
      <trkpt lat="45.43907" lon="3.84404">
        <ele>1130</ele>
        <time>2022-06-29T12:20:34Z</time>
      </trkpt>
      <trkpt lat="45.43906" lon="3.84405">
        <ele>1130</ele>
        <time>2022-06-29T12:20:39Z</time>
      </trkpt>
      <trkpt lat="45.43906" lon="3.84406">
        <ele>1130</ele>
        <time>2022-06-29T12:20:44Z</time>
      </trkpt>
      <trkpt lat="45.43906" lon="3.84406">
        <ele>1130</ele>
        <time>2022-06-29T12:20:48Z</time>
      </trkpt>
      <trkpt lat="45.43906" lon="3.84407">
        <ele>1130</ele>
        <time>2022-06-29T12:20:52Z</time>
      </trkpt>
      <trkpt lat="45.43902" lon="3.844">
        <ele>1130</ele>
        <time>2022-06-29T12:21:52Z</time>
      </trkpt>
      <trkpt lat="45.43901" lon="3.84401">
        <ele>1130</ele>
        <time>2022-06-29T12:21:57Z</time>
      </trkpt>
      <trkpt lat="45.439" lon="3.84403">
        <ele>1130</ele>
        <time>2022-06-29T12:22:01Z</time>
      </trkpt>
      <trkpt lat="45.43898" lon="3.84404">
        <ele>1129</ele>
        <time>2022-06-29T12:22:05Z</time>
      </trkpt>
      <trkpt lat="45.43895" lon="3.84404">
        <ele>1129</ele>
        <time>2022-06-29T12:22:09Z</time>
      </trkpt>
      <trkpt lat="45.43893" lon="3.84406">
        <ele>1129</ele>
        <time>2022-06-29T12:22:14Z</time>
      </trkpt>
      <trkpt lat="45.43891" lon="3.84411">
        <ele>1129</ele>
        <time>2022-06-29T12:22:19Z</time>
      </trkpt>
      <trkpt lat="45.43891" lon="3.84416">
        <ele>1129</ele>
        <time>2022-06-29T12:22:24Z</time>
      </trkpt>
      <trkpt lat="45.43894" lon="3.84419">
        <ele>1129</ele>
        <time>2022-06-29T12:22:29Z</time>
      </trkpt>
      <trkpt lat="45.43896" lon="3.84421">
        <ele>1129</ele>
        <time>2022-06-29T12:22:33Z</time>
      </trkpt>
      <trkpt lat="45.439" lon="3.84427">
        <ele>1129</ele>
        <time>2022-06-29T12:22:38Z</time>
      </trkpt>
      <trkpt lat="45.43905" lon="3.84433">
        <ele>1129</ele>
        <time>2022-06-29T12:22:43Z</time>
      </trkpt>
      <trkpt lat="45.43909" lon="3.84438">
        <ele>1129</ele>
        <time>2022-06-29T12:22:47Z</time>
      </trkpt>
      <trkpt lat="45.43913" lon="3.84444">
        <ele>1129</ele>
        <time>2022-06-29T12:22:52Z</time>
      </trkpt>
      <trkpt lat="45.43916" lon="3.84454">
        <ele>1129</ele>
        <time>2022-06-29T12:22:57Z</time>
      </trkpt>
      <trkpt lat="45.4392" lon="3.8446">
        <ele>1127</ele>
        <time>2022-06-29T12:23:02Z</time>
      </trkpt>
      <trkpt lat="45.4392" lon="3.84463">
        <ele>1127</ele>
        <time>2022-06-29T12:23:07Z</time>
      </trkpt>
      <trkpt lat="45.43921" lon="3.84475">
        <ele>1127</ele>
        <time>2022-06-29T12:23:41Z</time>
      </trkpt>
      <trkpt lat="45.43921" lon="3.84476">
        <ele>1127</ele>
        <time>2022-06-29T12:23:46Z</time>
      </trkpt>
      <trkpt lat="45.43925" lon="3.84481">
        <ele>1127</ele>
        <time>2022-06-29T12:23:50Z</time>
      </trkpt>
      <trkpt lat="45.43929" lon="3.84491">
        <ele>1126</ele>
        <time>2022-06-29T12:23:55Z</time>
      </trkpt>
      <trkpt lat="45.43933" lon="3.845">
        <ele>1129</ele>
        <time>2022-06-29T12:24:00Z</time>
      </trkpt>
      <trkpt lat="45.43936" lon="3.84507">
        <ele>1129</ele>
        <time>2022-06-29T12:24:04Z</time>
      </trkpt>
      <trkpt lat="45.43938" lon="3.84515">
        <ele>1128</ele>
        <time>2022-06-29T12:24:09Z</time>
      </trkpt>
      <trkpt lat="45.43941" lon="3.84525">
        <ele>1128</ele>
        <time>2022-06-29T12:24:14Z</time>
      </trkpt>
      <trkpt lat="45.43944" lon="3.84535">
        <ele>1128</ele>
        <time>2022-06-29T12:24:19Z</time>
      </trkpt>
      <trkpt lat="45.43947" lon="3.84542">
        <ele>1127</ele>
        <time>2022-06-29T12:24:24Z</time>
      </trkpt>
      <trkpt lat="45.43952" lon="3.8455">
        <ele>1127</ele>
        <time>2022-06-29T12:24:29Z</time>
      </trkpt>
      <trkpt lat="45.43956" lon="3.84559">
        <ele>1127</ele>
        <time>2022-06-29T12:24:33Z</time>
      </trkpt>
      <trkpt lat="45.4396" lon="3.84568">
        <ele>1130</ele>
        <time>2022-06-29T12:24:38Z</time>
      </trkpt>
      <trkpt lat="45.43964" lon="3.84577">
        <ele>1129</ele>
        <time>2022-06-29T12:24:43Z</time>
      </trkpt>
      <trkpt lat="45.43966" lon="3.84584">
        <ele>1129</ele>
        <time>2022-06-29T12:24:48Z</time>
      </trkpt>
      <trkpt lat="45.43969" lon="3.84589">
        <ele>1129</ele>
        <time>2022-06-29T12:24:52Z</time>
      </trkpt>
      <trkpt lat="45.43972" lon="3.84594">
        <ele>1129</ele>
        <time>2022-06-29T12:24:56Z</time>
      </trkpt>
      <trkpt lat="45.43974" lon="3.84605">
        <ele>1127</ele>
        <time>2022-06-29T12:25:01Z</time>
      </trkpt>
      <trkpt lat="45.43978" lon="3.84616">
        <ele>1127</ele>
        <time>2022-06-29T12:25:06Z</time>
      </trkpt>
      <trkpt lat="45.4398" lon="3.84625">
        <ele>1123</ele>
        <time>2022-06-29T12:25:11Z</time>
      </trkpt>
      <trkpt lat="45.43982" lon="3.84633">
        <ele>1123</ele>
        <time>2022-06-29T12:25:15Z</time>
      </trkpt>
      <trkpt lat="45.43985" lon="3.84643">
        <ele>1123</ele>
        <time>2022-06-29T12:25:20Z</time>
      </trkpt>
      <trkpt lat="45.43985" lon="3.84649">
        <ele>1123</ele>
        <time>2022-06-29T12:25:25Z</time>
      </trkpt>
      <trkpt lat="45.43985" lon="3.84657">
        <ele>1121</ele>
        <time>2022-06-29T12:25:30Z</time>
      </trkpt>
      <trkpt lat="45.43983" lon="3.84663">
        <ele>1121</ele>
        <time>2022-06-29T12:25:34Z</time>
      </trkpt>
      <trkpt lat="45.43978" lon="3.84667">
        <ele>1121</ele>
        <time>2022-06-29T12:25:39Z</time>
      </trkpt>
      <trkpt lat="45.43974" lon="3.84672">
        <ele>1121</ele>
        <time>2022-06-29T12:25:43Z</time>
      </trkpt>
      <trkpt lat="45.43973" lon="3.84675">
        <ele>1121</ele>
        <time>2022-06-29T12:25:48Z</time>
      </trkpt>
      <trkpt lat="45.43968" lon="3.84681">
        <ele>1118</ele>
        <time>2022-06-29T12:25:52Z</time>
      </trkpt>
      <trkpt lat="45.43967" lon="3.84686">
        <ele>1118</ele>
        <time>2022-06-29T12:25:57Z</time>
      </trkpt>
      <trkpt lat="45.43964" lon="3.84694">
        <ele>1118</ele>
        <time>2022-06-29T12:26:01Z</time>
      </trkpt>
      <trkpt lat="45.4396" lon="3.84703">
        <ele>1118</ele>
        <time>2022-06-29T12:26:06Z</time>
      </trkpt>
      <trkpt lat="45.43954" lon="3.84711">
        <ele>1111</ele>
        <time>2022-06-29T12:26:11Z</time>
      </trkpt>
      <trkpt lat="45.43951" lon="3.84719">
        <ele>1111</ele>
        <time>2022-06-29T12:26:15Z</time>
      </trkpt>
      <trkpt lat="45.43948" lon="3.84728">
        <ele>1111</ele>
        <time>2022-06-29T12:26:20Z</time>
      </trkpt>
      <trkpt lat="45.43947" lon="3.84737">
        <ele>1108</ele>
        <time>2022-06-29T12:26:24Z</time>
      </trkpt>
      <trkpt lat="45.43944" lon="3.84747">
        <ele>1108</ele>
        <time>2022-06-29T12:26:29Z</time>
      </trkpt>
      <trkpt lat="45.4394" lon="3.84761">
        <ele>1108</ele>
        <time>2022-06-29T12:26:34Z</time>
      </trkpt>
      <trkpt lat="45.43934" lon="3.84775">
        <ele>1106</ele>
        <time>2022-06-29T12:26:39Z</time>
      </trkpt>
      <trkpt lat="45.4393" lon="3.84788">
        <ele>1105</ele>
        <time>2022-06-29T12:26:44Z</time>
      </trkpt>
      <trkpt lat="45.43929" lon="3.84797">
        <ele>1105</ele>
        <time>2022-06-29T12:26:49Z</time>
      </trkpt>
      <trkpt lat="45.43927" lon="3.84806">
        <ele>1105</ele>
        <time>2022-06-29T12:26:54Z</time>
      </trkpt>
      <trkpt lat="45.43926" lon="3.84811">
        <ele>1105</ele>
        <time>2022-06-29T12:26:59Z</time>
      </trkpt>
      <trkpt lat="45.43923" lon="3.84819">
        <ele>1105</ele>
        <time>2022-06-29T12:27:04Z</time>
      </trkpt>
      <trkpt lat="45.4392" lon="3.84828">
        <ele>1105</ele>
        <time>2022-06-29T12:27:09Z</time>
      </trkpt>
      <trkpt lat="45.43916" lon="3.84835">
        <ele>1105</ele>
        <time>2022-06-29T12:27:14Z</time>
      </trkpt>
      <trkpt lat="45.43911" lon="3.84844">
        <ele>1105</ele>
        <time>2022-06-29T12:27:19Z</time>
      </trkpt>
      <trkpt lat="45.43906" lon="3.84853">
        <ele>1106</ele>
        <time>2022-06-29T12:27:24Z</time>
      </trkpt>
      <trkpt lat="45.43898" lon="3.84867">
        <ele>1104</ele>
        <time>2022-06-29T12:27:29Z</time>
      </trkpt>
      <trkpt lat="45.43894" lon="3.84879">
        <ele>1102</ele>
        <time>2022-06-29T12:27:34Z</time>
      </trkpt>
      <trkpt lat="45.43891" lon="3.8489">
        <ele>1102</ele>
        <time>2022-06-29T12:27:38Z</time>
      </trkpt>
      <trkpt lat="45.43891" lon="3.849">
        <ele>1102</ele>
        <time>2022-06-29T12:27:43Z</time>
      </trkpt>
      <trkpt lat="45.43891" lon="3.84905">
        <ele>1099</ele>
        <time>2022-06-29T12:27:47Z</time>
      </trkpt>
      <trkpt lat="45.43889" lon="3.84909">
        <ele>1099</ele>
        <time>2022-06-29T12:27:52Z</time>
      </trkpt>
      <trkpt lat="45.43887" lon="3.84916">
        <ele>1099</ele>
        <time>2022-06-29T12:27:57Z</time>
      </trkpt>
      <trkpt lat="45.43885" lon="3.8492">
        <ele>1099</ele>
        <time>2022-06-29T12:28:01Z</time>
      </trkpt>
      <trkpt lat="45.43881" lon="3.84926">
        <ele>1099</ele>
        <time>2022-06-29T12:28:06Z</time>
      </trkpt>
      <trkpt lat="45.43877" lon="3.84937">
        <ele>1096</ele>
        <time>2022-06-29T12:28:11Z</time>
      </trkpt>
      <trkpt lat="45.43875" lon="3.84946">
        <ele>1096</ele>
        <time>2022-06-29T12:28:16Z</time>
      </trkpt>
      <trkpt lat="45.43873" lon="3.84953">
        <ele>1096</ele>
        <time>2022-06-29T12:28:21Z</time>
      </trkpt>
      <trkpt lat="45.4387" lon="3.84962">
        <ele>1094</ele>
        <time>2022-06-29T12:28:26Z</time>
      </trkpt>
      <trkpt lat="45.43867" lon="3.84965">
        <ele>1094</ele>
        <time>2022-06-29T12:28:31Z</time>
      </trkpt>
      <trkpt lat="45.43863" lon="3.84968">
        <ele>1094</ele>
        <time>2022-06-29T12:28:36Z</time>
      </trkpt>
      <trkpt lat="45.43861" lon="3.84973">
        <ele>1094</ele>
        <time>2022-06-29T12:28:41Z</time>
      </trkpt>
      <trkpt lat="45.4386" lon="3.84977">
        <ele>1094</ele>
        <time>2022-06-29T12:28:45Z</time>
      </trkpt>
      <trkpt lat="45.43858" lon="3.84983">
        <ele>1094</ele>
        <time>2022-06-29T12:28:50Z</time>
      </trkpt>
      <trkpt lat="45.43856" lon="3.84993">
        <ele>1090</ele>
        <time>2022-06-29T12:28:55Z</time>
      </trkpt>
      <trkpt lat="45.43853" lon="3.85005">
        <ele>1090</ele>
        <time>2022-06-29T12:28:59Z</time>
      </trkpt>
      <trkpt lat="45.43849" lon="3.85019">
        <ele>1088</ele>
        <time>2022-06-29T12:29:04Z</time>
      </trkpt>
      <trkpt lat="45.43846" lon="3.85027">
        <ele>1087</ele>
        <time>2022-06-29T12:29:09Z</time>
      </trkpt>
      <trkpt lat="45.4384" lon="3.85042">
        <ele>1086</ele>
        <time>2022-06-29T12:29:14Z</time>
      </trkpt>
      <trkpt lat="45.43836" lon="3.85058">
        <ele>1086</ele>
        <time>2022-06-29T12:29:18Z</time>
      </trkpt>
      <trkpt lat="45.43833" lon="3.85069">
        <ele>1086</ele>
        <time>2022-06-29T12:29:23Z</time>
      </trkpt>
      <trkpt lat="45.43829" lon="3.85081">
        <ele>1084</ele>
        <time>2022-06-29T12:29:28Z</time>
      </trkpt>
      <trkpt lat="45.43827" lon="3.85089">
        <ele>1084</ele>
        <time>2022-06-29T12:29:33Z</time>
      </trkpt>
      <trkpt lat="45.43825" lon="3.85094">
        <ele>1084</ele>
        <time>2022-06-29T12:29:37Z</time>
      </trkpt>
      <trkpt lat="45.4382" lon="3.85102">
        <ele>1081</ele>
        <time>2022-06-29T12:29:42Z</time>
      </trkpt>
      <trkpt lat="45.43817" lon="3.85107">
        <ele>1081</ele>
        <time>2022-06-29T12:29:47Z</time>
      </trkpt>
      <trkpt lat="45.43812" lon="3.85113">
        <ele>1081</ele>
        <time>2022-06-29T12:29:52Z</time>
      </trkpt>
      <trkpt lat="45.43806" lon="3.85122">
        <ele>1081</ele>
        <time>2022-06-29T12:29:57Z</time>
      </trkpt>
      <trkpt lat="45.43798" lon="3.85135">
        <ele>1078</ele>
        <time>2022-06-29T12:30:02Z</time>
      </trkpt>
      <trkpt lat="45.43795" lon="3.85142">
        <ele>1078</ele>
        <time>2022-06-29T12:30:06Z</time>
      </trkpt>
      <trkpt lat="45.43792" lon="3.85154">
        <ele>1074</ele>
        <time>2022-06-29T12:30:11Z</time>
      </trkpt>
      <trkpt lat="45.43787" lon="3.85164">
        <ele>1072</ele>
        <time>2022-06-29T12:30:16Z</time>
      </trkpt>
      <trkpt lat="45.43783" lon="3.8517">
        <ele>1072</ele>
        <time>2022-06-29T12:30:21Z</time>
      </trkpt>
      <trkpt lat="45.43782" lon="3.85178">
        <ele>1072</ele>
        <time>2022-06-29T12:30:25Z</time>
      </trkpt>
      <trkpt lat="45.43779" lon="3.85191">
        <ele>1070</ele>
        <time>2022-06-29T12:30:30Z</time>
      </trkpt>
      <trkpt lat="45.43775" lon="3.852">
        <ele>1070</ele>
        <time>2022-06-29T12:30:34Z</time>
      </trkpt>
      <trkpt lat="45.43769" lon="3.85208">
        <ele>1069</ele>
        <time>2022-06-29T12:30:39Z</time>
      </trkpt>
      <trkpt lat="45.43764" lon="3.85217">
        <ele>1068</ele>
        <time>2022-06-29T12:30:44Z</time>
      </trkpt>
      <trkpt lat="45.43758" lon="3.85225">
        <ele>1068</ele>
        <time>2022-06-29T12:30:49Z</time>
      </trkpt>
      <trkpt lat="45.43753" lon="3.85233">
        <ele>1068</ele>
        <time>2022-06-29T12:30:54Z</time>
      </trkpt>
      <trkpt lat="45.4375" lon="3.85241">
        <ele>1068</ele>
        <time>2022-06-29T12:30:58Z</time>
      </trkpt>
      <trkpt lat="45.43747" lon="3.85251">
        <ele>1068</ele>
        <time>2022-06-29T12:31:03Z</time>
      </trkpt>
      <trkpt lat="45.43744" lon="3.85258">
        <ele>1068</ele>
        <time>2022-06-29T12:31:08Z</time>
      </trkpt>
      <trkpt lat="45.43741" lon="3.85266">
        <ele>1065</ele>
        <time>2022-06-29T12:31:12Z</time>
      </trkpt>
      <trkpt lat="45.43737" lon="3.85277">
        <ele>1065</ele>
        <time>2022-06-29T12:31:17Z</time>
      </trkpt>
      <trkpt lat="45.43734" lon="3.85285">
        <ele>1066</ele>
        <time>2022-06-29T12:31:21Z</time>
      </trkpt>
      <trkpt lat="45.43731" lon="3.85289">
        <ele>1066</ele>
        <time>2022-06-29T12:31:25Z</time>
      </trkpt>
      <trkpt lat="45.4373" lon="3.853">
        <ele>1063</ele>
        <time>2022-06-29T12:31:30Z</time>
      </trkpt>
      <trkpt lat="45.43729" lon="3.85308">
        <ele>1063</ele>
        <time>2022-06-29T12:31:35Z</time>
      </trkpt>
      <trkpt lat="45.43727" lon="3.8532">
        <ele>1059</ele>
        <time>2022-06-29T12:31:40Z</time>
      </trkpt>
      <trkpt lat="45.43728" lon="3.85329">
        <ele>1059</ele>
        <time>2022-06-29T12:31:45Z</time>
      </trkpt>
      <trkpt lat="45.43728" lon="3.85335">
        <ele>1059</ele>
        <time>2022-06-29T12:31:49Z</time>
      </trkpt>
      <trkpt lat="45.43729" lon="3.85345">
        <ele>1059</ele>
        <time>2022-06-29T12:31:54Z</time>
      </trkpt>
      <trkpt lat="45.4373" lon="3.85351">
        <ele>1056</ele>
        <time>2022-06-29T12:31:58Z</time>
      </trkpt>
      <trkpt lat="45.4373" lon="3.85361">
        <ele>1056</ele>
        <time>2022-06-29T12:32:03Z</time>
      </trkpt>
      <trkpt lat="45.43731" lon="3.85375">
        <ele>1056</ele>
        <time>2022-06-29T12:32:08Z</time>
      </trkpt>
      <trkpt lat="45.43731" lon="3.85386">
        <ele>1054</ele>
        <time>2022-06-29T12:32:13Z</time>
      </trkpt>
      <trkpt lat="45.43731" lon="3.85394">
        <ele>1054</ele>
        <time>2022-06-29T12:32:18Z</time>
      </trkpt>
      <trkpt lat="45.43731" lon="3.854">
        <ele>1054</ele>
        <time>2022-06-29T12:32:22Z</time>
      </trkpt>
      <trkpt lat="45.4373" lon="3.85407">
        <ele>1051</ele>
        <time>2022-06-29T12:32:27Z</time>
      </trkpt>
      <trkpt lat="45.43729" lon="3.85416">
        <ele>1051</ele>
        <time>2022-06-29T12:32:32Z</time>
      </trkpt>
      <trkpt lat="45.43726" lon="3.85428">
        <ele>1051</ele>
        <time>2022-06-29T12:32:37Z</time>
      </trkpt>
      <trkpt lat="45.43725" lon="3.85434">
        <ele>1049</ele>
        <time>2022-06-29T12:32:41Z</time>
      </trkpt>
      <trkpt lat="45.43723" lon="3.85441">
        <ele>1049</ele>
        <time>2022-06-29T12:32:46Z</time>
      </trkpt>
      <trkpt lat="45.43721" lon="3.85449">
        <ele>1049</ele>
        <time>2022-06-29T12:32:50Z</time>
      </trkpt>
      <trkpt lat="45.43717" lon="3.85458">
        <ele>1049</ele>
        <time>2022-06-29T12:32:55Z</time>
      </trkpt>
      <trkpt lat="45.43715" lon="3.85463">
        <ele>1047</ele>
        <time>2022-06-29T12:33:00Z</time>
      </trkpt>
      <trkpt lat="45.43713" lon="3.85471">
        <ele>1047</ele>
        <time>2022-06-29T12:33:05Z</time>
      </trkpt>
      <trkpt lat="45.4371" lon="3.85481">
        <ele>1047</ele>
        <time>2022-06-29T12:33:10Z</time>
      </trkpt>
      <trkpt lat="45.43709" lon="3.85492">
        <ele>1044</ele>
        <time>2022-06-29T12:33:14Z</time>
      </trkpt>
      <trkpt lat="45.4371" lon="3.85502">
        <ele>1044</ele>
        <time>2022-06-29T12:33:19Z</time>
      </trkpt>
      <trkpt lat="45.4371" lon="3.85511">
        <ele>1044</ele>
        <time>2022-06-29T12:33:23Z</time>
      </trkpt>
      <trkpt lat="45.43709" lon="3.8552">
        <ele>1040</ele>
        <time>2022-06-29T12:33:28Z</time>
      </trkpt>
      <trkpt lat="45.43707" lon="3.85526">
        <ele>1039</ele>
        <time>2022-06-29T12:33:32Z</time>
      </trkpt>
      <trkpt lat="45.43706" lon="3.85531">
        <ele>1039</ele>
        <time>2022-06-29T12:33:37Z</time>
      </trkpt>
      <trkpt lat="45.43704" lon="3.85536">
        <ele>1039</ele>
        <time>2022-06-29T12:33:41Z</time>
      </trkpt>
      <trkpt lat="45.437" lon="3.85546">
        <ele>1035</ele>
        <time>2022-06-29T12:33:46Z</time>
      </trkpt>
      <trkpt lat="45.43697" lon="3.85553">
        <ele>1035</ele>
        <time>2022-06-29T12:33:51Z</time>
      </trkpt>
      <trkpt lat="45.43697" lon="3.85556">
        <ele>1035</ele>
        <time>2022-06-29T12:33:55Z</time>
      </trkpt>
      <trkpt lat="45.43695" lon="3.8556">
        <ele>1035</ele>
        <time>2022-06-29T12:33:59Z</time>
      </trkpt>
      <trkpt lat="45.43694" lon="3.8557">
        <ele>1028</ele>
        <time>2022-06-29T12:34:04Z</time>
      </trkpt>
      <trkpt lat="45.43692" lon="3.85575">
        <ele>1028</ele>
        <time>2022-06-29T12:34:09Z</time>
      </trkpt>
      <trkpt lat="45.43691" lon="3.85578">
        <ele>1028</ele>
        <time>2022-06-29T12:34:13Z</time>
      </trkpt>
      <trkpt lat="45.43688" lon="3.85591">
        <ele>1028</ele>
        <time>2022-06-29T12:34:18Z</time>
      </trkpt>
      <trkpt lat="45.43686" lon="3.856">
        <ele>1022</ele>
        <time>2022-06-29T12:34:23Z</time>
      </trkpt>
      <trkpt lat="45.43684" lon="3.85605">
        <ele>1022</ele>
        <time>2022-06-29T12:34:27Z</time>
      </trkpt>
      <trkpt lat="45.43685" lon="3.85614">
        <ele>1022</ele>
        <time>2022-06-29T12:34:32Z</time>
      </trkpt>
      <trkpt lat="45.43688" lon="3.85623">
        <ele>1022</ele>
        <time>2022-06-29T12:34:36Z</time>
      </trkpt>
      <trkpt lat="45.4369" lon="3.85629">
        <ele>1016</ele>
        <time>2022-06-29T12:34:40Z</time>
      </trkpt>
      <trkpt lat="45.43695" lon="3.8564">
        <ele>1016</ele>
        <time>2022-06-29T12:34:45Z</time>
      </trkpt>
      <trkpt lat="45.43699" lon="3.85649">
        <ele>1016</ele>
        <time>2022-06-29T12:34:50Z</time>
      </trkpt>
      <trkpt lat="45.43705" lon="3.85651">
        <ele>1016</ele>
        <time>2022-06-29T12:34:55Z</time>
      </trkpt>
      <trkpt lat="45.43707" lon="3.85656">
        <ele>1011</ele>
        <time>2022-06-29T12:35:00Z</time>
      </trkpt>
      <trkpt lat="45.43712" lon="3.85664">
        <ele>1012</ele>
        <time>2022-06-29T12:35:05Z</time>
      </trkpt>
      <trkpt lat="45.43715" lon="3.85668">
        <ele>1012</ele>
        <time>2022-06-29T12:35:10Z</time>
      </trkpt>
      <trkpt lat="45.4372" lon="3.85674">
        <ele>1012</ele>
        <time>2022-06-29T12:35:14Z</time>
      </trkpt>
      <trkpt lat="45.43728" lon="3.85679">
        <ele>1012</ele>
        <time>2022-06-29T12:35:19Z</time>
      </trkpt>
      <trkpt lat="45.43734" lon="3.85684">
        <ele>1007</ele>
        <time>2022-06-29T12:35:24Z</time>
      </trkpt>
      <trkpt lat="45.43738" lon="3.8569">
        <ele>1007</ele>
        <time>2022-06-29T12:35:28Z</time>
      </trkpt>
      <trkpt lat="45.43746" lon="3.85697">
        <ele>1007</ele>
        <time>2022-06-29T12:35:33Z</time>
      </trkpt>
      <trkpt lat="45.4375" lon="3.85702">
        <ele>1007</ele>
        <time>2022-06-29T12:35:37Z</time>
      </trkpt>
      <trkpt lat="45.43755" lon="3.85708">
        <ele>1007</ele>
        <time>2022-06-29T12:35:42Z</time>
      </trkpt>
      <trkpt lat="45.43761" lon="3.85711">
        <ele>1002</ele>
        <time>2022-06-29T12:35:46Z</time>
      </trkpt>
      <trkpt lat="45.43768" lon="3.85718">
        <ele>1000</ele>
        <time>2022-06-29T12:35:51Z</time>
      </trkpt>
      <trkpt lat="45.43775" lon="3.85724">
        <ele>1000</ele>
        <time>2022-06-29T12:35:56Z</time>
      </trkpt>
      <trkpt lat="45.43781" lon="3.85726">
        <ele>1000</ele>
        <time>2022-06-29T12:36:00Z</time>
      </trkpt>
      <trkpt lat="45.43789" lon="3.85729">
        <ele>1000</ele>
        <time>2022-06-29T12:36:05Z</time>
      </trkpt>
      <trkpt lat="45.43795" lon="3.85732">
        <ele>997</ele>
        <time>2022-06-29T12:36:09Z</time>
      </trkpt>
      <trkpt lat="45.43801" lon="3.85736">
        <ele>994</ele>
        <time>2022-06-29T12:36:14Z</time>
      </trkpt>
      <trkpt lat="45.43807" lon="3.85742">
        <ele>994</ele>
        <time>2022-06-29T12:36:19Z</time>
      </trkpt>
      <trkpt lat="45.43812" lon="3.85747">
        <ele>994</ele>
        <time>2022-06-29T12:36:23Z</time>
      </trkpt>
      <trkpt lat="45.43814" lon="3.85753">
        <ele>994</ele>
        <time>2022-06-29T12:36:28Z</time>
      </trkpt>
      <trkpt lat="45.43815" lon="3.85757">
        <ele>994</ele>
        <time>2022-06-29T12:36:32Z</time>
      </trkpt>
      <trkpt lat="45.4382" lon="3.85765">
        <ele>988</ele>
        <time>2022-06-29T12:36:36Z</time>
      </trkpt>
      <trkpt lat="45.4382" lon="3.85779">
        <ele>988</ele>
        <time>2022-06-29T12:36:41Z</time>
      </trkpt>
      <trkpt lat="45.4382" lon="3.85787">
        <ele>988</ele>
        <time>2022-06-29T12:36:45Z</time>
      </trkpt>
      <trkpt lat="45.43823" lon="3.85796">
        <ele>988</ele>
        <time>2022-06-29T12:36:50Z</time>
      </trkpt>
      <trkpt lat="45.43825" lon="3.85802">
        <ele>988</ele>
        <time>2022-06-29T12:36:54Z</time>
      </trkpt>
      <trkpt lat="45.43828" lon="3.8581">
        <ele>988</ele>
        <time>2022-06-29T12:36:59Z</time>
      </trkpt>
      <trkpt lat="45.43831" lon="3.85816">
        <ele>988</ele>
        <time>2022-06-29T12:37:03Z</time>
      </trkpt>
      <trkpt lat="45.43838" lon="3.85824">
        <ele>988</ele>
        <time>2022-06-29T12:37:08Z</time>
      </trkpt>
      <trkpt lat="45.43843" lon="3.85832">
        <ele>988</ele>
        <time>2022-06-29T12:37:12Z</time>
      </trkpt>
      <trkpt lat="45.43849" lon="3.85842">
        <ele>987</ele>
        <time>2022-06-29T12:37:17Z</time>
      </trkpt>
      <trkpt lat="45.43852" lon="3.85851">
        <ele>986</ele>
        <time>2022-06-29T12:37:21Z</time>
      </trkpt>
      <trkpt lat="45.43855" lon="3.85858">
        <ele>986</ele>
        <time>2022-06-29T12:37:26Z</time>
      </trkpt>
      <trkpt lat="45.43861" lon="3.85863">
        <ele>986</ele>
        <time>2022-06-29T12:37:30Z</time>
      </trkpt>
      <trkpt lat="45.43869" lon="3.85868">
        <ele>986</ele>
        <time>2022-06-29T12:37:35Z</time>
      </trkpt>
      <trkpt lat="45.43876" lon="3.85872">
        <ele>986</ele>
        <time>2022-06-29T12:37:40Z</time>
      </trkpt>
      <trkpt lat="45.43883" lon="3.85877">
        <ele>984</ele>
        <time>2022-06-29T12:37:45Z</time>
      </trkpt>
      <trkpt lat="45.4389" lon="3.85881">
        <ele>984</ele>
        <time>2022-06-29T12:37:50Z</time>
      </trkpt>
      <trkpt lat="45.43898" lon="3.85887">
        <ele>984</ele>
        <time>2022-06-29T12:37:55Z</time>
      </trkpt>
      <trkpt lat="45.43903" lon="3.85892">
        <ele>984</ele>
        <time>2022-06-29T12:37:59Z</time>
      </trkpt>
      <trkpt lat="45.43908" lon="3.85897">
        <ele>984</ele>
        <time>2022-06-29T12:38:03Z</time>
      </trkpt>
      <trkpt lat="45.43914" lon="3.85902">
        <ele>984</ele>
        <time>2022-06-29T12:38:08Z</time>
      </trkpt>
      <trkpt lat="45.4392" lon="3.85906">
        <ele>980</ele>
        <time>2022-06-29T12:38:12Z</time>
      </trkpt>
      <trkpt lat="45.43926" lon="3.85912">
        <ele>980</ele>
        <time>2022-06-29T12:38:17Z</time>
      </trkpt>
      <trkpt lat="45.43932" lon="3.85921">
        <ele>982</ele>
        <time>2022-06-29T12:38:22Z</time>
      </trkpt>
      <trkpt lat="45.43937" lon="3.85929">
        <ele>982</ele>
        <time>2022-06-29T12:38:26Z</time>
      </trkpt>
      <trkpt lat="45.43942" lon="3.85937">
        <ele>977</ele>
        <time>2022-06-29T12:38:30Z</time>
      </trkpt>
      <trkpt lat="45.43948" lon="3.85943">
        <ele>977</ele>
        <time>2022-06-29T12:38:35Z</time>
      </trkpt>
      <trkpt lat="45.43954" lon="3.85948">
        <ele>977</ele>
        <time>2022-06-29T12:38:40Z</time>
      </trkpt>
      <trkpt lat="45.43957" lon="3.85951">
        <ele>977</ele>
        <time>2022-06-29T12:38:44Z</time>
      </trkpt>
      <trkpt lat="45.43963" lon="3.85953">
        <ele>975</ele>
        <time>2022-06-29T12:38:49Z</time>
      </trkpt>
      <trkpt lat="45.43968" lon="3.85954">
        <ele>975</ele>
        <time>2022-06-29T12:38:53Z</time>
      </trkpt>
      <trkpt lat="45.43976" lon="3.85959">
        <ele>971</ele>
        <time>2022-06-29T12:38:58Z</time>
      </trkpt>
      <trkpt lat="45.4398" lon="3.85959">
        <ele>971</ele>
        <time>2022-06-29T12:39:03Z</time>
      </trkpt>
      <trkpt lat="45.43983" lon="3.85957">
        <ele>975</ele>
        <time>2022-06-29T12:39:08Z</time>
      </trkpt>
      <trkpt lat="45.43988" lon="3.85955">
        <ele>974</ele>
        <time>2022-06-29T12:39:13Z</time>
      </trkpt>
      <trkpt lat="45.43996" lon="3.85953">
        <ele>974</ele>
        <time>2022-06-29T12:39:18Z</time>
      </trkpt>
      <trkpt lat="45.44003" lon="3.85952">
        <ele>974</ele>
        <time>2022-06-29T12:39:23Z</time>
      </trkpt>
      <trkpt lat="45.4401" lon="3.85952">
        <ele>974</ele>
        <time>2022-06-29T12:39:28Z</time>
      </trkpt>
      <trkpt lat="45.44019" lon="3.85957">
        <ele>970</ele>
        <time>2022-06-29T12:39:32Z</time>
      </trkpt>
      <trkpt lat="45.44029" lon="3.85961">
        <ele>967</ele>
        <time>2022-06-29T12:39:37Z</time>
      </trkpt>
      <trkpt lat="45.44036" lon="3.85967">
        <ele>967</ele>
        <time>2022-06-29T12:39:42Z</time>
      </trkpt>
      <trkpt lat="45.44041" lon="3.85971">
        <ele>967</ele>
        <time>2022-06-29T12:39:47Z</time>
      </trkpt>
      <trkpt lat="45.44048" lon="3.85976">
        <ele>963</ele>
        <time>2022-06-29T12:39:52Z</time>
      </trkpt>
      <trkpt lat="45.44052" lon="3.8598">
        <ele>963</ele>
        <time>2022-06-29T12:39:56Z</time>
      </trkpt>
      <trkpt lat="45.44054" lon="3.85983">
        <ele>963</ele>
        <time>2022-06-29T12:40:01Z</time>
      </trkpt>
      <trkpt lat="45.4405" lon="3.85988">
        <ele>960</ele>
        <time>2022-06-29T12:40:05Z</time>
      </trkpt>
      <trkpt lat="45.44045" lon="3.85991">
        <ele>960</ele>
        <time>2022-06-29T12:40:09Z</time>
      </trkpt>
      <trkpt lat="45.44038" lon="3.85993">
        <ele>964</ele>
        <time>2022-06-29T12:40:13Z</time>
      </trkpt>
      <trkpt lat="45.44031" lon="3.85997">
        <ele>964</ele>
        <time>2022-06-29T12:40:18Z</time>
      </trkpt>
      <trkpt lat="45.44026" lon="3.86001">
        <ele>964</ele>
        <time>2022-06-29T12:40:23Z</time>
      </trkpt>
      <trkpt lat="45.44022" lon="3.86005">
        <ele>964</ele>
        <time>2022-06-29T12:40:27Z</time>
      </trkpt>
      <trkpt lat="45.4402" lon="3.86008">
        <ele>964</ele>
        <time>2022-06-29T12:40:31Z</time>
      </trkpt>
      <trkpt lat="45.44016" lon="3.86011">
        <ele>964</ele>
        <time>2022-06-29T12:40:36Z</time>
      </trkpt>
      <trkpt lat="45.44012" lon="3.86015">
        <ele>966</ele>
        <time>2022-06-29T12:40:41Z</time>
      </trkpt>
      <trkpt lat="45.44009" lon="3.86017">
        <ele>966</ele>
        <time>2022-06-29T12:40:45Z</time>
      </trkpt>
      <trkpt lat="45.44002" lon="3.86022">
        <ele>966</ele>
        <time>2022-06-29T12:40:50Z</time>
      </trkpt>
      <trkpt lat="45.43997" lon="3.86025">
        <ele>966</ele>
        <time>2022-06-29T12:40:55Z</time>
      </trkpt>
      <trkpt lat="45.43991" lon="3.86026">
        <ele>966</ele>
        <time>2022-06-29T12:41:00Z</time>
      </trkpt>
      <trkpt lat="45.43986" lon="3.8603">
        <ele>969</ele>
        <time>2022-06-29T12:41:04Z</time>
      </trkpt>
      <trkpt lat="45.43982" lon="3.86031">
        <ele>969</ele>
        <time>2022-06-29T12:41:09Z</time>
      </trkpt>
      <trkpt lat="45.43982" lon="3.86032">
        <ele>969</ele>
        <time>2022-06-29T12:41:13Z</time>
      </trkpt>
      <trkpt lat="45.43983" lon="3.86026">
        <ele>969</ele>
        <time>2022-06-29T12:41:18Z</time>
      </trkpt>
      <trkpt lat="45.43984" lon="3.86024">
        <ele>969</ele>
        <time>2022-06-29T12:41:23Z</time>
      </trkpt>
      <trkpt lat="45.43985" lon="3.86024">
        <ele>969</ele>
        <time>2022-06-29T12:41:27Z</time>
      </trkpt>
      <trkpt lat="45.43991" lon="3.86021">
        <ele>966</ele>
        <time>2022-06-29T12:41:31Z</time>
      </trkpt>
      <trkpt lat="45.43998" lon="3.86015">
        <ele>966</ele>
        <time>2022-06-29T12:41:36Z</time>
      </trkpt>
      <trkpt lat="45.44006" lon="3.86009">
        <ele>968</ele>
        <time>2022-06-29T12:41:41Z</time>
      </trkpt>
      <trkpt lat="45.44013" lon="3.86004">
        <ele>968</ele>
        <time>2022-06-29T12:41:46Z</time>
      </trkpt>
      <trkpt lat="45.4402" lon="3.85997">
        <ele>964</ele>
        <time>2022-06-29T12:41:51Z</time>
      </trkpt>
      <trkpt lat="45.44025" lon="3.85991">
        <ele>964</ele>
        <time>2022-06-29T12:41:55Z</time>
      </trkpt>
      <trkpt lat="45.44033" lon="3.85984">
        <ele>967</ele>
        <time>2022-06-29T12:42:00Z</time>
      </trkpt>
      <trkpt lat="45.44042" lon="3.85983">
        <ele>963</ele>
        <time>2022-06-29T12:42:05Z</time>
      </trkpt>
      <trkpt lat="45.44054" lon="3.85982">
        <ele>963</ele>
        <time>2022-06-29T12:42:10Z</time>
      </trkpt>
      <trkpt lat="45.44059" lon="3.85989">
        <ele>960</ele>
        <time>2022-06-29T12:42:15Z</time>
      </trkpt>
      <trkpt lat="45.44062" lon="3.85999">
        <ele>960</ele>
        <time>2022-06-29T12:42:20Z</time>
      </trkpt>
      <trkpt lat="45.44065" lon="3.86005">
        <ele>960</ele>
        <time>2022-06-29T12:42:24Z</time>
      </trkpt>
      <trkpt lat="45.44068" lon="3.86015">
        <ele>959</ele>
        <time>2022-06-29T12:42:29Z</time>
      </trkpt>
      <trkpt lat="45.44073" lon="3.86025">
        <ele>957</ele>
        <time>2022-06-29T12:42:34Z</time>
      </trkpt>
      <trkpt lat="45.44075" lon="3.86034">
        <ele>957</ele>
        <time>2022-06-29T12:42:39Z</time>
      </trkpt>
      <trkpt lat="45.44075" lon="3.86041">
        <ele>957</ele>
        <time>2022-06-29T12:42:43Z</time>
      </trkpt>
      <trkpt lat="45.44074" lon="3.86049">
        <ele>957</ele>
        <time>2022-06-29T12:42:48Z</time>
      </trkpt>
      <trkpt lat="45.44072" lon="3.86055">
        <ele>957</ele>
        <time>2022-06-29T12:42:53Z</time>
      </trkpt>
      <trkpt lat="45.44071" lon="3.86059">
        <ele>957</ele>
        <time>2022-06-29T12:42:57Z</time>
      </trkpt>
      <trkpt lat="45.4407" lon="3.8606">
        <ele>957</ele>
        <time>2022-06-29T12:43:02Z</time>
      </trkpt>
      <trkpt lat="45.44068" lon="3.86066">
        <ele>959</ele>
        <time>2022-06-29T12:43:07Z</time>
      </trkpt>
      <trkpt lat="45.44063" lon="3.86076">
        <ele>961</ele>
        <time>2022-06-29T12:43:11Z</time>
      </trkpt>
      <trkpt lat="45.44058" lon="3.86091">
        <ele>961</ele>
        <time>2022-06-29T12:43:16Z</time>
      </trkpt>
      <trkpt lat="45.44055" lon="3.86101">
        <ele>960</ele>
        <time>2022-06-29T12:43:21Z</time>
      </trkpt>
      <trkpt lat="45.44051" lon="3.86113">
        <ele>960</ele>
        <time>2022-06-29T12:43:25Z</time>
      </trkpt>
      <trkpt lat="45.44048" lon="3.86122">
        <ele>960</ele>
        <time>2022-06-29T12:43:30Z</time>
      </trkpt>
      <trkpt lat="45.44041" lon="3.86131">
        <ele>959</ele>
        <time>2022-06-29T12:43:35Z</time>
      </trkpt>
      <trkpt lat="45.44038" lon="3.86139">
        <ele>959</ele>
        <time>2022-06-29T12:43:39Z</time>
      </trkpt>
      <trkpt lat="45.44036" lon="3.86153">
        <ele>959</ele>
        <time>2022-06-29T12:43:44Z</time>
      </trkpt>
      <trkpt lat="45.44033" lon="3.86162">
        <ele>957</ele>
        <time>2022-06-29T12:43:49Z</time>
      </trkpt>
      <trkpt lat="45.44031" lon="3.86169">
        <ele>957</ele>
        <time>2022-06-29T12:43:53Z</time>
      </trkpt>
      <trkpt lat="45.44029" lon="3.86184">
        <ele>954</ele>
        <time>2022-06-29T12:43:58Z</time>
      </trkpt>
      <trkpt lat="45.44027" lon="3.86197">
        <ele>954</ele>
        <time>2022-06-29T12:44:03Z</time>
      </trkpt>
      <trkpt lat="45.44025" lon="3.86205">
        <ele>954</ele>
        <time>2022-06-29T12:44:08Z</time>
      </trkpt>
      <trkpt lat="45.44022" lon="3.86212">
        <ele>951</ele>
        <time>2022-06-29T12:44:13Z</time>
      </trkpt>
      <trkpt lat="45.4402" lon="3.86228">
        <ele>951</ele>
        <time>2022-06-29T12:44:17Z</time>
      </trkpt>
      <trkpt lat="45.44016" lon="3.86237">
        <ele>950</ele>
        <time>2022-06-29T12:44:21Z</time>
      </trkpt>
      <trkpt lat="45.44009" lon="3.86244">
        <ele>950</ele>
        <time>2022-06-29T12:44:26Z</time>
      </trkpt>
      <trkpt lat="45.44002" lon="3.8625">
        <ele>950</ele>
        <time>2022-06-29T12:44:31Z</time>
      </trkpt>
      <trkpt lat="45.43998" lon="3.86251">
        <ele>950</ele>
        <time>2022-06-29T12:44:35Z</time>
      </trkpt>
      <trkpt lat="45.43992" lon="3.86253">
        <ele>950</ele>
        <time>2022-06-29T12:44:39Z</time>
      </trkpt>
      <trkpt lat="45.43987" lon="3.86254">
        <ele>950</ele>
        <time>2022-06-29T12:44:44Z</time>
      </trkpt>
      <trkpt lat="45.43981" lon="3.86254">
        <ele>948</ele>
        <time>2022-06-29T12:44:48Z</time>
      </trkpt>
      <trkpt lat="45.43974" lon="3.86254">
        <ele>948</ele>
        <time>2022-06-29T12:44:53Z</time>
      </trkpt>
      <trkpt lat="45.43969" lon="3.86258">
        <ele>948</ele>
        <time>2022-06-29T12:44:57Z</time>
      </trkpt>
      <trkpt lat="45.4396" lon="3.86261">
        <ele>948</ele>
        <time>2022-06-29T12:45:02Z</time>
      </trkpt>
      <trkpt lat="45.43951" lon="3.86266">
        <ele>947</ele>
        <time>2022-06-29T12:45:07Z</time>
      </trkpt>
      <trkpt lat="45.43943" lon="3.8627">
        <ele>947</ele>
        <time>2022-06-29T12:45:12Z</time>
      </trkpt>
      <trkpt lat="45.43937" lon="3.86271">
        <ele>947</ele>
        <time>2022-06-29T12:45:17Z</time>
      </trkpt>
      <trkpt lat="45.4393" lon="3.86275">
        <ele>949</ele>
        <time>2022-06-29T12:45:22Z</time>
      </trkpt>
      <trkpt lat="45.43927" lon="3.86277">
        <ele>949</ele>
        <time>2022-06-29T12:45:26Z</time>
      </trkpt>
      <trkpt lat="45.43922" lon="3.86279">
        <ele>949</ele>
        <time>2022-06-29T12:45:31Z</time>
      </trkpt>
      <trkpt lat="45.43914" lon="3.86284">
        <ele>949</ele>
        <time>2022-06-29T12:45:36Z</time>
      </trkpt>
      <trkpt lat="45.43907" lon="3.86287">
        <ele>949</ele>
        <time>2022-06-29T12:45:40Z</time>
      </trkpt>
      <trkpt lat="45.43901" lon="3.8629">
        <ele>947</ele>
        <time>2022-06-29T12:45:45Z</time>
      </trkpt>
      <trkpt lat="45.43898" lon="3.86292">
        <ele>943</ele>
        <time>2022-06-29T12:45:50Z</time>
      </trkpt>
      <trkpt lat="45.4389" lon="3.86293">
        <ele>943</ele>
        <time>2022-06-29T12:45:55Z</time>
      </trkpt>
      <trkpt lat="45.43883" lon="3.86297">
        <ele>943</ele>
        <time>2022-06-29T12:46:00Z</time>
      </trkpt>
      <trkpt lat="45.43876" lon="3.86302">
        <ele>943</ele>
        <time>2022-06-29T12:46:05Z</time>
      </trkpt>
      <trkpt lat="45.43868" lon="3.86307">
        <ele>941</ele>
        <time>2022-06-29T12:46:09Z</time>
      </trkpt>
      <trkpt lat="45.43861" lon="3.86312">
        <ele>941</ele>
        <time>2022-06-29T12:46:14Z</time>
      </trkpt>
      <trkpt lat="45.43857" lon="3.86317">
        <ele>941</ele>
        <time>2022-06-29T12:46:18Z</time>
      </trkpt>
      <trkpt lat="45.43855" lon="3.86323">
        <ele>939</ele>
        <time>2022-06-29T12:46:23Z</time>
      </trkpt>
      <trkpt lat="45.43854" lon="3.8633">
        <ele>939</ele>
        <time>2022-06-29T12:46:28Z</time>
      </trkpt>
      <trkpt lat="45.43854" lon="3.86335">
        <ele>939</ele>
        <time>2022-06-29T12:46:32Z</time>
      </trkpt>
      <trkpt lat="45.43856" lon="3.86343">
        <ele>939</ele>
        <time>2022-06-29T12:46:37Z</time>
      </trkpt>
      <trkpt lat="45.43857" lon="3.86349">
        <ele>935</ele>
        <time>2022-06-29T12:46:41Z</time>
      </trkpt>
      <trkpt lat="45.43862" lon="3.86367">
        <ele>935</ele>
        <time>2022-06-29T12:46:46Z</time>
      </trkpt>
      <trkpt lat="45.43862" lon="3.86381">
        <ele>933</ele>
        <time>2022-06-29T12:46:51Z</time>
      </trkpt>
      <trkpt lat="45.43863" lon="3.86394">
        <ele>933</ele>
        <time>2022-06-29T12:46:56Z</time>
      </trkpt>
      <trkpt lat="45.43864" lon="3.86405">
        <ele>930</ele>
        <time>2022-06-29T12:47:01Z</time>
      </trkpt>
      <trkpt lat="45.43867" lon="3.86411">
        <ele>930</ele>
        <time>2022-06-29T12:47:05Z</time>
      </trkpt>
      <trkpt lat="45.43869" lon="3.86418">
        <ele>930</ele>
        <time>2022-06-29T12:47:09Z</time>
      </trkpt>
      <trkpt lat="45.43875" lon="3.86431">
        <ele>917</ele>
        <time>2022-06-29T12:47:13Z</time>
      </trkpt>
      <trkpt lat="45.43877" lon="3.86436">
        <ele>917</ele>
        <time>2022-06-29T12:47:18Z</time>
      </trkpt>
      <trkpt lat="45.43878" lon="3.86443">
        <ele>917</ele>
        <time>2022-06-29T12:47:22Z</time>
      </trkpt>
      <trkpt lat="45.43879" lon="3.86452">
        <ele>917</ele>
        <time>2022-06-29T12:47:27Z</time>
      </trkpt>
      <trkpt lat="45.4388" lon="3.8646">
        <ele>914</ele>
        <time>2022-06-29T12:47:32Z</time>
      </trkpt>
      <trkpt lat="45.43881" lon="3.86466">
        <ele>914</ele>
        <time>2022-06-29T12:47:36Z</time>
      </trkpt>
      <trkpt lat="45.43884" lon="3.86475">
        <ele>914</ele>
        <time>2022-06-29T12:47:41Z</time>
      </trkpt>
      <trkpt lat="45.43887" lon="3.8648">
        <ele>914</ele>
        <time>2022-06-29T12:47:45Z</time>
      </trkpt>
      <trkpt lat="45.43891" lon="3.86486">
        <ele>914</ele>
        <time>2022-06-29T12:47:49Z</time>
      </trkpt>
      <trkpt lat="45.43895" lon="3.86492">
        <ele>907</ele>
        <time>2022-06-29T12:47:54Z</time>
      </trkpt>
      <trkpt lat="45.43898" lon="3.86498">
        <ele>907</ele>
        <time>2022-06-29T12:47:58Z</time>
      </trkpt>
      <trkpt lat="45.439" lon="3.86506">
        <ele>907</ele>
        <time>2022-06-29T12:48:03Z</time>
      </trkpt>
      <trkpt lat="45.43899" lon="3.86516">
        <ele>902</ele>
        <time>2022-06-29T12:48:08Z</time>
      </trkpt>
      <trkpt lat="45.43899" lon="3.86525">
        <ele>902</ele>
        <time>2022-06-29T12:48:13Z</time>
      </trkpt>
      <trkpt lat="45.43896" lon="3.86537">
        <ele>902</ele>
        <time>2022-06-29T12:48:18Z</time>
      </trkpt>
      <trkpt lat="45.43895" lon="3.86544">
        <ele>898</ele>
        <time>2022-06-29T12:48:23Z</time>
      </trkpt>
      <trkpt lat="45.43897" lon="3.86552">
        <ele>898</ele>
        <time>2022-06-29T12:48:28Z</time>
      </trkpt>
      <trkpt lat="45.43896" lon="3.86566">
        <ele>898</ele>
        <time>2022-06-29T12:48:33Z</time>
      </trkpt>
      <trkpt lat="45.43893" lon="3.86576">
        <ele>893</ele>
        <time>2022-06-29T12:48:38Z</time>
      </trkpt>
      <trkpt lat="45.43888" lon="3.86581">
        <ele>893</ele>
        <time>2022-06-29T12:48:42Z</time>
      </trkpt>
      <trkpt lat="45.43889" lon="3.86588">
        <ele>893</ele>
        <time>2022-06-29T12:48:47Z</time>
      </trkpt>
      <trkpt lat="45.43889" lon="3.86587">
        <ele>893</ele>
        <time>2022-06-29T12:49:45Z</time>
      </trkpt>
      <trkpt lat="45.43884" lon="3.86591">
        <ele>893</ele>
        <time>2022-06-29T12:49:49Z</time>
      </trkpt>
      <trkpt lat="45.43878" lon="3.86597">
        <ele>893</ele>
        <time>2022-06-29T12:49:53Z</time>
      </trkpt>
      <trkpt lat="45.43872" lon="3.866">
        <ele>889</ele>
        <time>2022-06-29T12:49:57Z</time>
      </trkpt>
      <trkpt lat="45.43868" lon="3.86601">
        <ele>889</ele>
        <time>2022-06-29T12:50:01Z</time>
      </trkpt>
      <trkpt lat="45.43863" lon="3.866">
        <ele>889</ele>
        <time>2022-06-29T12:50:05Z</time>
      </trkpt>
      <trkpt lat="45.43856" lon="3.86603">
        <ele>889</ele>
        <time>2022-06-29T12:50:09Z</time>
      </trkpt>
      <trkpt lat="45.43848" lon="3.86604">
        <ele>889</ele>
        <time>2022-06-29T12:50:14Z</time>
      </trkpt>
      <trkpt lat="45.43842" lon="3.86602">
        <ele>889</ele>
        <time>2022-06-29T12:50:18Z</time>
      </trkpt>
      <trkpt lat="45.43835" lon="3.86602">
        <ele>889</ele>
        <time>2022-06-29T12:50:23Z</time>
      </trkpt>
      <trkpt lat="45.43829" lon="3.866">
        <ele>889</ele>
        <time>2022-06-29T12:50:27Z</time>
      </trkpt>
      <trkpt lat="45.43823" lon="3.86598">
        <ele>889</ele>
        <time>2022-06-29T12:50:32Z</time>
      </trkpt>
      <trkpt lat="45.43817" lon="3.86599">
        <ele>893</ele>
        <time>2022-06-29T12:50:36Z</time>
      </trkpt>
      <trkpt lat="45.4381" lon="3.86602">
        <ele>893</ele>
        <time>2022-06-29T12:50:41Z</time>
      </trkpt>
      <trkpt lat="45.43804" lon="3.86601">
        <ele>893</ele>
        <time>2022-06-29T12:50:45Z</time>
      </trkpt>
      <trkpt lat="45.43799" lon="3.86609">
        <ele>893</ele>
        <time>2022-06-29T12:50:50Z</time>
      </trkpt>
      <trkpt lat="45.43798" lon="3.86618">
        <ele>893</ele>
        <time>2022-06-29T12:50:54Z</time>
      </trkpt>
      <trkpt lat="45.43797" lon="3.86627">
        <ele>889</ele>
        <time>2022-06-29T12:50:58Z</time>
      </trkpt>
      <trkpt lat="45.43798" lon="3.86634">
        <ele>889</ele>
        <time>2022-06-29T12:51:02Z</time>
      </trkpt>
      <trkpt lat="45.43801" lon="3.86643">
        <ele>889</ele>
        <time>2022-06-29T12:51:07Z</time>
      </trkpt>
      <trkpt lat="45.43804" lon="3.86651">
        <ele>889</ele>
        <time>2022-06-29T12:51:12Z</time>
      </trkpt>
      <trkpt lat="45.43807" lon="3.8666">
        <ele>886</ele>
        <time>2022-06-29T12:51:17Z</time>
      </trkpt>
      <trkpt lat="45.4381" lon="3.86669">
        <ele>886</ele>
        <time>2022-06-29T12:51:22Z</time>
      </trkpt>
      <trkpt lat="45.43813" lon="3.86682">
        <ele>885</ele>
        <time>2022-06-29T12:51:27Z</time>
      </trkpt>
      <trkpt lat="45.43816" lon="3.8669">
        <ele>885</ele>
        <time>2022-06-29T12:51:31Z</time>
      </trkpt>
      <trkpt lat="45.43817" lon="3.86698">
        <ele>885</ele>
        <time>2022-06-29T12:51:36Z</time>
      </trkpt>
      <trkpt lat="45.43818" lon="3.86706">
        <ele>885</ele>
        <time>2022-06-29T12:51:40Z</time>
      </trkpt>
      <trkpt lat="45.43819" lon="3.86717">
        <ele>883</ele>
        <time>2022-06-29T12:51:45Z</time>
      </trkpt>
      <trkpt lat="45.4382" lon="3.86726">
        <ele>881</ele>
        <time>2022-06-29T12:51:49Z</time>
      </trkpt>
      <trkpt lat="45.43821" lon="3.86736">
        <ele>880</ele>
        <time>2022-06-29T12:51:54Z</time>
      </trkpt>
      <trkpt lat="45.43822" lon="3.86743">
        <ele>880</ele>
        <time>2022-06-29T12:51:58Z</time>
      </trkpt>
      <trkpt lat="45.43823" lon="3.86753">
        <ele>880</ele>
        <time>2022-06-29T12:52:03Z</time>
      </trkpt>
      <trkpt lat="45.43824" lon="3.86762">
        <ele>880</ele>
        <time>2022-06-29T12:52:07Z</time>
      </trkpt>
      <trkpt lat="45.43824" lon="3.86771">
        <ele>879</ele>
        <time>2022-06-29T12:52:12Z</time>
      </trkpt>
      <trkpt lat="45.43825" lon="3.8678">
        <ele>879</ele>
        <time>2022-06-29T12:52:17Z</time>
      </trkpt>
      <trkpt lat="45.43826" lon="3.86791">
        <ele>879</ele>
        <time>2022-06-29T12:52:22Z</time>
      </trkpt>
      <trkpt lat="45.43828" lon="3.86807">
        <ele>878</ele>
        <time>2022-06-29T12:52:27Z</time>
      </trkpt>
      <trkpt lat="45.43831" lon="3.8682">
        <ele>876</ele>
        <time>2022-06-29T12:52:32Z</time>
      </trkpt>
      <trkpt lat="45.43829" lon="3.8683">
        <ele>876</ele>
        <time>2022-06-29T12:52:36Z</time>
      </trkpt>
      <trkpt lat="45.43826" lon="3.86841">
        <ele>876</ele>
        <time>2022-06-29T12:52:41Z</time>
      </trkpt>
      <trkpt lat="45.43823" lon="3.86852">
        <ele>875</ele>
        <time>2022-06-29T12:52:46Z</time>
      </trkpt>
      <trkpt lat="45.4382" lon="3.8686">
        <ele>875</ele>
        <time>2022-06-29T12:52:50Z</time>
      </trkpt>
      <trkpt lat="45.43817" lon="3.8687">
        <ele>877</ele>
        <time>2022-06-29T12:52:55Z</time>
      </trkpt>
      <trkpt lat="45.43813" lon="3.86882">
        <ele>875</ele>
        <time>2022-06-29T12:53:00Z</time>
      </trkpt>
      <trkpt lat="45.43809" lon="3.86892">
        <ele>875</ele>
        <time>2022-06-29T12:53:05Z</time>
      </trkpt>
      <trkpt lat="45.43806" lon="3.86904">
        <ele>873</ele>
        <time>2022-06-29T12:53:10Z</time>
      </trkpt>
      <trkpt lat="45.43805" lon="3.86917">
        <ele>873</ele>
        <time>2022-06-29T12:53:15Z</time>
      </trkpt>
      <trkpt lat="45.43803" lon="3.86929">
        <ele>873</ele>
        <time>2022-06-29T12:53:20Z</time>
      </trkpt>
      <trkpt lat="45.43802" lon="3.86934">
        <ele>872</ele>
        <time>2022-06-29T12:53:24Z</time>
      </trkpt>
      <trkpt lat="45.438" lon="3.86945">
        <ele>872</ele>
        <time>2022-06-29T12:53:29Z</time>
      </trkpt>
      <trkpt lat="45.43798" lon="3.86959">
        <ele>872</ele>
        <time>2022-06-29T12:53:34Z</time>
      </trkpt>
      <trkpt lat="45.43796" lon="3.86971">
        <ele>872</ele>
        <time>2022-06-29T12:53:39Z</time>
      </trkpt>
      <trkpt lat="45.43794" lon="3.86982">
        <ele>872</ele>
        <time>2022-06-29T12:53:44Z</time>
      </trkpt>
      <trkpt lat="45.43793" lon="3.86992">
        <ele>871</ele>
        <time>2022-06-29T12:53:49Z</time>
      </trkpt>
      <trkpt lat="45.43794" lon="3.87">
        <ele>871</ele>
        <time>2022-06-29T12:53:53Z</time>
      </trkpt>
      <trkpt lat="45.43797" lon="3.87012">
        <ele>871</ele>
        <time>2022-06-29T12:53:58Z</time>
      </trkpt>
      <trkpt lat="45.43801" lon="3.87027">
        <ele>871</ele>
        <time>2022-06-29T12:54:03Z</time>
      </trkpt>
      <trkpt lat="45.43802" lon="3.87038">
        <ele>871</ele>
        <time>2022-06-29T12:54:08Z</time>
      </trkpt>
      <trkpt lat="45.438" lon="3.87046">
        <ele>871</ele>
        <time>2022-06-29T12:54:13Z</time>
      </trkpt>
      <trkpt lat="45.43797" lon="3.87054">
        <ele>871</ele>
        <time>2022-06-29T12:54:17Z</time>
      </trkpt>
      <trkpt lat="45.43794" lon="3.87063">
        <ele>871</ele>
        <time>2022-06-29T12:54:22Z</time>
      </trkpt>
      <trkpt lat="45.4379" lon="3.87076">
        <ele>870</ele>
        <time>2022-06-29T12:54:27Z</time>
      </trkpt>
      <trkpt lat="45.43785" lon="3.87086">
        <ele>870</ele>
        <time>2022-06-29T12:54:32Z</time>
      </trkpt>
      <trkpt lat="45.43779" lon="3.87095">
        <ele>870</ele>
        <time>2022-06-29T12:54:36Z</time>
      </trkpt>
      <trkpt lat="45.43766" lon="3.87109">
        <ele>872</ele>
        <time>2022-06-29T12:54:40Z</time>
      </trkpt>
      <trkpt lat="45.43753" lon="3.87126">
        <ele>871</ele>
        <time>2022-06-29T12:54:44Z</time>
      </trkpt>
      <trkpt lat="45.43731" lon="3.87149">
        <ele>869</ele>
        <time>2022-06-29T12:54:49Z</time>
      </trkpt>
      <trkpt lat="45.43717" lon="3.87173">
        <ele>870</ele>
        <time>2022-06-29T12:54:53Z</time>
      </trkpt>
      <trkpt lat="45.43704" lon="3.87197">
        <ele>869</ele>
        <time>2022-06-29T12:54:58Z</time>
      </trkpt>
      <trkpt lat="45.4369" lon="3.87226">
        <ele>870</ele>
        <time>2022-06-29T12:55:03Z</time>
      </trkpt>
      <trkpt lat="45.43683" lon="3.87249">
        <ele>871</ele>
        <time>2022-06-29T12:55:07Z</time>
      </trkpt>
      <trkpt lat="45.43676" lon="3.87277">
        <ele>868</ele>
        <time>2022-06-29T12:55:12Z</time>
      </trkpt>
      <trkpt lat="45.43673" lon="3.87309">
        <ele>869</ele>
        <time>2022-06-29T12:55:17Z</time>
      </trkpt>
      <trkpt lat="45.43668" lon="3.87332">
        <ele>870</ele>
        <time>2022-06-29T12:55:21Z</time>
      </trkpt>
      <trkpt lat="45.43663" lon="3.87362">
        <ele>871</ele>
        <time>2022-06-29T12:55:26Z</time>
      </trkpt>
      <trkpt lat="45.43664" lon="3.87388">
        <ele>870</ele>
        <time>2022-06-29T12:55:31Z</time>
      </trkpt>
      <trkpt lat="45.43669" lon="3.87416">
        <ele>870</ele>
        <time>2022-06-29T12:55:36Z</time>
      </trkpt>
      <trkpt lat="45.43661" lon="3.87442">
        <ele>871</ele>
        <time>2022-06-29T12:55:41Z</time>
      </trkpt>
      <trkpt lat="45.4365" lon="3.87464">
        <ele>870</ele>
        <time>2022-06-29T12:55:46Z</time>
      </trkpt>
      <trkpt lat="45.43645" lon="3.87475">
        <ele>870</ele>
        <time>2022-06-29T12:55:51Z</time>
      </trkpt>
      <trkpt lat="45.43643" lon="3.87481">
        <ele>870</ele>
        <time>2022-06-29T12:55:55Z</time>
      </trkpt>
      <trkpt lat="45.43642" lon="3.87489">
        <ele>872</ele>
        <time>2022-06-29T12:55:59Z</time>
      </trkpt>
      <trkpt lat="45.43644" lon="3.87496">
        <ele>872</ele>
        <time>2022-06-29T12:56:03Z</time>
      </trkpt>
      <trkpt lat="45.4365" lon="3.87503">
        <ele>872</ele>
        <time>2022-06-29T12:56:08Z</time>
      </trkpt>
      <trkpt lat="45.43655" lon="3.87508">
        <ele>873</ele>
        <time>2022-06-29T12:56:12Z</time>
      </trkpt>
      <trkpt lat="45.43661" lon="3.87516">
        <ele>874</ele>
        <time>2022-06-29T12:56:17Z</time>
      </trkpt>
      <trkpt lat="45.43665" lon="3.87524">
        <ele>874</ele>
        <time>2022-06-29T12:56:21Z</time>
      </trkpt>
      <trkpt lat="45.43669" lon="3.87532">
        <ele>874</ele>
        <time>2022-06-29T12:56:26Z</time>
      </trkpt>
      <trkpt lat="45.43672" lon="3.87543">
        <ele>876</ele>
        <time>2022-06-29T12:56:31Z</time>
      </trkpt>
      <trkpt lat="45.43675" lon="3.87553">
        <ele>876</ele>
        <time>2022-06-29T12:56:36Z</time>
      </trkpt>
      <trkpt lat="45.43677" lon="3.87561">
        <ele>876</ele>
        <time>2022-06-29T12:56:40Z</time>
      </trkpt>
      <trkpt lat="45.4368" lon="3.87571">
        <ele>879</ele>
        <time>2022-06-29T12:56:45Z</time>
      </trkpt>
      <trkpt lat="45.43683" lon="3.8758">
        <ele>879</ele>
        <time>2022-06-29T12:56:50Z</time>
      </trkpt>
      <trkpt lat="45.43686" lon="3.87592">
        <ele>879</ele>
        <time>2022-06-29T12:56:55Z</time>
      </trkpt>
      <trkpt lat="45.43689" lon="3.87603">
        <ele>882</ele>
        <time>2022-06-29T12:57:00Z</time>
      </trkpt>
      <trkpt lat="45.43693" lon="3.87611">
        <ele>882</ele>
        <time>2022-06-29T12:57:04Z</time>
      </trkpt>
      <trkpt lat="45.43696" lon="3.87621">
        <ele>882</ele>
        <time>2022-06-29T12:57:09Z</time>
      </trkpt>
      <trkpt lat="45.43699" lon="3.87629">
        <ele>885</ele>
        <time>2022-06-29T12:57:13Z</time>
      </trkpt>
      <trkpt lat="45.43702" lon="3.8764">
        <ele>885</ele>
        <time>2022-06-29T12:57:18Z</time>
      </trkpt>
      <trkpt lat="45.43705" lon="3.87651">
        <ele>885</ele>
        <time>2022-06-29T12:57:23Z</time>
      </trkpt>
      <trkpt lat="45.43703" lon="3.8766">
        <ele>887</ele>
        <time>2022-06-29T12:57:27Z</time>
      </trkpt>
      <trkpt lat="45.43701" lon="3.87669">
        <ele>887</ele>
        <time>2022-06-29T12:57:31Z</time>
      </trkpt>
      <trkpt lat="45.43699" lon="3.87677">
        <ele>887</ele>
        <time>2022-06-29T12:57:36Z</time>
      </trkpt>
      <trkpt lat="45.43697" lon="3.87685">
        <ele>888</ele>
        <time>2022-06-29T12:57:40Z</time>
      </trkpt>
      <trkpt lat="45.43695" lon="3.87703">
        <ele>888</ele>
        <time>2022-06-29T12:57:45Z</time>
      </trkpt>
      <trkpt lat="45.43693" lon="3.8771">
        <ele>887</ele>
        <time>2022-06-29T12:57:49Z</time>
      </trkpt>
      <trkpt lat="45.43691" lon="3.87718">
        <ele>887</ele>
        <time>2022-06-29T12:57:54Z</time>
      </trkpt>
      <trkpt lat="45.43691" lon="3.87727">
        <ele>887</ele>
        <time>2022-06-29T12:57:58Z</time>
      </trkpt>
      <trkpt lat="45.4369" lon="3.87737">
        <ele>887</ele>
        <time>2022-06-29T12:58:03Z</time>
      </trkpt>
      <trkpt lat="45.43689" lon="3.87739">
        <ele>887</ele>
        <time>2022-06-29T12:58:07Z</time>
      </trkpt>
      <trkpt lat="45.43689" lon="3.87741">
        <ele>887</ele>
        <time>2022-06-29T13:00:06Z</time>
      </trkpt>
      <trkpt lat="45.43688" lon="3.87744">
        <ele>887</ele>
        <time>2022-06-29T13:00:10Z</time>
      </trkpt>
      <trkpt lat="45.43688" lon="3.87748">
        <ele>887</ele>
        <time>2022-06-29T13:00:14Z</time>
      </trkpt>
      <trkpt lat="45.43688" lon="3.87759">
        <ele>887</ele>
        <time>2022-06-29T13:00:19Z</time>
      </trkpt>
      <trkpt lat="45.43689" lon="3.8777">
        <ele>888</ele>
        <time>2022-06-29T13:00:24Z</time>
      </trkpt>
      <trkpt lat="45.43687" lon="3.87781">
        <ele>888</ele>
        <time>2022-06-29T13:00:29Z</time>
      </trkpt>
      <trkpt lat="45.43685" lon="3.87792">
        <ele>889</ele>
        <time>2022-06-29T13:00:34Z</time>
      </trkpt>
      <trkpt lat="45.43685" lon="3.87802">
        <ele>889</ele>
        <time>2022-06-29T13:00:38Z</time>
      </trkpt>
      <trkpt lat="45.43684" lon="3.87812">
        <ele>889</ele>
        <time>2022-06-29T13:00:42Z</time>
      </trkpt>
      <trkpt lat="45.43684" lon="3.87823">
        <ele>890</ele>
        <time>2022-06-29T13:00:47Z</time>
      </trkpt>
      <trkpt lat="45.43685" lon="3.87833">
        <ele>890</ele>
        <time>2022-06-29T13:00:51Z</time>
      </trkpt>
      <trkpt lat="45.43686" lon="3.87843">
        <ele>890</ele>
        <time>2022-06-29T13:00:55Z</time>
      </trkpt>
      <trkpt lat="45.43686" lon="3.87856">
        <ele>889</ele>
        <time>2022-06-29T13:01:00Z</time>
      </trkpt>
      <trkpt lat="45.43687" lon="3.87868">
        <ele>889</ele>
        <time>2022-06-29T13:01:05Z</time>
      </trkpt>
      <trkpt lat="45.43687" lon="3.87877">
        <ele>888</ele>
        <time>2022-06-29T13:01:09Z</time>
      </trkpt>
      <trkpt lat="45.43689" lon="3.87889">
        <ele>888</ele>
        <time>2022-06-29T13:01:14Z</time>
      </trkpt>
      <trkpt lat="45.43691" lon="3.879">
        <ele>888</ele>
        <time>2022-06-29T13:01:19Z</time>
      </trkpt>
      <trkpt lat="45.43692" lon="3.87909">
        <ele>887</ele>
        <time>2022-06-29T13:01:24Z</time>
      </trkpt>
      <trkpt lat="45.43694" lon="3.8792">
        <ele>887</ele>
        <time>2022-06-29T13:01:29Z</time>
      </trkpt>
      <trkpt lat="45.43696" lon="3.87931">
        <ele>888</ele>
        <time>2022-06-29T13:01:34Z</time>
      </trkpt>
      <trkpt lat="45.43699" lon="3.87944">
        <ele>888</ele>
        <time>2022-06-29T13:01:39Z</time>
      </trkpt>
      <trkpt lat="45.43704" lon="3.87954">
        <ele>888</ele>
        <time>2022-06-29T13:01:43Z</time>
      </trkpt>
      <trkpt lat="45.43709" lon="3.87966">
        <ele>888</ele>
        <time>2022-06-29T13:01:48Z</time>
      </trkpt>
      <trkpt lat="45.43708" lon="3.87978">
        <ele>888</ele>
        <time>2022-06-29T13:01:53Z</time>
      </trkpt>
      <trkpt lat="45.43706" lon="3.87988">
        <ele>889</ele>
        <time>2022-06-29T13:01:57Z</time>
      </trkpt>
      <trkpt lat="45.43704" lon="3.87998">
        <ele>889</ele>
        <time>2022-06-29T13:02:02Z</time>
      </trkpt>
      <trkpt lat="45.43698" lon="3.88009">
        <ele>889</ele>
        <time>2022-06-29T13:02:07Z</time>
      </trkpt>
      <trkpt lat="45.43693" lon="3.88017">
        <ele>890</ele>
        <time>2022-06-29T13:02:11Z</time>
      </trkpt>
      <trkpt lat="45.43687" lon="3.88021">
        <ele>890</ele>
        <time>2022-06-29T13:02:15Z</time>
      </trkpt>
      <trkpt lat="45.4368" lon="3.88022">
        <ele>891</ele>
        <time>2022-06-29T13:02:20Z</time>
      </trkpt>
      <trkpt lat="45.43672" lon="3.88027">
        <ele>891</ele>
        <time>2022-06-29T13:02:25Z</time>
      </trkpt>
      <trkpt lat="45.43664" lon="3.8803">
        <ele>891</ele>
        <time>2022-06-29T13:02:30Z</time>
      </trkpt>
      <trkpt lat="45.43659" lon="3.88036">
        <ele>891</ele>
        <time>2022-06-29T13:02:34Z</time>
      </trkpt>
      <trkpt lat="45.43655" lon="3.88043">
        <ele>892</ele>
        <time>2022-06-29T13:02:38Z</time>
      </trkpt>
      <trkpt lat="45.4365" lon="3.8805">
        <ele>892</ele>
        <time>2022-06-29T13:02:43Z</time>
      </trkpt>
      <trkpt lat="45.43643" lon="3.88057">
        <ele>892</ele>
        <time>2022-06-29T13:02:48Z</time>
      </trkpt>
      <trkpt lat="45.43636" lon="3.88062">
        <ele>892</ele>
        <time>2022-06-29T13:02:52Z</time>
      </trkpt>
      <trkpt lat="45.43632" lon="3.88064">
        <ele>892</ele>
        <time>2022-06-29T13:02:56Z</time>
      </trkpt>
      <trkpt lat="45.43626" lon="3.88064">
        <ele>892</ele>
        <time>2022-06-29T13:03:00Z</time>
      </trkpt>
      <trkpt lat="45.43621" lon="3.88065">
        <ele>890</ele>
        <time>2022-06-29T13:03:05Z</time>
      </trkpt>
      <trkpt lat="45.43616" lon="3.88065">
        <ele>890</ele>
        <time>2022-06-29T13:03:10Z</time>
      </trkpt>
      <trkpt lat="45.43609" lon="3.88064">
        <ele>890</ele>
        <time>2022-06-29T13:03:15Z</time>
      </trkpt>
      <trkpt lat="45.43603" lon="3.88065">
        <ele>890</ele>
        <time>2022-06-29T13:03:20Z</time>
      </trkpt>
      <trkpt lat="45.43595" lon="3.88066">
        <ele>888</ele>
        <time>2022-06-29T13:03:25Z</time>
      </trkpt>
      <trkpt lat="45.43588" lon="3.88066">
        <ele>888</ele>
        <time>2022-06-29T13:03:30Z</time>
      </trkpt>
      <trkpt lat="45.43581" lon="3.88067">
        <ele>888</ele>
        <time>2022-06-29T13:03:35Z</time>
      </trkpt>
      <trkpt lat="45.43574" lon="3.88068">
        <ele>888</ele>
        <time>2022-06-29T13:03:39Z</time>
      </trkpt>
      <trkpt lat="45.43565" lon="3.8807">
        <ele>888</ele>
        <time>2022-06-29T13:03:44Z</time>
      </trkpt>
      <trkpt lat="45.43555" lon="3.88072">
        <ele>888</ele>
        <time>2022-06-29T13:03:48Z</time>
      </trkpt>
      <trkpt lat="45.43546" lon="3.88074">
        <ele>888</ele>
        <time>2022-06-29T13:03:53Z</time>
      </trkpt>
      <trkpt lat="45.4354" lon="3.88074">
        <ele>888</ele>
        <time>2022-06-29T13:03:57Z</time>
      </trkpt>
      <trkpt lat="45.43531" lon="3.88074">
        <ele>888</ele>
        <time>2022-06-29T13:04:02Z</time>
      </trkpt>
      <trkpt lat="45.43521" lon="3.88075">
        <ele>888</ele>
        <time>2022-06-29T13:04:07Z</time>
      </trkpt>
      <trkpt lat="45.43516" lon="3.88076">
        <ele>888</ele>
        <time>2022-06-29T13:04:11Z</time>
      </trkpt>
      <trkpt lat="45.43509" lon="3.88078">
        <ele>891</ele>
        <time>2022-06-29T13:04:16Z</time>
      </trkpt>
      <trkpt lat="45.43503" lon="3.8808">
        <ele>891</ele>
        <time>2022-06-29T13:04:20Z</time>
      </trkpt>
      <trkpt lat="45.43496" lon="3.88082">
        <ele>891</ele>
        <time>2022-06-29T13:04:25Z</time>
      </trkpt>
      <trkpt lat="45.43489" lon="3.88086">
        <ele>891</ele>
        <time>2022-06-29T13:04:29Z</time>
      </trkpt>
      <trkpt lat="45.4348" lon="3.88091">
        <ele>898</ele>
        <time>2022-06-29T13:04:34Z</time>
      </trkpt>
      <trkpt lat="45.43473" lon="3.88097">
        <ele>898</ele>
        <time>2022-06-29T13:04:39Z</time>
      </trkpt>
      <trkpt lat="45.43468" lon="3.88101">
        <ele>898</ele>
        <time>2022-06-29T13:04:43Z</time>
      </trkpt>
      <trkpt lat="45.43462" lon="3.88106">
        <ele>898</ele>
        <time>2022-06-29T13:04:47Z</time>
      </trkpt>
      <trkpt lat="45.43456" lon="3.88114">
        <ele>902</ele>
        <time>2022-06-29T13:04:52Z</time>
      </trkpt>
      <trkpt lat="45.43451" lon="3.88119">
        <ele>902</ele>
        <time>2022-06-29T13:04:56Z</time>
      </trkpt>
      <trkpt lat="45.43447" lon="3.88127">
        <ele>899</ele>
        <time>2022-06-29T13:05:01Z</time>
      </trkpt>
      <trkpt lat="45.43442" lon="3.88131">
        <ele>899</ele>
        <time>2022-06-29T13:05:06Z</time>
      </trkpt>
      <trkpt lat="45.43436" lon="3.88136">
        <ele>899</ele>
        <time>2022-06-29T13:05:11Z</time>
      </trkpt>
      <trkpt lat="45.43431" lon="3.88143">
        <ele>899</ele>
        <time>2022-06-29T13:05:15Z</time>
      </trkpt>
      <trkpt lat="45.43424" lon="3.88145">
        <ele>897</ele>
        <time>2022-06-29T13:05:20Z</time>
      </trkpt>
      <trkpt lat="45.43418" lon="3.88143">
        <ele>897</ele>
        <time>2022-06-29T13:05:25Z</time>
      </trkpt>
      <trkpt lat="45.43413" lon="3.88143">
        <ele>897</ele>
        <time>2022-06-29T13:05:30Z</time>
      </trkpt>
      <trkpt lat="45.43412" lon="3.88144">
        <ele>897</ele>
        <time>2022-06-29T13:05:34Z</time>
      </trkpt>
      <trkpt lat="45.43411" lon="3.88144">
        <ele>897</ele>
        <time>2022-06-29T13:06:08Z</time>
      </trkpt>
      <trkpt lat="45.43411" lon="3.88144">
        <ele>897</ele>
        <time>2022-06-29T13:06:12Z</time>
      </trkpt>
      <trkpt lat="45.43411" lon="3.88144">
        <ele>897</ele>
        <time>2022-06-29T13:06:17Z</time>
      </trkpt>
      <trkpt lat="45.43407" lon="3.88146">
        <ele>897</ele>
        <time>2022-06-29T13:06:21Z</time>
      </trkpt>
      <trkpt lat="45.43403" lon="3.88153">
        <ele>897</ele>
        <time>2022-06-29T13:06:25Z</time>
      </trkpt>
      <trkpt lat="45.43407" lon="3.8816">
        <ele>891</ele>
        <time>2022-06-29T13:06:29Z</time>
      </trkpt>
      <trkpt lat="45.43411" lon="3.8817">
        <ele>891</ele>
        <time>2022-06-29T13:06:34Z</time>
      </trkpt>
      <trkpt lat="45.43415" lon="3.88175">
        <ele>891</ele>
        <time>2022-06-29T13:06:39Z</time>
      </trkpt>
      <trkpt lat="45.43419" lon="3.8818">
        <ele>891</ele>
        <time>2022-06-29T13:06:44Z</time>
      </trkpt>
      <trkpt lat="45.43423" lon="3.88187">
        <ele>888</ele>
        <time>2022-06-29T13:06:49Z</time>
      </trkpt>
      <trkpt lat="45.43427" lon="3.88194">
        <ele>888</ele>
        <time>2022-06-29T13:06:54Z</time>
      </trkpt>
      <trkpt lat="45.43427" lon="3.88202">
        <ele>888</ele>
        <time>2022-06-29T13:06:59Z</time>
      </trkpt>
      <trkpt lat="45.43427" lon="3.88208">
        <ele>888</ele>
        <time>2022-06-29T13:07:04Z</time>
      </trkpt>
      <trkpt lat="45.43426" lon="3.88215">
        <ele>885</ele>
        <time>2022-06-29T13:07:08Z</time>
      </trkpt>
      <trkpt lat="45.43425" lon="3.88225">
        <ele>885</ele>
        <time>2022-06-29T13:07:13Z</time>
      </trkpt>
      <trkpt lat="45.43425" lon="3.88235">
        <ele>885</ele>
        <time>2022-06-29T13:07:18Z</time>
      </trkpt>
      <trkpt lat="45.43422" lon="3.88247">
        <ele>880</ele>
        <time>2022-06-29T13:07:23Z</time>
      </trkpt>
      <trkpt lat="45.43422" lon="3.88255">
        <ele>880</ele>
        <time>2022-06-29T13:07:27Z</time>
      </trkpt>
      <trkpt lat="45.4342" lon="3.88265">
        <ele>878</ele>
        <time>2022-06-29T13:07:32Z</time>
      </trkpt>
      <trkpt lat="45.43419" lon="3.88275">
        <ele>878</ele>
        <time>2022-06-29T13:07:37Z</time>
      </trkpt>
      <trkpt lat="45.43417" lon="3.88284">
        <ele>878</ele>
        <time>2022-06-29T13:07:42Z</time>
      </trkpt>
      <trkpt lat="45.43418" lon="3.8829">
        <ele>878</ele>
        <time>2022-06-29T13:07:46Z</time>
      </trkpt>
      <trkpt lat="45.4342" lon="3.883">
        <ele>875</ele>
        <time>2022-06-29T13:07:51Z</time>
      </trkpt>
      <trkpt lat="45.43422" lon="3.88306">
        <ele>875</ele>
        <time>2022-06-29T13:07:55Z</time>
      </trkpt>
      <trkpt lat="45.43427" lon="3.88311">
        <ele>875</ele>
        <time>2022-06-29T13:08:00Z</time>
      </trkpt>
      <trkpt lat="45.43433" lon="3.88317">
        <ele>877</ele>
        <time>2022-06-29T13:08:05Z</time>
      </trkpt>
      <trkpt lat="45.43435" lon="3.88323">
        <ele>875</ele>
        <time>2022-06-29T13:08:09Z</time>
      </trkpt>
      <trkpt lat="45.43429" lon="3.88331">
        <ele>873</ele>
        <time>2022-06-29T13:08:14Z</time>
      </trkpt>
      <trkpt lat="45.43425" lon="3.88334">
        <ele>873</ele>
        <time>2022-06-29T13:08:18Z</time>
      </trkpt>
      <trkpt lat="45.43421" lon="3.88336">
        <ele>873</ele>
        <time>2022-06-29T13:08:22Z</time>
      </trkpt>
      <trkpt lat="45.43415" lon="3.88338">
        <ele>873</ele>
        <time>2022-06-29T13:08:27Z</time>
      </trkpt>
      <trkpt lat="45.43409" lon="3.8834">
        <ele>873</ele>
        <time>2022-06-29T13:08:32Z</time>
      </trkpt>
      <trkpt lat="45.43402" lon="3.88343">
        <ele>872</ele>
        <time>2022-06-29T13:08:37Z</time>
      </trkpt>
      <trkpt lat="45.43396" lon="3.88345">
        <ele>872</ele>
        <time>2022-06-29T13:08:41Z</time>
      </trkpt>
      <trkpt lat="45.4339" lon="3.88349">
        <ele>871</ele>
        <time>2022-06-29T13:08:45Z</time>
      </trkpt>
      <trkpt lat="45.43383" lon="3.88356">
        <ele>871</ele>
        <time>2022-06-29T13:08:50Z</time>
      </trkpt>
      <trkpt lat="45.43376" lon="3.88361">
        <ele>871</ele>
        <time>2022-06-29T13:08:55Z</time>
      </trkpt>
      <trkpt lat="45.43369" lon="3.8836">
        <ele>871</ele>
        <time>2022-06-29T13:08:59Z</time>
      </trkpt>
      <trkpt lat="45.43363" lon="3.88357">
        <ele>871</ele>
        <time>2022-06-29T13:09:04Z</time>
      </trkpt>
      <trkpt lat="45.43359" lon="3.88365">
        <ele>871</ele>
        <time>2022-06-29T13:09:09Z</time>
      </trkpt>
      <trkpt lat="45.43354" lon="3.88369">
        <ele>871</ele>
        <time>2022-06-29T13:09:14Z</time>
      </trkpt>
      <trkpt lat="45.43347" lon="3.88373">
        <ele>868</ele>
        <time>2022-06-29T13:09:19Z</time>
      </trkpt>
      <trkpt lat="45.43345" lon="3.88381">
        <ele>867</ele>
        <time>2022-06-29T13:09:23Z</time>
      </trkpt>
      <trkpt lat="45.43345" lon="3.8839">
        <ele>867</ele>
        <time>2022-06-29T13:09:28Z</time>
      </trkpt>
      <trkpt lat="45.43348" lon="3.88395">
        <ele>868</ele>
        <time>2022-06-29T13:09:32Z</time>
      </trkpt>
      <trkpt lat="45.43351" lon="3.88402">
        <ele>868</ele>
        <time>2022-06-29T13:09:36Z</time>
      </trkpt>
      <trkpt lat="45.43355" lon="3.88411">
        <ele>865</ele>
        <time>2022-06-29T13:09:41Z</time>
      </trkpt>
      <trkpt lat="45.4336" lon="3.88421">
        <ele>865</ele>
        <time>2022-06-29T13:09:46Z</time>
      </trkpt>
      <trkpt lat="45.43365" lon="3.8843">
        <ele>865</ele>
        <time>2022-06-29T13:09:51Z</time>
      </trkpt>
      <trkpt lat="45.43368" lon="3.88436">
        <ele>864</ele>
        <time>2022-06-29T13:09:56Z</time>
      </trkpt>
      <trkpt lat="45.43374" lon="3.88441">
        <ele>864</ele>
        <time>2022-06-29T13:10:01Z</time>
      </trkpt>
      <trkpt lat="45.43379" lon="3.88448">
        <ele>864</ele>
        <time>2022-06-29T13:10:06Z</time>
      </trkpt>
      <trkpt lat="45.43383" lon="3.88453">
        <ele>864</ele>
        <time>2022-06-29T13:10:10Z</time>
      </trkpt>
      <trkpt lat="45.43388" lon="3.88463">
        <ele>864</ele>
        <time>2022-06-29T13:10:15Z</time>
      </trkpt>
      <trkpt lat="45.43394" lon="3.88472">
        <ele>864</ele>
        <time>2022-06-29T13:10:20Z</time>
      </trkpt>
      <trkpt lat="45.43393" lon="3.88485">
        <ele>864</ele>
        <time>2022-06-29T13:10:25Z</time>
      </trkpt>
      <trkpt lat="45.43392" lon="3.88495">
        <ele>864</ele>
        <time>2022-06-29T13:10:30Z</time>
      </trkpt>
      <trkpt lat="45.4339" lon="3.88504">
        <ele>864</ele>
        <time>2022-06-29T13:10:34Z</time>
      </trkpt>
      <trkpt lat="45.43389" lon="3.88516">
        <ele>864</ele>
        <time>2022-06-29T13:10:38Z</time>
      </trkpt>
      <trkpt lat="45.43386" lon="3.88529">
        <ele>864</ele>
        <time>2022-06-29T13:10:43Z</time>
      </trkpt>
      <trkpt lat="45.43383" lon="3.8854">
        <ele>864</ele>
        <time>2022-06-29T13:10:48Z</time>
      </trkpt>
      <trkpt lat="45.4338" lon="3.8855">
        <ele>863</ele>
        <time>2022-06-29T13:10:53Z</time>
      </trkpt>
      <trkpt lat="45.43378" lon="3.8856">
        <ele>863</ele>
        <time>2022-06-29T13:10:57Z</time>
      </trkpt>
      <trkpt lat="45.43377" lon="3.88575">
        <ele>864</ele>
        <time>2022-06-29T13:11:01Z</time>
      </trkpt>
      <trkpt lat="45.43373" lon="3.88585">
        <ele>860</ele>
        <time>2022-06-29T13:11:06Z</time>
      </trkpt>
      <trkpt lat="45.4337" lon="3.88594">
        <ele>860</ele>
        <time>2022-06-29T13:11:11Z</time>
      </trkpt>
      <trkpt lat="45.43368" lon="3.88604">
        <ele>861</ele>
        <time>2022-06-29T13:11:16Z</time>
      </trkpt>
      <trkpt lat="45.43366" lon="3.88613">
        <ele>861</ele>
        <time>2022-06-29T13:11:20Z</time>
      </trkpt>
      <trkpt lat="45.43364" lon="3.88624">
        <ele>861</ele>
        <time>2022-06-29T13:11:25Z</time>
      </trkpt>
      <trkpt lat="45.43361" lon="3.88633">
        <ele>863</ele>
        <time>2022-06-29T13:11:29Z</time>
      </trkpt>
      <trkpt lat="45.43359" lon="3.88644">
        <ele>863</ele>
        <time>2022-06-29T13:11:34Z</time>
      </trkpt>
      <trkpt lat="45.43357" lon="3.88657">
        <ele>863</ele>
        <time>2022-06-29T13:11:39Z</time>
      </trkpt>
      <trkpt lat="45.43356" lon="3.88667">
        <ele>863</ele>
        <time>2022-06-29T13:11:43Z</time>
      </trkpt>
      <trkpt lat="45.43355" lon="3.88679">
        <ele>863</ele>
        <time>2022-06-29T13:11:48Z</time>
      </trkpt>
      <trkpt lat="45.43354" lon="3.88689">
        <ele>862</ele>
        <time>2022-06-29T13:11:53Z</time>
      </trkpt>
      <trkpt lat="45.43352" lon="3.88701">
        <ele>862</ele>
        <time>2022-06-29T13:11:58Z</time>
      </trkpt>
      <trkpt lat="45.43349" lon="3.88714">
        <ele>862</ele>
        <time>2022-06-29T13:12:03Z</time>
      </trkpt>
      <trkpt lat="45.43349" lon="3.88723">
        <ele>862</ele>
        <time>2022-06-29T13:12:07Z</time>
      </trkpt>
      <trkpt lat="45.43349" lon="3.88736">
        <ele>862</ele>
        <time>2022-06-29T13:12:12Z</time>
      </trkpt>
      <trkpt lat="45.43347" lon="3.88747">
        <ele>861</ele>
        <time>2022-06-29T13:12:16Z</time>
      </trkpt>
      <trkpt lat="45.43343" lon="3.88758">
        <ele>861</ele>
        <time>2022-06-29T13:12:21Z</time>
      </trkpt>
      <trkpt lat="45.43339" lon="3.88769">
        <ele>863</ele>
        <time>2022-06-29T13:12:26Z</time>
      </trkpt>
      <trkpt lat="45.43334" lon="3.88778">
        <ele>863</ele>
        <time>2022-06-29T13:12:30Z</time>
      </trkpt>
      <trkpt lat="45.43329" lon="3.88786">
        <ele>863</ele>
        <time>2022-06-29T13:12:34Z</time>
      </trkpt>
      <trkpt lat="45.43322" lon="3.88798">
        <ele>864</ele>
        <time>2022-06-29T13:12:39Z</time>
      </trkpt>
      <trkpt lat="45.43317" lon="3.88808">
        <ele>861</ele>
        <time>2022-06-29T13:12:43Z</time>
      </trkpt>
      <trkpt lat="45.43311" lon="3.88819">
        <ele>861</ele>
        <time>2022-06-29T13:12:48Z</time>
      </trkpt>
      <trkpt lat="45.43307" lon="3.88827">
        <ele>863</ele>
        <time>2022-06-29T13:12:52Z</time>
      </trkpt>
      <trkpt lat="45.43302" lon="3.88837">
        <ele>863</ele>
        <time>2022-06-29T13:12:57Z</time>
      </trkpt>
      <trkpt lat="45.43296" lon="3.88846">
        <ele>863</ele>
        <time>2022-06-29T13:13:02Z</time>
      </trkpt>
      <trkpt lat="45.4329" lon="3.88855">
        <ele>865</ele>
        <time>2022-06-29T13:13:07Z</time>
      </trkpt>
      <trkpt lat="45.43287" lon="3.88868">
        <ele>865</ele>
        <time>2022-06-29T13:13:12Z</time>
      </trkpt>
      <trkpt lat="45.43283" lon="3.88877">
        <ele>866</ele>
        <time>2022-06-29T13:13:16Z</time>
      </trkpt>
      <trkpt lat="45.4328" lon="3.88885">
        <ele>866</ele>
        <time>2022-06-29T13:13:20Z</time>
      </trkpt>
      <trkpt lat="45.43277" lon="3.88898">
        <ele>866</ele>
        <time>2022-06-29T13:13:25Z</time>
      </trkpt>
      <trkpt lat="45.43277" lon="3.88909">
        <ele>867</ele>
        <time>2022-06-29T13:13:30Z</time>
      </trkpt>
      <trkpt lat="45.43277" lon="3.8892">
        <ele>867</ele>
        <time>2022-06-29T13:13:35Z</time>
      </trkpt>
      <trkpt lat="45.43278" lon="3.8893">
        <ele>867</ele>
        <time>2022-06-29T13:13:40Z</time>
      </trkpt>
      <trkpt lat="45.4328" lon="3.88942">
        <ele>867</ele>
        <time>2022-06-29T13:13:45Z</time>
      </trkpt>
      <trkpt lat="45.43281" lon="3.8895">
        <ele>867</ele>
        <time>2022-06-29T13:13:49Z</time>
      </trkpt>
      <trkpt lat="45.43283" lon="3.88959">
        <ele>866</ele>
        <time>2022-06-29T13:13:53Z</time>
      </trkpt>
      <trkpt lat="45.43285" lon="3.88969">
        <ele>866</ele>
        <time>2022-06-29T13:13:57Z</time>
      </trkpt>
      <trkpt lat="45.43286" lon="3.8898">
        <ele>866</ele>
        <time>2022-06-29T13:14:02Z</time>
      </trkpt>
      <trkpt lat="45.43288" lon="3.88991">
        <ele>865</ele>
        <time>2022-06-29T13:14:07Z</time>
      </trkpt>
      <trkpt lat="45.43291" lon="3.89004">
        <ele>865</ele>
        <time>2022-06-29T13:14:12Z</time>
      </trkpt>
      <trkpt lat="45.43293" lon="3.89015">
        <ele>869</ele>
        <time>2022-06-29T13:14:17Z</time>
      </trkpt>
      <trkpt lat="45.43294" lon="3.89024">
        <ele>869</ele>
        <time>2022-06-29T13:14:21Z</time>
      </trkpt>
      <trkpt lat="45.43296" lon="3.89036">
        <ele>869</ele>
        <time>2022-06-29T13:14:26Z</time>
      </trkpt>
      <trkpt lat="45.43296" lon="3.89044">
        <ele>869</ele>
        <time>2022-06-29T13:14:30Z</time>
      </trkpt>
      <trkpt lat="45.43296" lon="3.89055">
        <ele>869</ele>
        <time>2022-06-29T13:14:34Z</time>
      </trkpt>
      <trkpt lat="45.43296" lon="3.89068">
        <ele>869</ele>
        <time>2022-06-29T13:14:39Z</time>
      </trkpt>
      <trkpt lat="45.43296" lon="3.8908">
        <ele>869</ele>
        <time>2022-06-29T13:14:44Z</time>
      </trkpt>
      <trkpt lat="45.43294" lon="3.8909">
        <ele>869</ele>
        <time>2022-06-29T13:14:48Z</time>
      </trkpt>
      <trkpt lat="45.43293" lon="3.89102">
        <ele>869</ele>
        <time>2022-06-29T13:14:53Z</time>
      </trkpt>
      <trkpt lat="45.43291" lon="3.89112">
        <ele>867</ele>
        <time>2022-06-29T13:14:57Z</time>
      </trkpt>
      <trkpt lat="45.43287" lon="3.89122">
        <ele>867</ele>
        <time>2022-06-29T13:15:01Z</time>
      </trkpt>
      <trkpt lat="45.43286" lon="3.89134">
        <ele>867</ele>
        <time>2022-06-29T13:15:06Z</time>
      </trkpt>
      <trkpt lat="45.43284" lon="3.89142">
        <ele>867</ele>
        <time>2022-06-29T13:15:10Z</time>
      </trkpt>
      <trkpt lat="45.43281" lon="3.89152">
        <ele>867</ele>
        <time>2022-06-29T13:15:14Z</time>
      </trkpt>
      <trkpt lat="45.43279" lon="3.89164">
        <ele>865</ele>
        <time>2022-06-29T13:15:19Z</time>
      </trkpt>
      <trkpt lat="45.43277" lon="3.89174">
        <ele>865</ele>
        <time>2022-06-29T13:15:24Z</time>
      </trkpt>
      <trkpt lat="45.43273" lon="3.89184">
        <ele>863</ele>
        <time>2022-06-29T13:15:29Z</time>
      </trkpt>
      <trkpt lat="45.4327" lon="3.89195">
        <ele>863</ele>
        <time>2022-06-29T13:15:34Z</time>
      </trkpt>
      <trkpt lat="45.43269" lon="3.89206">
        <ele>863</ele>
        <time>2022-06-29T13:15:39Z</time>
      </trkpt>
      <trkpt lat="45.43269" lon="3.89215">
        <ele>862</ele>
        <time>2022-06-29T13:15:43Z</time>
      </trkpt>
      <trkpt lat="45.43268" lon="3.89227">
        <ele>862</ele>
        <time>2022-06-29T13:15:48Z</time>
      </trkpt>
      <trkpt lat="45.43266" lon="3.89239">
        <ele>861</ele>
        <time>2022-06-29T13:15:53Z</time>
      </trkpt>
      <trkpt lat="45.43265" lon="3.89251">
        <ele>861</ele>
        <time>2022-06-29T13:15:58Z</time>
      </trkpt>
      <trkpt lat="45.43265" lon="3.89261">
        <ele>861</ele>
        <time>2022-06-29T13:16:03Z</time>
      </trkpt>
      <trkpt lat="45.43263" lon="3.89269">
        <ele>860</ele>
        <time>2022-06-29T13:16:07Z</time>
      </trkpt>
      <trkpt lat="45.43262" lon="3.89278">
        <ele>860</ele>
        <time>2022-06-29T13:16:12Z</time>
      </trkpt>
      <trkpt lat="45.4326" lon="3.89287">
        <ele>860</ele>
        <time>2022-06-29T13:16:16Z</time>
      </trkpt>
      <trkpt lat="45.43259" lon="3.89296">
        <ele>859</ele>
        <time>2022-06-29T13:16:21Z</time>
      </trkpt>
      <trkpt lat="45.43257" lon="3.89305">
        <ele>859</ele>
        <time>2022-06-29T13:16:25Z</time>
      </trkpt>
      <trkpt lat="45.43252" lon="3.89319">
        <ele>859</ele>
        <time>2022-06-29T13:16:30Z</time>
      </trkpt>
      <trkpt lat="45.43248" lon="3.89328">
        <ele>859</ele>
        <time>2022-06-29T13:16:35Z</time>
      </trkpt>
      <trkpt lat="45.43246" lon="3.89337">
        <ele>859</ele>
        <time>2022-06-29T13:16:40Z</time>
      </trkpt>
      <trkpt lat="45.43245" lon="3.89344">
        <ele>859</ele>
        <time>2022-06-29T13:16:44Z</time>
      </trkpt>
      <trkpt lat="45.43243" lon="3.89356">
        <ele>857</ele>
        <time>2022-06-29T13:16:49Z</time>
      </trkpt>
      <trkpt lat="45.43241" lon="3.89367">
        <ele>857</ele>
        <time>2022-06-29T13:16:54Z</time>
      </trkpt>
      <trkpt lat="45.4324" lon="3.8938">
        <ele>856</ele>
        <time>2022-06-29T13:16:59Z</time>
      </trkpt>
      <trkpt lat="45.43238" lon="3.89392">
        <ele>856</ele>
        <time>2022-06-29T13:17:04Z</time>
      </trkpt>
      <trkpt lat="45.43236" lon="3.89402">
        <ele>856</ele>
        <time>2022-06-29T13:17:09Z</time>
      </trkpt>
      <trkpt lat="45.43235" lon="3.89409">
        <ele>856</ele>
        <time>2022-06-29T13:17:13Z</time>
      </trkpt>
      <trkpt lat="45.43233" lon="3.8942">
        <ele>856</ele>
        <time>2022-06-29T13:17:18Z</time>
      </trkpt>
      <trkpt lat="45.43233" lon="3.89432">
        <ele>858</ele>
        <time>2022-06-29T13:17:23Z</time>
      </trkpt>
      <trkpt lat="45.43233" lon="3.89445">
        <ele>858</ele>
        <time>2022-06-29T13:17:28Z</time>
      </trkpt>
      <trkpt lat="45.43235" lon="3.89454">
        <ele>858</ele>
        <time>2022-06-29T13:17:32Z</time>
      </trkpt>
      <trkpt lat="45.43236" lon="3.89464">
        <ele>858</ele>
        <time>2022-06-29T13:17:37Z</time>
      </trkpt>
      <trkpt lat="45.43239" lon="3.89478">
        <ele>858</ele>
        <time>2022-06-29T13:17:42Z</time>
      </trkpt>
      <trkpt lat="45.43237" lon="3.89489">
        <ele>858</ele>
        <time>2022-06-29T13:17:47Z</time>
      </trkpt>
      <trkpt lat="45.43234" lon="3.89497">
        <ele>861</ele>
        <time>2022-06-29T13:17:51Z</time>
      </trkpt>
      <trkpt lat="45.4323" lon="3.89506">
        <ele>861</ele>
        <time>2022-06-29T13:17:56Z</time>
      </trkpt>
      <trkpt lat="45.43226" lon="3.89513">
        <ele>861</ele>
        <time>2022-06-29T13:18:01Z</time>
      </trkpt>
      <trkpt lat="45.43222" lon="3.89519">
        <ele>862</ele>
        <time>2022-06-29T13:18:05Z</time>
      </trkpt>
      <trkpt lat="45.43217" lon="3.8953">
        <ele>862</ele>
        <time>2022-06-29T13:18:10Z</time>
      </trkpt>
      <trkpt lat="45.43215" lon="3.89538">
        <ele>862</ele>
        <time>2022-06-29T13:18:14Z</time>
      </trkpt>
      <trkpt lat="45.4321" lon="3.89544">
        <ele>861</ele>
        <time>2022-06-29T13:18:18Z</time>
      </trkpt>
      <trkpt lat="45.43203" lon="3.89551">
        <ele>866</ele>
        <time>2022-06-29T13:18:23Z</time>
      </trkpt>
      <trkpt lat="45.43198" lon="3.89557">
        <ele>866</ele>
        <time>2022-06-29T13:18:28Z</time>
      </trkpt>
      <trkpt lat="45.43195" lon="3.8956">
        <ele>866</ele>
        <time>2022-06-29T13:18:32Z</time>
      </trkpt>
      <trkpt lat="45.43191" lon="3.89564">
        <ele>866</ele>
        <time>2022-06-29T13:18:37Z</time>
      </trkpt>
      <trkpt lat="45.43187" lon="3.89569">
        <ele>866</ele>
        <time>2022-06-29T13:18:42Z</time>
      </trkpt>
      <trkpt lat="45.43182" lon="3.89576">
        <ele>866</ele>
        <time>2022-06-29T13:18:47Z</time>
      </trkpt>
      <trkpt lat="45.43177" lon="3.89585">
        <ele>870</ele>
        <time>2022-06-29T13:18:52Z</time>
      </trkpt>
      <trkpt lat="45.43173" lon="3.89593">
        <ele>870</ele>
        <time>2022-06-29T13:18:57Z</time>
      </trkpt>
      <trkpt lat="45.43168" lon="3.89601">
        <ele>868</ele>
        <time>2022-06-29T13:19:02Z</time>
      </trkpt>
      <trkpt lat="45.43162" lon="3.89611">
        <ele>868</ele>
        <time>2022-06-29T13:19:07Z</time>
      </trkpt>
      <trkpt lat="45.43158" lon="3.89619">
        <ele>868</ele>
        <time>2022-06-29T13:19:11Z</time>
      </trkpt>
      <trkpt lat="45.43155" lon="3.89624">
        <ele>868</ele>
        <time>2022-06-29T13:19:15Z</time>
      </trkpt>
      <trkpt lat="45.43149" lon="3.89632">
        <ele>870</ele>
        <time>2022-06-29T13:19:20Z</time>
      </trkpt>
      <trkpt lat="45.43144" lon="3.89639">
        <ele>870</ele>
        <time>2022-06-29T13:19:25Z</time>
      </trkpt>
      <trkpt lat="45.43138" lon="3.89646">
        <ele>870</ele>
        <time>2022-06-29T13:19:30Z</time>
      </trkpt>
      <trkpt lat="45.43133" lon="3.89655">
        <ele>870</ele>
        <time>2022-06-29T13:19:34Z</time>
      </trkpt>
      <trkpt lat="45.43127" lon="3.8966">
        <ele>870</ele>
        <time>2022-06-29T13:19:39Z</time>
      </trkpt>
      <trkpt lat="45.4312" lon="3.89669">
        <ele>875</ele>
        <time>2022-06-29T13:19:44Z</time>
      </trkpt>
      <trkpt lat="45.43114" lon="3.89677">
        <ele>875</ele>
        <time>2022-06-29T13:19:49Z</time>
      </trkpt>
      <trkpt lat="45.43108" lon="3.89683">
        <ele>874</ele>
        <time>2022-06-29T13:19:54Z</time>
      </trkpt>
      <trkpt lat="45.43103" lon="3.8969">
        <ele>874</ele>
        <time>2022-06-29T13:19:59Z</time>
      </trkpt>
      <trkpt lat="45.43097" lon="3.89697">
        <ele>874</ele>
        <time>2022-06-29T13:20:04Z</time>
      </trkpt>
      <trkpt lat="45.43093" lon="3.89707">
        <ele>876</ele>
        <time>2022-06-29T13:20:08Z</time>
      </trkpt>
      <trkpt lat="45.4309" lon="3.8972">
        <ele>875</ele>
        <time>2022-06-29T13:20:13Z</time>
      </trkpt>
      <trkpt lat="45.43085" lon="3.8973">
        <ele>875</ele>
        <time>2022-06-29T13:20:18Z</time>
      </trkpt>
      <trkpt lat="45.43082" lon="3.89738">
        <ele>875</ele>
        <time>2022-06-29T13:20:23Z</time>
      </trkpt>
      <trkpt lat="45.43078" lon="3.89746">
        <ele>875</ele>
        <time>2022-06-29T13:20:28Z</time>
      </trkpt>
      <trkpt lat="45.43075" lon="3.89754">
        <ele>875</ele>
        <time>2022-06-29T13:20:32Z</time>
      </trkpt>
      <trkpt lat="45.43071" lon="3.89765">
        <ele>874</ele>
        <time>2022-06-29T13:20:37Z</time>
      </trkpt>
      <trkpt lat="45.43067" lon="3.89776">
        <ele>876</ele>
        <time>2022-06-29T13:20:42Z</time>
      </trkpt>
      <trkpt lat="45.43063" lon="3.89785">
        <ele>876</ele>
        <time>2022-06-29T13:20:47Z</time>
      </trkpt>
      <trkpt lat="45.43059" lon="3.89794">
        <ele>874</ele>
        <time>2022-06-29T13:20:51Z</time>
      </trkpt>
      <trkpt lat="45.43055" lon="3.89805">
        <ele>874</ele>
        <time>2022-06-29T13:20:56Z</time>
      </trkpt>
      <trkpt lat="45.43051" lon="3.89815">
        <ele>874</ele>
        <time>2022-06-29T13:21:01Z</time>
      </trkpt>
      <trkpt lat="45.43046" lon="3.89823">
        <ele>873</ele>
        <time>2022-06-29T13:21:06Z</time>
      </trkpt>
      <trkpt lat="45.43043" lon="3.89834">
        <ele>873</ele>
        <time>2022-06-29T13:21:11Z</time>
      </trkpt>
      <trkpt lat="45.43039" lon="3.89841">
        <ele>876</ele>
        <time>2022-06-29T13:21:15Z</time>
      </trkpt>
      <trkpt lat="45.43035" lon="3.89851">
        <ele>879</ele>
        <time>2022-06-29T13:21:20Z</time>
      </trkpt>
      <trkpt lat="45.43029" lon="3.89862">
        <ele>879</ele>
        <time>2022-06-29T13:21:25Z</time>
      </trkpt>
      <trkpt lat="45.43027" lon="3.89869">
        <ele>879</ele>
        <time>2022-06-29T13:21:29Z</time>
      </trkpt>
      <trkpt lat="45.43025" lon="3.89878">
        <ele>881</ele>
        <time>2022-06-29T13:21:34Z</time>
      </trkpt>
      <trkpt lat="45.43021" lon="3.89885">
        <ele>881</ele>
        <time>2022-06-29T13:21:38Z</time>
      </trkpt>
      <trkpt lat="45.43018" lon="3.89893">
        <ele>881</ele>
        <time>2022-06-29T13:21:42Z</time>
      </trkpt>
      <trkpt lat="45.43013" lon="3.89902">
        <ele>883</ele>
        <time>2022-06-29T13:21:47Z</time>
      </trkpt>
      <trkpt lat="45.4301" lon="3.89909">
        <ele>885</ele>
        <time>2022-06-29T13:21:51Z</time>
      </trkpt>
      <trkpt lat="45.43005" lon="3.89918">
        <ele>885</ele>
        <time>2022-06-29T13:21:56Z</time>
      </trkpt>
      <trkpt lat="45.43" lon="3.89928">
        <ele>885</ele>
        <time>2022-06-29T13:22:01Z</time>
      </trkpt>
      <trkpt lat="45.42996" lon="3.89939">
        <ele>885</ele>
        <time>2022-06-29T13:22:06Z</time>
      </trkpt>
      <trkpt lat="45.42992" lon="3.89946">
        <ele>885</ele>
        <time>2022-06-29T13:22:11Z</time>
      </trkpt>
      <trkpt lat="45.42987" lon="3.89956">
        <ele>885</ele>
        <time>2022-06-29T13:22:16Z</time>
      </trkpt>
      <trkpt lat="45.42981" lon="3.89965">
        <ele>890</ele>
        <time>2022-06-29T13:22:20Z</time>
      </trkpt>
      <trkpt lat="45.42977" lon="3.89974">
        <ele>890</ele>
        <time>2022-06-29T13:22:25Z</time>
      </trkpt>
      <trkpt lat="45.42973" lon="3.89981">
        <ele>890</ele>
        <time>2022-06-29T13:22:29Z</time>
      </trkpt>
      <trkpt lat="45.42966" lon="3.89992">
        <ele>889</ele>
        <time>2022-06-29T13:22:34Z</time>
      </trkpt>
      <trkpt lat="45.42963" lon="3.90003">
        <ele>889</ele>
        <time>2022-06-29T13:22:39Z</time>
      </trkpt>
      <trkpt lat="45.4296" lon="3.90014">
        <ele>888</ele>
        <time>2022-06-29T13:22:44Z</time>
      </trkpt>
      <trkpt lat="45.42956" lon="3.90025">
        <ele>889</ele>
        <time>2022-06-29T13:22:49Z</time>
      </trkpt>
      <trkpt lat="45.42954" lon="3.90034">
        <ele>889</ele>
        <time>2022-06-29T13:22:53Z</time>
      </trkpt>
      <trkpt lat="45.42952" lon="3.90045">
        <ele>887</ele>
        <time>2022-06-29T13:22:57Z</time>
      </trkpt>
      <trkpt lat="45.4295" lon="3.90057">
        <ele>887</ele>
        <time>2022-06-29T13:23:02Z</time>
      </trkpt>
      <trkpt lat="45.42945" lon="3.90068">
        <ele>887</ele>
        <time>2022-06-29T13:23:07Z</time>
      </trkpt>
      <trkpt lat="45.42942" lon="3.90079">
        <ele>887</ele>
        <time>2022-06-29T13:23:12Z</time>
      </trkpt>
      <trkpt lat="45.42939" lon="3.9009">
        <ele>887</ele>
        <time>2022-06-29T13:23:17Z</time>
      </trkpt>
      <trkpt lat="45.42937" lon="3.90099">
        <ele>887</ele>
        <time>2022-06-29T13:23:21Z</time>
      </trkpt>
      <trkpt lat="45.42934" lon="3.9011">
        <ele>887</ele>
        <time>2022-06-29T13:23:26Z</time>
      </trkpt>
      <trkpt lat="45.42933" lon="3.90118">
        <ele>887</ele>
        <time>2022-06-29T13:23:30Z</time>
      </trkpt>
      <trkpt lat="45.42929" lon="3.90128">
        <ele>890</ele>
        <time>2022-06-29T13:23:35Z</time>
      </trkpt>
      <trkpt lat="45.42925" lon="3.90139">
        <ele>890</ele>
        <time>2022-06-29T13:23:39Z</time>
      </trkpt>
      <trkpt lat="45.42921" lon="3.9015">
        <ele>890</ele>
        <time>2022-06-29T13:23:44Z</time>
      </trkpt>
      <trkpt lat="45.42917" lon="3.90159">
        <ele>892</ele>
        <time>2022-06-29T13:23:49Z</time>
      </trkpt>
      <trkpt lat="45.42912" lon="3.90166">
        <ele>892</ele>
        <time>2022-06-29T13:23:53Z</time>
      </trkpt>
      <trkpt lat="45.42906" lon="3.90175">
        <ele>892</ele>
        <time>2022-06-29T13:23:58Z</time>
      </trkpt>
      <trkpt lat="45.42901" lon="3.90181">
        <ele>896</ele>
        <time>2022-06-29T13:24:02Z</time>
      </trkpt>
      <trkpt lat="45.42894" lon="3.90189">
        <ele>896</ele>
        <time>2022-06-29T13:24:07Z</time>
      </trkpt>
      <trkpt lat="45.42887" lon="3.90193">
        <ele>896</ele>
        <time>2022-06-29T13:24:11Z</time>
      </trkpt>
      <trkpt lat="45.4288" lon="3.90195">
        <ele>896</ele>
        <time>2022-06-29T13:24:16Z</time>
      </trkpt>
      <trkpt lat="45.42875" lon="3.90197">
        <ele>896</ele>
        <time>2022-06-29T13:24:20Z</time>
      </trkpt>
      <trkpt lat="45.42868" lon="3.90204">
        <ele>896</ele>
        <time>2022-06-29T13:24:25Z</time>
      </trkpt>
      <trkpt lat="45.42862" lon="3.90209">
        <ele>896</ele>
        <time>2022-06-29T13:24:30Z</time>
      </trkpt>
      <trkpt lat="45.42856" lon="3.90213">
        <ele>896</ele>
        <time>2022-06-29T13:24:35Z</time>
      </trkpt>
      <trkpt lat="45.4285" lon="3.90218">
        <ele>896</ele>
        <time>2022-06-29T13:24:39Z</time>
      </trkpt>
      <trkpt lat="45.42844" lon="3.90223">
        <ele>897</ele>
        <time>2022-06-29T13:24:43Z</time>
      </trkpt>
      <trkpt lat="45.42838" lon="3.9023">
        <ele>897</ele>
        <time>2022-06-29T13:24:48Z</time>
      </trkpt>
      <trkpt lat="45.42833" lon="3.90237">
        <ele>898</ele>
        <time>2022-06-29T13:24:52Z</time>
      </trkpt>
      <trkpt lat="45.42826" lon="3.90243">
        <ele>898</ele>
        <time>2022-06-29T13:24:57Z</time>
      </trkpt>
      <trkpt lat="45.42821" lon="3.90252">
        <ele>898</ele>
        <time>2022-06-29T13:25:02Z</time>
      </trkpt>
      <trkpt lat="45.42816" lon="3.90259">
        <ele>900</ele>
        <time>2022-06-29T13:25:06Z</time>
      </trkpt>
      <trkpt lat="45.42812" lon="3.90266">
        <ele>900</ele>
        <time>2022-06-29T13:25:10Z</time>
      </trkpt>
      <trkpt lat="45.42807" lon="3.90277">
        <ele>900</ele>
        <time>2022-06-29T13:25:15Z</time>
      </trkpt>
      <trkpt lat="45.42803" lon="3.90288">
        <ele>900</ele>
        <time>2022-06-29T13:25:20Z</time>
      </trkpt>
      <trkpt lat="45.42797" lon="3.90296">
        <ele>900</ele>
        <time>2022-06-29T13:25:25Z</time>
      </trkpt>
      <trkpt lat="45.42793" lon="3.90304">
        <ele>900</ele>
        <time>2022-06-29T13:25:29Z</time>
      </trkpt>
      <trkpt lat="45.42786" lon="3.9031">
        <ele>901</ele>
        <time>2022-06-29T13:25:34Z</time>
      </trkpt>
      <trkpt lat="45.42781" lon="3.90317">
        <ele>901</ele>
        <time>2022-06-29T13:25:39Z</time>
      </trkpt>
      <trkpt lat="45.42777" lon="3.90322">
        <ele>901</ele>
        <time>2022-06-29T13:25:43Z</time>
      </trkpt>
      <trkpt lat="45.42771" lon="3.9033">
        <ele>901</ele>
        <time>2022-06-29T13:25:48Z</time>
      </trkpt>
      <trkpt lat="45.42766" lon="3.90337">
        <ele>901</ele>
        <time>2022-06-29T13:25:53Z</time>
      </trkpt>
      <trkpt lat="45.42759" lon="3.90345">
        <ele>900</ele>
        <time>2022-06-29T13:25:58Z</time>
      </trkpt>
      <trkpt lat="45.42756" lon="3.9035">
        <ele>900</ele>
        <time>2022-06-29T13:26:02Z</time>
      </trkpt>
      <trkpt lat="45.42751" lon="3.90355">
        <ele>900</ele>
        <time>2022-06-29T13:26:06Z</time>
      </trkpt>
      <trkpt lat="45.42747" lon="3.90362">
        <ele>900</ele>
        <time>2022-06-29T13:26:11Z</time>
      </trkpt>
      <trkpt lat="45.42744" lon="3.90372">
        <ele>900</ele>
        <time>2022-06-29T13:26:15Z</time>
      </trkpt>
      <trkpt lat="45.42739" lon="3.90383">
        <ele>899</ele>
        <time>2022-06-29T13:26:20Z</time>
      </trkpt>
      <trkpt lat="45.42734" lon="3.90387">
        <ele>900</ele>
        <time>2022-06-29T13:26:24Z</time>
      </trkpt>
      <trkpt lat="45.42729" lon="3.90394">
        <ele>900</ele>
        <time>2022-06-29T13:26:29Z</time>
      </trkpt>
      <trkpt lat="45.42725" lon="3.90402">
        <ele>900</ele>
        <time>2022-06-29T13:26:34Z</time>
      </trkpt>
      <trkpt lat="45.42721" lon="3.90411">
        <ele>901</ele>
        <time>2022-06-29T13:26:39Z</time>
      </trkpt>
      <trkpt lat="45.42719" lon="3.90418">
        <ele>901</ele>
        <time>2022-06-29T13:26:43Z</time>
      </trkpt>
      <trkpt lat="45.42717" lon="3.9043">
        <ele>901</ele>
        <time>2022-06-29T13:26:48Z</time>
      </trkpt>
      <trkpt lat="45.42714" lon="3.90438">
        <ele>902</ele>
        <time>2022-06-29T13:26:52Z</time>
      </trkpt>
      <trkpt lat="45.42711" lon="3.9045">
        <ele>902</ele>
        <time>2022-06-29T13:26:57Z</time>
      </trkpt>
      <trkpt lat="45.42707" lon="3.9046">
        <ele>901</ele>
        <time>2022-06-29T13:27:02Z</time>
      </trkpt>
      <trkpt lat="45.42704" lon="3.9047">
        <ele>901</ele>
        <time>2022-06-29T13:27:07Z</time>
      </trkpt>
      <trkpt lat="45.427" lon="3.90482">
        <ele>901</ele>
        <time>2022-06-29T13:27:12Z</time>
      </trkpt>
      <trkpt lat="45.42696" lon="3.90494">
        <ele>902</ele>
        <time>2022-06-29T13:27:17Z</time>
      </trkpt>
      <trkpt lat="45.42692" lon="3.90502">
        <ele>902</ele>
        <time>2022-06-29T13:27:21Z</time>
      </trkpt>
      <trkpt lat="45.42688" lon="3.90514">
        <ele>902</ele>
        <time>2022-06-29T13:27:26Z</time>
      </trkpt>
      <trkpt lat="45.42685" lon="3.90523">
        <ele>902</ele>
        <time>2022-06-29T13:27:31Z</time>
      </trkpt>
      <trkpt lat="45.42683" lon="3.90534">
        <ele>902</ele>
        <time>2022-06-29T13:27:36Z</time>
      </trkpt>
      <trkpt lat="45.4268" lon="3.90542">
        <ele>899</ele>
        <time>2022-06-29T13:27:40Z</time>
      </trkpt>
      <trkpt lat="45.42675" lon="3.90553">
        <ele>899</ele>
        <time>2022-06-29T13:27:45Z</time>
      </trkpt>
      <trkpt lat="45.42669" lon="3.90561">
        <ele>899</ele>
        <time>2022-06-29T13:27:50Z</time>
      </trkpt>
      <trkpt lat="45.42665" lon="3.90569">
        <ele>899</ele>
        <time>2022-06-29T13:27:54Z</time>
      </trkpt>
      <trkpt lat="45.42661" lon="3.90577">
        <ele>897</ele>
        <time>2022-06-29T13:27:59Z</time>
      </trkpt>
      <trkpt lat="45.42656" lon="3.90587">
        <ele>897</ele>
        <time>2022-06-29T13:28:04Z</time>
      </trkpt>
      <trkpt lat="45.42652" lon="3.90596">
        <ele>897</ele>
        <time>2022-06-29T13:28:09Z</time>
      </trkpt>
      <trkpt lat="45.42649" lon="3.90604">
        <ele>893</ele>
        <time>2022-06-29T13:28:13Z</time>
      </trkpt>
      <trkpt lat="45.42648" lon="3.90612">
        <ele>893</ele>
        <time>2022-06-29T13:28:17Z</time>
      </trkpt>
      <trkpt lat="45.42643" lon="3.90623">
        <ele>893</ele>
        <time>2022-06-29T13:28:22Z</time>
      </trkpt>
      <trkpt lat="45.4264" lon="3.90634">
        <ele>891</ele>
        <time>2022-06-29T13:28:27Z</time>
      </trkpt>
      <trkpt lat="45.42637" lon="3.90643">
        <ele>891</ele>
        <time>2022-06-29T13:28:31Z</time>
      </trkpt>
      <trkpt lat="45.42635" lon="3.90655">
        <ele>887</ele>
        <time>2022-06-29T13:28:36Z</time>
      </trkpt>
      <trkpt lat="45.42633" lon="3.90663">
        <ele>887</ele>
        <time>2022-06-29T13:28:40Z</time>
      </trkpt>
      <trkpt lat="45.4263" lon="3.90672">
        <ele>887</ele>
        <time>2022-06-29T13:28:45Z</time>
      </trkpt>
      <trkpt lat="45.42627" lon="3.90681">
        <ele>887</ele>
        <time>2022-06-29T13:28:50Z</time>
      </trkpt>
      <trkpt lat="45.42624" lon="3.9069">
        <ele>885</ele>
        <time>2022-06-29T13:28:54Z</time>
      </trkpt>
      <trkpt lat="45.42622" lon="3.907">
        <ele>885</ele>
        <time>2022-06-29T13:28:59Z</time>
      </trkpt>
      <trkpt lat="45.42617" lon="3.90708">
        <ele>885</ele>
        <time>2022-06-29T13:29:04Z</time>
      </trkpt>
      <trkpt lat="45.42612" lon="3.90716">
        <ele>884</ele>
        <time>2022-06-29T13:29:09Z</time>
      </trkpt>
      <trkpt lat="45.42609" lon="3.90725">
        <ele>884</ele>
        <time>2022-06-29T13:29:13Z</time>
      </trkpt>
      <trkpt lat="45.42606" lon="3.90732">
        <ele>884</ele>
        <time>2022-06-29T13:29:17Z</time>
      </trkpt>
      <trkpt lat="45.42601" lon="3.90741">
        <ele>882</ele>
        <time>2022-06-29T13:29:22Z</time>
      </trkpt>
      <trkpt lat="45.42597" lon="3.90752">
        <ele>883</ele>
        <time>2022-06-29T13:29:27Z</time>
      </trkpt>
      <trkpt lat="45.42594" lon="3.90761">
        <ele>883</ele>
        <time>2022-06-29T13:29:31Z</time>
      </trkpt>
      <trkpt lat="45.4259" lon="3.90773">
        <ele>882</ele>
        <time>2022-06-29T13:29:36Z</time>
      </trkpt>
      <trkpt lat="45.42587" lon="3.90781">
        <ele>882</ele>
        <time>2022-06-29T13:29:40Z</time>
      </trkpt>
      <trkpt lat="45.42583" lon="3.90796">
        <ele>882</ele>
        <time>2022-06-29T13:29:45Z</time>
      </trkpt>
      <trkpt lat="45.4258" lon="3.90807">
        <ele>882</ele>
        <time>2022-06-29T13:29:49Z</time>
      </trkpt>
      <trkpt lat="45.42575" lon="3.9082">
        <ele>884</ele>
        <time>2022-06-29T13:29:54Z</time>
      </trkpt>
      <trkpt lat="45.42572" lon="3.90826">
        <ele>884</ele>
        <time>2022-06-29T13:29:58Z</time>
      </trkpt>
      <trkpt lat="45.42569" lon="3.90835">
        <ele>882</ele>
        <time>2022-06-29T13:30:03Z</time>
      </trkpt>
      <trkpt lat="45.42564" lon="3.90842">
        <ele>882</ele>
        <time>2022-06-29T13:30:08Z</time>
      </trkpt>
      <trkpt lat="45.42559" lon="3.9085">
        <ele>883</ele>
        <time>2022-06-29T13:30:12Z</time>
      </trkpt>
      <trkpt lat="45.42553" lon="3.90859">
        <ele>883</ele>
        <time>2022-06-29T13:30:17Z</time>
      </trkpt>
      <trkpt lat="45.42547" lon="3.90864">
        <ele>883</ele>
        <time>2022-06-29T13:30:22Z</time>
      </trkpt>
      <trkpt lat="45.42541" lon="3.90868">
        <ele>879</ele>
        <time>2022-06-29T13:30:27Z</time>
      </trkpt>
      <trkpt lat="45.42534" lon="3.90874">
        <ele>879</ele>
        <time>2022-06-29T13:30:32Z</time>
      </trkpt>
      <trkpt lat="45.42526" lon="3.90881">
        <ele>881</ele>
        <time>2022-06-29T13:30:37Z</time>
      </trkpt>
      <trkpt lat="45.42519" lon="3.90888">
        <ele>881</ele>
        <time>2022-06-29T13:30:42Z</time>
      </trkpt>
      <trkpt lat="45.42513" lon="3.90898">
        <ele>876</ele>
        <time>2022-06-29T13:30:47Z</time>
      </trkpt>
      <trkpt lat="45.42508" lon="3.90908">
        <ele>877</ele>
        <time>2022-06-29T13:30:52Z</time>
      </trkpt>
      <trkpt lat="45.42502" lon="3.90916">
        <ele>877</ele>
        <time>2022-06-29T13:30:57Z</time>
      </trkpt>
      <trkpt lat="45.42497" lon="3.90926">
        <ele>877</ele>
        <time>2022-06-29T13:31:02Z</time>
      </trkpt>
      <trkpt lat="45.42492" lon="3.90934">
        <ele>880</ele>
        <time>2022-06-29T13:31:07Z</time>
      </trkpt>
      <trkpt lat="45.42489" lon="3.90944">
        <ele>880</ele>
        <time>2022-06-29T13:31:12Z</time>
      </trkpt>
      <trkpt lat="45.42486" lon="3.90955">
        <ele>874</ele>
        <time>2022-06-29T13:31:17Z</time>
      </trkpt>
      <trkpt lat="45.42483" lon="3.9096">
        <ele>876</ele>
        <time>2022-06-29T13:31:21Z</time>
      </trkpt>
      <trkpt lat="45.42478" lon="3.90971">
        <ele>876</ele>
        <time>2022-06-29T13:31:26Z</time>
      </trkpt>
      <trkpt lat="45.42474" lon="3.90979">
        <ele>876</ele>
        <time>2022-06-29T13:31:30Z</time>
      </trkpt>
      <trkpt lat="45.4247" lon="3.90991">
        <ele>876</ele>
        <time>2022-06-29T13:31:35Z</time>
      </trkpt>
      <trkpt lat="45.42464" lon="3.90998">
        <ele>876</ele>
        <time>2022-06-29T13:31:40Z</time>
      </trkpt>
      <trkpt lat="45.4246" lon="3.91007">
        <ele>876</ele>
        <time>2022-06-29T13:31:44Z</time>
      </trkpt>
      <trkpt lat="45.42456" lon="3.91019">
        <ele>869</ele>
        <time>2022-06-29T13:31:49Z</time>
      </trkpt>
      <trkpt lat="45.42454" lon="3.91025">
        <ele>869</ele>
        <time>2022-06-29T13:31:54Z</time>
      </trkpt>
      <trkpt lat="45.42451" lon="3.91035">
        <ele>869</ele>
        <time>2022-06-29T13:31:59Z</time>
      </trkpt>
      <trkpt lat="45.4245" lon="3.91043">
        <ele>869</ele>
        <time>2022-06-29T13:32:04Z</time>
      </trkpt>
      <trkpt lat="45.42447" lon="3.91051">
        <ele>869</ele>
        <time>2022-06-29T13:32:09Z</time>
      </trkpt>
      <trkpt lat="45.42444" lon="3.91061">
        <ele>869</ele>
        <time>2022-06-29T13:32:14Z</time>
      </trkpt>
      <trkpt lat="45.42442" lon="3.91068">
        <ele>869</ele>
        <time>2022-06-29T13:32:18Z</time>
      </trkpt>
      <trkpt lat="45.42438" lon="3.91076">
        <ele>869</ele>
        <time>2022-06-29T13:32:22Z</time>
      </trkpt>
      <trkpt lat="45.42432" lon="3.91084">
        <ele>869</ele>
        <time>2022-06-29T13:32:27Z</time>
      </trkpt>
      <trkpt lat="45.42425" lon="3.91085">
        <ele>862</ele>
        <time>2022-06-29T13:32:32Z</time>
      </trkpt>
      <trkpt lat="45.42419" lon="3.91083">
        <ele>862</ele>
        <time>2022-06-29T13:32:37Z</time>
      </trkpt>
      <trkpt lat="45.42414" lon="3.91081">
        <ele>862</ele>
        <time>2022-06-29T13:32:41Z</time>
      </trkpt>
      <trkpt lat="45.42408" lon="3.91082">
        <ele>862</ele>
        <time>2022-06-29T13:32:45Z</time>
      </trkpt>
      <trkpt lat="45.42402" lon="3.91084">
        <ele>857</ele>
        <time>2022-06-29T13:32:49Z</time>
      </trkpt>
      <trkpt lat="45.42395" lon="3.91091">
        <ele>857</ele>
        <time>2022-06-29T13:32:54Z</time>
      </trkpt>
      <trkpt lat="45.42389" lon="3.91103">
        <ele>857</ele>
        <time>2022-06-29T13:32:59Z</time>
      </trkpt>
      <trkpt lat="45.42385" lon="3.91115">
        <ele>857</ele>
        <time>2022-06-29T13:33:04Z</time>
      </trkpt>
      <trkpt lat="45.42382" lon="3.91126">
        <ele>857</ele>
        <time>2022-06-29T13:33:09Z</time>
      </trkpt>
      <trkpt lat="45.4238" lon="3.91134">
        <ele>857</ele>
        <time>2022-06-29T13:33:14Z</time>
      </trkpt>
      <trkpt lat="45.42378" lon="3.91142">
        <ele>857</ele>
        <time>2022-06-29T13:33:18Z</time>
      </trkpt>
      <trkpt lat="45.42375" lon="3.91152">
        <ele>854</ele>
        <time>2022-06-29T13:33:23Z</time>
      </trkpt>
      <trkpt lat="45.42372" lon="3.9116">
        <ele>853</ele>
        <time>2022-06-29T13:33:27Z</time>
      </trkpt>
      <trkpt lat="45.42367" lon="3.91169">
        <ele>853</ele>
        <time>2022-06-29T13:33:32Z</time>
      </trkpt>
      <trkpt lat="45.42362" lon="3.91181">
        <ele>850</ele>
        <time>2022-06-29T13:33:37Z</time>
      </trkpt>
      <trkpt lat="45.42357" lon="3.91189">
        <ele>850</ele>
        <time>2022-06-29T13:33:41Z</time>
      </trkpt>
      <trkpt lat="45.42354" lon="3.912">
        <ele>850</ele>
        <time>2022-06-29T13:33:46Z</time>
      </trkpt>
      <trkpt lat="45.42352" lon="3.91208">
        <ele>850</ele>
        <time>2022-06-29T13:33:51Z</time>
      </trkpt>
      <trkpt lat="45.42351" lon="3.91216">
        <ele>848</ele>
        <time>2022-06-29T13:33:55Z</time>
      </trkpt>
      <trkpt lat="45.4235" lon="3.91229">
        <ele>848</ele>
        <time>2022-06-29T13:34:00Z</time>
      </trkpt>
      <trkpt lat="45.42349" lon="3.91235">
        <ele>848</ele>
        <time>2022-06-29T13:34:04Z</time>
      </trkpt>
      <trkpt lat="45.42347" lon="3.91246">
        <ele>843</ele>
        <time>2022-06-29T13:34:09Z</time>
      </trkpt>
      <trkpt lat="45.42342" lon="3.91254">
        <ele>843</ele>
        <time>2022-06-29T13:34:13Z</time>
      </trkpt>
      <trkpt lat="45.42333" lon="3.91264">
        <ele>843</ele>
        <time>2022-06-29T13:34:18Z</time>
      </trkpt>
      <trkpt lat="45.42325" lon="3.91271">
        <ele>839</ele>
        <time>2022-06-29T13:34:23Z</time>
      </trkpt>
      <trkpt lat="45.42317" lon="3.91276">
        <ele>836</ele>
        <time>2022-06-29T13:34:28Z</time>
      </trkpt>
      <trkpt lat="45.4231" lon="3.91282">
        <ele>836</ele>
        <time>2022-06-29T13:34:33Z</time>
      </trkpt>
      <trkpt lat="45.42304" lon="3.9129">
        <ele>836</ele>
        <time>2022-06-29T13:34:38Z</time>
      </trkpt>
      <trkpt lat="45.42297" lon="3.91299">
        <ele>834</ele>
        <time>2022-06-29T13:34:43Z</time>
      </trkpt>
      <trkpt lat="45.4229" lon="3.91305">
        <ele>832</ele>
        <time>2022-06-29T13:34:48Z</time>
      </trkpt>
      <trkpt lat="45.42284" lon="3.91311">
        <ele>832</ele>
        <time>2022-06-29T13:34:52Z</time>
      </trkpt>
      <trkpt lat="45.42278" lon="3.91321">
        <ele>831</ele>
        <time>2022-06-29T13:34:57Z</time>
      </trkpt>
      <trkpt lat="45.42272" lon="3.91329">
        <ele>831</ele>
        <time>2022-06-29T13:35:02Z</time>
      </trkpt>
      <trkpt lat="45.42267" lon="3.91335">
        <ele>831</ele>
        <time>2022-06-29T13:35:07Z</time>
      </trkpt>
      <trkpt lat="45.42262" lon="3.91338">
        <ele>830</ele>
        <time>2022-06-29T13:35:12Z</time>
      </trkpt>
      <trkpt lat="45.42253" lon="3.91342">
        <ele>830</ele>
        <time>2022-06-29T13:35:17Z</time>
      </trkpt>
      <trkpt lat="45.42244" lon="3.91343">
        <ele>830</ele>
        <time>2022-06-29T13:35:22Z</time>
      </trkpt>
      <trkpt lat="45.42239" lon="3.91347">
        <ele>830</ele>
        <time>2022-06-29T13:35:27Z</time>
      </trkpt>
      <trkpt lat="45.42241" lon="3.91356">
        <ele>829</ele>
        <time>2022-06-29T13:35:31Z</time>
      </trkpt>
      <trkpt lat="45.42244" lon="3.91369">
        <ele>829</ele>
        <time>2022-06-29T13:35:36Z</time>
      </trkpt>
      <trkpt lat="45.42242" lon="3.91376">
        <ele>829</ele>
        <time>2022-06-29T13:35:41Z</time>
      </trkpt>
      <trkpt lat="45.42242" lon="3.91381">
        <ele>829</ele>
        <time>2022-06-29T13:35:45Z</time>
      </trkpt>
      <trkpt lat="45.42237" lon="3.91387">
        <ele>829</ele>
        <time>2022-06-29T13:37:07Z</time>
      </trkpt>
      <trkpt lat="45.42237" lon="3.91387">
        <ele>829</ele>
        <time>2022-06-29T13:37:11Z</time>
      </trkpt>
      <trkpt lat="45.42236" lon="3.91383">
        <ele>827</ele>
        <time>2022-06-29T13:37:16Z</time>
      </trkpt>
      <trkpt lat="45.42237" lon="3.91376">
        <ele>829</ele>
        <time>2022-06-29T13:37:21Z</time>
      </trkpt>
      <trkpt lat="45.42241" lon="3.91365">
        <ele>829</ele>
        <time>2022-06-29T13:37:26Z</time>
      </trkpt>
      <trkpt lat="45.42242" lon="3.91356">
        <ele>829</ele>
        <time>2022-06-29T13:37:30Z</time>
      </trkpt>
      <trkpt lat="45.42241" lon="3.91343">
        <ele>830</ele>
        <time>2022-06-29T13:37:35Z</time>
      </trkpt>
      <trkpt lat="45.42237" lon="3.91335">
        <ele>830</ele>
        <time>2022-06-29T13:37:40Z</time>
      </trkpt>
      <trkpt lat="45.42232" lon="3.9133">
        <ele>828</ele>
        <time>2022-06-29T13:37:44Z</time>
      </trkpt>
      <trkpt lat="45.42236" lon="3.91321">
        <ele>828</ele>
        <time>2022-06-29T13:38:50Z</time>
      </trkpt>
      <trkpt lat="45.42236" lon="3.91321">
        <ele>830</ele>
        <time>2022-06-29T13:38:55Z</time>
      </trkpt>
      <trkpt lat="45.42238" lon="3.91324">
        <ele>830</ele>
        <time>2022-06-29T13:38:59Z</time>
      </trkpt>
      <trkpt lat="45.42239" lon="3.91326">
        <ele>830</ele>
        <time>2022-06-29T13:39:03Z</time>
      </trkpt>
      <trkpt lat="45.42241" lon="3.91329">
        <ele>830</ele>
        <time>2022-06-29T13:39:08Z</time>
      </trkpt>
      <trkpt lat="45.42239" lon="3.91332">
        <ele>830</ele>
        <time>2022-06-29T13:39:13Z</time>
      </trkpt>
      <trkpt lat="45.42236" lon="3.91335">
        <ele>830</ele>
        <time>2022-06-29T13:39:18Z</time>
      </trkpt>
      <trkpt lat="45.42234" lon="3.91342">
        <ele>828</ele>
        <time>2022-06-29T13:39:22Z</time>
      </trkpt>
      <trkpt lat="45.42234" lon="3.91345">
        <ele>828</ele>
        <time>2022-06-29T13:39:27Z</time>
      </trkpt>
      <trkpt lat="45.42237" lon="3.91339">
        <ele>830</ele>
        <time>2022-06-29T13:56:17Z</time>
      </trkpt>
      <trkpt lat="45.42237" lon="3.91338">
        <ele>830</ele>
        <time>2022-06-29T13:56:21Z</time>
      </trkpt>
      <trkpt lat="45.42237" lon="3.91335">
        <ele>830</ele>
        <time>2022-06-29T13:56:26Z</time>
      </trkpt>
      <trkpt lat="45.42236" lon="3.91334">
        <ele>830</ele>
        <time>2022-06-29T13:56:31Z</time>
      </trkpt>
      <trkpt lat="45.42241" lon="3.91333">
        <ele>830</ele>
        <time>2022-06-29T13:56:36Z</time>
      </trkpt>
      <trkpt lat="45.42241" lon="3.91339">
        <ele>830</ele>
        <time>2022-06-29T13:58:44Z</time>
      </trkpt>
      <trkpt lat="45.4224" lon="3.91341">
        <ele>830</ele>
        <time>2022-06-29T13:58:49Z</time>
      </trkpt>
      <trkpt lat="45.42239" lon="3.91343">
        <ele>830</ele>
        <time>2022-06-29T13:58:53Z</time>
      </trkpt>
      <trkpt lat="45.42236" lon="3.91343">
        <ele>828</ele>
        <time>2022-06-29T13:58:57Z</time>
      </trkpt>
      <trkpt lat="45.42234" lon="3.91342">
        <ele>828</ele>
        <time>2022-06-29T13:59:02Z</time>
      </trkpt>
      <trkpt lat="45.42232" lon="3.91337">
        <ele>828</ele>
        <time>2022-06-29T14:18:02Z</time>
      </trkpt>
      <trkpt lat="45.42234" lon="3.91331">
        <ele>828</ele>
        <time>2022-06-29T14:18:07Z</time>
      </trkpt>
      <trkpt lat="45.42236" lon="3.91331">
        <ele>828</ele>
        <time>2022-06-29T14:18:11Z</time>
      </trkpt>
      <trkpt lat="45.4224" lon="3.91328">
        <ele>830</ele>
        <time>2022-06-29T14:18:16Z</time>
      </trkpt>
      <trkpt lat="45.42247" lon="3.91332">
        <ele>830</ele>
        <time>2022-06-29T14:18:21Z</time>
      </trkpt>
      <trkpt lat="45.42253" lon="3.91333">
        <ele>830</ele>
        <time>2022-06-29T14:18:25Z</time>
      </trkpt>
      <trkpt lat="45.42258" lon="3.91332">
        <ele>830</ele>
        <time>2022-06-29T14:18:30Z</time>
      </trkpt>
      <trkpt lat="45.42263" lon="3.91337">
        <ele>830</ele>
        <time>2022-06-29T14:18:35Z</time>
      </trkpt>
      <trkpt lat="45.42263" lon="3.91338">
        <ele>830</ele>
        <time>2022-06-29T14:18:39Z</time>
      </trkpt>
      <trkpt lat="45.42259" lon="3.91345">
        <ele>830</ele>
        <time>2022-06-29T14:19:26Z</time>
      </trkpt>
      <trkpt lat="45.42256" lon="3.91341">
        <ele>830</ele>
        <time>2022-06-29T14:19:30Z</time>
      </trkpt>
      <trkpt lat="45.42251" lon="3.9134">
        <ele>830</ele>
        <time>2022-06-29T14:19:35Z</time>
      </trkpt>
      <trkpt lat="45.42245" lon="3.91337">
        <ele>830</ele>
        <time>2022-06-29T14:19:40Z</time>
      </trkpt>
      <trkpt lat="45.42241" lon="3.91334">
        <ele>830</ele>
        <time>2022-06-29T14:19:44Z</time>
      </trkpt>
      <trkpt lat="45.42235" lon="3.91344">
        <ele>828</ele>
        <time>2022-06-29T14:22:19Z</time>
      </trkpt>
      <trkpt lat="45.42235" lon="3.91345">
        <ele>828</ele>
        <time>2022-06-29T14:22:24Z</time>
      </trkpt>
      <trkpt lat="45.42235" lon="3.91346">
        <ele>828</ele>
        <time>2022-06-29T14:22:29Z</time>
      </trkpt>
      <trkpt lat="45.42235" lon="3.91349">
        <ele>827</ele>
        <time>2022-06-29T14:22:33Z</time>
      </trkpt>
      <trkpt lat="45.42238" lon="3.91352">
        <ele>829</ele>
        <time>2022-06-29T14:22:38Z</time>
      </trkpt>
      <trkpt lat="45.42247" lon="3.91353">
        <ele>829</ele>
        <time>2022-06-29T14:23:33Z</time>
      </trkpt>
      <trkpt lat="45.42247" lon="3.91353">
        <ele>829</ele>
        <time>2022-06-29T14:23:37Z</time>
      </trkpt>
      <trkpt lat="45.42248" lon="3.91352">
        <ele>829</ele>
        <time>2022-06-29T14:23:42Z</time>
      </trkpt>
      <trkpt lat="45.42248" lon="3.91353">
        <ele>829</ele>
        <time>2022-06-29T14:23:46Z</time>
      </trkpt>
      <trkpt lat="45.42249" lon="3.9136">
        <ele>829</ele>
        <time>2022-06-29T14:23:51Z</time>
      </trkpt>
      <trkpt lat="45.42243" lon="3.91374">
        <ele>829</ele>
        <time>2022-06-29T14:24:25Z</time>
      </trkpt>
      <trkpt lat="45.42243" lon="3.91379">
        <ele>829</ele>
        <time>2022-06-29T14:24:29Z</time>
      </trkpt>
      <trkpt lat="45.42244" lon="3.91383">
        <ele>829</ele>
        <time>2022-06-29T14:24:33Z</time>
      </trkpt>
      <trkpt lat="45.42243" lon="3.91391">
        <ele>829</ele>
        <time>2022-06-29T14:24:37Z</time>
      </trkpt>
      <trkpt lat="45.42243" lon="3.91399">
        <ele>829</ele>
        <time>2022-06-29T14:24:41Z</time>
      </trkpt>
      <trkpt lat="45.42239" lon="3.91406">
        <ele>831</ele>
        <time>2022-06-29T14:24:46Z</time>
      </trkpt>
      <trkpt lat="45.42232" lon="3.9141">
        <ele>828</ele>
        <time>2022-06-29T14:24:51Z</time>
      </trkpt>
      <trkpt lat="45.42226" lon="3.91412">
        <ele>828</ele>
        <time>2022-06-29T14:24:56Z</time>
      </trkpt>
      <trkpt lat="45.42221" lon="3.91413">
        <ele>828</ele>
        <time>2022-06-29T14:25:00Z</time>
      </trkpt>
      <trkpt lat="45.42214" lon="3.91412">
        <ele>828</ele>
        <time>2022-06-29T14:25:05Z</time>
      </trkpt>
      <trkpt lat="45.42207" lon="3.91413">
        <ele>826</ele>
        <time>2022-06-29T14:25:10Z</time>
      </trkpt>
      <trkpt lat="45.42201" lon="3.91415">
        <ele>826</ele>
        <time>2022-06-29T14:25:15Z</time>
      </trkpt>
      <trkpt lat="45.42195" lon="3.91421">
        <ele>826</ele>
        <time>2022-06-29T14:25:20Z</time>
      </trkpt>
      <trkpt lat="45.4219" lon="3.91427">
        <ele>826</ele>
        <time>2022-06-29T14:25:25Z</time>
      </trkpt>
      <trkpt lat="45.42185" lon="3.91433">
        <ele>827</ele>
        <time>2022-06-29T14:25:30Z</time>
      </trkpt>
      <trkpt lat="45.42183" lon="3.91438">
        <ele>827</ele>
        <time>2022-06-29T14:25:34Z</time>
      </trkpt>
      <trkpt lat="45.4218" lon="3.91447">
        <ele>826</ele>
        <time>2022-06-29T14:25:39Z</time>
      </trkpt>
      <trkpt lat="45.42178" lon="3.91456">
        <ele>826</ele>
        <time>2022-06-29T14:25:58Z</time>
      </trkpt>
      <trkpt lat="45.42177" lon="3.9146">
        <ele>826</ele>
        <time>2022-06-29T14:26:03Z</time>
      </trkpt>
      <trkpt lat="45.42174" lon="3.91466">
        <ele>826</ele>
        <time>2022-06-29T14:26:07Z</time>
      </trkpt>
      <trkpt lat="45.4217" lon="3.91473">
        <ele>826</ele>
        <time>2022-06-29T14:26:11Z</time>
      </trkpt>
      <trkpt lat="45.42165" lon="3.91482">
        <ele>826</ele>
        <time>2022-06-29T14:26:16Z</time>
      </trkpt>
      <trkpt lat="45.42162" lon="3.91488">
        <ele>826</ele>
        <time>2022-06-29T14:26:20Z</time>
      </trkpt>
      <trkpt lat="45.42157" lon="3.91497">
        <ele>826</ele>
        <time>2022-06-29T14:26:25Z</time>
      </trkpt>
      <trkpt lat="45.42153" lon="3.91503">
        <ele>826</ele>
        <time>2022-06-29T14:26:29Z</time>
      </trkpt>
      <trkpt lat="45.42149" lon="3.91511">
        <ele>832</ele>
        <time>2022-06-29T14:26:34Z</time>
      </trkpt>
      <trkpt lat="45.42145" lon="3.91521">
        <ele>835</ele>
        <time>2022-06-29T14:26:39Z</time>
      </trkpt>
      <trkpt lat="45.42141" lon="3.9153">
        <ele>835</ele>
        <time>2022-06-29T14:26:43Z</time>
      </trkpt>
      <trkpt lat="45.42139" lon="3.91538">
        <ele>835</ele>
        <time>2022-06-29T14:26:47Z</time>
      </trkpt>
      <trkpt lat="45.42136" lon="3.91551">
        <ele>840</ele>
        <time>2022-06-29T14:26:52Z</time>
      </trkpt>
      <trkpt lat="45.42135" lon="3.91562">
        <ele>840</ele>
        <time>2022-06-29T14:26:57Z</time>
      </trkpt>
      <trkpt lat="45.42134" lon="3.9157">
        <ele>843</ele>
        <time>2022-06-29T14:27:01Z</time>
      </trkpt>
      <trkpt lat="45.42132" lon="3.91581">
        <ele>843</ele>
        <time>2022-06-29T14:27:06Z</time>
      </trkpt>
      <trkpt lat="45.42132" lon="3.91589">
        <ele>843</ele>
        <time>2022-06-29T14:27:10Z</time>
      </trkpt>
      <trkpt lat="45.42132" lon="3.91597">
        <ele>843</ele>
        <time>2022-06-29T14:27:14Z</time>
      </trkpt>
      <trkpt lat="45.42132" lon="3.91608">
        <ele>845</ele>
        <time>2022-06-29T14:27:19Z</time>
      </trkpt>
      <trkpt lat="45.42131" lon="3.91616">
        <ele>845</ele>
        <time>2022-06-29T14:27:23Z</time>
      </trkpt>
      <trkpt lat="45.4213" lon="3.91628">
        <ele>844</ele>
        <time>2022-06-29T14:27:28Z</time>
      </trkpt>
      <trkpt lat="45.42129" lon="3.91639">
        <ele>844</ele>
        <time>2022-06-29T14:27:33Z</time>
      </trkpt>
      <trkpt lat="45.42125" lon="3.91649">
        <ele>844</ele>
        <time>2022-06-29T14:27:38Z</time>
      </trkpt>
      <trkpt lat="45.42121" lon="3.91657">
        <ele>843</ele>
        <time>2022-06-29T14:27:43Z</time>
      </trkpt>
      <trkpt lat="45.42118" lon="3.91664">
        <ele>843</ele>
        <time>2022-06-29T14:27:47Z</time>
      </trkpt>
      <trkpt lat="45.42115" lon="3.91675">
        <ele>843</ele>
        <time>2022-06-29T14:27:52Z</time>
      </trkpt>
      <trkpt lat="45.42113" lon="3.91683">
        <ele>842</ele>
        <time>2022-06-29T14:27:56Z</time>
      </trkpt>
      <trkpt lat="45.4211" lon="3.91691">
        <ele>842</ele>
        <time>2022-06-29T14:28:00Z</time>
      </trkpt>
      <trkpt lat="45.42108" lon="3.91703">
        <ele>842</ele>
        <time>2022-06-29T14:28:05Z</time>
      </trkpt>
      <trkpt lat="45.42106" lon="3.91715">
        <ele>842</ele>
        <time>2022-06-29T14:28:10Z</time>
      </trkpt>
      <trkpt lat="45.42104" lon="3.91722">
        <ele>842</ele>
        <time>2022-06-29T14:28:14Z</time>
      </trkpt>
      <trkpt lat="45.42102" lon="3.91731">
        <ele>842</ele>
        <time>2022-06-29T14:28:19Z</time>
      </trkpt>
      <trkpt lat="45.42101" lon="3.9174">
        <ele>843</ele>
        <time>2022-06-29T14:28:23Z</time>
      </trkpt>
      <trkpt lat="45.42099" lon="3.91751">
        <ele>843</ele>
        <time>2022-06-29T14:28:28Z</time>
      </trkpt>
      <trkpt lat="45.42098" lon="3.91763">
        <ele>843</ele>
        <time>2022-06-29T14:28:33Z</time>
      </trkpt>
      <trkpt lat="45.42096" lon="3.91773">
        <ele>848</ele>
        <time>2022-06-29T14:28:38Z</time>
      </trkpt>
      <trkpt lat="45.42095" lon="3.91783">
        <ele>848</ele>
        <time>2022-06-29T14:28:43Z</time>
      </trkpt>
      <trkpt lat="45.42097" lon="3.91792">
        <ele>851</ele>
        <time>2022-06-29T14:28:48Z</time>
      </trkpt>
      <trkpt lat="45.42101" lon="3.91797">
        <ele>845</ele>
        <time>2022-06-29T14:28:52Z</time>
      </trkpt>
      <trkpt lat="45.42107" lon="3.91804">
        <ele>845</ele>
        <time>2022-06-29T14:28:57Z</time>
      </trkpt>
      <trkpt lat="45.42112" lon="3.9181">
        <ele>845</ele>
        <time>2022-06-29T14:29:01Z</time>
      </trkpt>
      <trkpt lat="45.42115" lon="3.91817">
        <ele>845</ele>
        <time>2022-06-29T14:29:05Z</time>
      </trkpt>
      <trkpt lat="45.42121" lon="3.91824">
        <ele>848</ele>
        <time>2022-06-29T14:29:09Z</time>
      </trkpt>
      <trkpt lat="45.42125" lon="3.91833">
        <ele>844</ele>
        <time>2022-06-29T14:29:14Z</time>
      </trkpt>
      <trkpt lat="45.4213" lon="3.91841">
        <ele>844</ele>
        <time>2022-06-29T14:29:19Z</time>
      </trkpt>
      <trkpt lat="45.42133" lon="3.9185">
        <ele>848</ele>
        <time>2022-06-29T14:29:24Z</time>
      </trkpt>
      <trkpt lat="45.42138" lon="3.91857">
        <ele>848</ele>
        <time>2022-06-29T14:29:28Z</time>
      </trkpt>
      <trkpt lat="45.42144" lon="3.91868">
        <ele>848</ele>
        <time>2022-06-29T14:29:32Z</time>
      </trkpt>
      <trkpt lat="45.42157" lon="3.91884">
        <ele>848</ele>
        <time>2022-06-29T14:29:37Z</time>
      </trkpt>
      <trkpt lat="45.42171" lon="3.91891">
        <ele>848</ele>
        <time>2022-06-29T14:29:41Z</time>
      </trkpt>
      <trkpt lat="45.42181" lon="3.91894">
        <ele>848</ele>
        <time>2022-06-29T14:29:45Z</time>
      </trkpt>
      <trkpt lat="45.42189" lon="3.91897">
        <ele>848</ele>
        <time>2022-06-29T14:29:50Z</time>
      </trkpt>
      <trkpt lat="45.42196" lon="3.919">
        <ele>848</ele>
        <time>2022-06-29T14:29:54Z</time>
      </trkpt>
      <trkpt lat="45.42202" lon="3.91902">
        <ele>848</ele>
        <time>2022-06-29T14:29:58Z</time>
      </trkpt>
      <trkpt lat="45.42209" lon="3.91905">
        <ele>846</ele>
        <time>2022-06-29T14:30:03Z</time>
      </trkpt>
      <trkpt lat="45.42215" lon="3.91908">
        <ele>846</ele>
        <time>2022-06-29T14:30:08Z</time>
      </trkpt>
      <trkpt lat="45.42221" lon="3.9191">
        <ele>846</ele>
        <time>2022-06-29T14:30:12Z</time>
      </trkpt>
      <trkpt lat="45.42227" lon="3.91914">
        <ele>846</ele>
        <time>2022-06-29T14:30:16Z</time>
      </trkpt>
      <trkpt lat="45.42232" lon="3.91917">
        <ele>846</ele>
        <time>2022-06-29T14:30:20Z</time>
      </trkpt>
      <trkpt lat="45.4224" lon="3.91923">
        <ele>843</ele>
        <time>2022-06-29T14:30:25Z</time>
      </trkpt>
      <trkpt lat="45.42248" lon="3.91931">
        <ele>845</ele>
        <time>2022-06-29T14:30:30Z</time>
      </trkpt>
      <trkpt lat="45.42253" lon="3.91938">
        <ele>845</ele>
        <time>2022-06-29T14:30:34Z</time>
      </trkpt>
      <trkpt lat="45.42257" lon="3.91946">
        <ele>845</ele>
        <time>2022-06-29T14:30:39Z</time>
      </trkpt>
      <trkpt lat="45.42263" lon="3.91956">
        <ele>845</ele>
        <time>2022-06-29T14:30:44Z</time>
      </trkpt>
      <trkpt lat="45.42268" lon="3.91962">
        <ele>849</ele>
        <time>2022-06-29T14:30:49Z</time>
      </trkpt>
      <trkpt lat="45.42273" lon="3.91966">
        <ele>849</ele>
        <time>2022-06-29T14:30:53Z</time>
      </trkpt>
      <trkpt lat="45.4228" lon="3.91971">
        <ele>849</ele>
        <time>2022-06-29T14:30:58Z</time>
      </trkpt>
      <trkpt lat="45.42289" lon="3.91973">
        <ele>849</ele>
        <time>2022-06-29T14:31:03Z</time>
      </trkpt>
      <trkpt lat="45.42298" lon="3.91976">
        <ele>849</ele>
        <time>2022-06-29T14:31:08Z</time>
      </trkpt>
      <trkpt lat="45.42306" lon="3.9198">
        <ele>849</ele>
        <time>2022-06-29T14:31:13Z</time>
      </trkpt>
      <trkpt lat="45.42311" lon="3.91984">
        <ele>849</ele>
        <time>2022-06-29T14:31:17Z</time>
      </trkpt>
      <trkpt lat="45.42317" lon="3.91986">
        <ele>849</ele>
        <time>2022-06-29T14:31:21Z</time>
      </trkpt>
      <trkpt lat="45.42325" lon="3.91984">
        <ele>853</ele>
        <time>2022-06-29T14:31:26Z</time>
      </trkpt>
      <trkpt lat="45.42331" lon="3.91978">
        <ele>853</ele>
        <time>2022-06-29T14:31:31Z</time>
      </trkpt>
      <trkpt lat="45.42338" lon="3.91972">
        <ele>853</ele>
        <time>2022-06-29T14:31:36Z</time>
      </trkpt>
      <trkpt lat="45.42344" lon="3.91968">
        <ele>853</ele>
        <time>2022-06-29T14:31:40Z</time>
      </trkpt>
      <trkpt lat="45.42351" lon="3.91964">
        <ele>858</ele>
        <time>2022-06-29T14:31:45Z</time>
      </trkpt>
      <trkpt lat="45.42357" lon="3.91959">
        <ele>858</ele>
        <time>2022-06-29T14:31:50Z</time>
      </trkpt>
      <trkpt lat="45.42363" lon="3.91957">
        <ele>858</ele>
        <time>2022-06-29T14:31:55Z</time>
      </trkpt>
      <trkpt lat="45.42368" lon="3.91952">
        <ele>858</ele>
        <time>2022-06-29T14:32:00Z</time>
      </trkpt>
      <trkpt lat="45.42375" lon="3.91948">
        <ele>858</ele>
        <time>2022-06-29T14:32:05Z</time>
      </trkpt>
      <trkpt lat="45.42382" lon="3.91944">
        <ele>862</ele>
        <time>2022-06-29T14:32:10Z</time>
      </trkpt>
      <trkpt lat="45.42387" lon="3.91939">
        <ele>862</ele>
        <time>2022-06-29T14:32:15Z</time>
      </trkpt>
      <trkpt lat="45.42393" lon="3.91934">
        <ele>862</ele>
        <time>2022-06-29T14:32:20Z</time>
      </trkpt>
      <trkpt lat="45.424" lon="3.91927">
        <ele>861</ele>
        <time>2022-06-29T14:32:25Z</time>
      </trkpt>
      <trkpt lat="45.42407" lon="3.91925">
        <ele>864</ele>
        <time>2022-06-29T14:32:30Z</time>
      </trkpt>
      <trkpt lat="45.42413" lon="3.91927">
        <ele>864</ele>
        <time>2022-06-29T14:32:35Z</time>
      </trkpt>
      <trkpt lat="45.42419" lon="3.91927">
        <ele>864</ele>
        <time>2022-06-29T14:32:39Z</time>
      </trkpt>
      <trkpt lat="45.42426" lon="3.91925">
        <ele>864</ele>
        <time>2022-06-29T14:32:44Z</time>
      </trkpt>
      <trkpt lat="45.42434" lon="3.91925">
        <ele>864</ele>
        <time>2022-06-29T14:32:49Z</time>
      </trkpt>
      <trkpt lat="45.4244" lon="3.91926">
        <ele>864</ele>
        <time>2022-06-29T14:32:53Z</time>
      </trkpt>
      <trkpt lat="45.42448" lon="3.91928">
        <ele>864</ele>
        <time>2022-06-29T14:32:58Z</time>
      </trkpt>
      <trkpt lat="45.42453" lon="3.9193">
        <ele>864</ele>
        <time>2022-06-29T14:33:02Z</time>
      </trkpt>
      <trkpt lat="45.42459" lon="3.91939">
        <ele>870</ele>
        <time>2022-06-29T14:33:07Z</time>
      </trkpt>
      <trkpt lat="45.42458" lon="3.9195">
        <ele>869</ele>
        <time>2022-06-29T14:33:12Z</time>
      </trkpt>
      <trkpt lat="45.42454" lon="3.9196">
        <ele>873</ele>
        <time>2022-06-29T14:33:16Z</time>
      </trkpt>
      <trkpt lat="45.42451" lon="3.91971">
        <ele>873</ele>
        <time>2022-06-29T14:33:21Z</time>
      </trkpt>
      <trkpt lat="45.42448" lon="3.9198">
        <ele>873</ele>
        <time>2022-06-29T14:33:26Z</time>
      </trkpt>
      <trkpt lat="45.42447" lon="3.9199">
        <ele>877</ele>
        <time>2022-06-29T14:33:31Z</time>
      </trkpt>
      <trkpt lat="45.42447" lon="3.91998">
        <ele>877</ele>
        <time>2022-06-29T14:33:36Z</time>
      </trkpt>
      <trkpt lat="45.42449" lon="3.92005">
        <ele>877</ele>
        <time>2022-06-29T14:33:40Z</time>
      </trkpt>
      <trkpt lat="45.42447" lon="3.92012">
        <ele>877</ele>
        <time>2022-06-29T14:33:45Z</time>
      </trkpt>
      <trkpt lat="45.42449" lon="3.92021">
        <ele>880</ele>
        <time>2022-06-29T14:33:50Z</time>
      </trkpt>
      <trkpt lat="45.4245" lon="3.92027">
        <ele>880</ele>
        <time>2022-06-29T14:33:54Z</time>
      </trkpt>
      <trkpt lat="45.42453" lon="3.92036">
        <ele>880</ele>
        <time>2022-06-29T14:33:59Z</time>
      </trkpt>
      <trkpt lat="45.42456" lon="3.92044">
        <ele>882</ele>
        <time>2022-06-29T14:34:04Z</time>
      </trkpt>
      <trkpt lat="45.42459" lon="3.92046">
        <ele>884</ele>
        <time>2022-06-29T14:34:09Z</time>
      </trkpt>
      <trkpt lat="45.42463" lon="3.92043">
        <ele>884</ele>
        <time>2022-06-29T14:34:14Z</time>
      </trkpt>
      <trkpt lat="45.42467" lon="3.92041">
        <ele>882</ele>
        <time>2022-06-29T14:34:19Z</time>
      </trkpt>
      <trkpt lat="45.42473" lon="3.92039">
        <ele>882</ele>
        <time>2022-06-29T14:34:24Z</time>
      </trkpt>
      <trkpt lat="45.42477" lon="3.92038">
        <ele>882</ele>
        <time>2022-06-29T14:34:28Z</time>
      </trkpt>
      <trkpt lat="45.42482" lon="3.92038">
        <ele>882</ele>
        <time>2022-06-29T14:34:33Z</time>
      </trkpt>
      <trkpt lat="45.42486" lon="3.9204">
        <ele>882</ele>
        <time>2022-06-29T14:34:37Z</time>
      </trkpt>
      <trkpt lat="45.42488" lon="3.92039">
        <ele>882</ele>
        <time>2022-06-29T14:34:42Z</time>
      </trkpt>
      <trkpt lat="45.42497" lon="3.92037">
        <ele>882</ele>
        <time>2022-06-29T14:34:47Z</time>
      </trkpt>
      <trkpt lat="45.42503" lon="3.92037">
        <ele>882</ele>
        <time>2022-06-29T14:34:52Z</time>
      </trkpt>
      <trkpt lat="45.42512" lon="3.92037">
        <ele>882</ele>
        <time>2022-06-29T14:34:57Z</time>
      </trkpt>
      <trkpt lat="45.42521" lon="3.92033">
        <ele>881</ele>
        <time>2022-06-29T14:35:02Z</time>
      </trkpt>
      <trkpt lat="45.42531" lon="3.92033">
        <ele>881</ele>
        <time>2022-06-29T14:35:07Z</time>
      </trkpt>
      <trkpt lat="45.42539" lon="3.92038">
        <ele>881</ele>
        <time>2022-06-29T14:35:11Z</time>
      </trkpt>
      <trkpt lat="45.42552" lon="3.92045">
        <ele>881</ele>
        <time>2022-06-29T14:35:16Z</time>
      </trkpt>
      <trkpt lat="45.4256" lon="3.92047">
        <ele>881</ele>
        <time>2022-06-29T14:35:21Z</time>
      </trkpt>
      <trkpt lat="45.42569" lon="3.92051">
        <ele>881</ele>
        <time>2022-06-29T14:35:26Z</time>
      </trkpt>
      <trkpt lat="45.42571" lon="3.92053">
        <ele>880</ele>
        <time>2022-06-29T14:35:30Z</time>
      </trkpt>
      <trkpt lat="45.42578" lon="3.92066">
        <ele>880</ele>
        <time>2022-06-29T14:35:35Z</time>
      </trkpt>
      <trkpt lat="45.42581" lon="3.92079">
        <ele>882</ele>
        <time>2022-06-29T14:35:39Z</time>
      </trkpt>
      <trkpt lat="45.42582" lon="3.92092">
        <ele>882</ele>
        <time>2022-06-29T14:35:44Z</time>
      </trkpt>
      <trkpt lat="45.42582" lon="3.92101">
        <ele>883</ele>
        <time>2022-06-29T14:35:48Z</time>
      </trkpt>
      <trkpt lat="45.42581" lon="3.92112">
        <ele>883</ele>
        <time>2022-06-29T14:35:52Z</time>
      </trkpt>
      <trkpt lat="45.42581" lon="3.92122">
        <ele>883</ele>
        <time>2022-06-29T14:35:57Z</time>
      </trkpt>
      <trkpt lat="45.4258" lon="3.92131">
        <ele>886</ele>
        <time>2022-06-29T14:36:02Z</time>
      </trkpt>
      <trkpt lat="45.42579" lon="3.92139">
        <ele>886</ele>
        <time>2022-06-29T14:36:06Z</time>
      </trkpt>
      <trkpt lat="45.42575" lon="3.9215">
        <ele>886</ele>
        <time>2022-06-29T14:36:11Z</time>
      </trkpt>
      <trkpt lat="45.42571" lon="3.92162">
        <ele>889</ele>
        <time>2022-06-29T14:36:16Z</time>
      </trkpt>
      <trkpt lat="45.42567" lon="3.92167">
        <ele>893</ele>
        <time>2022-06-29T14:36:21Z</time>
      </trkpt>
      <trkpt lat="45.42566" lon="3.92168">
        <ele>893</ele>
        <time>2022-06-29T14:36:25Z</time>
      </trkpt>
      <trkpt lat="45.42561" lon="3.9217">
        <ele>893</ele>
        <time>2022-06-29T14:36:29Z</time>
      </trkpt>
      <trkpt lat="45.42552" lon="3.92174">
        <ele>893</ele>
        <time>2022-06-29T14:36:34Z</time>
      </trkpt>
      <trkpt lat="45.42543" lon="3.92179">
        <ele>893</ele>
        <time>2022-06-29T14:36:39Z</time>
      </trkpt>
      <trkpt lat="45.42534" lon="3.92182">
        <ele>898</ele>
        <time>2022-06-29T14:36:44Z</time>
      </trkpt>
      <trkpt lat="45.42527" lon="3.92185">
        <ele>898</ele>
        <time>2022-06-29T14:36:48Z</time>
      </trkpt>
      <trkpt lat="45.42521" lon="3.92186">
        <ele>898</ele>
        <time>2022-06-29T14:36:52Z</time>
      </trkpt>
      <trkpt lat="45.42515" lon="3.92189">
        <ele>898</ele>
        <time>2022-06-29T14:36:56Z</time>
      </trkpt>
      <trkpt lat="45.42508" lon="3.9219">
        <ele>901</ele>
        <time>2022-06-29T14:37:00Z</time>
      </trkpt>
      <trkpt lat="45.42504" lon="3.92194">
        <ele>901</ele>
        <time>2022-06-29T14:37:05Z</time>
      </trkpt>
      <trkpt lat="45.42503" lon="3.92197">
        <ele>901</ele>
        <time>2022-06-29T14:37:10Z</time>
      </trkpt>
      <trkpt lat="45.42499" lon="3.92202">
        <ele>901</ele>
        <time>2022-06-29T14:37:15Z</time>
      </trkpt>
      <trkpt lat="45.42498" lon="3.9221">
        <ele>905</ele>
        <time>2022-06-29T14:37:19Z</time>
      </trkpt>
      <trkpt lat="45.425" lon="3.92221">
        <ele>905</ele>
        <time>2022-06-29T14:37:24Z</time>
      </trkpt>
      <trkpt lat="45.42501" lon="3.92223">
        <ele>905</ele>
        <time>2022-06-29T14:37:28Z</time>
      </trkpt>
      <trkpt lat="45.42502" lon="3.92225">
        <ele>905</ele>
        <time>2022-06-29T14:37:33Z</time>
      </trkpt>
      <trkpt lat="45.42505" lon="3.92229">
        <ele>905</ele>
        <time>2022-06-29T14:37:38Z</time>
      </trkpt>
      <trkpt lat="45.42514" lon="3.92238">
        <ele>908</ele>
        <time>2022-06-29T14:37:42Z</time>
      </trkpt>
      <trkpt lat="45.42523" lon="3.9225">
        <ele>901</ele>
        <time>2022-06-29T14:37:47Z</time>
      </trkpt>
      <trkpt lat="45.42526" lon="3.9226">
        <ele>901</ele>
        <time>2022-06-29T14:37:52Z</time>
      </trkpt>
      <trkpt lat="45.42528" lon="3.92269">
        <ele>904</ele>
        <time>2022-06-29T14:37:57Z</time>
      </trkpt>
      <trkpt lat="45.42529" lon="3.92273">
        <ele>904</ele>
        <time>2022-06-29T14:38:01Z</time>
      </trkpt>
      <trkpt lat="45.42529" lon="3.92284">
        <ele>904</ele>
        <time>2022-06-29T14:38:06Z</time>
      </trkpt>
      <trkpt lat="45.42531" lon="3.92294">
        <ele>906</ele>
        <time>2022-06-29T14:38:10Z</time>
      </trkpt>
      <trkpt lat="45.42535" lon="3.92306">
        <ele>906</ele>
        <time>2022-06-29T14:38:15Z</time>
      </trkpt>
      <trkpt lat="45.42538" lon="3.92314">
        <ele>906</ele>
        <time>2022-06-29T14:38:19Z</time>
      </trkpt>
      <trkpt lat="45.42541" lon="3.92323">
        <ele>910</ele>
        <time>2022-06-29T14:38:24Z</time>
      </trkpt>
      <trkpt lat="45.42544" lon="3.92334">
        <ele>906</ele>
        <time>2022-06-29T14:38:29Z</time>
      </trkpt>
      <trkpt lat="45.42548" lon="3.92342">
        <ele>906</ele>
        <time>2022-06-29T14:38:34Z</time>
      </trkpt>
      <trkpt lat="45.42549" lon="3.92349">
        <ele>911</ele>
        <time>2022-06-29T14:38:38Z</time>
      </trkpt>
      <trkpt lat="45.42551" lon="3.92357">
        <ele>911</ele>
        <time>2022-06-29T14:38:43Z</time>
      </trkpt>
      <trkpt lat="45.42553" lon="3.92367">
        <ele>911</ele>
        <time>2022-06-29T14:38:48Z</time>
      </trkpt>
      <trkpt lat="45.42555" lon="3.92377">
        <ele>915</ele>
        <time>2022-06-29T14:38:53Z</time>
      </trkpt>
      <trkpt lat="45.42554" lon="3.92384">
        <ele>915</ele>
        <time>2022-06-29T14:38:58Z</time>
      </trkpt>
      <trkpt lat="45.4255" lon="3.9239">
        <ele>915</ele>
        <time>2022-06-29T14:39:03Z</time>
      </trkpt>
      <trkpt lat="45.42545" lon="3.92399">
        <ele>915</ele>
        <time>2022-06-29T14:39:08Z</time>
      </trkpt>
      <trkpt lat="45.42537" lon="3.92406">
        <ele>920</ele>
        <time>2022-06-29T14:39:12Z</time>
      </trkpt>
      <trkpt lat="45.42528" lon="3.92414">
        <ele>920</ele>
        <time>2022-06-29T14:39:17Z</time>
      </trkpt>
      <trkpt lat="45.42524" lon="3.9242">
        <ele>920</ele>
        <time>2022-06-29T14:39:21Z</time>
      </trkpt>
      <trkpt lat="45.42519" lon="3.92425">
        <ele>920</ele>
        <time>2022-06-29T14:39:26Z</time>
      </trkpt>
      <trkpt lat="45.42513" lon="3.9243">
        <ele>924</ele>
        <time>2022-06-29T14:39:30Z</time>
      </trkpt>
      <trkpt lat="45.42507" lon="3.92435">
        <ele>925</ele>
        <time>2022-06-29T14:39:35Z</time>
      </trkpt>
      <trkpt lat="45.425" lon="3.9244">
        <ele>925</ele>
        <time>2022-06-29T14:39:39Z</time>
      </trkpt>
      <trkpt lat="45.42492" lon="3.92443">
        <ele>925</ele>
        <time>2022-06-29T14:39:44Z</time>
      </trkpt>
      <trkpt lat="45.42487" lon="3.92444">
        <ele>925</ele>
        <time>2022-06-29T14:39:48Z</time>
      </trkpt>
      <trkpt lat="45.42479" lon="3.92447">
        <ele>925</ele>
        <time>2022-06-29T14:39:53Z</time>
      </trkpt>
      <trkpt lat="45.42471" lon="3.92448">
        <ele>925</ele>
        <time>2022-06-29T14:39:58Z</time>
      </trkpt>
      <trkpt lat="45.42465" lon="3.92446">
        <ele>925</ele>
        <time>2022-06-29T14:40:02Z</time>
      </trkpt>
      <trkpt lat="45.42458" lon="3.92448">
        <ele>922</ele>
        <time>2022-06-29T14:40:07Z</time>
      </trkpt>
      <trkpt lat="45.42452" lon="3.92451">
        <ele>922</ele>
        <time>2022-06-29T14:40:12Z</time>
      </trkpt>
      <trkpt lat="45.42449" lon="3.92453">
        <ele>922</ele>
        <time>2022-06-29T14:40:16Z</time>
      </trkpt>
      <trkpt lat="45.42445" lon="3.92456">
        <ele>922</ele>
        <time>2022-06-29T14:40:20Z</time>
      </trkpt>
      <trkpt lat="45.42439" lon="3.92462">
        <ele>923</ele>
        <time>2022-06-29T14:40:25Z</time>
      </trkpt>
      <trkpt lat="45.42431" lon="3.92465">
        <ele>923</ele>
        <time>2022-06-29T14:40:30Z</time>
      </trkpt>
      <trkpt lat="45.42423" lon="3.92466">
        <ele>921</ele>
        <time>2022-06-29T14:40:35Z</time>
      </trkpt>
      <trkpt lat="45.42413" lon="3.92466">
        <ele>921</ele>
        <time>2022-06-29T14:40:40Z</time>
      </trkpt>
      <trkpt lat="45.42407" lon="3.92466">
        <ele>921</ele>
        <time>2022-06-29T14:40:44Z</time>
      </trkpt>
      <trkpt lat="45.424" lon="3.92468">
        <ele>923</ele>
        <time>2022-06-29T14:40:49Z</time>
      </trkpt>
      <trkpt lat="45.42391" lon="3.92471">
        <ele>923</ele>
        <time>2022-06-29T14:40:54Z</time>
      </trkpt>
      <trkpt lat="45.42382" lon="3.92473">
        <ele>923</ele>
        <time>2022-06-29T14:40:59Z</time>
      </trkpt>
      <trkpt lat="45.42373" lon="3.92476">
        <ele>923</ele>
        <time>2022-06-29T14:41:04Z</time>
      </trkpt>
      <trkpt lat="45.42366" lon="3.92479">
        <ele>923</ele>
        <time>2022-06-29T14:41:09Z</time>
      </trkpt>
      <trkpt lat="45.4236" lon="3.9248">
        <ele>923</ele>
        <time>2022-06-29T14:41:13Z</time>
      </trkpt>
      <trkpt lat="45.42354" lon="3.92483">
        <ele>923</ele>
        <time>2022-06-29T14:41:18Z</time>
      </trkpt>
      <trkpt lat="45.42348" lon="3.92485">
        <ele>923</ele>
        <time>2022-06-29T14:41:22Z</time>
      </trkpt>
      <trkpt lat="45.42342" lon="3.92488">
        <ele>925</ele>
        <time>2022-06-29T14:41:27Z</time>
      </trkpt>
      <trkpt lat="45.42335" lon="3.92491">
        <ele>925</ele>
        <time>2022-06-29T14:41:31Z</time>
      </trkpt>
      <trkpt lat="45.42328" lon="3.92493">
        <ele>925</ele>
        <time>2022-06-29T14:41:35Z</time>
      </trkpt>
      <trkpt lat="45.42322" lon="3.92497">
        <ele>925</ele>
        <time>2022-06-29T14:41:40Z</time>
      </trkpt>
      <trkpt lat="45.4232" lon="3.92498">
        <ele>925</ele>
        <time>2022-06-29T14:41:44Z</time>
      </trkpt>
      <trkpt lat="45.42319" lon="3.92498">
        <ele>922</ele>
        <time>2022-06-29T14:41:49Z</time>
      </trkpt>
      <trkpt lat="45.42313" lon="3.92501">
        <ele>922</ele>
        <time>2022-06-29T14:41:54Z</time>
      </trkpt>
      <trkpt lat="45.42303" lon="3.92504">
        <ele>922</ele>
        <time>2022-06-29T14:41:59Z</time>
      </trkpt>
      <trkpt lat="45.42295" lon="3.92507">
        <ele>922</ele>
        <time>2022-06-29T14:42:03Z</time>
      </trkpt>
      <trkpt lat="45.42285" lon="3.92511">
        <ele>920</ele>
        <time>2022-06-29T14:42:08Z</time>
      </trkpt>
      <trkpt lat="45.42276" lon="3.92516">
        <ele>921</ele>
        <time>2022-06-29T14:42:13Z</time>
      </trkpt>
      <trkpt lat="45.42269" lon="3.92524">
        <ele>921</ele>
        <time>2022-06-29T14:42:18Z</time>
      </trkpt>
      <trkpt lat="45.42262" lon="3.92532">
        <ele>918</ele>
        <time>2022-06-29T14:42:23Z</time>
      </trkpt>
      <trkpt lat="45.42255" lon="3.92538">
        <ele>918</ele>
        <time>2022-06-29T14:42:28Z</time>
      </trkpt>
      <trkpt lat="45.42249" lon="3.92542">
        <ele>919</ele>
        <time>2022-06-29T14:42:32Z</time>
      </trkpt>
      <trkpt lat="45.42242" lon="3.92546">
        <ele>919</ele>
        <time>2022-06-29T14:42:37Z</time>
      </trkpt>
      <trkpt lat="45.42234" lon="3.92546">
        <ele>916</ele>
        <time>2022-06-29T14:42:42Z</time>
      </trkpt>
      <trkpt lat="45.42226" lon="3.92544">
        <ele>916</ele>
        <time>2022-06-29T14:42:47Z</time>
      </trkpt>
      <trkpt lat="45.42219" lon="3.92543">
        <ele>916</ele>
        <time>2022-06-29T14:42:51Z</time>
      </trkpt>
      <trkpt lat="45.42211" lon="3.9254">
        <ele>915</ele>
        <time>2022-06-29T14:42:56Z</time>
      </trkpt>
      <trkpt lat="45.42205" lon="3.92538">
        <ele>912</ele>
        <time>2022-06-29T14:43:00Z</time>
      </trkpt>
      <trkpt lat="45.42198" lon="3.92538">
        <ele>912</ele>
        <time>2022-06-29T14:43:05Z</time>
      </trkpt>
      <trkpt lat="45.4219" lon="3.92539">
        <ele>912</ele>
        <time>2022-06-29T14:43:10Z</time>
      </trkpt>
      <trkpt lat="45.42182" lon="3.92538">
        <ele>912</ele>
        <time>2022-06-29T14:43:15Z</time>
      </trkpt>
      <trkpt lat="45.42173" lon="3.92541">
        <ele>911</ele>
        <time>2022-06-29T14:43:20Z</time>
      </trkpt>
      <trkpt lat="45.42165" lon="3.92541">
        <ele>911</ele>
        <time>2022-06-29T14:43:25Z</time>
      </trkpt>
      <trkpt lat="45.42156" lon="3.92543">
        <ele>912</ele>
        <time>2022-06-29T14:43:30Z</time>
      </trkpt>
      <trkpt lat="45.42149" lon="3.92543">
        <ele>915</ele>
        <time>2022-06-29T14:43:35Z</time>
      </trkpt>
      <trkpt lat="45.42141" lon="3.92544">
        <ele>915</ele>
        <time>2022-06-29T14:43:40Z</time>
      </trkpt>
      <trkpt lat="45.42133" lon="3.92545">
        <ele>915</ele>
        <time>2022-06-29T14:43:45Z</time>
      </trkpt>
      <trkpt lat="45.42126" lon="3.92544">
        <ele>915</ele>
        <time>2022-06-29T14:43:49Z</time>
      </trkpt>
      <trkpt lat="45.42119" lon="3.92545">
        <ele>918</ele>
        <time>2022-06-29T14:43:53Z</time>
      </trkpt>
      <trkpt lat="45.42113" lon="3.92546">
        <ele>918</ele>
        <time>2022-06-29T14:43:58Z</time>
      </trkpt>
      <trkpt lat="45.42104" lon="3.92548">
        <ele>918</ele>
        <time>2022-06-29T14:44:03Z</time>
      </trkpt>
      <trkpt lat="45.42097" lon="3.92547">
        <ele>920</ele>
        <time>2022-06-29T14:44:08Z</time>
      </trkpt>
      <trkpt lat="45.4209" lon="3.9255">
        <ele>920</ele>
        <time>2022-06-29T14:44:13Z</time>
      </trkpt>
      <trkpt lat="45.42084" lon="3.92549">
        <ele>920</ele>
        <time>2022-06-29T14:44:17Z</time>
      </trkpt>
      <trkpt lat="45.42076" lon="3.92551">
        <ele>920</ele>
        <time>2022-06-29T14:44:22Z</time>
      </trkpt>
      <trkpt lat="45.4207" lon="3.92553">
        <ele>920</ele>
        <time>2022-06-29T14:44:27Z</time>
      </trkpt>
      <trkpt lat="45.42063" lon="3.92556">
        <ele>919</ele>
        <time>2022-06-29T14:44:31Z</time>
      </trkpt>
      <trkpt lat="45.42055" lon="3.92559">
        <ele>919</ele>
        <time>2022-06-29T14:44:35Z</time>
      </trkpt>
      <trkpt lat="45.42047" lon="3.92563">
        <ele>919</ele>
        <time>2022-06-29T14:44:40Z</time>
      </trkpt>
      <trkpt lat="45.4204" lon="3.92564">
        <ele>917</ele>
        <time>2022-06-29T14:44:45Z</time>
      </trkpt>
      <trkpt lat="45.42033" lon="3.92564">
        <ele>917</ele>
        <time>2022-06-29T14:44:50Z</time>
      </trkpt>
      <trkpt lat="45.42027" lon="3.92567">
        <ele>917</ele>
        <time>2022-06-29T14:44:54Z</time>
      </trkpt>
      <trkpt lat="45.42019" lon="3.92566">
        <ele>917</ele>
        <time>2022-06-29T14:44:59Z</time>
      </trkpt>
      <trkpt lat="45.42014" lon="3.92568">
        <ele>915</ele>
        <time>2022-06-29T14:45:03Z</time>
      </trkpt>
      <trkpt lat="45.42007" lon="3.9257">
        <ele>912</ele>
        <time>2022-06-29T14:45:08Z</time>
      </trkpt>
      <trkpt lat="45.41999" lon="3.92575">
        <ele>912</ele>
        <time>2022-06-29T14:45:13Z</time>
      </trkpt>
      <trkpt lat="45.41994" lon="3.92578">
        <ele>912</ele>
        <time>2022-06-29T14:45:17Z</time>
      </trkpt>
      <trkpt lat="45.41986" lon="3.92585">
        <ele>912</ele>
        <time>2022-06-29T14:45:22Z</time>
      </trkpt>
      <trkpt lat="45.41981" lon="3.92587">
        <ele>908</ele>
        <time>2022-06-29T14:45:26Z</time>
      </trkpt>
      <trkpt lat="45.41973" lon="3.92591">
        <ele>908</ele>
        <time>2022-06-29T14:45:31Z</time>
      </trkpt>
      <trkpt lat="45.41967" lon="3.92595">
        <ele>908</ele>
        <time>2022-06-29T14:45:35Z</time>
      </trkpt>
      <trkpt lat="45.41959" lon="3.92599">
        <ele>907</ele>
        <time>2022-06-29T14:45:40Z</time>
      </trkpt>
      <trkpt lat="45.41951" lon="3.92601">
        <ele>904</ele>
        <time>2022-06-29T14:45:45Z</time>
      </trkpt>
      <trkpt lat="45.41944" lon="3.92601">
        <ele>904</ele>
        <time>2022-06-29T14:45:50Z</time>
      </trkpt>
      <trkpt lat="45.41939" lon="3.92601">
        <ele>904</ele>
        <time>2022-06-29T14:45:54Z</time>
      </trkpt>
      <trkpt lat="45.41932" lon="3.92603">
        <ele>904</ele>
        <time>2022-06-29T14:45:59Z</time>
      </trkpt>
      <trkpt lat="45.41926" lon="3.92604">
        <ele>902</ele>
        <time>2022-06-29T14:46:03Z</time>
      </trkpt>
      <trkpt lat="45.4192" lon="3.92605">
        <ele>902</ele>
        <time>2022-06-29T14:46:07Z</time>
      </trkpt>
      <trkpt lat="45.41913" lon="3.92608">
        <ele>902</ele>
        <time>2022-06-29T14:46:12Z</time>
      </trkpt>
      <trkpt lat="45.41907" lon="3.92612">
        <ele>902</ele>
        <time>2022-06-29T14:46:17Z</time>
      </trkpt>
      <trkpt lat="45.41901" lon="3.92619">
        <ele>898</ele>
        <time>2022-06-29T14:46:22Z</time>
      </trkpt>
      <trkpt lat="45.41896" lon="3.92628">
        <ele>897</ele>
        <time>2022-06-29T14:46:27Z</time>
      </trkpt>
      <trkpt lat="45.41893" lon="3.92638">
        <ele>897</ele>
        <time>2022-06-29T14:46:32Z</time>
      </trkpt>
      <trkpt lat="45.41888" lon="3.92647">
        <ele>897</ele>
        <time>2022-06-29T14:46:37Z</time>
      </trkpt>
      <trkpt lat="45.41883" lon="3.92651">
        <ele>897</ele>
        <time>2022-06-29T14:46:41Z</time>
      </trkpt>
      <trkpt lat="45.41877" lon="3.92656">
        <ele>897</ele>
        <time>2022-06-29T14:46:46Z</time>
      </trkpt>
      <trkpt lat="45.41873" lon="3.92659">
        <ele>893</ele>
        <time>2022-06-29T14:46:50Z</time>
      </trkpt>
      <trkpt lat="45.41867" lon="3.92664">
        <ele>893</ele>
        <time>2022-06-29T14:46:55Z</time>
      </trkpt>
      <trkpt lat="45.41861" lon="3.92672">
        <ele>893</ele>
        <time>2022-06-29T14:47:00Z</time>
      </trkpt>
      <trkpt lat="45.41856" lon="3.92683">
        <ele>894</ele>
        <time>2022-06-29T14:47:05Z</time>
      </trkpt>
      <trkpt lat="45.4185" lon="3.92683">
        <ele>894</ele>
        <time>2022-06-29T14:47:10Z</time>
      </trkpt>
      <trkpt lat="45.41843" lon="3.92678">
        <ele>890</ele>
        <time>2022-06-29T14:47:15Z</time>
      </trkpt>
      <trkpt lat="45.41838" lon="3.92678">
        <ele>890</ele>
        <time>2022-06-29T14:47:19Z</time>
      </trkpt>
      <trkpt lat="45.41834" lon="3.92684">
        <ele>891</ele>
        <time>2022-06-29T14:47:24Z</time>
      </trkpt>
      <trkpt lat="45.41832" lon="3.92693">
        <ele>891</ele>
        <time>2022-06-29T14:47:28Z</time>
      </trkpt>
      <trkpt lat="45.41828" lon="3.92703">
        <ele>891</ele>
        <time>2022-06-29T14:47:33Z</time>
      </trkpt>
      <trkpt lat="45.41824" lon="3.92711">
        <ele>891</ele>
        <time>2022-06-29T14:47:38Z</time>
      </trkpt>
      <trkpt lat="45.41819" lon="3.9272">
        <ele>889</ele>
        <time>2022-06-29T14:47:43Z</time>
      </trkpt>
      <trkpt lat="45.41816" lon="3.9273">
        <ele>889</ele>
        <time>2022-06-29T14:47:48Z</time>
      </trkpt>
      <trkpt lat="45.41812" lon="3.92738">
        <ele>889</ele>
        <time>2022-06-29T14:47:53Z</time>
      </trkpt>
      <trkpt lat="45.41808" lon="3.92745">
        <ele>889</ele>
        <time>2022-06-29T14:47:58Z</time>
      </trkpt>
      <trkpt lat="45.41803" lon="3.92752">
        <ele>889</ele>
        <time>2022-06-29T14:48:02Z</time>
      </trkpt>
      <trkpt lat="45.41798" lon="3.92759">
        <ele>889</ele>
        <time>2022-06-29T14:48:07Z</time>
      </trkpt>
      <trkpt lat="45.41792" lon="3.92767">
        <ele>888</ele>
        <time>2022-06-29T14:48:12Z</time>
      </trkpt>
      <trkpt lat="45.41787" lon="3.92774">
        <ele>888</ele>
        <time>2022-06-29T14:48:17Z</time>
      </trkpt>
      <trkpt lat="45.41784" lon="3.92782">
        <ele>888</ele>
        <time>2022-06-29T14:48:22Z</time>
      </trkpt>
      <trkpt lat="45.41781" lon="3.92788">
        <ele>888</ele>
        <time>2022-06-29T14:48:26Z</time>
      </trkpt>
      <trkpt lat="45.41778" lon="3.92795">
        <ele>887</ele>
        <time>2022-06-29T14:48:30Z</time>
      </trkpt>
      <trkpt lat="45.41775" lon="3.92805">
        <ele>887</ele>
        <time>2022-06-29T14:48:35Z</time>
      </trkpt>
      <trkpt lat="45.41771" lon="3.92813">
        <ele>887</ele>
        <time>2022-06-29T14:48:40Z</time>
      </trkpt>
      <trkpt lat="45.41765" lon="3.92819">
        <ele>887</ele>
        <time>2022-06-29T14:48:44Z</time>
      </trkpt>
      <trkpt lat="45.41756" lon="3.92817">
        <ele>886</ele>
        <time>2022-06-29T14:48:49Z</time>
      </trkpt>
      <trkpt lat="45.41748" lon="3.92815">
        <ele>886</ele>
        <time>2022-06-29T14:48:54Z</time>
      </trkpt>
      <trkpt lat="45.41742" lon="3.92812">
        <ele>886</ele>
        <time>2022-06-29T14:48:58Z</time>
      </trkpt>
      <trkpt lat="45.41734" lon="3.9281">
        <ele>886</ele>
        <time>2022-06-29T14:49:03Z</time>
      </trkpt>
      <trkpt lat="45.41726" lon="3.92808">
        <ele>886</ele>
        <time>2022-06-29T14:49:08Z</time>
      </trkpt>
      <trkpt lat="45.4172" lon="3.92808">
        <ele>886</ele>
        <time>2022-06-29T14:49:12Z</time>
      </trkpt>
      <trkpt lat="45.41714" lon="3.92807">
        <ele>886</ele>
        <time>2022-06-29T14:49:16Z</time>
      </trkpt>
      <trkpt lat="45.41706" lon="3.92806">
        <ele>883</ele>
        <time>2022-06-29T14:49:21Z</time>
      </trkpt>
      <trkpt lat="45.41698" lon="3.92806">
        <ele>883</ele>
        <time>2022-06-29T14:49:26Z</time>
      </trkpt>
      <trkpt lat="45.4169" lon="3.92806">
        <ele>883</ele>
        <time>2022-06-29T14:49:31Z</time>
      </trkpt>
      <trkpt lat="45.41684" lon="3.92807">
        <ele>883</ele>
        <time>2022-06-29T14:49:35Z</time>
      </trkpt>
      <trkpt lat="45.41679" lon="3.92809">
        <ele>882</ele>
        <time>2022-06-29T14:49:39Z</time>
      </trkpt>
      <trkpt lat="45.41673" lon="3.92815">
        <ele>882</ele>
        <time>2022-06-29T14:49:44Z</time>
      </trkpt>
      <trkpt lat="45.41667" lon="3.92823">
        <ele>882</ele>
        <time>2022-06-29T14:49:49Z</time>
      </trkpt>
      <trkpt lat="45.41663" lon="3.92831">
        <ele>882</ele>
        <time>2022-06-29T14:49:53Z</time>
      </trkpt>
      <trkpt lat="45.41661" lon="3.92838">
        <ele>882</ele>
        <time>2022-06-29T14:49:57Z</time>
      </trkpt>
      <trkpt lat="45.4166" lon="3.92848">
        <ele>882</ele>
        <time>2022-06-29T14:50:02Z</time>
      </trkpt>
      <trkpt lat="45.41658" lon="3.92858">
        <ele>882</ele>
        <time>2022-06-29T14:50:07Z</time>
      </trkpt>
      <trkpt lat="45.41656" lon="3.92859">
        <ele>882</ele>
        <time>2022-06-29T14:50:11Z</time>
      </trkpt>
      <trkpt lat="45.41656" lon="3.92867">
        <ele>882</ele>
        <time>2022-06-29T14:50:15Z</time>
      </trkpt>
      <trkpt lat="45.41655" lon="3.92886">
        <ele>883</ele>
        <time>2022-06-29T14:50:19Z</time>
      </trkpt>
      <trkpt lat="45.41647" lon="3.92912">
        <ele>883</ele>
        <time>2022-06-29T14:50:24Z</time>
      </trkpt>
      <trkpt lat="45.41634" lon="3.92943">
        <ele>884</ele>
        <time>2022-06-29T14:50:29Z</time>
      </trkpt>
      <trkpt lat="45.41623" lon="3.92971">
        <ele>883</ele>
        <time>2022-06-29T14:50:33Z</time>
      </trkpt>
      <trkpt lat="45.41612" lon="3.93006">
        <ele>883</ele>
        <time>2022-06-29T14:50:38Z</time>
      </trkpt>
      <trkpt lat="45.41603" lon="3.93045">
        <ele>883</ele>
        <time>2022-06-29T14:50:43Z</time>
      </trkpt>
      <trkpt lat="45.41598" lon="3.93083">
        <ele>884</ele>
        <time>2022-06-29T14:50:48Z</time>
      </trkpt>
      <trkpt lat="45.41596" lon="3.93112">
        <ele>881</ele>
        <time>2022-06-29T14:50:52Z</time>
      </trkpt>
      <trkpt lat="45.41593" lon="3.93147">
        <ele>881</ele>
        <time>2022-06-29T14:50:57Z</time>
      </trkpt>
      <trkpt lat="45.4159" lon="3.93174">
        <ele>882</ele>
        <time>2022-06-29T14:51:01Z</time>
      </trkpt>
      <trkpt lat="45.41576" lon="3.93203">
        <ele>883</ele>
        <time>2022-06-29T14:51:06Z</time>
      </trkpt>
      <trkpt lat="45.41566" lon="3.93219">
        <ele>891</ele>
        <time>2022-06-29T14:51:10Z</time>
      </trkpt>
      <trkpt lat="45.41556" lon="3.93236">
        <ele>891</ele>
        <time>2022-06-29T14:51:14Z</time>
      </trkpt>
      <trkpt lat="45.41546" lon="3.93256">
        <ele>893</ele>
        <time>2022-06-29T14:51:19Z</time>
      </trkpt>
      <trkpt lat="45.4154" lon="3.93277">
        <ele>902</ele>
        <time>2022-06-29T14:51:23Z</time>
      </trkpt>
      <trkpt lat="45.4153" lon="3.93308">
        <ele>903</ele>
        <time>2022-06-29T14:51:28Z</time>
      </trkpt>
      <trkpt lat="45.41519" lon="3.93341">
        <ele>904</ele>
        <time>2022-06-29T14:51:33Z</time>
      </trkpt>
      <trkpt lat="45.4151" lon="3.93365">
        <ele>908</ele>
        <time>2022-06-29T14:51:38Z</time>
      </trkpt>
      <trkpt lat="45.41505" lon="3.93379">
        <ele>909</ele>
        <time>2022-06-29T14:51:43Z</time>
      </trkpt>
      <trkpt lat="45.415" lon="3.9339">
        <ele>909</ele>
        <time>2022-06-29T14:51:48Z</time>
      </trkpt>
      <trkpt lat="45.41497" lon="3.93398">
        <ele>909</ele>
        <time>2022-06-29T14:51:53Z</time>
      </trkpt>
      <trkpt lat="45.41495" lon="3.93408">
        <ele>909</ele>
        <time>2022-06-29T14:51:58Z</time>
      </trkpt>
      <trkpt lat="45.41495" lon="3.93419">
        <ele>909</ele>
        <time>2022-06-29T14:52:02Z</time>
      </trkpt>
      <trkpt lat="45.41494" lon="3.93429">
        <ele>909</ele>
        <time>2022-06-29T14:52:07Z</time>
      </trkpt>
      <trkpt lat="45.41492" lon="3.93442">
        <ele>910</ele>
        <time>2022-06-29T14:52:11Z</time>
      </trkpt>
      <trkpt lat="45.41488" lon="3.93464">
        <ele>910</ele>
        <time>2022-06-29T14:52:16Z</time>
      </trkpt>
      <trkpt lat="45.4148" lon="3.9349">
        <ele>915</ele>
        <time>2022-06-29T14:52:21Z</time>
      </trkpt>
      <trkpt lat="45.41474" lon="3.93521">
        <ele>917</ele>
        <time>2022-06-29T14:52:26Z</time>
      </trkpt>
      <trkpt lat="45.41464" lon="3.93549">
        <ele>920</ele>
        <time>2022-06-29T14:52:30Z</time>
      </trkpt>
      <trkpt lat="45.41455" lon="3.93573">
        <ele>927</ele>
        <time>2022-06-29T14:52:35Z</time>
      </trkpt>
      <trkpt lat="45.41449" lon="3.93595">
        <ele>927</ele>
        <time>2022-06-29T14:52:39Z</time>
      </trkpt>
      <trkpt lat="45.4144" lon="3.93621">
        <ele>926</ele>
        <time>2022-06-29T14:52:44Z</time>
      </trkpt>
      <trkpt lat="45.41431" lon="3.93639">
        <ele>924</ele>
        <time>2022-06-29T14:52:48Z</time>
      </trkpt>
      <trkpt lat="45.41421" lon="3.93654">
        <ele>928</ele>
        <time>2022-06-29T14:52:52Z</time>
      </trkpt>
      <trkpt lat="45.41407" lon="3.93674">
        <ele>928</ele>
        <time>2022-06-29T14:52:57Z</time>
      </trkpt>
      <trkpt lat="45.41391" lon="3.93696">
        <ele>934</ele>
        <time>2022-06-29T14:53:01Z</time>
      </trkpt>
      <trkpt lat="45.41377" lon="3.93726">
        <ele>933</ele>
        <time>2022-06-29T14:53:06Z</time>
      </trkpt>
      <trkpt lat="45.41365" lon="3.93746">
        <ele>941</ele>
        <time>2022-06-29T14:53:10Z</time>
      </trkpt>
      <trkpt lat="45.41351" lon="3.93772">
        <ele>942</ele>
        <time>2022-06-29T14:53:14Z</time>
      </trkpt>
      <trkpt lat="45.41336" lon="3.93795">
        <ele>950</ele>
        <time>2022-06-29T14:53:18Z</time>
      </trkpt>
      <trkpt lat="45.41318" lon="3.93818">
        <ele>955</ele>
        <time>2022-06-29T14:53:23Z</time>
      </trkpt>
      <trkpt lat="45.41307" lon="3.9383">
        <ele>952</ele>
        <time>2022-06-29T14:53:27Z</time>
      </trkpt>
      <trkpt lat="45.41291" lon="3.93856">
        <ele>953</ele>
        <time>2022-06-29T14:53:32Z</time>
      </trkpt>
      <trkpt lat="45.41277" lon="3.93879">
        <ele>954</ele>
        <time>2022-06-29T14:53:36Z</time>
      </trkpt>
      <trkpt lat="45.41258" lon="3.93913">
        <ele>959</ele>
        <time>2022-06-29T14:53:41Z</time>
      </trkpt>
      <trkpt lat="45.41245" lon="3.9394">
        <ele>961</ele>
        <time>2022-06-29T14:53:46Z</time>
      </trkpt>
      <trkpt lat="45.41235" lon="3.93963">
        <ele>966</ele>
        <time>2022-06-29T14:53:50Z</time>
      </trkpt>
      <trkpt lat="45.41225" lon="3.93984">
        <ele>966</ele>
        <time>2022-06-29T14:53:54Z</time>
      </trkpt>
      <trkpt lat="45.41211" lon="3.94005">
        <ele>967</ele>
        <time>2022-06-29T14:53:59Z</time>
      </trkpt>
      <trkpt lat="45.41192" lon="3.94028">
        <ele>971</ele>
        <time>2022-06-29T14:54:04Z</time>
      </trkpt>
      <trkpt lat="45.41174" lon="3.94049">
        <ele>978</ele>
        <time>2022-06-29T14:54:08Z</time>
      </trkpt>
      <trkpt lat="45.4116" lon="3.94068">
        <ele>978</ele>
        <time>2022-06-29T14:54:13Z</time>
      </trkpt>
      <trkpt lat="45.41152" lon="3.94079">
        <ele>980</ele>
        <time>2022-06-29T14:54:18Z</time>
      </trkpt>
      <trkpt lat="45.41148" lon="3.94088">
        <ele>980</ele>
        <time>2022-06-29T14:54:23Z</time>
      </trkpt>
      <trkpt lat="45.41144" lon="3.94096">
        <ele>980</ele>
        <time>2022-06-29T14:54:28Z</time>
      </trkpt>
      <trkpt lat="45.41141" lon="3.94105">
        <ele>978</ele>
        <time>2022-06-29T14:54:32Z</time>
      </trkpt>
      <trkpt lat="45.41139" lon="3.94115">
        <ele>978</ele>
        <time>2022-06-29T14:54:37Z</time>
      </trkpt>
      <trkpt lat="45.41136" lon="3.94123">
        <ele>978</ele>
        <time>2022-06-29T14:54:41Z</time>
      </trkpt>
      <trkpt lat="45.41135" lon="3.94134">
        <ele>978</ele>
        <time>2022-06-29T14:54:46Z</time>
      </trkpt>
      <trkpt lat="45.41134" lon="3.9414">
        <ele>978</ele>
        <time>2022-06-29T14:54:50Z</time>
      </trkpt>
      <trkpt lat="45.41132" lon="3.94151">
        <ele>978</ele>
        <time>2022-06-29T14:54:55Z</time>
      </trkpt>
      <trkpt lat="45.41129" lon="3.94158">
        <ele>979</ele>
        <time>2022-06-29T14:55:00Z</time>
      </trkpt>
      <trkpt lat="45.41127" lon="3.94167">
        <ele>979</ele>
        <time>2022-06-29T14:55:05Z</time>
      </trkpt>
      <trkpt lat="45.41123" lon="3.94178">
        <ele>985</ele>
        <time>2022-06-29T14:55:10Z</time>
      </trkpt>
      <trkpt lat="45.4112" lon="3.94189">
        <ele>985</ele>
        <time>2022-06-29T14:55:15Z</time>
      </trkpt>
      <trkpt lat="45.41116" lon="3.94192">
        <ele>985</ele>
        <time>2022-06-29T14:55:19Z</time>
      </trkpt>
      <trkpt lat="45.41111" lon="3.94184">
        <ele>985</ele>
        <time>2022-06-29T14:55:24Z</time>
      </trkpt>
      <trkpt lat="45.41108" lon="3.94174">
        <ele>985</ele>
        <time>2022-06-29T14:55:28Z</time>
      </trkpt>
      <trkpt lat="45.41103" lon="3.94164">
        <ele>985</ele>
        <time>2022-06-29T14:55:33Z</time>
      </trkpt>
      <trkpt lat="45.41099" lon="3.94157">
        <ele>985</ele>
        <time>2022-06-29T14:55:37Z</time>
      </trkpt>
      <trkpt lat="45.41094" lon="3.94149">
        <ele>990</ele>
        <time>2022-06-29T14:55:41Z</time>
      </trkpt>
      <trkpt lat="45.41088" lon="3.94142">
        <ele>990</ele>
        <time>2022-06-29T14:55:46Z</time>
      </trkpt>
      <trkpt lat="45.41086" lon="3.94138">
        <ele>990</ele>
        <time>2022-06-29T14:55:51Z</time>
      </trkpt>
      <trkpt lat="45.41079" lon="3.94126">
        <ele>990</ele>
        <time>2022-06-29T14:55:56Z</time>
      </trkpt>
      <trkpt lat="45.41075" lon="3.94116">
        <ele>992</ele>
        <time>2022-06-29T14:56:00Z</time>
      </trkpt>
      <trkpt lat="45.4107" lon="3.94106">
        <ele>992</ele>
        <time>2022-06-29T14:56:05Z</time>
      </trkpt>
      <trkpt lat="45.41068" lon="3.94103">
        <ele>994</ele>
        <time>2022-06-29T14:56:10Z</time>
      </trkpt>
      <trkpt lat="45.41063" lon="3.94097">
        <ele>997</ele>
        <time>2022-06-29T14:56:15Z</time>
      </trkpt>
      <trkpt lat="45.41057" lon="3.94091">
        <ele>997</ele>
        <time>2022-06-29T14:56:25Z</time>
      </trkpt>
      <trkpt lat="45.41049" lon="3.94083">
        <ele>997</ele>
        <time>2022-06-29T14:56:39Z</time>
      </trkpt>
      <trkpt lat="45.41044" lon="3.9408">
        <ele>997</ele>
        <time>2022-06-29T14:56:44Z</time>
      </trkpt>
      <trkpt lat="45.41035" lon="3.94077">
        <ele>996</ele>
        <time>2022-06-29T14:56:49Z</time>
      </trkpt>
      <trkpt lat="45.41026" lon="3.94073">
        <ele>996</ele>
        <time>2022-06-29T14:56:53Z</time>
      </trkpt>
      <trkpt lat="45.41011" lon="3.94061">
        <ele>996</ele>
        <time>2022-06-29T14:57:02Z</time>
      </trkpt>
      <trkpt lat="45.40996" lon="3.94046">
        <ele>996</ele>
        <time>2022-06-29T14:57:07Z</time>
      </trkpt>
      <trkpt lat="45.40989" lon="3.94039">
        <ele>997</ele>
        <time>2022-06-29T14:57:11Z</time>
      </trkpt>
      <trkpt lat="45.40984" lon="3.94032">
        <ele>996</ele>
        <time>2022-06-29T14:57:16Z</time>
      </trkpt>
      <trkpt lat="45.40978" lon="3.94023">
        <ele>996</ele>
        <time>2022-06-29T14:57:21Z</time>
      </trkpt>
      <trkpt lat="45.40972" lon="3.94017">
        <ele>996</ele>
        <time>2022-06-29T14:57:26Z</time>
      </trkpt>
      <trkpt lat="45.40965" lon="3.9401">
        <ele>995</ele>
        <time>2022-06-29T14:57:36Z</time>
      </trkpt>
      <trkpt lat="45.40952" lon="3.94003">
        <ele>997</ele>
        <time>2022-06-29T14:57:41Z</time>
      </trkpt>
      <trkpt lat="45.40944" lon="3.94001">
        <ele>997</ele>
        <time>2022-06-29T14:57:51Z</time>
      </trkpt>
      <trkpt lat="45.40935" lon="3.93996">
        <ele>997</ele>
        <time>2022-06-29T14:58:00Z</time>
      </trkpt>
      <trkpt lat="45.40927" lon="3.93991">
        <ele>998</ele>
        <time>2022-06-29T14:58:09Z</time>
      </trkpt>
      <trkpt lat="45.40914" lon="3.93985">
        <ele>997</ele>
        <time>2022-06-29T14:58:13Z</time>
      </trkpt>
      <trkpt lat="45.40899" lon="3.9398">
        <ele>992</ele>
        <time>2022-06-29T14:58:18Z</time>
      </trkpt>
      <trkpt lat="45.40892" lon="3.93975">
        <ele>992</ele>
        <time>2022-06-29T14:58:23Z</time>
      </trkpt>
      <trkpt lat="45.40885" lon="3.93971">
        <ele>992</ele>
        <time>2022-06-29T14:58:28Z</time>
      </trkpt>
      <trkpt lat="45.40879" lon="3.93969">
        <ele>992</ele>
        <time>2022-06-29T14:58:33Z</time>
      </trkpt>
      <trkpt lat="45.40868" lon="3.93966">
        <ele>991</ele>
        <time>2022-06-29T14:58:47Z</time>
      </trkpt>
      <trkpt lat="45.40859" lon="3.93962">
        <ele>991</ele>
        <time>2022-06-29T14:58:51Z</time>
      </trkpt>
      <trkpt lat="45.40853" lon="3.9396">
        <ele>991</ele>
        <time>2022-06-29T14:58:56Z</time>
      </trkpt>
      <trkpt lat="45.40834" lon="3.93958">
        <ele>996</ele>
        <time>2022-06-29T14:59:01Z</time>
      </trkpt>
      <trkpt lat="45.40822" lon="3.93957">
        <ele>989</ele>
        <time>2022-06-29T14:59:06Z</time>
      </trkpt>
      <trkpt lat="45.40814" lon="3.93956">
        <ele>993</ele>
        <time>2022-06-29T14:59:11Z</time>
      </trkpt>
      <trkpt lat="45.40805" lon="3.93955">
        <ele>993</ele>
        <time>2022-06-29T14:59:16Z</time>
      </trkpt>
      <trkpt lat="45.40796" lon="3.93956">
        <ele>993</ele>
        <time>2022-06-29T14:59:21Z</time>
      </trkpt>
      <trkpt lat="45.40789" lon="3.93956">
        <ele>989</ele>
        <time>2022-06-29T14:59:25Z</time>
      </trkpt>
      <trkpt lat="45.40783" lon="3.93958">
        <ele>989</ele>
        <time>2022-06-29T14:59:30Z</time>
      </trkpt>
      <trkpt lat="45.40773" lon="3.93959">
        <ele>996</ele>
        <time>2022-06-29T14:59:35Z</time>
      </trkpt>
      <trkpt lat="45.40758" lon="3.93963">
        <ele>993</ele>
        <time>2022-06-29T14:59:40Z</time>
      </trkpt>
      <trkpt lat="45.40748" lon="3.93962">
        <ele>993</ele>
        <time>2022-06-29T14:59:45Z</time>
      </trkpt>
      <trkpt lat="45.4074" lon="3.93957">
        <ele>987</ele>
        <time>2022-06-29T14:59:50Z</time>
      </trkpt>
      <trkpt lat="45.40735" lon="3.93952">
        <ele>985</ele>
        <time>2022-06-29T14:59:55Z</time>
      </trkpt>
      <trkpt lat="45.40727" lon="3.93946">
        <ele>985</ele>
        <time>2022-06-29T15:00:00Z</time>
      </trkpt>
      <trkpt lat="45.40719" lon="3.93941">
        <ele>985</ele>
        <time>2022-06-29T15:00:05Z</time>
      </trkpt>
      <trkpt lat="45.40711" lon="3.93938">
        <ele>985</ele>
        <time>2022-06-29T15:00:10Z</time>
      </trkpt>
      <trkpt lat="45.40705" lon="3.93931">
        <ele>984</ele>
        <time>2022-06-29T15:00:15Z</time>
      </trkpt>
      <trkpt lat="45.40698" lon="3.93926">
        <ele>982</ele>
        <time>2022-06-29T15:00:20Z</time>
      </trkpt>
      <trkpt lat="45.40691" lon="3.93923">
        <ele>982</ele>
        <time>2022-06-29T15:00:24Z</time>
      </trkpt>
      <trkpt lat="45.40685" lon="3.93921">
        <ele>982</ele>
        <time>2022-06-29T15:00:28Z</time>
      </trkpt>
      <trkpt lat="45.4068" lon="3.93917">
        <ele>980</ele>
        <time>2022-06-29T15:00:32Z</time>
      </trkpt>
      <trkpt lat="45.40673" lon="3.93912">
        <ele>980</ele>
        <time>2022-06-29T15:00:37Z</time>
      </trkpt>
      <trkpt lat="45.40664" lon="3.9391">
        <ele>980</ele>
        <time>2022-06-29T15:00:42Z</time>
      </trkpt>
      <trkpt lat="45.40659" lon="3.93907">
        <ele>980</ele>
        <time>2022-06-29T15:00:47Z</time>
      </trkpt>
      <trkpt lat="45.40655" lon="3.93906">
        <ele>980</ele>
        <time>2022-06-29T15:00:51Z</time>
      </trkpt>
      <trkpt lat="45.40648" lon="3.93905">
        <ele>978</ele>
        <time>2022-06-29T15:00:56Z</time>
      </trkpt>
      <trkpt lat="45.4064" lon="3.93903">
        <ele>978</ele>
        <time>2022-06-29T15:01:01Z</time>
      </trkpt>
      <trkpt lat="45.40633" lon="3.939">
        <ele>978</ele>
        <time>2022-06-29T15:01:06Z</time>
      </trkpt>
      <trkpt lat="45.40629" lon="3.939">
        <ele>978</ele>
        <time>2022-06-29T15:01:10Z</time>
      </trkpt>
      <trkpt lat="45.40627" lon="3.93899">
        <ele>978</ele>
        <time>2022-06-29T15:01:15Z</time>
      </trkpt>
      <trkpt lat="45.4062" lon="3.93897">
        <ele>978</ele>
        <time>2022-06-29T15:01:20Z</time>
      </trkpt>
      <trkpt lat="45.40612" lon="3.93895">
        <ele>978</ele>
        <time>2022-06-29T15:01:25Z</time>
      </trkpt>
      <trkpt lat="45.40606" lon="3.93895">
        <ele>978</ele>
        <time>2022-06-29T15:01:29Z</time>
      </trkpt>
      <trkpt lat="45.406" lon="3.93894">
        <ele>978</ele>
        <time>2022-06-29T15:01:33Z</time>
      </trkpt>
      <trkpt lat="45.40595" lon="3.93892">
        <ele>980</ele>
        <time>2022-06-29T15:01:37Z</time>
      </trkpt>
      <trkpt lat="45.40588" lon="3.93889">
        <ele>980</ele>
        <time>2022-06-29T15:01:41Z</time>
      </trkpt>
      <trkpt lat="45.40579" lon="3.93887">
        <ele>980</ele>
        <time>2022-06-29T15:01:46Z</time>
      </trkpt>
      <trkpt lat="45.40572" lon="3.93884">
        <ele>980</ele>
        <time>2022-06-29T15:01:50Z</time>
      </trkpt>
      <trkpt lat="45.40564" lon="3.93881">
        <ele>982</ele>
        <time>2022-06-29T15:01:55Z</time>
      </trkpt>
      <trkpt lat="45.40556" lon="3.93879">
        <ele>982</ele>
        <time>2022-06-29T15:02:00Z</time>
      </trkpt>
      <trkpt lat="45.40548" lon="3.93878">
        <ele>982</ele>
        <time>2022-06-29T15:02:05Z</time>
      </trkpt>
      <trkpt lat="45.40542" lon="3.93876">
        <ele>983</ele>
        <time>2022-06-29T15:02:09Z</time>
      </trkpt>
      <trkpt lat="45.40536" lon="3.93876">
        <ele>983</ele>
        <time>2022-06-29T15:02:13Z</time>
      </trkpt>
      <trkpt lat="45.40531" lon="3.93877">
        <ele>983</ele>
        <time>2022-06-29T15:02:18Z</time>
      </trkpt>
      <trkpt lat="45.40525" lon="3.93879">
        <ele>983</ele>
        <time>2022-06-29T15:02:22Z</time>
      </trkpt>
      <trkpt lat="45.40516" lon="3.93879">
        <ele>983</ele>
        <time>2022-06-29T15:02:27Z</time>
      </trkpt>
      <trkpt lat="45.40508" lon="3.93881">
        <ele>983</ele>
        <time>2022-06-29T15:02:31Z</time>
      </trkpt>
      <trkpt lat="45.405" lon="3.93887">
        <ele>983</ele>
        <time>2022-06-29T15:02:36Z</time>
      </trkpt>
      <trkpt lat="45.40494" lon="3.9389">
        <ele>983</ele>
        <time>2022-06-29T15:02:40Z</time>
      </trkpt>
      <trkpt lat="45.40485" lon="3.93894">
        <ele>983</ele>
        <time>2022-06-29T15:02:45Z</time>
      </trkpt>
      <trkpt lat="45.40478" lon="3.93898">
        <ele>983</ele>
        <time>2022-06-29T15:02:50Z</time>
      </trkpt>
      <trkpt lat="45.4047" lon="3.939">
        <ele>983</ele>
        <time>2022-06-29T15:02:54Z</time>
      </trkpt>
      <trkpt lat="45.40463" lon="3.93902">
        <ele>983</ele>
        <time>2022-06-29T15:02:58Z</time>
      </trkpt>
      <trkpt lat="45.40457" lon="3.93904">
        <ele>986</ele>
        <time>2022-06-29T15:03:03Z</time>
      </trkpt>
      <trkpt lat="45.40452" lon="3.93906">
        <ele>986</ele>
        <time>2022-06-29T15:03:07Z</time>
      </trkpt>
      <trkpt lat="45.40444" lon="3.93908">
        <ele>986</ele>
        <time>2022-06-29T15:03:12Z</time>
      </trkpt>
      <trkpt lat="45.40439" lon="3.93907">
        <ele>986</ele>
        <time>2022-06-29T15:03:16Z</time>
      </trkpt>
      <trkpt lat="45.40438" lon="3.93906">
        <ele>986</ele>
        <time>2022-06-29T15:03:20Z</time>
      </trkpt>
      <trkpt lat="45.40437" lon="3.93905">
        <ele>986</ele>
        <time>2022-06-29T15:03:25Z</time>
      </trkpt>
      <trkpt lat="45.40432" lon="3.93905">
        <ele>986</ele>
        <time>2022-06-29T15:03:30Z</time>
      </trkpt>
      <trkpt lat="45.40422" lon="3.93902">
        <ele>987</ele>
        <time>2022-06-29T15:03:35Z</time>
      </trkpt>
      <trkpt lat="45.40415" lon="3.93898">
        <ele>987</ele>
        <time>2022-06-29T15:03:40Z</time>
      </trkpt>
      <trkpt lat="45.40408" lon="3.93895">
        <ele>987</ele>
        <time>2022-06-29T15:03:44Z</time>
      </trkpt>
      <trkpt lat="45.40401" lon="3.93892">
        <ele>982</ele>
        <time>2022-06-29T15:03:48Z</time>
      </trkpt>
      <trkpt lat="45.40394" lon="3.9389">
        <ele>982</ele>
        <time>2022-06-29T15:03:53Z</time>
      </trkpt>
      <trkpt lat="45.40388" lon="3.93888">
        <ele>982</ele>
        <time>2022-06-29T15:03:58Z</time>
      </trkpt>
      <trkpt lat="45.4038" lon="3.93884">
        <ele>982</ele>
        <time>2022-06-29T15:04:03Z</time>
      </trkpt>
      <trkpt lat="45.40373" lon="3.9388">
        <ele>977</ele>
        <time>2022-06-29T15:04:08Z</time>
      </trkpt>
      <trkpt lat="45.40366" lon="3.93876">
        <ele>977</ele>
        <time>2022-06-29T15:04:13Z</time>
      </trkpt>
      <trkpt lat="45.40359" lon="3.9387">
        <ele>980</ele>
        <time>2022-06-29T15:04:18Z</time>
      </trkpt>
      <trkpt lat="45.40354" lon="3.93867">
        <ele>980</ele>
        <time>2022-06-29T15:04:22Z</time>
      </trkpt>
      <trkpt lat="45.40347" lon="3.93864">
        <ele>975</ele>
        <time>2022-06-29T15:04:27Z</time>
      </trkpt>
      <trkpt lat="45.40343" lon="3.93861">
        <ele>975</ele>
        <time>2022-06-29T15:04:31Z</time>
      </trkpt>
      <trkpt lat="45.40335" lon="3.93856">
        <ele>975</ele>
        <time>2022-06-29T15:04:36Z</time>
      </trkpt>
      <trkpt lat="45.40331" lon="3.93853">
        <ele>975</ele>
        <time>2022-06-29T15:04:40Z</time>
      </trkpt>
      <trkpt lat="45.40326" lon="3.93849">
        <ele>975</ele>
        <time>2022-06-29T15:04:45Z</time>
      </trkpt>
      <trkpt lat="45.40323" lon="3.93841">
        <ele>975</ele>
        <time>2022-06-29T15:04:49Z</time>
      </trkpt>
      <trkpt lat="45.4032" lon="3.93833">
        <ele>975</ele>
        <time>2022-06-29T15:04:54Z</time>
      </trkpt>
      <trkpt lat="45.40317" lon="3.93828">
        <ele>971</ele>
        <time>2022-06-29T15:04:58Z</time>
      </trkpt>
      <trkpt lat="45.40311" lon="3.93819">
        <ele>970</ele>
        <time>2022-06-29T15:05:03Z</time>
      </trkpt>
      <trkpt lat="45.40306" lon="3.93811">
        <ele>970</ele>
        <time>2022-06-29T15:05:08Z</time>
      </trkpt>
      <trkpt lat="45.40302" lon="3.93806">
        <ele>970</ele>
        <time>2022-06-29T15:05:12Z</time>
      </trkpt>
      <trkpt lat="45.40296" lon="3.93801">
        <ele>970</ele>
        <time>2022-06-29T15:05:17Z</time>
      </trkpt>
      <trkpt lat="45.40286" lon="3.93793">
        <ele>966</ele>
        <time>2022-06-29T15:05:22Z</time>
      </trkpt>
      <trkpt lat="45.40281" lon="3.93785">
        <ele>965</ele>
        <time>2022-06-29T15:05:26Z</time>
      </trkpt>
      <trkpt lat="45.40272" lon="3.93773">
        <ele>965</ele>
        <time>2022-06-29T15:05:31Z</time>
      </trkpt>
      <trkpt lat="45.40265" lon="3.93766">
        <ele>965</ele>
        <time>2022-06-29T15:05:35Z</time>
      </trkpt>
      <trkpt lat="45.4026" lon="3.93761">
        <ele>963</ele>
        <time>2022-06-29T15:05:39Z</time>
      </trkpt>
      <trkpt lat="45.4025" lon="3.93765">
        <ele>963</ele>
        <time>2022-06-29T15:05:44Z</time>
      </trkpt>
      <trkpt lat="45.40246" lon="3.93762">
        <ele>963</ele>
        <time>2022-06-29T15:05:48Z</time>
      </trkpt>
      <trkpt lat="45.40241" lon="3.9376">
        <ele>963</ele>
        <time>2022-06-29T15:05:53Z</time>
      </trkpt>
      <trkpt lat="45.40234" lon="3.93759">
        <ele>960</ele>
        <time>2022-06-29T15:05:58Z</time>
      </trkpt>
      <trkpt lat="45.40227" lon="3.93759">
        <ele>960</ele>
        <time>2022-06-29T15:06:03Z</time>
      </trkpt>
      <trkpt lat="45.40221" lon="3.93758">
        <ele>960</ele>
        <time>2022-06-29T15:06:07Z</time>
      </trkpt>
      <trkpt lat="45.40212" lon="3.93758">
        <ele>960</ele>
        <time>2022-06-29T15:06:12Z</time>
      </trkpt>
      <trkpt lat="45.40206" lon="3.93758">
        <ele>958</ele>
        <time>2022-06-29T15:06:16Z</time>
      </trkpt>
      <trkpt lat="45.40198" lon="3.93759">
        <ele>958</ele>
        <time>2022-06-29T15:06:21Z</time>
      </trkpt>
      <trkpt lat="45.4019" lon="3.93758">
        <ele>958</ele>
        <time>2022-06-29T15:06:26Z</time>
      </trkpt>
      <trkpt lat="45.40184" lon="3.93757">
        <ele>958</ele>
        <time>2022-06-29T15:06:30Z</time>
      </trkpt>
      <trkpt lat="45.40175" lon="3.93758">
        <ele>957</ele>
        <time>2022-06-29T15:06:35Z</time>
      </trkpt>
      <trkpt lat="45.40167" lon="3.93758">
        <ele>957</ele>
        <time>2022-06-29T15:06:40Z</time>
      </trkpt>
      <trkpt lat="45.40159" lon="3.9376">
        <ele>957</ele>
        <time>2022-06-29T15:06:45Z</time>
      </trkpt>
      <trkpt lat="45.4015" lon="3.93762">
        <ele>957</ele>
        <time>2022-06-29T15:06:50Z</time>
      </trkpt>
      <trkpt lat="45.40145" lon="3.93764">
        <ele>957</ele>
        <time>2022-06-29T15:06:54Z</time>
      </trkpt>
      <trkpt lat="45.40138" lon="3.93766">
        <ele>956</ele>
        <time>2022-06-29T15:06:59Z</time>
      </trkpt>
      <trkpt lat="45.40132" lon="3.93769">
        <ele>956</ele>
        <time>2022-06-29T15:07:03Z</time>
      </trkpt>
      <trkpt lat="45.40124" lon="3.93774">
        <ele>957</ele>
        <time>2022-06-29T15:07:08Z</time>
      </trkpt>
      <trkpt lat="45.40119" lon="3.93779">
        <ele>957</ele>
        <time>2022-06-29T15:07:12Z</time>
      </trkpt>
      <trkpt lat="45.40114" lon="3.93787">
        <ele>957</ele>
        <time>2022-06-29T15:07:17Z</time>
      </trkpt>
      <trkpt lat="45.4011" lon="3.93794">
        <ele>955</ele>
        <time>2022-06-29T15:07:21Z</time>
      </trkpt>
      <trkpt lat="45.40105" lon="3.93802">
        <ele>955</ele>
        <time>2022-06-29T15:07:25Z</time>
      </trkpt>
      <trkpt lat="45.40099" lon="3.93811">
        <ele>955</ele>
        <time>2022-06-29T15:07:30Z</time>
      </trkpt>
      <trkpt lat="45.40096" lon="3.93818">
        <ele>955</ele>
        <time>2022-06-29T15:07:34Z</time>
      </trkpt>
      <trkpt lat="45.4009" lon="3.93827">
        <ele>954</ele>
        <time>2022-06-29T15:07:39Z</time>
      </trkpt>
      <trkpt lat="45.40084" lon="3.93834">
        <ele>954</ele>
        <time>2022-06-29T15:07:44Z</time>
      </trkpt>
      <trkpt lat="45.40078" lon="3.93842">
        <ele>954</ele>
        <time>2022-06-29T15:07:49Z</time>
      </trkpt>
      <trkpt lat="45.40072" lon="3.93851">
        <ele>953</ele>
        <time>2022-06-29T15:07:54Z</time>
      </trkpt>
      <trkpt lat="45.40067" lon="3.93857">
        <ele>954</ele>
        <time>2022-06-29T15:07:58Z</time>
      </trkpt>
      <trkpt lat="45.40061" lon="3.93866">
        <ele>954</ele>
        <time>2022-06-29T15:08:03Z</time>
      </trkpt>
      <trkpt lat="45.40054" lon="3.93875">
        <ele>954</ele>
        <time>2022-06-29T15:08:08Z</time>
      </trkpt>
      <trkpt lat="45.40047" lon="3.93881">
        <ele>954</ele>
        <time>2022-06-29T15:08:12Z</time>
      </trkpt>
      <trkpt lat="45.40038" lon="3.93886">
        <ele>954</ele>
        <time>2022-06-29T15:08:17Z</time>
      </trkpt>
      <trkpt lat="45.40032" lon="3.93892">
        <ele>954</ele>
        <time>2022-06-29T15:08:21Z</time>
      </trkpt>
      <trkpt lat="45.40026" lon="3.93896">
        <ele>954</ele>
        <time>2022-06-29T15:08:25Z</time>
      </trkpt>
      <trkpt lat="45.40017" lon="3.93902">
        <ele>954</ele>
        <time>2022-06-29T15:08:30Z</time>
      </trkpt>
      <trkpt lat="45.40012" lon="3.93905">
        <ele>953</ele>
        <time>2022-06-29T15:08:34Z</time>
      </trkpt>
      <trkpt lat="45.40003" lon="3.9391">
        <ele>953</ele>
        <time>2022-06-29T15:08:39Z</time>
      </trkpt>
      <trkpt lat="45.39995" lon="3.93916">
        <ele>953</ele>
        <time>2022-06-29T15:08:44Z</time>
      </trkpt>
      <trkpt lat="45.39987" lon="3.93921">
        <ele>953</ele>
        <time>2022-06-29T15:08:49Z</time>
      </trkpt>
      <trkpt lat="45.39979" lon="3.93928">
        <ele>952</ele>
        <time>2022-06-29T15:08:54Z</time>
      </trkpt>
      <trkpt lat="45.39974" lon="3.93933">
        <ele>952</ele>
        <time>2022-06-29T15:08:58Z</time>
      </trkpt>
      <trkpt lat="45.39968" lon="3.9394">
        <ele>952</ele>
        <time>2022-06-29T15:09:03Z</time>
      </trkpt>
      <trkpt lat="45.39962" lon="3.93946">
        <ele>952</ele>
        <time>2022-06-29T15:09:08Z</time>
      </trkpt>
      <trkpt lat="45.39958" lon="3.93955">
        <ele>950</ele>
        <time>2022-06-29T15:09:12Z</time>
      </trkpt>
      <trkpt lat="45.39953" lon="3.93961">
        <ele>951</ele>
        <time>2022-06-29T15:09:16Z</time>
      </trkpt>
      <trkpt lat="45.39948" lon="3.93975">
        <ele>951</ele>
        <time>2022-06-29T15:09:21Z</time>
      </trkpt>
      <trkpt lat="45.39942" lon="3.93984">
        <ele>951</ele>
        <time>2022-06-29T15:09:26Z</time>
      </trkpt>
      <trkpt lat="45.39938" lon="3.93994">
        <ele>950</ele>
        <time>2022-06-29T15:09:31Z</time>
      </trkpt>
      <trkpt lat="45.39935" lon="3.94007">
        <ele>950</ele>
        <time>2022-06-29T15:09:36Z</time>
      </trkpt>
      <trkpt lat="45.39931" lon="3.94019">
        <ele>949</ele>
        <time>2022-06-29T15:09:41Z</time>
      </trkpt>
      <trkpt lat="45.3993" lon="3.94026">
        <ele>947</ele>
        <time>2022-06-29T15:09:45Z</time>
      </trkpt>
      <trkpt lat="45.39926" lon="3.94036">
        <ele>947</ele>
        <time>2022-06-29T15:09:49Z</time>
      </trkpt>
      <trkpt lat="45.3992" lon="3.94046">
        <ele>945</ele>
        <time>2022-06-29T15:09:54Z</time>
      </trkpt>
      <trkpt lat="45.39914" lon="3.94056">
        <ele>945</ele>
        <time>2022-06-29T15:09:59Z</time>
      </trkpt>
      <trkpt lat="45.39908" lon="3.94065">
        <ele>945</ele>
        <time>2022-06-29T15:10:03Z</time>
      </trkpt>
      <trkpt lat="45.39904" lon="3.94071">
        <ele>945</ele>
        <time>2022-06-29T15:10:07Z</time>
      </trkpt>
      <trkpt lat="45.39897" lon="3.94081">
        <ele>944</ele>
        <time>2022-06-29T15:10:12Z</time>
      </trkpt>
      <trkpt lat="45.3989" lon="3.9409">
        <ele>944</ele>
        <time>2022-06-29T15:10:17Z</time>
      </trkpt>
      <trkpt lat="45.39884" lon="3.94099">
        <ele>944</ele>
        <time>2022-06-29T15:10:22Z</time>
      </trkpt>
      <trkpt lat="45.39878" lon="3.94107">
        <ele>944</ele>
        <time>2022-06-29T15:10:27Z</time>
      </trkpt>
      <trkpt lat="45.39871" lon="3.94115">
        <ele>943</ele>
        <time>2022-06-29T15:10:32Z</time>
      </trkpt>
      <trkpt lat="45.39864" lon="3.94124">
        <ele>943</ele>
        <time>2022-06-29T15:10:37Z</time>
      </trkpt>
      <trkpt lat="45.39859" lon="3.94131">
        <ele>942</ele>
        <time>2022-06-29T15:10:41Z</time>
      </trkpt>
      <trkpt lat="45.39854" lon="3.94141">
        <ele>942</ele>
        <time>2022-06-29T15:10:46Z</time>
      </trkpt>
      <trkpt lat="45.39849" lon="3.94148">
        <ele>942</ele>
        <time>2022-06-29T15:10:51Z</time>
      </trkpt>
      <trkpt lat="45.39844" lon="3.94157">
        <ele>943</ele>
        <time>2022-06-29T15:10:56Z</time>
      </trkpt>
      <trkpt lat="45.39839" lon="3.94166">
        <ele>943</ele>
        <time>2022-06-29T15:11:01Z</time>
      </trkpt>
      <trkpt lat="45.39834" lon="3.94176">
        <ele>943</ele>
        <time>2022-06-29T15:11:06Z</time>
      </trkpt>
      <trkpt lat="45.3983" lon="3.94183">
        <ele>944</ele>
        <time>2022-06-29T15:11:10Z</time>
      </trkpt>
      <trkpt lat="45.39826" lon="3.94193">
        <ele>944</ele>
        <time>2022-06-29T15:11:15Z</time>
      </trkpt>
      <trkpt lat="45.39821" lon="3.94203">
        <ele>944</ele>
        <time>2022-06-29T15:11:20Z</time>
      </trkpt>
      <trkpt lat="45.39814" lon="3.94215">
        <ele>941</ele>
        <time>2022-06-29T15:11:25Z</time>
      </trkpt>
      <trkpt lat="45.3981" lon="3.94225">
        <ele>941</ele>
        <time>2022-06-29T15:11:30Z</time>
      </trkpt>
      <trkpt lat="45.39806" lon="3.94236">
        <ele>938</ele>
        <time>2022-06-29T15:11:35Z</time>
      </trkpt>
      <trkpt lat="45.39801" lon="3.94246">
        <ele>938</ele>
        <time>2022-06-29T15:11:40Z</time>
      </trkpt>
      <trkpt lat="45.39795" lon="3.94255">
        <ele>938</ele>
        <time>2022-06-29T15:11:45Z</time>
      </trkpt>
      <trkpt lat="45.39789" lon="3.94262">
        <ele>937</ele>
        <time>2022-06-29T15:11:49Z</time>
      </trkpt>
      <trkpt lat="45.39784" lon="3.94271">
        <ele>935</ele>
        <time>2022-06-29T15:11:53Z</time>
      </trkpt>
      <trkpt lat="45.39777" lon="3.94281">
        <ele>935</ele>
        <time>2022-06-29T15:11:58Z</time>
      </trkpt>
      <trkpt lat="45.39771" lon="3.94288">
        <ele>935</ele>
        <time>2022-06-29T15:12:02Z</time>
      </trkpt>
      <trkpt lat="45.39765" lon="3.94294">
        <ele>933</ele>
        <time>2022-06-29T15:12:06Z</time>
      </trkpt>
      <trkpt lat="45.3976" lon="3.94301">
        <ele>933</ele>
        <time>2022-06-29T15:12:10Z</time>
      </trkpt>
      <trkpt lat="45.39755" lon="3.94309">
        <ele>933</ele>
        <time>2022-06-29T15:12:14Z</time>
      </trkpt>
      <trkpt lat="45.39747" lon="3.94318">
        <ele>933</ele>
        <time>2022-06-29T15:12:19Z</time>
      </trkpt>
      <trkpt lat="45.3974" lon="3.94327">
        <ele>933</ele>
        <time>2022-06-29T15:12:24Z</time>
      </trkpt>
      <trkpt lat="45.39734" lon="3.94336">
        <ele>932</ele>
        <time>2022-06-29T15:12:29Z</time>
      </trkpt>
      <trkpt lat="45.39729" lon="3.94343">
        <ele>932</ele>
        <time>2022-06-29T15:12:33Z</time>
      </trkpt>
      <trkpt lat="45.39724" lon="3.94353">
        <ele>932</ele>
        <time>2022-06-29T15:12:38Z</time>
      </trkpt>
      <trkpt lat="45.3972" lon="3.94359">
        <ele>932</ele>
        <time>2022-06-29T15:12:43Z</time>
      </trkpt>
      <trkpt lat="45.39717" lon="3.94366">
        <ele>932</ele>
        <time>2022-06-29T15:12:47Z</time>
      </trkpt>
      <trkpt lat="45.39713" lon="3.94377">
        <ele>933</ele>
        <time>2022-06-29T15:12:52Z</time>
      </trkpt>
      <trkpt lat="45.39709" lon="3.94384">
        <ele>933</ele>
        <time>2022-06-29T15:12:56Z</time>
      </trkpt>
      <trkpt lat="45.39704" lon="3.94392">
        <ele>933</ele>
        <time>2022-06-29T15:13:01Z</time>
      </trkpt>
      <trkpt lat="45.397" lon="3.94402">
        <ele>933</ele>
        <time>2022-06-29T15:13:06Z</time>
      </trkpt>
      <trkpt lat="45.39697" lon="3.94411">
        <ele>933</ele>
        <time>2022-06-29T15:13:11Z</time>
      </trkpt>
      <trkpt lat="45.39691" lon="3.9442">
        <ele>933</ele>
        <time>2022-06-29T15:13:16Z</time>
      </trkpt>
      <trkpt lat="45.39689" lon="3.94424">
        <ele>933</ele>
        <time>2022-06-29T15:13:20Z</time>
      </trkpt>
      <trkpt lat="45.39686" lon="3.94429">
        <ele>933</ele>
        <time>2022-06-29T15:13:25Z</time>
      </trkpt>
      <trkpt lat="45.39682" lon="3.94438">
        <ele>933</ele>
        <time>2022-06-29T15:13:30Z</time>
      </trkpt>
      <trkpt lat="45.3968" lon="3.94447">
        <ele>932</ele>
        <time>2022-06-29T15:13:34Z</time>
      </trkpt>
      <trkpt lat="45.39677" lon="3.94455">
        <ele>932</ele>
        <time>2022-06-29T15:13:44Z</time>
      </trkpt>
      <trkpt lat="45.39677" lon="3.94456">
        <ele>932</ele>
        <time>2022-06-29T15:13:49Z</time>
      </trkpt>
      <trkpt lat="45.39677" lon="3.94456">
        <ele>932</ele>
        <time>2022-06-29T15:13:54Z</time>
      </trkpt>
      <trkpt lat="45.39676" lon="3.94461">
        <ele>930</ele>
        <time>2022-06-29T15:13:59Z</time>
      </trkpt>
      <trkpt lat="45.39674" lon="3.94469">
        <ele>930</ele>
        <time>2022-06-29T15:14:03Z</time>
      </trkpt>
      <trkpt lat="45.39671" lon="3.94475">
        <ele>930</ele>
        <time>2022-06-29T15:14:08Z</time>
      </trkpt>
      <trkpt lat="45.39668" lon="3.94483">
        <ele>930</ele>
        <time>2022-06-29T15:14:12Z</time>
      </trkpt>
      <trkpt lat="45.39664" lon="3.9449">
        <ele>929</ele>
        <time>2022-06-29T15:14:17Z</time>
      </trkpt>
      <trkpt lat="45.39659" lon="3.94497">
        <ele>929</ele>
        <time>2022-06-29T15:14:22Z</time>
      </trkpt>
      <trkpt lat="45.39656" lon="3.94502">
        <ele>929</ele>
        <time>2022-06-29T15:14:26Z</time>
      </trkpt>
      <trkpt lat="45.39648" lon="3.94509">
        <ele>929</ele>
        <time>2022-06-29T15:14:31Z</time>
      </trkpt>
      <trkpt lat="45.39645" lon="3.94517">
        <ele>929</ele>
        <time>2022-06-29T15:14:36Z</time>
      </trkpt>
      <trkpt lat="45.39641" lon="3.94526">
        <ele>929</ele>
        <time>2022-06-29T15:14:41Z</time>
      </trkpt>
      <trkpt lat="45.39638" lon="3.94533">
        <ele>929</ele>
        <time>2022-06-29T15:14:45Z</time>
      </trkpt>
      <trkpt lat="45.39633" lon="3.94542">
        <ele>929</ele>
        <time>2022-06-29T15:14:50Z</time>
      </trkpt>
      <trkpt lat="45.39625" lon="3.94549">
        <ele>929</ele>
        <time>2022-06-29T15:14:55Z</time>
      </trkpt>
      <trkpt lat="45.39617" lon="3.94552">
        <ele>929</ele>
        <time>2022-06-29T15:15:00Z</time>
      </trkpt>
      <trkpt lat="45.39609" lon="3.94548">
        <ele>929</ele>
        <time>2022-06-29T15:15:05Z</time>
      </trkpt>
      <trkpt lat="45.39604" lon="3.94542">
        <ele>929</ele>
        <time>2022-06-29T15:15:10Z</time>
      </trkpt>
      <trkpt lat="45.39598" lon="3.94537">
        <ele>929</ele>
        <time>2022-06-29T15:15:14Z</time>
      </trkpt>
      <trkpt lat="45.39592" lon="3.94538">
        <ele>928</ele>
        <time>2022-06-29T15:15:19Z</time>
      </trkpt>
      <trkpt lat="45.39589" lon="3.94546">
        <ele>927</ele>
        <time>2022-06-29T15:15:24Z</time>
      </trkpt>
      <trkpt lat="45.39589" lon="3.94556">
        <ele>927</ele>
        <time>2022-06-29T15:15:28Z</time>
      </trkpt>
      <trkpt lat="45.39589" lon="3.94568">
        <ele>927</ele>
        <time>2022-06-29T15:15:33Z</time>
      </trkpt>
      <trkpt lat="45.39589" lon="3.94577">
        <ele>924</ele>
        <time>2022-06-29T15:15:37Z</time>
      </trkpt>
      <trkpt lat="45.39591" lon="3.94587">
        <ele>924</ele>
        <time>2022-06-29T15:15:42Z</time>
      </trkpt>
      <trkpt lat="45.39593" lon="3.94597">
        <ele>924</ele>
        <time>2022-06-29T15:15:46Z</time>
      </trkpt>
      <trkpt lat="45.39596" lon="3.94607">
        <ele>922</ele>
        <time>2022-06-29T15:15:51Z</time>
      </trkpt>
      <trkpt lat="45.39599" lon="3.94618">
        <ele>926</ele>
        <time>2022-06-29T15:15:55Z</time>
      </trkpt>
      <trkpt lat="45.39601" lon="3.94627">
        <ele>923</ele>
        <time>2022-06-29T15:15:59Z</time>
      </trkpt>
      <trkpt lat="45.39606" lon="3.94637">
        <ele>923</ele>
        <time>2022-06-29T15:16:04Z</time>
      </trkpt>
      <trkpt lat="45.3961" lon="3.94647">
        <ele>923</ele>
        <time>2022-06-29T15:16:09Z</time>
      </trkpt>
      <trkpt lat="45.39613" lon="3.94657">
        <ele>921</ele>
        <time>2022-06-29T15:16:14Z</time>
      </trkpt>
      <trkpt lat="45.39611" lon="3.94666">
        <ele>921</ele>
        <time>2022-06-29T15:16:18Z</time>
      </trkpt>
      <trkpt lat="45.39609" lon="3.94675">
        <ele>921</ele>
        <time>2022-06-29T15:16:23Z</time>
      </trkpt>
      <trkpt lat="45.39605" lon="3.94686">
        <ele>917</ele>
        <time>2022-06-29T15:16:28Z</time>
      </trkpt>
      <trkpt lat="45.396" lon="3.94698">
        <ele>917</ele>
        <time>2022-06-29T15:16:33Z</time>
      </trkpt>
      <trkpt lat="45.39597" lon="3.94706">
        <ele>917</ele>
        <time>2022-06-29T15:16:37Z</time>
      </trkpt>
      <trkpt lat="45.39591" lon="3.94712">
        <ele>916</ele>
        <time>2022-06-29T15:16:42Z</time>
      </trkpt>
      <trkpt lat="45.39586" lon="3.94721">
        <ele>916</ele>
        <time>2022-06-29T15:16:47Z</time>
      </trkpt>
      <trkpt lat="45.39579" lon="3.94729">
        <ele>916</ele>
        <time>2022-06-29T15:16:52Z</time>
      </trkpt>
      <trkpt lat="45.39573" lon="3.94738">
        <ele>915</ele>
        <time>2022-06-29T15:16:57Z</time>
      </trkpt>
      <trkpt lat="45.39568" lon="3.94747">
        <ele>915</ele>
        <time>2022-06-29T15:17:02Z</time>
      </trkpt>
      <trkpt lat="45.39563" lon="3.94753">
        <ele>915</ele>
        <time>2022-06-29T15:17:06Z</time>
      </trkpt>
      <trkpt lat="45.3956" lon="3.94761">
        <ele>915</ele>
        <time>2022-06-29T15:17:10Z</time>
      </trkpt>
      <trkpt lat="45.39555" lon="3.94772">
        <ele>914</ele>
        <time>2022-06-29T15:17:15Z</time>
      </trkpt>
      <trkpt lat="45.39552" lon="3.94782">
        <ele>914</ele>
        <time>2022-06-29T15:17:20Z</time>
      </trkpt>
      <trkpt lat="45.3955" lon="3.9479">
        <ele>914</ele>
        <time>2022-06-29T15:17:24Z</time>
      </trkpt>
      <trkpt lat="45.39548" lon="3.948">
        <ele>913</ele>
        <time>2022-06-29T15:17:29Z</time>
      </trkpt>
      <trkpt lat="45.39546" lon="3.9481">
        <ele>913</ele>
        <time>2022-06-29T15:17:34Z</time>
      </trkpt>
      <trkpt lat="45.39542" lon="3.9482">
        <ele>912</ele>
        <time>2022-06-29T15:17:39Z</time>
      </trkpt>
      <trkpt lat="45.3954" lon="3.94831">
        <ele>912</ele>
        <time>2022-06-29T15:17:44Z</time>
      </trkpt>
      <trkpt lat="45.39539" lon="3.94842">
        <ele>912</ele>
        <time>2022-06-29T15:17:49Z</time>
      </trkpt>
      <trkpt lat="45.39538" lon="3.94851">
        <ele>911</ele>
        <time>2022-06-29T15:17:53Z</time>
      </trkpt>
      <trkpt lat="45.39538" lon="3.94862">
        <ele>911</ele>
        <time>2022-06-29T15:17:58Z</time>
      </trkpt>
      <trkpt lat="45.39536" lon="3.94874">
        <ele>911</ele>
        <time>2022-06-29T15:18:03Z</time>
      </trkpt>
      <trkpt lat="45.39536" lon="3.94883">
        <ele>909</ele>
        <time>2022-06-29T15:18:08Z</time>
      </trkpt>
      <trkpt lat="45.39534" lon="3.94893">
        <ele>909</ele>
        <time>2022-06-29T15:18:13Z</time>
      </trkpt>
      <trkpt lat="45.39533" lon="3.94903">
        <ele>907</ele>
        <time>2022-06-29T15:18:17Z</time>
      </trkpt>
      <trkpt lat="45.39532" lon="3.94914">
        <ele>907</ele>
        <time>2022-06-29T15:18:22Z</time>
      </trkpt>
      <trkpt lat="45.39531" lon="3.94923">
        <ele>907</ele>
        <time>2022-06-29T15:18:27Z</time>
      </trkpt>
      <trkpt lat="45.39528" lon="3.94934">
        <ele>905</ele>
        <time>2022-06-29T15:18:32Z</time>
      </trkpt>
      <trkpt lat="45.39525" lon="3.94945">
        <ele>905</ele>
        <time>2022-06-29T15:18:37Z</time>
      </trkpt>
      <trkpt lat="45.39522" lon="3.94953">
        <ele>905</ele>
        <time>2022-06-29T15:18:41Z</time>
      </trkpt>
      <trkpt lat="45.39518" lon="3.94962">
        <ele>903</ele>
        <time>2022-06-29T15:18:46Z</time>
      </trkpt>
      <trkpt lat="45.39514" lon="3.94968">
        <ele>903</ele>
        <time>2022-06-29T15:18:50Z</time>
      </trkpt>
      <trkpt lat="45.39511" lon="3.94977">
        <ele>905</ele>
        <time>2022-06-29T15:18:55Z</time>
      </trkpt>
      <trkpt lat="45.39508" lon="3.9499">
        <ele>903</ele>
        <time>2022-06-29T15:19:00Z</time>
      </trkpt>
      <trkpt lat="45.39506" lon="3.94999">
        <ele>903</ele>
        <time>2022-06-29T15:19:04Z</time>
      </trkpt>
      <trkpt lat="45.39503" lon="3.95008">
        <ele>903</ele>
        <time>2022-06-29T15:19:09Z</time>
      </trkpt>
      <trkpt lat="45.395" lon="3.95015">
        <ele>902</ele>
        <time>2022-06-29T15:19:13Z</time>
      </trkpt>
      <trkpt lat="45.39497" lon="3.95026">
        <ele>902</ele>
        <time>2022-06-29T15:19:18Z</time>
      </trkpt>
      <trkpt lat="45.39495" lon="3.95034">
        <ele>902</ele>
        <time>2022-06-29T15:19:22Z</time>
      </trkpt>
      <trkpt lat="45.39494" lon="3.95045">
        <ele>902</ele>
        <time>2022-06-29T15:19:27Z</time>
      </trkpt>
      <trkpt lat="45.39495" lon="3.95055">
        <ele>902</ele>
        <time>2022-06-29T15:19:32Z</time>
      </trkpt>
      <trkpt lat="45.39494" lon="3.95062">
        <ele>902</ele>
        <time>2022-06-29T15:19:37Z</time>
      </trkpt>
      <trkpt lat="45.39489" lon="3.95068">
        <ele>902</ele>
        <time>2022-06-29T15:19:42Z</time>
      </trkpt>
      <trkpt lat="45.39483" lon="3.95069">
        <ele>902</ele>
        <time>2022-06-29T15:19:46Z</time>
      </trkpt>
      <trkpt lat="45.39477" lon="3.95075">
        <ele>903</ele>
        <time>2022-06-29T15:19:51Z</time>
      </trkpt>
      <trkpt lat="45.3947" lon="3.95083">
        <ele>903</ele>
        <time>2022-06-29T15:19:55Z</time>
      </trkpt>
      <trkpt lat="45.39464" lon="3.95093">
        <ele>903</ele>
        <time>2022-06-29T15:20:00Z</time>
      </trkpt>
      <trkpt lat="45.3946" lon="3.95104">
        <ele>903</ele>
        <time>2022-06-29T15:20:05Z</time>
      </trkpt>
      <trkpt lat="45.39457" lon="3.95113">
        <ele>901</ele>
        <time>2022-06-29T15:20:09Z</time>
      </trkpt>
      <trkpt lat="45.39456" lon="3.95114">
        <ele>901</ele>
        <time>2022-06-29T15:20:14Z</time>
      </trkpt>
      <trkpt lat="45.39455" lon="3.95116">
        <ele>901</ele>
        <time>2022-06-29T15:20:19Z</time>
      </trkpt>
      <trkpt lat="45.39455" lon="3.95118">
        <ele>901</ele>
        <time>2022-06-29T15:20:24Z</time>
      </trkpt>
      <trkpt lat="45.39451" lon="3.95124">
        <ele>901</ele>
        <time>2022-06-29T15:20:28Z</time>
      </trkpt>
      <trkpt lat="45.39447" lon="3.95131">
        <ele>900</ele>
        <time>2022-06-29T15:20:33Z</time>
      </trkpt>
      <trkpt lat="45.39442" lon="3.9514">
        <ele>900</ele>
        <time>2022-06-29T15:20:38Z</time>
      </trkpt>
      <trkpt lat="45.3944" lon="3.95145">
        <ele>900</ele>
        <time>2022-06-29T15:20:42Z</time>
      </trkpt>
      <trkpt lat="45.39435" lon="3.95148">
        <ele>900</ele>
        <time>2022-06-29T15:20:46Z</time>
      </trkpt>
      <trkpt lat="45.39431" lon="3.95156">
        <ele>899</ele>
        <time>2022-06-29T15:20:51Z</time>
      </trkpt>
      <trkpt lat="45.39426" lon="3.95166">
        <ele>899</ele>
        <time>2022-06-29T15:20:56Z</time>
      </trkpt>
      <trkpt lat="45.39421" lon="3.95173">
        <ele>899</ele>
        <time>2022-06-29T15:21:01Z</time>
      </trkpt>
      <trkpt lat="45.39417" lon="3.9518">
        <ele>899</ele>
        <time>2022-06-29T15:21:06Z</time>
      </trkpt>
      <trkpt lat="45.39413" lon="3.95191">
        <ele>900</ele>
        <time>2022-06-29T15:21:11Z</time>
      </trkpt>
      <trkpt lat="45.39411" lon="3.952">
        <ele>900</ele>
        <time>2022-06-29T15:21:16Z</time>
      </trkpt>
      <trkpt lat="45.39408" lon="3.95212">
        <ele>900</ele>
        <time>2022-06-29T15:21:20Z</time>
      </trkpt>
      <trkpt lat="45.39408" lon="3.95221">
        <ele>900</ele>
        <time>2022-06-29T15:21:25Z</time>
      </trkpt>
      <trkpt lat="45.39407" lon="3.95232">
        <ele>900</ele>
        <time>2022-06-29T15:21:30Z</time>
      </trkpt>
      <trkpt lat="45.39405" lon="3.95239">
        <ele>900</ele>
        <time>2022-06-29T15:21:34Z</time>
      </trkpt>
      <trkpt lat="45.39402" lon="3.9525">
        <ele>901</ele>
        <time>2022-06-29T15:21:38Z</time>
      </trkpt>
      <trkpt lat="45.39398" lon="3.95256">
        <ele>901</ele>
        <time>2022-06-29T15:21:43Z</time>
      </trkpt>
      <trkpt lat="45.39392" lon="3.95261">
        <ele>901</ele>
        <time>2022-06-29T15:21:48Z</time>
      </trkpt>
      <trkpt lat="45.39386" lon="3.95266">
        <ele>901</ele>
        <time>2022-06-29T15:21:53Z</time>
      </trkpt>
      <trkpt lat="45.39379" lon="3.95272">
        <ele>901</ele>
        <time>2022-06-29T15:21:58Z</time>
      </trkpt>
      <trkpt lat="45.39373" lon="3.95276">
        <ele>900</ele>
        <time>2022-06-29T15:22:02Z</time>
      </trkpt>
      <trkpt lat="45.39369" lon="3.95282">
        <ele>900</ele>
        <time>2022-06-29T15:22:06Z</time>
      </trkpt>
      <trkpt lat="45.39362" lon="3.95289">
        <ele>900</ele>
        <time>2022-06-29T15:22:11Z</time>
      </trkpt>
      <trkpt lat="45.39354" lon="3.95297">
        <ele>901</ele>
        <time>2022-06-29T15:22:16Z</time>
      </trkpt>
      <trkpt lat="45.3935" lon="3.95302">
        <ele>901</ele>
        <time>2022-06-29T15:22:20Z</time>
      </trkpt>
      <trkpt lat="45.39345" lon="3.95309">
        <ele>899</ele>
        <time>2022-06-29T15:22:25Z</time>
      </trkpt>
      <trkpt lat="45.39338" lon="3.9532">
        <ele>900</ele>
        <time>2022-06-29T15:22:30Z</time>
      </trkpt>
      <trkpt lat="45.39331" lon="3.95328">
        <ele>900</ele>
        <time>2022-06-29T15:22:35Z</time>
      </trkpt>
      <trkpt lat="45.39327" lon="3.95335">
        <ele>900</ele>
        <time>2022-06-29T15:22:39Z</time>
      </trkpt>
      <trkpt lat="45.39324" lon="3.95345">
        <ele>900</ele>
        <time>2022-06-29T15:22:44Z</time>
      </trkpt>
      <trkpt lat="45.39321" lon="3.95354">
        <ele>899</ele>
        <time>2022-06-29T15:22:48Z</time>
      </trkpt>
      <trkpt lat="45.39318" lon="3.95363">
        <ele>899</ele>
        <time>2022-06-29T15:22:52Z</time>
      </trkpt>
      <trkpt lat="45.39317" lon="3.9537">
        <ele>899</ele>
        <time>2022-06-29T15:22:56Z</time>
      </trkpt>
      <trkpt lat="45.39314" lon="3.95379">
        <ele>897</ele>
        <time>2022-06-29T15:23:01Z</time>
      </trkpt>
      <trkpt lat="45.39312" lon="3.95386">
        <ele>897</ele>
        <time>2022-06-29T15:23:05Z</time>
      </trkpt>
      <trkpt lat="45.39307" lon="3.95394">
        <ele>897</ele>
        <time>2022-06-29T15:23:10Z</time>
      </trkpt>
      <trkpt lat="45.39304" lon="3.95402">
        <ele>897</ele>
        <time>2022-06-29T15:23:15Z</time>
      </trkpt>
      <trkpt lat="45.39301" lon="3.95412">
        <ele>897</ele>
        <time>2022-06-29T15:23:20Z</time>
      </trkpt>
      <trkpt lat="45.39296" lon="3.95419">
        <ele>897</ele>
        <time>2022-06-29T15:23:25Z</time>
      </trkpt>
      <trkpt lat="45.39289" lon="3.95424">
        <ele>895</ele>
        <time>2022-06-29T15:23:30Z</time>
      </trkpt>
      <trkpt lat="45.39282" lon="3.95421">
        <ele>895</ele>
        <time>2022-06-29T15:23:34Z</time>
      </trkpt>
      <trkpt lat="45.39276" lon="3.9541">
        <ele>895</ele>
        <time>2022-06-29T15:23:39Z</time>
      </trkpt>
      <trkpt lat="45.39274" lon="3.95397">
        <ele>896</ele>
        <time>2022-06-29T15:23:43Z</time>
      </trkpt>
      <trkpt lat="45.39275" lon="3.95387">
        <ele>896</ele>
        <time>2022-06-29T15:23:47Z</time>
      </trkpt>
      <trkpt lat="45.39272" lon="3.95377">
        <ele>896</ele>
        <time>2022-06-29T15:23:52Z</time>
      </trkpt>
      <trkpt lat="45.39266" lon="3.95367">
        <ele>895</ele>
        <time>2022-06-29T15:23:56Z</time>
      </trkpt>
      <trkpt lat="45.39264" lon="3.9536">
        <ele>895</ele>
        <time>2022-06-29T15:24:00Z</time>
      </trkpt>
      <trkpt lat="45.39261" lon="3.9535">
        <ele>892</ele>
        <time>2022-06-29T15:24:05Z</time>
      </trkpt>
      <trkpt lat="45.39257" lon="3.9534">
        <ele>892</ele>
        <time>2022-06-29T15:24:10Z</time>
      </trkpt>
      <trkpt lat="45.39254" lon="3.9533">
        <ele>892</ele>
        <time>2022-06-29T15:24:15Z</time>
      </trkpt>
      <trkpt lat="45.3925" lon="3.95321">
        <ele>892</ele>
        <time>2022-06-29T15:24:19Z</time>
      </trkpt>
      <trkpt lat="45.39246" lon="3.95311">
        <ele>892</ele>
        <time>2022-06-29T15:24:24Z</time>
      </trkpt>
      <trkpt lat="45.39241" lon="3.95305">
        <ele>892</ele>
        <time>2022-06-29T15:24:29Z</time>
      </trkpt>
      <trkpt lat="45.39238" lon="3.95302">
        <ele>892</ele>
        <time>2022-06-29T15:24:34Z</time>
      </trkpt>
      <trkpt lat="45.39235" lon="3.95295">
        <ele>892</ele>
        <time>2022-06-29T15:24:39Z</time>
      </trkpt>
      <trkpt lat="45.39235" lon="3.95296">
        <ele>892</ele>
        <time>2022-06-29T15:24:53Z</time>
      </trkpt>
      <trkpt lat="45.39231" lon="3.95298">
        <ele>892</ele>
        <time>2022-06-29T15:24:58Z</time>
      </trkpt>
      <trkpt lat="45.39226" lon="3.95303">
        <ele>892</ele>
        <time>2022-06-29T15:25:03Z</time>
      </trkpt>
      <trkpt lat="45.39221" lon="3.95305">
        <ele>892</ele>
        <time>2022-06-29T15:25:07Z</time>
      </trkpt>
      <trkpt lat="45.39217" lon="3.95297">
        <ele>892</ele>
        <time>2022-06-29T15:25:12Z</time>
      </trkpt>
      <trkpt lat="45.39215" lon="3.95286">
        <ele>891</ele>
        <time>2022-06-29T15:25:16Z</time>
      </trkpt>
      <trkpt lat="45.39211" lon="3.95273">
        <ele>891</ele>
        <time>2022-06-29T15:25:21Z</time>
      </trkpt>
      <trkpt lat="45.39209" lon="3.95264">
        <ele>891</ele>
        <time>2022-06-29T15:25:26Z</time>
      </trkpt>
      <trkpt lat="45.39204" lon="3.95253">
        <ele>890</ele>
        <time>2022-06-29T15:25:31Z</time>
      </trkpt>
      <trkpt lat="45.392" lon="3.95246">
        <ele>890</ele>
        <time>2022-06-29T15:25:35Z</time>
      </trkpt>
      <trkpt lat="45.39196" lon="3.95234">
        <ele>891</ele>
        <time>2022-06-29T15:25:40Z</time>
      </trkpt>
      <trkpt lat="45.39192" lon="3.95222">
        <ele>891</ele>
        <time>2022-06-29T15:25:45Z</time>
      </trkpt>
      <trkpt lat="45.39189" lon="3.95211">
        <ele>891</ele>
        <time>2022-06-29T15:25:50Z</time>
      </trkpt>
      <trkpt lat="45.39187" lon="3.95204">
        <ele>892</ele>
        <time>2022-06-29T15:25:55Z</time>
      </trkpt>
      <trkpt lat="45.39183" lon="3.95192">
        <ele>892</ele>
        <time>2022-06-29T15:26:00Z</time>
      </trkpt>
      <trkpt lat="45.39181" lon="3.95181">
        <ele>895</ele>
        <time>2022-06-29T15:26:05Z</time>
      </trkpt>
      <trkpt lat="45.39178" lon="3.95171">
        <ele>896</ele>
        <time>2022-06-29T15:26:10Z</time>
      </trkpt>
      <trkpt lat="45.39177" lon="3.95162">
        <ele>896</ele>
        <time>2022-06-29T15:26:14Z</time>
      </trkpt>
      <trkpt lat="45.39174" lon="3.95154">
        <ele>896</ele>
        <time>2022-06-29T15:26:19Z</time>
      </trkpt>
      <trkpt lat="45.3917" lon="3.95144">
        <ele>897</ele>
        <time>2022-06-29T15:26:23Z</time>
      </trkpt>
      <trkpt lat="45.39168" lon="3.9513">
        <ele>897</ele>
        <time>2022-06-29T15:26:28Z</time>
      </trkpt>
      <trkpt lat="45.39164" lon="3.9512">
        <ele>897</ele>
        <time>2022-06-29T15:26:32Z</time>
      </trkpt>
      <trkpt lat="45.39157" lon="3.95111">
        <ele>897</ele>
        <time>2022-06-29T15:26:37Z</time>
      </trkpt>
      <trkpt lat="45.39151" lon="3.95106">
        <ele>894</ele>
        <time>2022-06-29T15:26:41Z</time>
      </trkpt>
      <trkpt lat="45.39144" lon="3.95103">
        <ele>894</ele>
        <time>2022-06-29T15:26:46Z</time>
      </trkpt>
      <trkpt lat="45.39139" lon="3.95097">
        <ele>893</ele>
        <time>2022-06-29T15:26:51Z</time>
      </trkpt>
      <trkpt lat="45.39132" lon="3.95089">
        <ele>893</ele>
        <time>2022-06-29T15:26:56Z</time>
      </trkpt>
      <trkpt lat="45.39125" lon="3.95083">
        <ele>893</ele>
        <time>2022-06-29T15:27:01Z</time>
      </trkpt>
      <trkpt lat="45.39118" lon="3.95079">
        <ele>892</ele>
        <time>2022-06-29T15:27:06Z</time>
      </trkpt>
      <trkpt lat="45.3911" lon="3.95079">
        <ele>892</ele>
        <time>2022-06-29T15:27:10Z</time>
      </trkpt>
      <trkpt lat="45.39101" lon="3.9508">
        <ele>892</ele>
        <time>2022-06-29T15:27:15Z</time>
      </trkpt>
      <trkpt lat="45.39097" lon="3.95082">
        <ele>891</ele>
        <time>2022-06-29T15:27:19Z</time>
      </trkpt>
      <trkpt lat="45.39093" lon="3.95091">
        <ele>891</ele>
        <time>2022-06-29T15:27:24Z</time>
      </trkpt>
      <trkpt lat="45.3909" lon="3.95095">
        <ele>891</ele>
        <time>2022-06-29T15:27:28Z</time>
      </trkpt>
      <trkpt lat="45.39083" lon="3.95099">
        <ele>891</ele>
        <time>2022-06-29T15:27:32Z</time>
      </trkpt>
      <trkpt lat="45.39078" lon="3.95104">
        <ele>891</ele>
        <time>2022-06-29T15:27:36Z</time>
      </trkpt>
      <trkpt lat="45.39072" lon="3.95111">
        <ele>891</ele>
        <time>2022-06-29T15:27:41Z</time>
      </trkpt>
      <trkpt lat="45.39066" lon="3.95118">
        <ele>889</ele>
        <time>2022-06-29T15:27:46Z</time>
      </trkpt>
      <trkpt lat="45.39062" lon="3.95124">
        <ele>889</ele>
        <time>2022-06-29T15:27:50Z</time>
      </trkpt>
      <trkpt lat="45.39056" lon="3.9513">
        <ele>888</ele>
        <time>2022-06-29T15:27:55Z</time>
      </trkpt>
      <trkpt lat="45.3905" lon="3.95136">
        <ele>888</ele>
        <time>2022-06-29T15:28:00Z</time>
      </trkpt>
      <trkpt lat="45.39043" lon="3.95144">
        <ele>888</ele>
        <time>2022-06-29T15:28:05Z</time>
      </trkpt>
      <trkpt lat="45.39036" lon="3.95151">
        <ele>889</ele>
        <time>2022-06-29T15:28:10Z</time>
      </trkpt>
      <trkpt lat="45.39028" lon="3.95156">
        <ele>889</ele>
        <time>2022-06-29T15:28:15Z</time>
      </trkpt>
      <trkpt lat="45.39021" lon="3.95161">
        <ele>889</ele>
        <time>2022-06-29T15:28:20Z</time>
      </trkpt>
      <trkpt lat="45.39013" lon="3.95163">
        <ele>892</ele>
        <time>2022-06-29T15:28:25Z</time>
      </trkpt>
      <trkpt lat="45.39007" lon="3.95164">
        <ele>892</ele>
        <time>2022-06-29T15:28:29Z</time>
      </trkpt>
      <trkpt lat="45.38999" lon="3.95167">
        <ele>892</ele>
        <time>2022-06-29T15:28:34Z</time>
      </trkpt>
      <trkpt lat="45.3899" lon="3.95167">
        <ele>892</ele>
        <time>2022-06-29T15:28:39Z</time>
      </trkpt>
    </trkseg>
  </trk>
</gpx>